<?xml version='1.0' encoding='UTF-8'?><gpx version="1.1" creator="JPX - https://github.com/jenetics/jpx" xmlns="http://www.topografix.com/GPX/1/1"><trk><trkseg><trkpt lat="45.38421301974912" lon="7.70926294070911"><ele>350.0</ele><time>2026-04-26T12:33:04.582Z</time></trkpt><trkpt lat="45.384490882983556" lon="7.708863236672925"><ele>350.0</ele><time>2026-04-26T12:33:10.138Z</time></trkpt><trkpt lat="45.38455620457932" lon="7.708802660275892"><ele>350.0</ele><time>2026-04-26T12:33:12.138Z</time></trkpt><trkpt lat="45.38464157265338" lon="7.708725394446989"><ele>350.0</ele><time>2026-04-26T12:33:14.138Z</time></trkpt><trkpt lat="45.384702830202734" lon="7.708678566327673"><ele>350.0</ele><time>2026-04-26T12:33:15.138Z</time></trkpt><trkpt lat="45.384793776063205" lon="7.7086498719509065"><ele>350.0</ele><time>2026-04-26T12:33:17.011Z</time></trkpt><trkpt lat="45.38480499115528" lon="7.708533509595522"><ele>350.0</ele><time>2026-04-26T12:33:19.01Z</time></trkpt><trkpt lat="45.38479186868768" lon="7.70835989426422"><ele>349.8</ele><time>2026-04-26T12:33:21.009Z</time></trkpt><trkpt lat="45.38476450338568" lon="7.708227187007023"><ele>349.6</ele><time>2026-04-26T12:33:22.008Z</time></trkpt><trkpt lat="45.38471035147042" lon="7.70813427487645"><ele>349.4</ele><time>2026-04-26T12:33:23.008Z</time></trkpt><trkpt lat="45.38464652395736" lon="7.708054395880814"><ele>349.2</ele><time>2026-04-26T12:33:24.007Z</time></trkpt><trkpt lat="45.38457356985888" lon="7.7079814476712665"><ele>349.0</ele><time>2026-04-26T12:33:25.006Z</time></trkpt><trkpt lat="45.384488013778686" lon="7.707911384604369"><ele>348.4</ele><time>2026-04-26T12:33:26.006Z</time></trkpt><trkpt lat="45.384421180334556" lon="7.70783959791161"><ele>347.79999999999995</ele><time>2026-04-26T12:33:27.006Z</time></trkpt><trkpt lat="45.38435447038007" lon="7.707769226465894"><ele>347.20000000000005</ele><time>2026-04-26T12:33:28.005Z</time></trkpt><trkpt lat="45.384286399940954" lon="7.707696049507159"><ele>346.6</ele><time>2026-04-26T12:33:29.005Z</time></trkpt><trkpt lat="45.38421179740586" lon="7.707615633273332"><ele>346.0</ele><time>2026-04-26T12:33:30.004Z</time></trkpt><trkpt lat="45.3841227916375" lon="7.707534573070988"><ele>346.0</ele><time>2026-04-26T12:33:31.004Z</time></trkpt><trkpt lat="45.384015543817945" lon="7.707449717749318"><ele>346.0</ele><time>2026-04-26T12:33:32.004Z</time></trkpt><trkpt lat="45.38391906408656" lon="7.7073685909294065"><ele>346.0</ele><time>2026-04-26T12:33:33.003Z</time></trkpt><trkpt lat="45.38382716297779" lon="7.7072923864108445"><ele>346.0</ele><time>2026-04-26T12:33:34.003Z</time></trkpt><trkpt lat="45.38375043159654" lon="7.7072203073791465"><ele>346.0</ele><time>2026-04-26T12:33:35.003Z</time></trkpt><trkpt lat="45.38367818435493" lon="7.707162641043029"><ele>346.16666666666663</ele><time>2026-04-26T12:33:36.003Z</time></trkpt><trkpt lat="45.38361304825914" lon="7.70712408527807"><ele>346.3333333333333</ele><time>2026-04-26T12:33:37.002Z</time></trkpt><trkpt lat="45.383537886453915" lon="7.707070473110907"><ele>346.5</ele><time>2026-04-26T12:33:38.002Z</time></trkpt><trkpt lat="45.38346494738351" lon="7.7070017211162565"><ele>346.6666666666667</ele><time>2026-04-26T12:33:39.002Z</time></trkpt><trkpt lat="45.3833746489976" lon="7.706921259286674"><ele>346.83333333333337</ele><time>2026-04-26T12:33:40.002Z</time></trkpt><trkpt lat="45.38330429874769" lon="7.7068613762960485"><ele>347.0</ele><time>2026-04-26T12:33:41.002Z</time></trkpt><trkpt lat="45.38323351775222" lon="7.706799523503928"><ele>347.0</ele><time>2026-04-26T12:33:42.001Z</time></trkpt><trkpt lat="45.383167689107154" lon="7.706750484468172"><ele>347.0</ele><time>2026-04-26T12:33:43.001Z</time></trkpt><trkpt lat="45.38309534675872" lon="7.706700397164148"><ele>347.0</ele><time>2026-04-26T12:33:44.001Z</time></trkpt><trkpt lat="45.38303319645246" lon="7.7066667970422404"><ele>347.0</ele><time>2026-04-26T12:33:45.001Z</time></trkpt><trkpt lat="45.382943524502586" lon="7.706607027072674"><ele>347.0</ele><time>2026-04-26T12:33:47.001Z</time></trkpt><trkpt lat="45.3829609095967" lon="7.7064744962529454"><ele>347.0</ele><time>2026-04-26T12:33:49Z</time></trkpt><trkpt lat="45.38298674094602" lon="7.706385778000218"><ele>347.0</ele><time>2026-04-26T12:33:51Z</time></trkpt><trkpt lat="45.38306491846845" lon="7.706288768885696"><ele>347.0</ele><time>2026-04-26T12:33:53Z</time></trkpt><trkpt lat="45.38314407374484" lon="7.706242109636084"><ele>347.0</ele><time>2026-04-26T12:33:54Z</time></trkpt><trkpt lat="45.383216510401525" lon="7.706205192571851"><ele>347.0</ele><time>2026-04-26T12:33:55Z</time></trkpt><trkpt lat="45.38329715663461" lon="7.70614995350443"><ele>347.0</ele><time>2026-04-26T12:33:56Z</time></trkpt><trkpt lat="45.38338914539917" lon="7.706086429879395"><ele>347.25</ele><time>2026-04-26T12:33:57Z</time></trkpt><trkpt lat="45.383495656858805" lon="7.706012957986657"><ele>347.5</ele><time>2026-04-26T12:33:58Z</time></trkpt><trkpt lat="45.38360005676843" lon="7.7059439930911084"><ele>347.75</ele><time>2026-04-26T12:33:59Z</time></trkpt><trkpt lat="45.38370634634812" lon="7.705874678682789"><ele>348.0</ele><time>2026-04-26T12:34:00Z</time></trkpt><trkpt lat="45.383820648761784" lon="7.705799608109891"><ele>348.0</ele><time>2026-04-26T12:34:00.999Z</time></trkpt><trkpt lat="45.383942004830175" lon="7.705719936733582"><ele>348.0</ele><time>2026-04-26T12:34:01.999Z</time></trkpt><trkpt lat="45.38406917680658" lon="7.705635275044656"><ele>348.0</ele><time>2026-04-26T12:34:02.999Z</time></trkpt><trkpt lat="45.38420191000896" lon="7.705544214038777"><ele>348.0</ele><time>2026-04-26T12:34:03.999Z</time></trkpt><trkpt lat="45.38433063249864" lon="7.705454405253171"><ele>348.0</ele><time>2026-04-26T12:34:04.999Z</time></trkpt><trkpt lat="45.38446097350551" lon="7.70536278945421"><ele>348.0</ele><time>2026-04-26T12:34:05.999Z</time></trkpt><trkpt lat="45.38459917191913" lon="7.705271315986556"><ele>348.0</ele><time>2026-04-26T12:34:06.999Z</time></trkpt><trkpt lat="45.3847406782655" lon="7.705176176018714"><ele>348.0</ele><time>2026-04-26T12:34:07.999Z</time></trkpt><trkpt lat="45.38488098806312" lon="7.705075510269151"><ele>348.0</ele><time>2026-04-26T12:34:08.999Z</time></trkpt><trkpt lat="45.38502319295808" lon="7.704973994918932"><ele>348.0</ele><time>2026-04-26T12:34:09.999Z</time></trkpt><trkpt lat="45.38516209396048" lon="7.704884246643874"><ele>348.0</ele><time>2026-04-26T12:34:10.999Z</time></trkpt><trkpt lat="45.38529828602936" lon="7.704806499818469"><ele>348.0</ele><time>2026-04-26T12:34:11.999Z</time></trkpt><trkpt lat="45.3854362274512" lon="7.704742833329976"><ele>348.0</ele><time>2026-04-26T12:34:12.999Z</time></trkpt><trkpt lat="45.38557749341605" lon="7.704703000094199"><ele>348.0</ele><time>2026-04-26T12:34:13.999Z</time></trkpt><trkpt lat="45.38572368645602" lon="7.704679292788058"><ele>348.0</ele><time>2026-04-26T12:34:14.999Z</time></trkpt><trkpt lat="45.38586951113515" lon="7.704668015529228"><ele>348.0</ele><time>2026-04-26T12:34:15.999Z</time></trkpt><trkpt lat="45.386018017478065" lon="7.704683342978797"><ele>348.0</ele><time>2026-04-26T12:34:16.999Z</time></trkpt><trkpt lat="45.38616734403856" lon="7.704713326552437"><ele>348.0</ele><time>2026-04-26T12:34:17.999Z</time></trkpt><trkpt lat="45.38631274750421" lon="7.704760187581455"><ele>348.25</ele><time>2026-04-26T12:34:18.999Z</time></trkpt><trkpt lat="45.38645196727398" lon="7.7048244604131515"><ele>348.5</ele><time>2026-04-26T12:34:19.999Z</time></trkpt><trkpt lat="45.386584742124256" lon="7.704904547436913"><ele>348.75</ele><time>2026-04-26T12:34:20.999Z</time></trkpt><trkpt lat="45.386712462393" lon="7.704997042560893"><ele>349.0</ele><time>2026-04-26T12:34:21.998Z</time></trkpt><trkpt lat="45.38683465625611" lon="7.705095867367286"><ele>349.0</ele><time>2026-04-26T12:34:22.998Z</time></trkpt><trkpt lat="45.38695020756765" lon="7.70520822384359"><ele>349.0</ele><time>2026-04-26T12:34:23.998Z</time></trkpt><trkpt lat="45.387055611831" lon="7.705332873174661"><ele>349.0</ele><time>2026-04-26T12:34:24.998Z</time></trkpt><trkpt lat="45.38715644401965" lon="7.705472414498985"><ele>349.0</ele><time>2026-04-26T12:34:25.998Z</time></trkpt><trkpt lat="45.38726187237385" lon="7.705612499010544"><ele>349.3333333333333</ele><time>2026-04-26T12:34:26.998Z</time></trkpt><trkpt lat="45.38736346069596" lon="7.705764834548491"><ele>349.6666666666667</ele><time>2026-04-26T12:34:27.998Z</time></trkpt><trkpt lat="45.387468044626964" lon="7.705920951383403"><ele>350.0</ele><time>2026-04-26T12:34:28.998Z</time></trkpt><trkpt lat="45.387572227964306" lon="7.706076796842737"><ele>350.0</ele><time>2026-04-26T12:34:29.998Z</time></trkpt><trkpt lat="45.387680509335866" lon="7.7062318116861155"><ele>350.0</ele><time>2026-04-26T12:34:30.998Z</time></trkpt><trkpt lat="45.38779045272121" lon="7.7063936064481116"><ele>350.0</ele><time>2026-04-26T12:34:31.998Z</time></trkpt><trkpt lat="45.38790577457126" lon="7.7065574669489765"><ele>350.0</ele><time>2026-04-26T12:34:32.998Z</time></trkpt><trkpt lat="45.38801537821739" lon="7.706721177611045"><ele>350.0</ele><time>2026-04-26T12:34:33.998Z</time></trkpt><trkpt lat="45.38812676276401" lon="7.706882096756435"><ele>350.0</ele><time>2026-04-26T12:34:34.998Z</time></trkpt><trkpt lat="45.388231029214666" lon="7.707033465501283"><ele>350.25</ele><time>2026-04-26T12:34:35.998Z</time></trkpt><trkpt lat="45.388322529302584" lon="7.707171328081457"><ele>350.5</ele><time>2026-04-26T12:34:36.998Z</time></trkpt><trkpt lat="45.388408730356474" lon="7.707298174127855"><ele>350.75</ele><time>2026-04-26T12:34:37.998Z</time></trkpt><trkpt lat="45.388498627601855" lon="7.707438036810553"><ele>351.0</ele><time>2026-04-26T12:34:38.998Z</time></trkpt><trkpt lat="45.388595081114275" lon="7.707582375261587"><ele>351.0</ele><time>2026-04-26T12:34:39.998Z</time></trkpt><trkpt lat="45.388694117816414" lon="7.707725603191138"><ele>351.0</ele><time>2026-04-26T12:34:40.998Z</time></trkpt><trkpt lat="45.38879221626338" lon="7.707867526499807"><ele>351.0</ele><time>2026-04-26T12:34:41.998Z</time></trkpt><trkpt lat="45.38889422713043" lon="7.708017107235569"><ele>351.0</ele><time>2026-04-26T12:34:42.998Z</time></trkpt><trkpt lat="45.389002212238466" lon="7.708173900218766"><ele>352.25</ele><time>2026-04-26T12:34:43.998Z</time></trkpt><trkpt lat="45.38911120562633" lon="7.708330328265744"><ele>353.5</ele><time>2026-04-26T12:34:44.998Z</time></trkpt><trkpt lat="45.38921863491917" lon="7.708479012079528"><ele>354.75</ele><time>2026-04-26T12:34:45.998Z</time></trkpt><trkpt lat="45.389314315012854" lon="7.708612329574953"><ele>356.0</ele><time>2026-04-26T12:34:46.998Z</time></trkpt><trkpt lat="45.38939990256391" lon="7.708739156286055"><ele>356.4</ele><time>2026-04-26T12:34:47.998Z</time></trkpt><trkpt lat="45.38947626629798" lon="7.708853644806311"><ele>356.8</ele><time>2026-04-26T12:34:48.998Z</time></trkpt><trkpt lat="45.389546250891286" lon="7.708948736419375"><ele>357.2</ele><time>2026-04-26T12:34:49.998Z</time></trkpt><trkpt lat="45.389600549106355" lon="7.709048947160341"><ele>357.59999999999997</ele><time>2026-04-26T12:34:50.998Z</time></trkpt><trkpt lat="45.38961620941605" lon="7.709153898179548"><ele>358.0</ele><time>2026-04-26T12:34:51.998Z</time></trkpt><trkpt lat="45.38958458635688" lon="7.709270501598282"><ele>358.0</ele><time>2026-04-26T12:34:52.998Z</time></trkpt><trkpt lat="45.38952830693763" lon="7.709372276767467"><ele>358.0</ele><time>2026-04-26T12:34:53.998Z</time></trkpt><trkpt lat="45.389424901569434" lon="7.709393616306767"><ele>358.0</ele><time>2026-04-26T12:34:54.998Z</time></trkpt><trkpt lat="45.38932761542253" lon="7.709480084579272"><ele>358.0</ele><time>2026-04-26T12:34:55.998Z</time></trkpt><trkpt lat="45.38920592030932" lon="7.70954408412061"><ele>358.0</ele><time>2026-04-26T12:34:56.998Z</time></trkpt><trkpt lat="45.389079106436476" lon="7.709629074011725"><ele>362.3333333333333</ele><time>2026-04-26T12:34:57.998Z</time></trkpt><trkpt lat="45.38893873909166" lon="7.709733473166973"><ele>366.6666666666667</ele><time>2026-04-26T12:34:58.998Z</time></trkpt><trkpt lat="45.388802090822686" lon="7.709828470260872"><ele>371.0</ele><time>2026-04-26T12:34:59.998Z</time></trkpt><trkpt lat="45.38866921319262" lon="7.70991582920334"><ele>371.0</ele><time>2026-04-26T12:35:00.997Z</time></trkpt><trkpt lat="45.38852412684642" lon="7.7099601646209415"><ele>371.0</ele><time>2026-04-26T12:35:01.997Z</time></trkpt><trkpt lat="45.38838285896991" lon="7.70999239518503"><ele>371.0</ele><time>2026-04-26T12:35:02.997Z</time></trkpt><trkpt lat="45.38825722113043" lon="7.710019148079671"><ele>371.0</ele><time>2026-04-26T12:35:03.997Z</time></trkpt><trkpt lat="45.38814486716702" lon="7.71001742320203"><ele>371.0</ele><time>2026-04-26T12:35:04.997Z</time></trkpt><trkpt lat="45.38804024275951" lon="7.710004945693312"><ele>371.0</ele><time>2026-04-26T12:35:05.997Z</time></trkpt><trkpt lat="45.387952827448075" lon="7.7099827903843225"><ele>371.0</ele><time>2026-04-26T12:35:06.997Z</time></trkpt><trkpt lat="45.387842584521636" lon="7.710041806744489"><ele>371.0</ele><time>2026-04-26T12:35:08.997Z</time></trkpt><trkpt lat="45.387830265203064" lon="7.710130534267619"><ele>371.0</ele><time>2026-04-26T12:35:09.997Z</time></trkpt><trkpt lat="45.387864391798914" lon="7.710221613287441"><ele>371.0</ele><time>2026-04-26T12:35:10.997Z</time></trkpt><trkpt lat="45.387933829953134" lon="7.710280582307356"><ele>375.6</ele><time>2026-04-26T12:35:11.997Z</time></trkpt><trkpt lat="45.38801792078126" lon="7.710301936953156"><ele>380.20000000000005</ele><time>2026-04-26T12:35:12.997Z</time></trkpt><trkpt lat="45.38812007084209" lon="7.710299361882341"><ele>384.79999999999995</ele><time>2026-04-26T12:35:13.997Z</time></trkpt><trkpt lat="45.38822559032552" lon="7.710317525059272"><ele>389.4</ele><time>2026-04-26T12:35:14.997Z</time></trkpt><trkpt lat="45.38834379861863" lon="7.710350758319674"><ele>394.0</ele><time>2026-04-26T12:35:15.997Z</time></trkpt><trkpt lat="45.388489884316556" lon="7.710378817146088"><ele>394.0</ele><time>2026-04-26T12:35:16.997Z</time></trkpt><trkpt lat="45.38866043125593" lon="7.7104145500496415"><ele>394.0</ele><time>2026-04-26T12:35:17.997Z</time></trkpt><trkpt lat="45.38883504738267" lon="7.710457602862909"><ele>394.0</ele><time>2026-04-26T12:35:18.998Z</time></trkpt><trkpt lat="45.388997125742314" lon="7.71049682298653"><ele>394.0</ele><time>2026-04-26T12:35:19.998Z</time></trkpt><trkpt lat="45.389150360499066" lon="7.710531087860468"><ele>394.0</ele><time>2026-04-26T12:35:20.998Z</time></trkpt><trkpt lat="45.38929752039652" lon="7.71056194093722"><ele>394.0</ele><time>2026-04-26T12:35:21.998Z</time></trkpt><trkpt lat="45.38942943405293" lon="7.710559356318427"><ele>394.0</ele><time>2026-04-26T12:35:22.998Z</time></trkpt><trkpt lat="45.38956412552301" lon="7.710504376058785"><ele>394.79999999999995</ele><time>2026-04-26T12:35:23.998Z</time></trkpt><trkpt lat="45.38968312601548" lon="7.710431308269301"><ele>395.59999999999997</ele><time>2026-04-26T12:35:24.998Z</time></trkpt><trkpt lat="45.389775405563974" lon="7.710371554133518"><ele>396.4</ele><time>2026-04-26T12:35:25.998Z</time></trkpt><trkpt lat="45.38986266042822" lon="7.710343488561495"><ele>397.2</ele><time>2026-04-26T12:35:26.998Z</time></trkpt><trkpt lat="45.389937434528534" lon="7.710364995707037"><ele>398.0</ele><time>2026-04-26T12:35:27.998Z</time></trkpt><trkpt lat="45.3899972221011" lon="7.710445943437275"><ele>398.0</ele><time>2026-04-26T12:35:28.999Z</time></trkpt><trkpt lat="45.39005004121215" lon="7.710548620688805"><ele>398.0</ele><time>2026-04-26T12:35:29.999Z</time></trkpt><trkpt lat="45.390091085616696" lon="7.710690899772919"><ele>398.0</ele><time>2026-04-26T12:35:30.999Z</time></trkpt><trkpt lat="45.39010392566533" lon="7.710865280345817"><ele>398.0</ele><time>2026-04-26T12:35:31.999Z</time></trkpt><trkpt lat="45.39009361011811" lon="7.711048567879906"><ele>399.25</ele><time>2026-04-26T12:35:32.999Z</time></trkpt><trkpt lat="45.3900922010285" lon="7.711249236874448"><ele>400.5</ele><time>2026-04-26T12:35:33.999Z</time></trkpt><trkpt lat="45.39009553910748" lon="7.711436678886537"><ele>401.75</ele><time>2026-04-26T12:35:34.999Z</time></trkpt><trkpt lat="45.390104474476566" lon="7.711582510903955"><ele>403.0</ele><time>2026-04-26T12:35:35.999Z</time></trkpt><trkpt lat="45.390119757954764" lon="7.711703816248464"><ele>403.0</ele><time>2026-04-26T12:35:36.999Z</time></trkpt><trkpt lat="45.390172128561574" lon="7.711802243162915"><ele>403.0</ele><time>2026-04-26T12:35:37.999Z</time></trkpt><trkpt lat="45.3902610311164" lon="7.71189274717553"><ele>403.0</ele><time>2026-04-26T12:35:38.999Z</time></trkpt><trkpt lat="45.39037030620197" lon="7.711970807861067"><ele>403.0</ele><time>2026-04-26T12:35:39.999Z</time></trkpt><trkpt lat="45.390485621010654" lon="7.712050627221774"><ele>403.0</ele><time>2026-04-26T12:35:40.999Z</time></trkpt><trkpt lat="45.39060148191314" lon="7.71215926335222"><ele>404.0</ele><time>2026-04-26T12:35:41.999Z</time></trkpt><trkpt lat="45.39069945466675" lon="7.712266793562277"><ele>405.0</ele><time>2026-04-26T12:35:42.999Z</time></trkpt><trkpt lat="45.39079014180293" lon="7.712361488567741"><ele>406.0</ele><time>2026-04-26T12:35:43.999Z</time></trkpt><trkpt lat="45.39087442130876" lon="7.71244319379927"><ele>407.0</ele><time>2026-04-26T12:35:44.999Z</time></trkpt><trkpt lat="45.390957639835456" lon="7.7125183246505635"><ele>408.0</ele><time>2026-04-26T12:35:45.999Z</time></trkpt><trkpt lat="45.39104344037908" lon="7.712586794065361"><ele>408.0</ele><time>2026-04-26T12:35:46.999Z</time></trkpt><trkpt lat="45.39113119123736" lon="7.712652913011061"><ele>408.0</ele><time>2026-04-26T12:35:47.999Z</time></trkpt><trkpt lat="45.39122841004449" lon="7.712700766112056"><ele>408.0</ele><time>2026-04-26T12:35:48.999Z</time></trkpt><trkpt lat="45.39134455378573" lon="7.712714400437083"><ele>408.0</ele><time>2026-04-26T12:35:49.999Z</time></trkpt><trkpt lat="45.39146789347512" lon="7.712702902317159"><ele>408.0</ele><time>2026-04-26T12:35:50.999Z</time></trkpt><trkpt lat="45.391598277705846" lon="7.712675409597103"><ele>408.5</ele><time>2026-04-26T12:35:51.999Z</time></trkpt><trkpt lat="45.39171866008196" lon="7.712645759268234"><ele>409.0</ele><time>2026-04-26T12:35:52.999Z</time></trkpt><trkpt lat="45.39183960853157" lon="7.712612852744197"><ele>409.5</ele><time>2026-04-26T12:35:53.999Z</time></trkpt><trkpt lat="45.391981961088675" lon="7.712577572227665"><ele>410.0</ele><time>2026-04-26T12:35:54.999Z</time></trkpt><trkpt lat="45.392136025414686" lon="7.712541655907639"><ele>411.0</ele><time>2026-04-26T12:35:55.999Z</time></trkpt><trkpt lat="45.392280611397986" lon="7.712510354456189"><ele>412.0</ele><time>2026-04-26T12:35:56.999Z</time></trkpt><trkpt lat="45.39242623416322" lon="7.71246875661337"><ele>413.0</ele><time>2026-04-26T12:35:57.999Z</time></trkpt><trkpt lat="45.39257484835972" lon="7.712392891800212"><ele>413.0</ele><time>2026-04-26T12:35:58.999Z</time></trkpt><trkpt lat="45.39271720444785" lon="7.712287362385627"><ele>413.0</ele><time>2026-04-26T12:35:59.999Z</time></trkpt><trkpt lat="45.392865106664075" lon="7.712182978776671"><ele>413.0</ele><time>2026-04-26T12:36:00.999Z</time></trkpt><trkpt lat="45.39301687108111" lon="7.712084836192278"><ele>413.5</ele><time>2026-04-26T12:36:01.999Z</time></trkpt><trkpt lat="45.393163411783554" lon="7.711994799783793"><ele>414.0</ele><time>2026-04-26T12:36:02.999Z</time></trkpt><trkpt lat="45.39328516665423" lon="7.7119069984795345"><ele>414.5</ele><time>2026-04-26T12:36:03.999Z</time></trkpt><trkpt lat="45.39339255351536" lon="7.711795229768908"><ele>415.0</ele><time>2026-04-26T12:36:04.999Z</time></trkpt><trkpt lat="45.393501687278835" lon="7.711682431910611"><ele>415.33333333333337</ele><time>2026-04-26T12:36:05.999Z</time></trkpt><trkpt lat="45.39360253048135" lon="7.711518125444547"><ele>415.66666666666663</ele><time>2026-04-26T12:36:06.999Z</time></trkpt><trkpt lat="45.39369156042402" lon="7.711348795405818"><ele>416.0</ele><time>2026-04-26T12:36:07.999Z</time></trkpt><trkpt lat="45.393773618106486" lon="7.711169055610184"><ele>415.3333333333333</ele><time>2026-04-26T12:36:08.999Z</time></trkpt><trkpt lat="45.393850600103825" lon="7.710972332331258"><ele>414.66666666666663</ele><time>2026-04-26T12:36:09.999Z</time></trkpt><trkpt lat="45.39392481757621" lon="7.7107666275662465"><ele>414.0</ele><time>2026-04-26T12:36:10.999Z</time></trkpt><trkpt lat="45.39397775570915" lon="7.710547157534871"><ele>414.0</ele><time>2026-04-26T12:36:11.999Z</time></trkpt><trkpt lat="45.39403801932743" lon="7.7103480850403985"><ele>414.0</ele><time>2026-04-26T12:36:12.999Z</time></trkpt><trkpt lat="45.39409499451753" lon="7.71014284172388"><ele>414.0</ele><time>2026-04-26T12:36:13.999Z</time></trkpt><trkpt lat="45.394155125329476" lon="7.709931541997824"><ele>415.0</ele><time>2026-04-26T12:36:14.999Z</time></trkpt><trkpt lat="45.394218083998275" lon="7.709718458834848"><ele>416.0</ele><time>2026-04-26T12:36:15.999Z</time></trkpt><trkpt lat="45.39428304733729" lon="7.709497978826601"><ele>417.0</ele><time>2026-04-26T12:36:16.999Z</time></trkpt><trkpt lat="45.39435136760597" lon="7.709273899230654"><ele>418.33333333333337</ele><time>2026-04-26T12:36:17.999Z</time></trkpt><trkpt lat="45.39443405358799" lon="7.709061923794546"><ele>419.6666666666667</ele><time>2026-04-26T12:36:18.999Z</time></trkpt><trkpt lat="45.394504538198845" lon="7.708836209083367"><ele>421.0</ele><time>2026-04-26T12:36:19.999Z</time></trkpt><trkpt lat="45.39457540159564" lon="7.708609696067943"><ele>421.33333333333337</ele><time>2026-04-26T12:36:20.999Z</time></trkpt><trkpt lat="45.39462983157762" lon="7.7083823023492855"><ele>421.66666666666663</ele><time>2026-04-26T12:36:21.999Z</time></trkpt><trkpt lat="45.39469203026142" lon="7.708172338029559"><ele>422.0</ele><time>2026-04-26T12:36:22.999Z</time></trkpt><trkpt lat="45.3947542714742" lon="7.707969754108406"><ele>421.3333333333333</ele><time>2026-04-26T12:36:23.999Z</time></trkpt><trkpt lat="45.39481775200656" lon="7.707776546997013"><ele>420.66666666666663</ele><time>2026-04-26T12:36:24.999Z</time></trkpt><trkpt lat="45.39487716930791" lon="7.707581677194741"><ele>420.0</ele><time>2026-04-26T12:36:25.998Z</time></trkpt><trkpt lat="45.39493588621058" lon="7.707373329216355"><ele>420.0</ele><time>2026-04-26T12:36:26.998Z</time></trkpt><trkpt lat="45.39501526577996" lon="7.707170127164442"><ele>420.0</ele><time>2026-04-26T12:36:27.998Z</time></trkpt><trkpt lat="45.395080867591794" lon="7.706956773098677"><ele>420.0</ele><time>2026-04-26T12:36:28.998Z</time></trkpt><trkpt lat="45.39514679188428" lon="7.706751410397561"><ele>420.0</ele><time>2026-04-26T12:36:29.998Z</time></trkpt><trkpt lat="45.395198485149834" lon="7.706548017292668"><ele>420.0</ele><time>2026-04-26T12:36:30.998Z</time></trkpt><trkpt lat="45.39526901372618" lon="7.706367371940096"><ele>420.0</ele><time>2026-04-26T12:36:31.998Z</time></trkpt><trkpt lat="45.39534592179937" lon="7.706199339588812"><ele>420.0</ele><time>2026-04-26T12:36:32.998Z</time></trkpt><trkpt lat="45.39543784076316" lon="7.706057368597418"><ele>420.5</ele><time>2026-04-26T12:36:33.998Z</time></trkpt><trkpt lat="45.39552243303922" lon="7.705919962553693"><ele>421.0</ele><time>2026-04-26T12:36:34.998Z</time></trkpt><trkpt lat="45.39561897931529" lon="7.705797995504676"><ele>421.5</ele><time>2026-04-26T12:36:35.998Z</time></trkpt><trkpt lat="45.39572558896243" lon="7.705675375629047"><ele>422.0</ele><time>2026-04-26T12:36:36.998Z</time></trkpt><trkpt lat="45.39583764930873" lon="7.70556584972118"><ele>422.0</ele><time>2026-04-26T12:36:37.998Z</time></trkpt><trkpt lat="45.39595603277235" lon="7.705451993481379"><ele>422.0</ele><time>2026-04-26T12:36:38.998Z</time></trkpt><trkpt lat="45.39607435859974" lon="7.705345818075971"><ele>422.0</ele><time>2026-04-26T12:36:39.998Z</time></trkpt><trkpt lat="45.3961828257684" lon="7.7052321211167145"><ele>422.0</ele><time>2026-04-26T12:36:40.998Z</time></trkpt><trkpt lat="45.396299907119435" lon="7.705155343567498"><ele>422.5</ele><time>2026-04-26T12:36:41.998Z</time></trkpt><trkpt lat="45.39641328330002" lon="7.705065239908949"><ele>423.0</ele><time>2026-04-26T12:36:42.998Z</time></trkpt><trkpt lat="45.39653153586576" lon="7.70496691788243"><ele>423.5</ele><time>2026-04-26T12:36:43.998Z</time></trkpt><trkpt lat="45.396639390121386" lon="7.704881036169005"><ele>424.0</ele><time>2026-04-26T12:36:44.998Z</time></trkpt><trkpt lat="45.396738825780865" lon="7.704780418369432"><ele>424.0</ele><time>2026-04-26T12:36:45.998Z</time></trkpt><trkpt lat="45.396818444135775" lon="7.704636903926788"><ele>424.0</ele><time>2026-04-26T12:36:46.998Z</time></trkpt><trkpt lat="45.39689125654682" lon="7.704464111598499"><ele>424.0</ele><time>2026-04-26T12:36:47.998Z</time></trkpt><trkpt lat="45.396965908830424" lon="7.704270785406492"><ele>424.0</ele><time>2026-04-26T12:36:48.998Z</time></trkpt><trkpt lat="45.39704803286992" lon="7.704070572989972"><ele>424.6666666666667</ele><time>2026-04-26T12:36:49.998Z</time></trkpt><trkpt lat="45.39713681539804" lon="7.703866089646577"><ele>425.33333333333337</ele><time>2026-04-26T12:36:50.998Z</time></trkpt><trkpt lat="45.39724908334187" lon="7.703671445575226"><ele>426.0</ele><time>2026-04-26T12:36:51.998Z</time></trkpt><trkpt lat="45.39735372044129" lon="7.703457454047997"><ele>427.33333333333337</ele><time>2026-04-26T12:36:52.998Z</time></trkpt><trkpt lat="45.397470456299835" lon="7.703278599451582"><ele>428.6666666666667</ele><time>2026-04-26T12:36:53.998Z</time></trkpt><trkpt lat="45.39756587914593" lon="7.7031112461437194"><ele>430.0</ele><time>2026-04-26T12:36:54.998Z</time></trkpt><trkpt lat="45.39766666812278" lon="7.70298684247344"><ele>430.0</ele><time>2026-04-26T12:36:55.998Z</time></trkpt><trkpt lat="45.39774584949226" lon="7.702886317527097"><ele>430.0</ele><time>2026-04-26T12:36:56.998Z</time></trkpt><trkpt lat="45.3978355177755" lon="7.7027940926611445"><ele>430.0</ele><time>2026-04-26T12:36:57.998Z</time></trkpt><trkpt lat="45.39794481227851" lon="7.7027237997363756"><ele>430.0</ele><time>2026-04-26T12:36:58.998Z</time></trkpt><trkpt lat="45.39807905823789" lon="7.702698110353229"><ele>431.0</ele><time>2026-04-26T12:36:59.998Z</time></trkpt><trkpt lat="45.398225339594184" lon="7.702668085623715"><ele>432.0</ele><time>2026-04-26T12:37:00.998Z</time></trkpt><trkpt lat="45.39837179029574" lon="7.702601816483353"><ele>433.0</ele><time>2026-04-26T12:37:01.998Z</time></trkpt><trkpt lat="45.398514529754245" lon="7.702492887404547"><ele>433.0</ele><time>2026-04-26T12:37:02.998Z</time></trkpt><trkpt lat="45.39865809359704" lon="7.702351524958749"><ele>433.0</ele><time>2026-04-26T12:37:03.998Z</time></trkpt><trkpt lat="45.398794373149876" lon="7.7021973833219555"><ele>433.0</ele><time>2026-04-26T12:37:04.998Z</time></trkpt><trkpt lat="45.398942074371114" lon="7.70208820616344"><ele>433.33333333333337</ele><time>2026-04-26T12:37:05.998Z</time></trkpt><trkpt lat="45.39907380330067" lon="7.701938459466362"><ele>433.66666666666663</ele><time>2026-04-26T12:37:06.998Z</time></trkpt><trkpt lat="45.39922238997405" lon="7.701806459512152"><ele>434.0</ele><time>2026-04-26T12:37:07.998Z</time></trkpt><trkpt lat="45.399375327215765" lon="7.701675865688827"><ele>434.0</ele><time>2026-04-26T12:37:08.998Z</time></trkpt><trkpt lat="45.39951792601046" lon="7.701533764335155"><ele>434.0</ele><time>2026-04-26T12:37:09.998Z</time></trkpt><trkpt lat="45.39966958987559" lon="7.701386203519629"><ele>434.0</ele><time>2026-04-26T12:37:10.998Z</time></trkpt><trkpt lat="45.39982438181406" lon="7.701244954166848"><ele>436.0</ele><time>2026-04-26T12:37:11.998Z</time></trkpt><trkpt lat="45.39996598043017" lon="7.701080883819664"><ele>438.0</ele><time>2026-04-26T12:37:12.998Z</time></trkpt><trkpt lat="45.40009179668195" lon="7.700893317403923"><ele>440.0</ele><time>2026-04-26T12:37:13.998Z</time></trkpt><trkpt lat="45.40020149043881" lon="7.700688719200252"><ele>440.0</ele><time>2026-04-26T12:37:14.998Z</time></trkpt><trkpt lat="45.40030281716374" lon="7.700476330655618"><ele>440.0</ele><time>2026-04-26T12:37:15.998Z</time></trkpt><trkpt lat="45.4004008483042" lon="7.7002652719537314"><ele>440.0</ele><time>2026-04-26T12:37:16.998Z</time></trkpt><trkpt lat="45.400500510946664" lon="7.70005314322098"><ele>440.0</ele><time>2026-04-26T12:37:17.998Z</time></trkpt><trkpt lat="45.40060430547359" lon="7.699844533294739"><ele>440.0</ele><time>2026-04-26T12:37:18.998Z</time></trkpt><trkpt lat="45.400709112781165" lon="7.699627287139071"><ele>440.0</ele><time>2026-04-26T12:37:19.998Z</time></trkpt><trkpt lat="45.400812170810575" lon="7.699411072083239"><ele>441.66666666666663</ele><time>2026-04-26T12:37:20.997Z</time></trkpt><trkpt lat="45.40091977029483" lon="7.6992007309370365"><ele>443.33333333333337</ele><time>2026-04-26T12:37:21.997Z</time></trkpt><trkpt lat="45.401026533599854" lon="7.699011294124054"><ele>445.0</ele><time>2026-04-26T12:37:22.997Z</time></trkpt><trkpt lat="45.40112277753512" lon="7.698834083090255"><ele>445.0</ele><time>2026-04-26T12:37:23.997Z</time></trkpt><trkpt lat="45.40120905203349" lon="7.698661640795218"><ele>445.0</ele><time>2026-04-26T12:37:24.999Z</time></trkpt><trkpt lat="45.401277534712094" lon="7.69847826763473"><ele>445.0</ele><time>2026-04-26T12:37:25.999Z</time></trkpt><trkpt lat="45.40132843359649" lon="7.698267285285311"><ele>444.6666666666667</ele><time>2026-04-26T12:37:26.999Z</time></trkpt><trkpt lat="45.40135434682709" lon="7.698035343976027"><ele>444.33333333333337</ele><time>2026-04-26T12:37:27.999Z</time></trkpt><trkpt lat="45.40138756182849" lon="7.697808580097706"><ele>444.0</ele><time>2026-04-26T12:37:28.999Z</time></trkpt><trkpt lat="45.4014204398252" lon="7.697576567286123"><ele>444.0</ele><time>2026-04-26T12:37:29.999Z</time></trkpt><trkpt lat="45.40148095592901" lon="7.69735851789302"><ele>444.0</ele><time>2026-04-26T12:37:30.999Z</time></trkpt><trkpt lat="45.401582666959406" lon="7.697147163722105"><ele>444.0</ele><time>2026-04-26T12:37:31.999Z</time></trkpt><trkpt lat="45.401704497146255" lon="7.696921892853176"><ele>444.66666666666663</ele><time>2026-04-26T12:37:32.999Z</time></trkpt><trkpt lat="45.4018238657173" lon="7.6966866363682325"><ele>445.3333333333333</ele><time>2026-04-26T12:37:33.999Z</time></trkpt><trkpt lat="45.401932161655196" lon="7.696472418555573"><ele>446.0</ele><time>2026-04-26T12:37:34.999Z</time></trkpt><trkpt lat="45.40201904056961" lon="7.696262957893621"><ele>446.75</ele><time>2026-04-26T12:37:35.999Z</time></trkpt><trkpt lat="45.40210414443078" lon="7.696067267954993"><ele>447.5</ele><time>2026-04-26T12:37:36.999Z</time></trkpt><trkpt lat="45.40220422866112" lon="7.695917898905995"><ele>448.25</ele><time>2026-04-26T12:37:37.999Z</time></trkpt><trkpt lat="45.40228068569568" lon="7.695783442140943"><ele>449.0</ele><time>2026-04-26T12:37:38.999Z</time></trkpt><trkpt lat="45.402397743865954" lon="7.695716600470842"><ele>449.3333333333333</ele><time>2026-04-26T12:37:39.999Z</time></trkpt><trkpt lat="45.402536781745006" lon="7.6956974782002785"><ele>449.66666666666663</ele><time>2026-04-26T12:37:40.999Z</time></trkpt><trkpt lat="45.40268636064105" lon="7.695705943266268"><ele>450.0</ele><time>2026-04-26T12:37:41.999Z</time></trkpt><trkpt lat="45.402851349296775" lon="7.695722962538731"><ele>450.66666666666663</ele><time>2026-04-26T12:37:42.999Z</time></trkpt><trkpt lat="45.4030220238627" lon="7.695720740537805"><ele>451.3333333333333</ele><time>2026-04-26T12:37:43.999Z</time></trkpt><trkpt lat="45.403202853971706" lon="7.695715781794982"><ele>452.0</ele><time>2026-04-26T12:37:44.999Z</time></trkpt><trkpt lat="45.403388126487435" lon="7.695711257287617"><ele>452.0</ele><time>2026-04-26T12:37:45.999Z</time></trkpt><trkpt lat="45.40357689514461" lon="7.695709936278974"><ele>452.0</ele><time>2026-04-26T12:37:46.999Z</time></trkpt><trkpt lat="45.40374987583148" lon="7.695712847009873"><ele>452.0</ele><time>2026-04-26T12:37:47.999Z</time></trkpt><trkpt lat="45.403909240684285" lon="7.695719156532984"><ele>451.66666666666663</ele><time>2026-04-26T12:37:48.999Z</time></trkpt><trkpt lat="45.40405677022676" lon="7.6957099004644"><ele>451.33333333333337</ele><time>2026-04-26T12:37:49.999Z</time></trkpt><trkpt lat="45.40421305655743" lon="7.695661469062276"><ele>451.0</ele><time>2026-04-26T12:37:50.999Z</time></trkpt><trkpt lat="45.404358539618094" lon="7.695560601574189"><ele>451.0</ele><time>2026-04-26T12:37:51.999Z</time></trkpt><trkpt lat="45.404507912675484" lon="7.695430477782301"><ele>451.0</ele><time>2026-04-26T12:37:52.999Z</time></trkpt><trkpt lat="45.404678010261286" lon="7.695332975010109"><ele>451.0</ele><time>2026-04-26T12:37:53.999Z</time></trkpt><trkpt lat="45.404852753574616" lon="7.695217957087841"><ele>452.33333333333337</ele><time>2026-04-26T12:37:54.999Z</time></trkpt><trkpt lat="45.40503134923963" lon="7.695088242603365"><ele>453.66666666666663</ele><time>2026-04-26T12:37:55.999Z</time></trkpt><trkpt lat="45.405215809772905" lon="7.694965819090747"><ele>455.0</ele><time>2026-04-26T12:37:56.999Z</time></trkpt><trkpt lat="45.405401280708055" lon="7.694839453589877"><ele>456.66666666666663</ele><time>2026-04-26T12:37:57.999Z</time></trkpt><trkpt lat="45.40558761009447" lon="7.694706131850276"><ele>458.33333333333337</ele><time>2026-04-26T12:37:58.999Z</time></trkpt><trkpt lat="45.405776434976936" lon="7.694577284437556"><ele>460.0</ele><time>2026-04-26T12:37:59.999Z</time></trkpt><trkpt lat="45.40596156640926" lon="7.6944530944852305"><ele>459.33333333333337</ele><time>2026-04-26T12:38:00.999Z</time></trkpt><trkpt lat="45.406139193246204" lon="7.694345105883761"><ele>458.66666666666663</ele><time>2026-04-26T12:38:01.999Z</time></trkpt><trkpt lat="45.40630745374199" lon="7.694256754311239"><ele>458.0</ele><time>2026-04-26T12:38:02.999Z</time></trkpt><trkpt lat="45.406472947065666" lon="7.694196240063522"><ele>460.3333333333333</ele><time>2026-04-26T12:38:03.999Z</time></trkpt><trkpt lat="45.40663850313345" lon="7.694141696730322"><ele>462.66666666666663</ele><time>2026-04-26T12:38:04.999Z</time></trkpt><trkpt lat="45.40680652395433" lon="7.694078341395505"><ele>465.0</ele><time>2026-04-26T12:38:05.999Z</time></trkpt><trkpt lat="45.406979737018446" lon="7.694012754732307"><ele>465.0</ele><time>2026-04-26T12:38:06.999Z</time></trkpt><trkpt lat="45.40716052546121" lon="7.693952947815677"><ele>465.0</ele><time>2026-04-26T12:38:07.999Z</time></trkpt><trkpt lat="45.40734315395295" lon="7.6939025570545585"><ele>465.0</ele><time>2026-04-26T12:38:08.999Z</time></trkpt><trkpt lat="45.40752997333081" lon="7.69385168606951"><ele>467.66666666666663</ele><time>2026-04-26T12:38:09.999Z</time></trkpt><trkpt lat="45.40772052206277" lon="7.6937965644683945"><ele>470.3333333333333</ele><time>2026-04-26T12:38:10.999Z</time></trkpt><trkpt lat="45.40791229917098" lon="7.693741509212861"><ele>473.0</ele><time>2026-04-26T12:38:11.999Z</time></trkpt><trkpt lat="45.408107054629674" lon="7.693688152117904"><ele>475.0</ele><time>2026-04-26T12:38:12.999Z</time></trkpt><trkpt lat="45.40830281078971" lon="7.693638150663444"><ele>477.0</ele><time>2026-04-26T12:38:13.999Z</time></trkpt><trkpt lat="45.408503841004546" lon="7.6935836033913505"><ele>479.0</ele><time>2026-04-26T12:38:14.999Z</time></trkpt><trkpt lat="45.40869959923501" lon="7.693529645923982"><ele>481.0</ele><time>2026-04-26T12:38:15.999Z</time></trkpt><trkpt lat="45.408875777471074" lon="7.693476957288211"><ele>483.0</ele><time>2026-04-26T12:38:16.999Z</time></trkpt><trkpt lat="45.409038859006166" lon="7.693434753514168"><ele>485.0</ele><time>2026-04-26T12:38:17.999Z</time></trkpt><trkpt lat="45.409190350817475" lon="7.6933990325476"><ele>485.0</ele><time>2026-04-26T12:38:18.999Z</time></trkpt><trkpt lat="45.409324071031456" lon="7.693361013634971"><ele>485.0</ele><time>2026-04-26T12:38:19.999Z</time></trkpt><trkpt lat="45.40944776141123" lon="7.693298471433219"><ele>485.0</ele><time>2026-04-26T12:38:20.999Z</time></trkpt><trkpt lat="45.409550644006885" lon="7.693215840403972"><ele>485.0</ele><time>2026-04-26T12:38:21.999Z</time></trkpt><trkpt lat="45.409628400602315" lon="7.693105895325869"><ele>486.25</ele><time>2026-04-26T12:38:22.999Z</time></trkpt><trkpt lat="45.40968652531104" lon="7.692978237068678"><ele>487.5</ele><time>2026-04-26T12:38:23.999Z</time></trkpt><trkpt lat="45.409736161237376" lon="7.692836266984267"><ele>488.75</ele><time>2026-04-26T12:38:24.999Z</time></trkpt><trkpt lat="45.4098204037452" lon="7.692718852554518"><ele>490.0</ele><time>2026-04-26T12:38:25.999Z</time></trkpt><trkpt lat="45.409939590624376" lon="7.692651670174948"><ele>490.0</ele><time>2026-04-26T12:38:26.999Z</time></trkpt><trkpt lat="45.410078256777645" lon="7.692650468942033"><ele>490.0</ele><time>2026-04-26T12:38:27.999Z</time></trkpt><trkpt lat="45.4102156432387" lon="7.69266738164909"><ele>490.0</ele><time>2026-04-26T12:38:28.999Z</time></trkpt><trkpt lat="45.4103332409612" lon="7.692655743249068"><ele>490.0</ele><time>2026-04-26T12:38:29.999Z</time></trkpt><trkpt lat="45.410431247432456" lon="7.692593915276015"><ele>490.0</ele><time>2026-04-26T12:38:30.999Z</time></trkpt><trkpt lat="45.41050552030993" lon="7.692495127715187"><ele>490.0</ele><time>2026-04-26T12:38:31.999Z</time></trkpt><trkpt lat="45.41055271626822" lon="7.692370907202854"><ele>490.0</ele><time>2026-04-26T12:38:32.999Z</time></trkpt><trkpt lat="45.41055724948186" lon="7.692240718334653"><ele>490.0</ele><time>2026-04-26T12:38:33.999Z</time></trkpt><trkpt lat="45.410518737676604" lon="7.692109677739474"><ele>490.0</ele><time>2026-04-26T12:38:34.999Z</time></trkpt><trkpt lat="45.41045171644513" lon="7.691989407410235"><ele>491.0</ele><time>2026-04-26T12:38:35.999Z</time></trkpt><trkpt lat="45.4103821452625" lon="7.691868506238197"><ele>492.0</ele><time>2026-04-26T12:38:36.999Z</time></trkpt><trkpt lat="45.410326481923974" lon="7.69173270845845"><ele>493.0</ele><time>2026-04-26T12:38:37.999Z</time></trkpt><trkpt lat="45.41031129134079" lon="7.691594983819274"><ele>494.0</ele><time>2026-04-26T12:38:38.999Z</time></trkpt><trkpt lat="45.410337625591325" lon="7.691470244669451"><ele>495.0</ele><time>2026-04-26T12:38:39.999Z</time></trkpt><trkpt lat="45.410399376623936" lon="7.691375331968836"><ele>495.0</ele><time>2026-04-26T12:38:40.999Z</time></trkpt><trkpt lat="45.41049199745096" lon="7.6913154123144025"><ele>495.0</ele><time>2026-04-26T12:38:41.999Z</time></trkpt><trkpt lat="45.41059945347101" lon="7.691275825960924"><ele>495.0</ele><time>2026-04-26T12:38:42.999Z</time></trkpt><trkpt lat="45.41070712653159" lon="7.691229630464636"><ele>495.0</ele><time>2026-04-26T12:38:43.999Z</time></trkpt><trkpt lat="45.41081977717062" lon="7.691162449561385"><ele>495.0</ele><time>2026-04-26T12:38:44.999Z</time></trkpt><trkpt lat="45.41094555451205" lon="7.691091570135072"><ele>494.33333333333337</ele><time>2026-04-26T12:38:45.999Z</time></trkpt><trkpt lat="45.41108242237195" lon="7.691031452488424"><ele>493.6666666666667</ele><time>2026-04-26T12:38:46.999Z</time></trkpt><trkpt lat="45.411230254972224" lon="7.690981662626698"><ele>493.0</ele><time>2026-04-26T12:38:47.998Z</time></trkpt><trkpt lat="45.41139336349419" lon="7.6909284305472365"><ele>496.6666666666667</ele><time>2026-04-26T12:38:48.998Z</time></trkpt><trkpt lat="45.41155809582497" lon="7.690863415510103"><ele>500.33333333333337</ele><time>2026-04-26T12:38:49.998Z</time></trkpt><trkpt lat="45.41172547495169" lon="7.690795406997958"><ele>504.0</ele><time>2026-04-26T12:38:50.998Z</time></trkpt><trkpt lat="45.411876071582924" lon="7.6907329156763256"><ele>504.0</ele><time>2026-04-26T12:38:51.998Z</time></trkpt><trkpt lat="45.41200847222284" lon="7.690665561336003"><ele>504.0</ele><time>2026-04-26T12:38:52.998Z</time></trkpt><trkpt lat="45.41211715169227" lon="7.690576971646514"><ele>504.0</ele><time>2026-04-26T12:38:53.998Z</time></trkpt><trkpt lat="45.41220303609993" lon="7.6904840879202965"><ele>504.0</ele><time>2026-04-26T12:38:54.998Z</time></trkpt><trkpt lat="45.412269943910914" lon="7.6903743401097575"><ele>509.25</ele><time>2026-04-26T12:38:55.998Z</time></trkpt><trkpt lat="45.41231448872709" lon="7.690242190571691"><ele>514.5</ele><time>2026-04-26T12:38:56.998Z</time></trkpt><trkpt lat="45.41232311827982" lon="7.690087410496202"><ele>519.75</ele><time>2026-04-26T12:38:57.998Z</time></trkpt><trkpt lat="45.41229629314549" lon="7.689916314475303"><ele>525.0</ele><time>2026-04-26T12:38:58.998Z</time></trkpt><trkpt lat="45.4122526876401" lon="7.689748741891151"><ele>525.0</ele><time>2026-04-26T12:38:59.998Z</time></trkpt><trkpt lat="45.41222008957487" lon="7.689596876600252"><ele>525.0</ele><time>2026-04-26T12:39:00.998Z</time></trkpt><trkpt lat="45.41223009591023" lon="7.689462715854966"><ele>525.0</ele><time>2026-04-26T12:39:01.998Z</time></trkpt><trkpt lat="45.41228385246462" lon="7.689349549906299"><ele>525.0</ele><time>2026-04-26T12:39:02.998Z</time></trkpt><trkpt lat="45.412375752455084" lon="7.6892630220880696"><ele>525.0</ele><time>2026-04-26T12:39:03.998Z</time></trkpt><trkpt lat="45.41247682050654" lon="7.689203939769556"><ele>524.25</ele><time>2026-04-26T12:39:04.998Z</time></trkpt><trkpt lat="45.41257516649248" lon="7.689164621178632"><ele>523.5</ele><time>2026-04-26T12:39:05.998Z</time></trkpt><trkpt lat="45.41269229087985" lon="7.68910075619584"><ele>522.75</ele><time>2026-04-26T12:39:06.998Z</time></trkpt><trkpt lat="45.41281446069231" lon="7.689031179955639"><ele>522.0</ele><time>2026-04-26T12:39:07.998Z</time></trkpt><trkpt lat="45.41293191125241" lon="7.688967149077179"><ele>528.5</ele><time>2026-04-26T12:39:08.998Z</time></trkpt><trkpt lat="45.413047414294354" lon="7.6888936456722545"><ele>535.0</ele><time>2026-04-26T12:39:09.998Z</time></trkpt><trkpt lat="45.41313354417625" lon="7.688802835214754"><ele>541.5</ele><time>2026-04-26T12:39:10.998Z</time></trkpt><trkpt lat="45.41318041500339" lon="7.688668996352985"><ele>548.0</ele><time>2026-04-26T12:39:11.998Z</time></trkpt><trkpt lat="45.41318400081957" lon="7.688496393698366"><ele>548.0</ele><time>2026-04-26T12:39:12.998Z</time></trkpt><trkpt lat="45.41314494059062" lon="7.6883095135581705"><ele>548.0</ele><time>2026-04-26T12:39:13.998Z</time></trkpt><trkpt lat="45.4130476216245" lon="7.688129641835105"><ele>548.0</ele><time>2026-04-26T12:39:14.998Z</time></trkpt><trkpt lat="45.41292947681127" lon="7.6879669027987205"><ele>547.0</ele><time>2026-04-26T12:39:15.998Z</time></trkpt><trkpt lat="45.41284641948835" lon="7.687783121825658"><ele>546.0</ele><time>2026-04-26T12:39:16.998Z</time></trkpt><trkpt lat="45.41276292400976" lon="7.687616940245958"><ele>545.0</ele><time>2026-04-26T12:39:17.998Z</time></trkpt><trkpt lat="45.41267473373636" lon="7.687472387707895"><ele>544.0</ele><time>2026-04-26T12:39:18.998Z</time></trkpt><trkpt lat="45.41256723329682" lon="7.687387222356121"><ele>544.0</ele><time>2026-04-26T12:39:19.998Z</time></trkpt><trkpt lat="45.412432254952655" lon="7.687356887690613"><ele>544.0</ele><time>2026-04-26T12:39:20.998Z</time></trkpt><trkpt lat="45.41229129854662" lon="7.687395678800507"><ele>544.0</ele><time>2026-04-26T12:39:21.998Z</time></trkpt><trkpt lat="45.4121784036118" lon="7.687455005545233"><ele>544.0</ele><time>2026-04-26T12:39:22.998Z</time></trkpt><trkpt lat="45.41209889779049" lon="7.6875210548457416"><ele>543.75</ele><time>2026-04-26T12:39:23.998Z</time></trkpt><trkpt lat="45.41199306049324" lon="7.68748446624813"><ele>543.5</ele><time>2026-04-26T12:39:24.998Z</time></trkpt><trkpt lat="45.411883166440646" lon="7.687396954206803"><ele>543.25</ele><time>2026-04-26T12:39:25.998Z</time></trkpt><trkpt lat="45.41177689027479" lon="7.687272844151165"><ele>543.0</ele><time>2026-04-26T12:39:26.998Z</time></trkpt><trkpt lat="45.4116765848318" lon="7.68713052647497"><ele>543.0</ele><time>2026-04-26T12:39:27.998Z</time></trkpt><trkpt lat="45.41162129062467" lon="7.68696987845507"><ele>543.0</ele><time>2026-04-26T12:39:28.998Z</time></trkpt><trkpt lat="45.41162251771134" lon="7.68680626347912"><ele>543.0</ele><time>2026-04-26T12:39:29.998Z</time></trkpt><trkpt lat="45.411649937751825" lon="7.686648595604988"><ele>543.0</ele><time>2026-04-26T12:39:31Z</time></trkpt><trkpt lat="45.41171833794953" lon="7.68649131571378"><ele>545.0</ele><time>2026-04-26T12:39:32Z</time></trkpt><trkpt lat="45.41185206788597" lon="7.686357175824894"><ele>547.0</ele><time>2026-04-26T12:39:33Z</time></trkpt><trkpt lat="45.411997553149234" lon="7.686241982910052"><ele>549.0</ele><time>2026-04-26T12:39:34Z</time></trkpt><trkpt lat="45.41214562487148" lon="7.686119429731651"><ele>553.3333333333334</ele><time>2026-04-26T12:39:35Z</time></trkpt><trkpt lat="45.412288441995365" lon="7.685957962328433"><ele>557.6666666666667</ele><time>2026-04-26T12:39:36Z</time></trkpt><trkpt lat="45.412409002788216" lon="7.68582495290686"><ele>562.0</ele><time>2026-04-26T12:39:37Z</time></trkpt><trkpt lat="45.41252444514452" lon="7.685706394505365"><ele>562.0</ele><time>2026-04-26T12:39:38Z</time></trkpt><trkpt lat="45.41263074406805" lon="7.685610610543489"><ele>562.0</ele><time>2026-04-26T12:39:39Z</time></trkpt><trkpt lat="45.41271673145408" lon="7.685525253953548"><ele>562.0</ele><time>2026-04-26T12:39:40Z</time></trkpt><trkpt lat="45.4127979745958" lon="7.685446031313342"><ele>562.0</ele><time>2026-04-26T12:39:41Z</time></trkpt><trkpt lat="45.412879803853485" lon="7.685392619096422"><ele>562.0</ele><time>2026-04-26T12:39:42Z</time></trkpt><trkpt lat="45.41298229774673" lon="7.685369326156536"><ele>562.25</ele><time>2026-04-26T12:39:43Z</time></trkpt><trkpt lat="45.4130975856705" lon="7.685359795553963"><ele>562.5</ele><time>2026-04-26T12:39:44Z</time></trkpt><trkpt lat="45.41322298804941" lon="7.685346380491998"><ele>562.75</ele><time>2026-04-26T12:39:45Z</time></trkpt><trkpt lat="45.413354365663515" lon="7.685342227288132"><ele>563.0</ele><time>2026-04-26T12:39:46Z</time></trkpt><trkpt lat="45.41348281276477" lon="7.685347738758867"><ele>563.0</ele><time>2026-04-26T12:39:47Z</time></trkpt><trkpt lat="45.41361330078682" lon="7.685385078636905"><ele>563.0</ele><time>2026-04-26T12:39:48Z</time></trkpt><trkpt lat="45.41374384612193" lon="7.685446394259636"><ele>563.0</ele><time>2026-04-26T12:39:49Z</time></trkpt><trkpt lat="45.41386540840149" lon="7.685534127462694"><ele>563.0</ele><time>2026-04-26T12:39:50Z</time></trkpt><trkpt lat="45.41396873364151" lon="7.685648428831221"><ele>563.3333333333333</ele><time>2026-04-26T12:39:51Z</time></trkpt><trkpt lat="45.41405710755202" lon="7.685816718623168"><ele>563.6666666666666</ele><time>2026-04-26T12:39:52Z</time></trkpt><trkpt lat="45.414137414731606" lon="7.686039127924616"><ele>564.0</ele><time>2026-04-26T12:39:53Z</time></trkpt><trkpt lat="45.41421925500654" lon="7.686257716533972"><ele>564.0</ele><time>2026-04-26T12:39:54Z</time></trkpt><trkpt lat="45.4143407562558" lon="7.686464617771908"><ele>564.0</ele><time>2026-04-26T12:39:55Z</time></trkpt><trkpt lat="45.41449680226731" lon="7.686655429804156"><ele>564.0</ele><time>2026-04-26T12:39:56Z</time></trkpt><trkpt lat="45.41463658819819" lon="7.686826697214255"><ele>563.0</ele><time>2026-04-26T12:39:57Z</time></trkpt><trkpt lat="45.41475945316343" lon="7.68700006004996"><ele>562.0</ele><time>2026-04-26T12:39:58Z</time></trkpt><trkpt lat="45.41487053998244" lon="7.687142341076084"><ele>561.0</ele><time>2026-04-26T12:39:59Z</time></trkpt><trkpt lat="45.41498159768174" lon="7.687241501109521"><ele>561.0</ele><time>2026-04-26T12:40:00Z</time></trkpt><trkpt lat="45.41510074950272" lon="7.687292823331368"><ele>561.0</ele><time>2026-04-26T12:40:01Z</time></trkpt><trkpt lat="45.41523855485388" lon="7.687306354632718"><ele>561.0</ele><time>2026-04-26T12:40:02Z</time></trkpt><trkpt lat="45.41539539734798" lon="7.68731428844781"><ele>561.0</ele><time>2026-04-26T12:40:03Z</time></trkpt><trkpt lat="45.41555365376049" lon="7.68734511450805"><ele>557.5</ele><time>2026-04-26T12:40:04Z</time></trkpt><trkpt lat="45.41570441556512" lon="7.687380257669824"><ele>554.0</ele><time>2026-04-26T12:40:05Z</time></trkpt><trkpt lat="45.415848393578855" lon="7.687411206054065"><ele>550.5</ele><time>2026-04-26T12:40:06Z</time></trkpt><trkpt lat="45.41598614713538" lon="7.687437097555196"><ele>547.0</ele><time>2026-04-26T12:40:07Z</time></trkpt><trkpt lat="45.416124294549384" lon="7.687472923202574"><ele>547.0</ele><time>2026-04-26T12:40:07.999Z</time></trkpt><trkpt lat="45.41625479900054" lon="7.687498875854043"><ele>547.0</ele><time>2026-04-26T12:40:08.999Z</time></trkpt><trkpt lat="45.41638728264453" lon="7.687521568068574"><ele>547.0</ele><time>2026-04-26T12:40:09.999Z</time></trkpt><trkpt lat="45.41651495238685" lon="7.68752496906699"><ele>547.0</ele><time>2026-04-26T12:40:10.999Z</time></trkpt><trkpt lat="45.41664816576466" lon="7.687501827534728"><ele>546.0</ele><time>2026-04-26T12:40:11.999Z</time></trkpt><trkpt lat="45.41678536971705" lon="7.687478230052334"><ele>545.0</ele><time>2026-04-26T12:40:12.999Z</time></trkpt><trkpt lat="45.416927085580305" lon="7.687452491372854"><ele>544.0</ele><time>2026-04-26T12:40:13.999Z</time></trkpt><trkpt lat="45.41707192666231" lon="7.687427534957661"><ele>543.0</ele><time>2026-04-26T12:40:14.999Z</time></trkpt><trkpt lat="45.417209810547476" lon="7.687393783715198"><ele>543.0</ele><time>2026-04-26T12:40:15.999Z</time></trkpt><trkpt lat="45.41734126146665" lon="7.687314343465153"><ele>543.0</ele><time>2026-04-26T12:40:16.999Z</time></trkpt><trkpt lat="45.4174649953188" lon="7.687198335857856"><ele>543.0</ele><time>2026-04-26T12:40:17.999Z</time></trkpt><trkpt lat="45.41757550896114" lon="7.687050180188112"><ele>543.0</ele><time>2026-04-26T12:40:18.999Z</time></trkpt><trkpt lat="45.41766952002064" lon="7.686877397642"><ele>541.0</ele><time>2026-04-26T12:40:19.999Z</time></trkpt><trkpt lat="45.41774357166378" lon="7.686699268468661"><ele>539.0</ele><time>2026-04-26T12:40:20.999Z</time></trkpt><trkpt lat="45.41781157965421" lon="7.686543082987709"><ele>537.0</ele><time>2026-04-26T12:40:21.999Z</time></trkpt><trkpt lat="45.4178831858826" lon="7.686411030226627"><ele>535.0</ele><time>2026-04-26T12:40:22.999Z</time></trkpt><trkpt lat="45.41797758705486" lon="7.6863292781003745"><ele>536.2</ele><time>2026-04-26T12:40:23.999Z</time></trkpt><trkpt lat="45.4180661314883" lon="7.686254017033459"><ele>537.4</ele><time>2026-04-26T12:40:24.999Z</time></trkpt><trkpt lat="45.41813968369788" lon="7.686177352912078"><ele>538.6</ele><time>2026-04-26T12:40:25.999Z</time></trkpt><trkpt lat="45.418215230349865" lon="7.686151813067721"><ele>539.8</ele><time>2026-04-26T12:40:26.999Z</time></trkpt><trkpt lat="45.41831699184215" lon="7.68611182952367"><ele>541.0</ele><time>2026-04-26T12:40:28.999Z</time></trkpt><trkpt lat="45.418344454939756" lon="7.686013784780701"><ele>541.0</ele><time>2026-04-26T12:40:29.999Z</time></trkpt><trkpt lat="45.418393040127164" lon="7.685953114488014"><ele>541.0</ele><time>2026-04-26T12:40:30.999Z</time></trkpt><trkpt lat="45.41845345172076" lon="7.685881561293805"><ele>541.0</ele><time>2026-04-26T12:40:31.999Z</time></trkpt><trkpt lat="45.41852026207969" lon="7.685813981873127"><ele>541.0</ele><time>2026-04-26T12:40:32.999Z</time></trkpt><trkpt lat="45.41859628784382" lon="7.685728934934098"><ele>541.0</ele><time>2026-04-26T12:40:33.999Z</time></trkpt><trkpt lat="45.41865699709592" lon="7.685632845093329"><ele>541.0</ele><time>2026-04-26T12:40:34.999Z</time></trkpt><trkpt lat="45.41872497897585" lon="7.685519234914318"><ele>541.0</ele><time>2026-04-26T12:40:35.999Z</time></trkpt><trkpt lat="45.41877587763063" lon="7.685375092566877"><ele>541.0</ele><time>2026-04-26T12:40:36.999Z</time></trkpt><trkpt lat="45.4188005047247" lon="7.685194204701312"><ele>541.0</ele><time>2026-04-26T12:40:37.999Z</time></trkpt><trkpt lat="45.41882041187382" lon="7.685003576064495"><ele>541.0</ele><time>2026-04-26T12:40:38.999Z</time></trkpt><trkpt lat="45.41883969285653" lon="7.684834235129519"><ele>541.3333333333334</ele><time>2026-04-26T12:40:39.999Z</time></trkpt><trkpt lat="45.41886082675048" lon="7.684682548535581"><ele>541.6666666666667</ele><time>2026-04-26T12:40:40.999Z</time></trkpt><trkpt lat="45.41887869877266" lon="7.6845544588344925"><ele>542.0</ele><time>2026-04-26T12:40:41.999Z</time></trkpt><trkpt lat="45.418924918089765" lon="7.684449954739858"><ele>542.3333333333334</ele><time>2026-04-26T12:40:42.999Z</time></trkpt><trkpt lat="45.418980987767135" lon="7.684370419868167"><ele>542.6666666666666</ele><time>2026-04-26T12:40:43.999Z</time></trkpt><trkpt lat="45.41905274386345" lon="7.684318272929751"><ele>543.0</ele><time>2026-04-26T12:40:44.999Z</time></trkpt><trkpt lat="45.41912773123554" lon="7.684236151886945"><ele>543.0</ele><time>2026-04-26T12:40:45.999Z</time></trkpt><trkpt lat="45.419203288816014" lon="7.6841861148063"><ele>543.0</ele><time>2026-04-26T12:40:46.999Z</time></trkpt><trkpt lat="45.419282480523634" lon="7.684134506559954"><ele>543.0</ele><time>2026-04-26T12:40:47.999Z</time></trkpt><trkpt lat="45.41929348378588" lon="7.683940829248704"><ele>543.0</ele><time>2026-04-26T12:40:48.999Z</time></trkpt><trkpt lat="45.41929295483994" lon="7.683751503521485"><ele>543.0</ele><time>2026-04-26T12:40:49.999Z</time></trkpt><trkpt lat="45.419302937875955" lon="7.683554862588018"><ele>544.75</ele><time>2026-04-26T12:40:50.999Z</time></trkpt><trkpt lat="45.41929550399788" lon="7.6833158512245525"><ele>546.5</ele><time>2026-04-26T12:40:51.999Z</time></trkpt><trkpt lat="45.419290814966104" lon="7.683122833699776"><ele>548.25</ele><time>2026-04-26T12:40:52.999Z</time></trkpt><trkpt lat="45.41928570617587" lon="7.68292667174877"><ele>550.0</ele><time>2026-04-26T12:40:53.999Z</time></trkpt><trkpt lat="45.41928712847474" lon="7.682718049322378"><ele>551.0</ele><time>2026-04-26T12:40:54.999Z</time></trkpt><trkpt lat="45.41928209178719" lon="7.682495860834154"><ele>552.0</ele><time>2026-04-26T12:40:55.999Z</time></trkpt><trkpt lat="45.419275282941626" lon="7.682269146918536"><ele>553.0</ele><time>2026-04-26T12:40:56.999Z</time></trkpt><trkpt lat="45.419267836413255" lon="7.682070653019947"><ele>553.5</ele><time>2026-04-26T12:40:57.999Z</time></trkpt><trkpt lat="45.419264123426274" lon="7.68189128458352"><ele>554.0</ele><time>2026-04-26T12:40:58.999Z</time></trkpt><trkpt lat="45.41925658259873" lon="7.681711356261884"><ele>554.5</ele><time>2026-04-26T12:40:59.999Z</time></trkpt><trkpt lat="45.41925301145349" lon="7.6815224872676735"><ele>555.0</ele><time>2026-04-26T12:41:00.999Z</time></trkpt><trkpt lat="45.41926293061038" lon="7.681318910925256"><ele>555.0</ele><time>2026-04-26T12:41:01.999Z</time></trkpt><trkpt lat="45.419257831627824" lon="7.681099153177892"><ele>555.0</ele><time>2026-04-26T12:41:02.999Z</time></trkpt><trkpt lat="45.41925144302124" lon="7.680875220668837"><ele>555.0</ele><time>2026-04-26T12:41:03.999Z</time></trkpt><trkpt lat="45.41924309816346" lon="7.680638574945572"><ele>555.3333333333334</ele><time>2026-04-26T12:41:04.999Z</time></trkpt><trkpt lat="45.419221653202364" lon="7.680415350129315"><ele>555.6666666666667</ele><time>2026-04-26T12:41:05.999Z</time></trkpt><trkpt lat="45.419213559101316" lon="7.680207431424399"><ele>556.0</ele><time>2026-04-26T12:41:06.999Z</time></trkpt><trkpt lat="45.419223131507515" lon="7.679997535170333"><ele>556.0</ele><time>2026-04-26T12:41:07.999Z</time></trkpt><trkpt lat="45.41922450658297" lon="7.679783898138867"><ele>556.0</ele><time>2026-04-26T12:41:08.999Z</time></trkpt><trkpt lat="45.41923799595545" lon="7.679565234320457"><ele>556.0</ele><time>2026-04-26T12:41:09.999Z</time></trkpt><trkpt lat="45.41924681361252" lon="7.679333697988876"><ele>556.0</ele><time>2026-04-26T12:41:10.999Z</time></trkpt><trkpt lat="45.41927580504266" lon="7.6791091434469685"><ele>556.0</ele><time>2026-04-26T12:41:11.999Z</time></trkpt><trkpt lat="45.41931064652415" lon="7.678883131610757"><ele>556.0</ele><time>2026-04-26T12:41:12.999Z</time></trkpt><trkpt lat="45.41934026676348" lon="7.678676229737983"><ele>557.0</ele><time>2026-04-26T12:41:13.999Z</time></trkpt><trkpt lat="45.41936626013635" lon="7.678497249131633"><ele>558.0</ele><time>2026-04-26T12:41:14.999Z</time></trkpt><trkpt lat="45.41938707611315" lon="7.6783308148089215"><ele>559.0</ele><time>2026-04-26T12:41:15.999Z</time></trkpt><trkpt lat="45.419407307925546" lon="7.678180803205669"><ele>560.0</ele><time>2026-04-26T12:41:16.999Z</time></trkpt><trkpt lat="45.419429305159724" lon="7.678055035514612"><ele>561.0</ele><time>2026-04-26T12:41:17.999Z</time></trkpt><trkpt lat="45.41945135694057" lon="7.677947683005022"><ele>561.0</ele><time>2026-04-26T12:41:18.998Z</time></trkpt><trkpt lat="45.41944897287747" lon="7.677852577881917"><ele>561.0</ele><time>2026-04-26T12:41:19.998Z</time></trkpt><trkpt lat="45.419475213136366" lon="7.677753681506721"><ele>561.0</ele><time>2026-04-26T12:41:23.998Z</time></trkpt><trkpt lat="45.4193101328891" lon="7.6776860572217345"><ele>561.0</ele><time>2026-04-26T12:41:25.998Z</time></trkpt><trkpt lat="45.41924869559057" lon="7.677641554913868"><ele>561.0</ele><time>2026-04-26T12:41:26.998Z</time></trkpt><trkpt lat="45.419176221204815" lon="7.677625044101311"><ele>561.6</ele><time>2026-04-26T12:41:27.998Z</time></trkpt><trkpt lat="45.41908912540212" lon="7.677575377265116"><ele>562.2</ele><time>2026-04-26T12:41:28.998Z</time></trkpt><trkpt lat="45.41899123076788" lon="7.677493832167925"><ele>562.8</ele><time>2026-04-26T12:41:29.998Z</time></trkpt><trkpt lat="45.418902053741434" lon="7.677428331359736"><ele>563.4</ele><time>2026-04-26T12:41:30.998Z</time></trkpt><trkpt lat="45.41880820023751" lon="7.677367884801104"><ele>564.0</ele><time>2026-04-26T12:41:31.998Z</time></trkpt><trkpt lat="45.41873284282329" lon="7.677266788475633"><ele>562.6</ele><time>2026-04-26T12:41:32.998Z</time></trkpt><trkpt lat="45.41865690900282" lon="7.677193204442617"><ele>561.2</ele><time>2026-04-26T12:41:33.998Z</time></trkpt><trkpt lat="45.41856159525471" lon="7.67710355908805"><ele>559.8000000000001</ele><time>2026-04-26T12:41:34.998Z</time></trkpt><trkpt lat="45.41847921919485" lon="7.677033031758423"><ele>558.4</ele><time>2026-04-26T12:41:35.998Z</time></trkpt><trkpt lat="45.41839600672712" lon="7.676982335277181"><ele>557.0</ele><time>2026-04-26T12:41:37Z</time></trkpt><trkpt lat="45.418307729484866" lon="7.676967851685096"><ele>557.0</ele><time>2026-04-26T12:41:38Z</time></trkpt><trkpt lat="45.41822350535532" lon="7.676991514582585"><ele>557.0</ele><time>2026-04-26T12:41:39Z</time></trkpt><trkpt lat="45.41813572069572" lon="7.6770244089647965"><ele>557.0</ele><time>2026-04-26T12:41:40Z</time></trkpt><trkpt lat="45.41805072550982" lon="7.677045758628001"><ele>557.0</ele><time>2026-04-26T12:41:41Z</time></trkpt><trkpt lat="45.417971986218895" lon="7.677074184376446"><ele>557.0</ele><time>2026-04-26T12:41:42Z</time></trkpt><trkpt lat="45.4179051739969" lon="7.677081248125836"><ele>557.0</ele><time>2026-04-26T12:41:43Z</time></trkpt><trkpt lat="45.417805879718216" lon="7.677056513040354"><ele>556.6666666666666</ele><time>2026-04-26T12:41:45Z</time></trkpt><trkpt lat="45.417794231663834" lon="7.676959324965539"><ele>556.3333333333333</ele><time>2026-04-26T12:41:46Z</time></trkpt><trkpt lat="45.41787939230004" lon="7.676836322247587"><ele>556.0</ele><time>2026-04-26T12:41:48Z</time></trkpt><trkpt lat="45.417953015541194" lon="7.676860049149767"><ele>555.6666666666666</ele><time>2026-04-26T12:41:49Z</time></trkpt><trkpt lat="45.418024968407046" lon="7.676842672733645"><ele>555.3333333333334</ele><time>2026-04-26T12:41:50Z</time></trkpt><trkpt lat="45.418113848286616" lon="7.676839919544737"><ele>555.0</ele><time>2026-04-26T12:41:51Z</time></trkpt><trkpt lat="45.418210740670396" lon="7.676817710164541"><ele>553.75</ele><time>2026-04-26T12:41:52Z</time></trkpt><trkpt lat="45.418326975843364" lon="7.6768024047218"><ele>552.5</ele><time>2026-04-26T12:41:53Z</time></trkpt><trkpt lat="45.41846924631705" lon="7.676801980021543"><ele>551.25</ele><time>2026-04-26T12:41:54Z</time></trkpt><trkpt lat="45.41859669926064" lon="7.676827123931289"><ele>550.0</ele><time>2026-04-26T12:41:55Z</time></trkpt><trkpt lat="45.41872422569786" lon="7.676847715964916"><ele>550.5</ele><time>2026-04-26T12:41:56Z</time></trkpt><trkpt lat="45.41885789714069" lon="7.676848967410421"><ele>551.0</ele><time>2026-04-26T12:41:57Z</time></trkpt><trkpt lat="45.41898548432408" lon="7.676831905812618"><ele>551.5</ele><time>2026-04-26T12:41:58Z</time></trkpt><trkpt lat="45.41911261146195" lon="7.676808435956377"><ele>552.0</ele><time>2026-04-26T12:41:59Z</time></trkpt><trkpt lat="45.4192411256298" lon="7.676785723935305"><ele>552.0</ele><time>2026-04-26T12:42:00Z</time></trkpt><trkpt lat="45.419372125138864" lon="7.676765373091362"><ele>552.0</ele><time>2026-04-26T12:42:01Z</time></trkpt><trkpt lat="45.419498188384516" lon="7.6767533292311105"><ele>552.0</ele><time>2026-04-26T12:42:02Z</time></trkpt><trkpt lat="45.419622176926595" lon="7.67673597930431"><ele>552.0</ele><time>2026-04-26T12:42:03Z</time></trkpt><trkpt lat="45.419745341868456" lon="7.676714547349591"><ele>552.4</ele><time>2026-04-26T12:42:04Z</time></trkpt><trkpt lat="45.41985503595446" lon="7.676694563764847"><ele>552.8000000000001</ele><time>2026-04-26T12:42:05Z</time></trkpt><trkpt lat="45.41996190864144" lon="7.676677256375341"><ele>553.2</ele><time>2026-04-26T12:42:06Z</time></trkpt><trkpt lat="45.42006305401044" lon="7.67666638440272"><ele>553.6</ele><time>2026-04-26T12:42:07Z</time></trkpt><trkpt lat="45.420161149300164" lon="7.676668967970509"><ele>554.0</ele><time>2026-04-26T12:42:08Z</time></trkpt><trkpt lat="45.42023811822076" lon="7.676680190593451"><ele>554.0</ele><time>2026-04-26T12:42:09Z</time></trkpt><trkpt lat="45.42035971351786" lon="7.676658297875177"><ele>554.0</ele><time>2026-04-26T12:42:11Z</time></trkpt><trkpt lat="45.42040128695661" lon="7.676488984803334"><ele>554.0</ele><time>2026-04-26T12:42:13Z</time></trkpt><trkpt lat="45.42036912385985" lon="7.676402422419325"><ele>554.0</ele><time>2026-04-26T12:42:14Z</time></trkpt><trkpt lat="45.42029354728596" lon="7.676343976929051"><ele>554.0</ele><time>2026-04-26T12:42:15Z</time></trkpt><trkpt lat="45.42019313906416" lon="7.6763079367725116"><ele>554.0</ele><time>2026-04-26T12:42:16Z</time></trkpt><trkpt lat="45.42008483085644" lon="7.676241063162555"><ele>554.0</ele><time>2026-04-26T12:42:17Z</time></trkpt><trkpt lat="45.41995732372585" lon="7.676171296507427"><ele>554.0</ele><time>2026-04-26T12:42:18Z</time></trkpt><trkpt lat="45.41982639360149" lon="7.676093280290991"><ele>554.0</ele><time>2026-04-26T12:42:19Z</time></trkpt><trkpt lat="45.41969174761787" lon="7.6760095814966895"><ele>549.6666666666666</ele><time>2026-04-26T12:42:20Z</time></trkpt><trkpt lat="45.419548132098775" lon="7.675906559222329"><ele>545.3333333333334</ele><time>2026-04-26T12:42:21Z</time></trkpt><trkpt lat="45.41939327663431" lon="7.675788972903177"><ele>541.0</ele><time>2026-04-26T12:42:22Z</time></trkpt><trkpt lat="45.41923247057593" lon="7.675658615948406"><ele>541.0</ele><time>2026-04-26T12:42:23Z</time></trkpt><trkpt lat="45.419080858686485" lon="7.675517260557129"><ele>541.0</ele><time>2026-04-26T12:42:24Z</time></trkpt><trkpt lat="45.418924254007486" lon="7.675369603730187"><ele>541.0</ele><time>2026-04-26T12:42:25Z</time></trkpt><trkpt lat="45.41876979452522" lon="7.675234694414998"><ele>539.6666666666667</ele><time>2026-04-26T12:42:26Z</time></trkpt><trkpt lat="45.41861445905301" lon="7.675147416575564"><ele>538.3333333333334</ele><time>2026-04-26T12:42:27Z</time></trkpt><trkpt lat="45.418467310191424" lon="7.675060664350654"><ele>537.0</ele><time>2026-04-26T12:42:28Z</time></trkpt><trkpt lat="45.41831754997975" lon="7.674996788426434"><ele>537.0</ele><time>2026-04-26T12:42:29Z</time></trkpt><trkpt lat="45.41817426803129" lon="7.674932845984896"><ele>537.0</ele><time>2026-04-26T12:42:30Z</time></trkpt><trkpt lat="45.41804368892578" lon="7.674864808990283"><ele>537.0</ele><time>2026-04-26T12:42:30.999Z</time></trkpt><trkpt lat="45.41792603155215" lon="7.674789330482659"><ele>537.0</ele><time>2026-04-26T12:42:31.999Z</time></trkpt><trkpt lat="45.41782536871853" lon="7.6746907122154315"><ele>537.75</ele><time>2026-04-26T12:42:32.999Z</time></trkpt><trkpt lat="45.41772872287903" lon="7.6745893589074905"><ele>538.5</ele><time>2026-04-26T12:42:33.999Z</time></trkpt><trkpt lat="45.417626776658174" lon="7.674478481128912"><ele>539.25</ele><time>2026-04-26T12:42:34.999Z</time></trkpt><trkpt lat="45.41752932277377" lon="7.674355584434132"><ele>540.0</ele><time>2026-04-26T12:42:35.999Z</time></trkpt><trkpt lat="45.41743870864143" lon="7.674209404154603"><ele>540.0</ele><time>2026-04-26T12:42:36.999Z</time></trkpt><trkpt lat="45.417358851423494" lon="7.674044391521334"><ele>540.0</ele><time>2026-04-26T12:42:37.999Z</time></trkpt><trkpt lat="45.4173021210907" lon="7.673888009158838"><ele>540.0</ele><time>2026-04-26T12:42:38.999Z</time></trkpt><trkpt lat="45.4172697263767" lon="7.673733539277921"><ele>540.0</ele><time>2026-04-26T12:42:39.999Z</time></trkpt><trkpt lat="45.41727734506069" lon="7.67358121717409"><ele>541.75</ele><time>2026-04-26T12:42:40.999Z</time></trkpt><trkpt lat="45.417279052163515" lon="7.6734198959613495"><ele>543.5</ele><time>2026-04-26T12:42:41.999Z</time></trkpt><trkpt lat="45.41726963506827" lon="7.673236921988652"><ele>545.25</ele><time>2026-04-26T12:42:42.999Z</time></trkpt><trkpt lat="45.41726819740058" lon="7.673035586859899"><ele>547.0</ele><time>2026-04-26T12:42:43.999Z</time></trkpt><trkpt lat="45.41725870389024" lon="7.672831556977261"><ele>547.3333333333334</ele><time>2026-04-26T12:42:44.999Z</time></trkpt><trkpt lat="45.417260898379574" lon="7.672615343003246"><ele>547.6666666666666</ele><time>2026-04-26T12:42:45.999Z</time></trkpt><trkpt lat="45.417256344283516" lon="7.672393377223796"><ele>548.0</ele><time>2026-04-26T12:42:46.999Z</time></trkpt><trkpt lat="45.41725250372496" lon="7.672169617373636"><ele>548.0</ele><time>2026-04-26T12:42:47.999Z</time></trkpt><trkpt lat="45.41725539169867" lon="7.6719597983823205"><ele>548.0</ele><time>2026-04-26T12:42:48.999Z</time></trkpt><trkpt lat="45.4172489916805" lon="7.671768440494258"><ele>548.0</ele><time>2026-04-26T12:42:49.999Z</time></trkpt><trkpt lat="45.417234160250295" lon="7.671598767134892"><ele>548.0</ele><time>2026-04-26T12:42:50.999Z</time></trkpt><trkpt lat="45.41722692399887" lon="7.671439794167759"><ele>549.0</ele><time>2026-04-26T12:42:51.999Z</time></trkpt><trkpt lat="45.41722004498916" lon="7.671297165890593"><ele>550.0</ele><time>2026-04-26T12:42:52.999Z</time></trkpt><trkpt lat="45.4172432358222" lon="7.6711677103161495"><ele>551.0</ele><time>2026-04-26T12:42:53.999Z</time></trkpt><trkpt lat="45.417274322156814" lon="7.671037946503318"><ele>552.0</ele><time>2026-04-26T12:42:54.999Z</time></trkpt><trkpt lat="45.41732886299969" lon="7.6708958335329305"><ele>553.0</ele><time>2026-04-26T12:42:55.999Z</time></trkpt><trkpt lat="45.41739379712684" lon="7.670749142749781"><ele>553.25</ele><time>2026-04-26T12:42:56.999Z</time></trkpt><trkpt lat="45.417473150946115" lon="7.670568010029366"><ele>553.5</ele><time>2026-04-26T12:42:57.999Z</time></trkpt><trkpt lat="45.41754709892533" lon="7.6704145725090385"><ele>553.75</ele><time>2026-04-26T12:42:58.999Z</time></trkpt><trkpt lat="45.41760512917875" lon="7.670276628696953"><ele>554.0</ele><time>2026-04-26T12:42:59.999Z</time></trkpt><trkpt lat="45.41767015656556" lon="7.670142675106286"><ele>554.0</ele><time>2026-04-26T12:43:00.999Z</time></trkpt><trkpt lat="45.417723127185674" lon="7.669993321630998"><ele>554.0</ele><time>2026-04-26T12:43:01.999Z</time></trkpt><trkpt lat="45.41773760555602" lon="7.669853550174395"><ele>554.0</ele><time>2026-04-26T12:43:02.999Z</time></trkpt><trkpt lat="45.41776809811796" lon="7.669714996293476"><ele>554.0</ele><time>2026-04-26T12:43:03.999Z</time></trkpt><trkpt lat="45.41779881776656" lon="7.669585031809607"><ele>554.0</ele><time>2026-04-26T12:43:04.999Z</time></trkpt><trkpt lat="45.417808569767246" lon="7.6694646530993955"><ele>555.1666666666666</ele><time>2026-04-26T12:43:05.999Z</time></trkpt><trkpt lat="45.417781947889914" lon="7.669357049350714"><ele>556.3333333333333</ele><time>2026-04-26T12:43:06.999Z</time></trkpt><trkpt lat="45.417719122106284" lon="7.669280018095932"><ele>557.5</ele><time>2026-04-26T12:43:07.999Z</time></trkpt><trkpt lat="45.417642805545306" lon="7.669253041369583"><ele>558.6666666666666</ele><time>2026-04-26T12:43:08.999Z</time></trkpt><trkpt lat="45.41755979229699" lon="7.66927266419989"><ele>559.8333333333334</ele><time>2026-04-26T12:43:09.999Z</time></trkpt><trkpt lat="45.41747127098979" lon="7.669318730111055"><ele>561.0</ele><time>2026-04-26T12:43:10.999Z</time></trkpt><trkpt lat="45.41738076267783" lon="7.6692884480619465"><ele>561.0</ele><time>2026-04-26T12:43:11.999Z</time></trkpt><trkpt lat="45.4173008169448" lon="7.669206654192428"><ele>561.0</ele><time>2026-04-26T12:43:12.999Z</time></trkpt><trkpt lat="45.41718335660161" lon="7.669120472859866"><ele>561.0</ele><time>2026-04-26T12:43:13.999Z</time></trkpt><trkpt lat="45.4170564029973" lon="7.669031425754685"><ele>561.0</ele><time>2026-04-26T12:43:14.999Z</time></trkpt><trkpt lat="45.41694678919469" lon="7.668955353656293"><ele>560.2</ele><time>2026-04-26T12:43:15.999Z</time></trkpt><trkpt lat="45.416829078896825" lon="7.668894494616059"><ele>559.4000000000001</ele><time>2026-04-26T12:43:16.999Z</time></trkpt><trkpt lat="45.4167310313672" lon="7.668836333859655"><ele>558.6</ele><time>2026-04-26T12:43:17.999Z</time></trkpt><trkpt lat="45.416628987944776" lon="7.668821522690557"><ele>557.8000000000001</ele><time>2026-04-26T12:43:18.999Z</time></trkpt><trkpt lat="45.416526528030985" lon="7.668847471587303"><ele>557.0</ele><time>2026-04-26T12:43:19.999Z</time></trkpt><trkpt lat="45.41643599042599" lon="7.66887627348728"><ele>557.0</ele><time>2026-04-26T12:43:20.999Z</time></trkpt><trkpt lat="45.416354622709456" lon="7.6688914511487996"><ele>557.0</ele><time>2026-04-26T12:43:21.999Z</time></trkpt><trkpt lat="45.41627278558111" lon="7.668831634425261"><ele>557.0</ele><time>2026-04-26T12:43:22.999Z</time></trkpt><trkpt lat="45.416242802229874" lon="7.668751269808937"><ele>557.0</ele><time>2026-04-26T12:43:23.999Z</time></trkpt><trkpt lat="45.416213883529515" lon="7.668667057171043"><ele>557.0</ele><time>2026-04-26T12:43:24.999Z</time></trkpt><trkpt lat="45.41615986948224" lon="7.668556310484011"><ele>557.0</ele><time>2026-04-26T12:43:25.999Z</time></trkpt><trkpt lat="45.41611329535586" lon="7.6684316264439785"><ele>557.3333333333333</ele><time>2026-04-26T12:43:26.999Z</time></trkpt><trkpt lat="45.416064128352815" lon="7.668324454561742"><ele>557.6666666666666</ele><time>2026-04-26T12:43:27.999Z</time></trkpt><trkpt lat="45.41600128557256" lon="7.668236509384116"><ele>558.0</ele><time>2026-04-26T12:43:28.999Z</time></trkpt><trkpt lat="45.41592778740712" lon="7.6681556510297"><ele>558.3333333333334</ele><time>2026-04-26T12:43:29.999Z</time></trkpt><trkpt lat="45.41584881129714" lon="7.668091822285666"><ele>558.6666666666667</ele><time>2026-04-26T12:43:30.999Z</time></trkpt><trkpt lat="45.415775844249175" lon="7.66803376473151"><ele>559.0</ele><time>2026-04-26T12:43:31.999Z</time></trkpt><trkpt lat="45.41570966110707" lon="7.667975000993875"><ele>559.0</ele><time>2026-04-26T12:43:32.999Z</time></trkpt><trkpt lat="45.41562875644122" lon="7.667897574085465"><ele>559.0</ele><time>2026-04-26T12:43:34.999Z</time></trkpt><trkpt lat="45.41548332924905" lon="7.667967630316448"><ele>559.0</ele><time>2026-04-26T12:43:36.998Z</time></trkpt><trkpt lat="45.41539655889654" lon="7.668033048413669"><ele>559.0</ele><time>2026-04-26T12:43:37.998Z</time></trkpt><trkpt lat="45.41531657406828" lon="7.668116448090654"><ele>559.0</ele><time>2026-04-26T12:43:38.998Z</time></trkpt><trkpt lat="45.415251947145556" lon="7.6681959244231885"><ele>557.0</ele><time>2026-04-26T12:43:39.998Z</time></trkpt><trkpt lat="45.415198694242626" lon="7.668279664535739"><ele>555.0</ele><time>2026-04-26T12:43:40.998Z</time></trkpt><trkpt lat="45.41511733161564" lon="7.668348209395355"><ele>553.0</ele><time>2026-04-26T12:43:43Z</time></trkpt><trkpt lat="45.415042784246324" lon="7.668261022875163"><ele>551.0</ele><time>2026-04-26T12:43:45Z</time></trkpt><trkpt lat="45.41507637757579" lon="7.66812272616009"><ele>549.0</ele><time>2026-04-26T12:43:47Z</time></trkpt><trkpt lat="45.415176913703846" lon="7.668024970337493"><ele>549.0</ele><time>2026-04-26T12:43:49Z</time></trkpt><trkpt lat="45.41524431088751" lon="7.667949809299264"><ele>549.0</ele><time>2026-04-26T12:43:50Z</time></trkpt><trkpt lat="45.41530478879898" lon="7.667877878455522"><ele>549.0</ele><time>2026-04-26T12:43:51Z</time></trkpt><trkpt lat="45.415405137729394" lon="7.66778135596482"><ele>549.0</ele><time>2026-04-26T12:43:53Z</time></trkpt><trkpt lat="45.41550156666271" lon="7.667689224645067"><ele>549.0</ele><time>2026-04-26T12:43:55Z</time></trkpt><trkpt lat="45.41555489206275" lon="7.667544441766941"><ele>548.6</ele><time>2026-04-26T12:43:57Z</time></trkpt><trkpt lat="45.415522016873346" lon="7.667381211636348"><ele>548.2</ele><time>2026-04-26T12:43:59Z</time></trkpt><trkpt lat="45.41545006925567" lon="7.667328912513122"><ele>547.8000000000001</ele><time>2026-04-26T12:44:00Z</time></trkpt><trkpt lat="45.41534647341784" lon="7.667397348939879"><ele>547.4</ele><time>2026-04-26T12:44:01Z</time></trkpt><trkpt lat="45.41524332880579" lon="7.667444109402673"><ele>547.0</ele><time>2026-04-26T12:44:02Z</time></trkpt><trkpt lat="45.415115745170894" lon="7.667469895900773"><ele>547.0</ele><time>2026-04-26T12:44:03Z</time></trkpt><trkpt lat="45.41494767421012" lon="7.667532745346031"><ele>547.0</ele><time>2026-04-26T12:44:04Z</time></trkpt><trkpt lat="45.414752695695576" lon="7.66760918940464"><ele>547.0</ele><time>2026-04-26T12:44:05Z</time></trkpt><trkpt lat="45.41456948374457" lon="7.667659521144943"><ele>546.0</ele><time>2026-04-26T12:44:06Z</time></trkpt><trkpt lat="45.41440429853672" lon="7.667708447968702"><ele>545.0</ele><time>2026-04-26T12:44:07Z</time></trkpt><trkpt lat="45.41424555004811" lon="7.6677241905967"><ele>544.0</ele><time>2026-04-26T12:44:08Z</time></trkpt><trkpt lat="45.41409805885854" lon="7.667742014179517"><ele>544.0</ele><time>2026-04-26T12:44:09Z</time></trkpt><trkpt lat="45.41395858281204" lon="7.667760878822366"><ele>544.0</ele><time>2026-04-26T12:44:10Z</time></trkpt><trkpt lat="45.41382637237105" lon="7.667773244780071"><ele>544.0</ele><time>2026-04-26T12:44:11Z</time></trkpt><trkpt lat="45.41370200988468" lon="7.66779413225313"><ele>544.0</ele><time>2026-04-26T12:44:12Z</time></trkpt><trkpt lat="45.41359034867849" lon="7.6678445742271375"><ele>542.25</ele><time>2026-04-26T12:44:13Z</time></trkpt><trkpt lat="45.41348688129647" lon="7.667921836689629"><ele>540.5</ele><time>2026-04-26T12:44:14Z</time></trkpt><trkpt lat="45.413380991602345" lon="7.668010743319649"><ele>538.75</ele><time>2026-04-26T12:44:15Z</time></trkpt><trkpt lat="45.41328606044985" lon="7.6681045395336875"><ele>537.0</ele><time>2026-04-26T12:44:16Z</time></trkpt><trkpt lat="45.413192477574924" lon="7.668200976666672"><ele>537.0</ele><time>2026-04-26T12:44:17Z</time></trkpt><trkpt lat="45.41309606605873" lon="7.668298937824616"><ele>537.0</ele><time>2026-04-26T12:44:18Z</time></trkpt><trkpt lat="45.41299921914075" lon="7.668390536916497"><ele>537.0</ele><time>2026-04-26T12:44:19Z</time></trkpt><trkpt lat="45.41290037788693" lon="7.668479963900026"><ele>537.0</ele><time>2026-04-26T12:44:20Z</time></trkpt><trkpt lat="45.41280428176646" lon="7.668575421124755"><ele>534.5</ele><time>2026-04-26T12:44:21Z</time></trkpt><trkpt lat="45.412709523871065" lon="7.668667061242483"><ele>532.0</ele><time>2026-04-26T12:44:22Z</time></trkpt><trkpt lat="45.41260437233537" lon="7.668729722499779"><ele>529.5</ele><time>2026-04-26T12:44:23Z</time></trkpt><trkpt lat="45.41250204215753" lon="7.668791064208853"><ele>527.0</ele><time>2026-04-26T12:44:24Z</time></trkpt><trkpt lat="45.41239055567369" lon="7.668834009316816"><ele>527.0</ele><time>2026-04-26T12:44:25Z</time></trkpt><trkpt lat="45.41228999056155" lon="7.668896054443266"><ele>527.0</ele><time>2026-04-26T12:44:26Z</time></trkpt><trkpt lat="45.41219287721657" lon="7.668968561264721"><ele>527.0</ele><time>2026-04-26T12:44:27Z</time></trkpt><trkpt lat="45.41210003684295" lon="7.669050523557125"><ele>527.0</ele><time>2026-04-26T12:44:28Z</time></trkpt><trkpt lat="45.41200804154702" lon="7.669128775370795"><ele>527.0</ele><time>2026-04-26T12:44:29Z</time></trkpt><trkpt lat="45.41190933865698" lon="7.669189367759483"><ele>527.6</ele><time>2026-04-26T12:44:30Z</time></trkpt><trkpt lat="45.41181594628117" lon="7.669255355820153"><ele>528.2</ele><time>2026-04-26T12:44:31Z</time></trkpt><trkpt lat="45.41171917379133" lon="7.669309254388349"><ele>528.8</ele><time>2026-04-26T12:44:32Z</time></trkpt><trkpt lat="45.41163522439962" lon="7.66939535043396"><ele>529.4</ele><time>2026-04-26T12:44:33Z</time></trkpt><trkpt lat="45.411544583367686" lon="7.669469696810341"><ele>530.0</ele><time>2026-04-26T12:44:34Z</time></trkpt><trkpt lat="45.41145362138797" lon="7.669538286058704"><ele>528.2</ele><time>2026-04-26T12:44:35Z</time></trkpt><trkpt lat="45.41135958103873" lon="7.669608297798713"><ele>526.4</ele><time>2026-04-26T12:44:36Z</time></trkpt><trkpt lat="45.411270628645056" lon="7.6696748117462255"><ele>524.6</ele><time>2026-04-26T12:44:37Z</time></trkpt><trkpt lat="45.411179868852734" lon="7.6697446306350825"><ele>522.8</ele><time>2026-04-26T12:44:38Z</time></trkpt><trkpt lat="45.41108838255216" lon="7.6698086678552375"><ele>521.0</ele><time>2026-04-26T12:44:39Z</time></trkpt><trkpt lat="45.41099676795872" lon="7.66986449551664"><ele>521.0</ele><time>2026-04-26T12:44:40Z</time></trkpt><trkpt lat="45.4109066717194" lon="7.669927571813758"><ele>521.0</ele><time>2026-04-26T12:44:41Z</time></trkpt><trkpt lat="45.41082960726283" lon="7.669977406355194"><ele>521.0</ele><time>2026-04-26T12:44:41.999Z</time></trkpt><trkpt lat="45.41074432862824" lon="7.66999623278752"><ele>521.0</ele><time>2026-04-26T12:44:42.999Z</time></trkpt><trkpt lat="45.410668194940946" lon="7.66995388007285"><ele>521.0</ele><time>2026-04-26T12:44:43.999Z</time></trkpt><trkpt lat="45.410609070956234" lon="7.6698689218983835"><ele>521.0</ele><time>2026-04-26T12:44:44.999Z</time></trkpt><trkpt lat="45.41057770405679" lon="7.669752460013768"><ele>521.0</ele><time>2026-04-26T12:44:45.999Z</time></trkpt><trkpt lat="45.41057924215006" lon="7.669624808512944"><ele>521.0</ele><time>2026-04-26T12:44:46.999Z</time></trkpt><trkpt lat="45.41062866461242" lon="7.669510357577872"><ele>521.0</ele><time>2026-04-26T12:44:47.999Z</time></trkpt><trkpt lat="45.41066493294195" lon="7.669376602244077"><ele>521.0</ele><time>2026-04-26T12:44:48.999Z</time></trkpt><trkpt lat="45.41068943297845" lon="7.66923196398242"><ele>521.0</ele><time>2026-04-26T12:44:49.999Z</time></trkpt><trkpt lat="45.410690438625814" lon="7.669092608670689"><ele>521.2</ele><time>2026-04-26T12:44:50.999Z</time></trkpt><trkpt lat="45.41065631225266" lon="7.668959385645855"><ele>521.4000000000001</ele><time>2026-04-26T12:44:51.999Z</time></trkpt><trkpt lat="45.41061492429097" lon="7.6688319245449925"><ele>521.6</ele><time>2026-04-26T12:44:52.999Z</time></trkpt><trkpt lat="45.410579271340495" lon="7.668704577446378"><ele>521.8000000000001</ele><time>2026-04-26T12:44:53.999Z</time></trkpt><trkpt lat="45.410563246549444" lon="7.6685718940026915"><ele>522.0</ele><time>2026-04-26T12:44:54.999Z</time></trkpt><trkpt lat="45.41057619516594" lon="7.66843266852341"><ele>520.6</ele><time>2026-04-26T12:44:55.999Z</time></trkpt><trkpt lat="45.41061437337879" lon="7.668297912274079"><ele>519.2</ele><time>2026-04-26T12:44:56.999Z</time></trkpt><trkpt lat="45.4106655318949" lon="7.668173892669341"><ele>517.8</ele><time>2026-04-26T12:44:57.999Z</time></trkpt><trkpt lat="45.41071024018767" lon="7.668031716533209"><ele>516.4</ele><time>2026-04-26T12:44:58.999Z</time></trkpt><trkpt lat="45.41074118857867" lon="7.667895043170175"><ele>515.0</ele><time>2026-04-26T12:44:59.999Z</time></trkpt><trkpt lat="45.41080739751646" lon="7.667777600113738"><ele>511.0</ele><time>2026-04-26T12:45:00.999Z</time></trkpt><trkpt lat="45.41086920394169" lon="7.66764530868925"><ele>507.0</ele><time>2026-04-26T12:45:01.999Z</time></trkpt><trkpt lat="45.41095517752417" lon="7.667523875562754"><ele>503.0</ele><time>2026-04-26T12:45:02.999Z</time></trkpt><trkpt lat="45.411033123117825" lon="7.667395420002255"><ele>499.0</ele><time>2026-04-26T12:45:03.999Z</time></trkpt><trkpt lat="45.41110597180968" lon="7.667264878867837"><ele>499.0</ele><time>2026-04-26T12:45:04.999Z</time></trkpt><trkpt lat="45.41117932503273" lon="7.6671392371018285"><ele>499.0</ele><time>2026-04-26T12:45:05.999Z</time></trkpt><trkpt lat="45.4112523106775" lon="7.667016406289571"><ele>499.0</ele><time>2026-04-26T12:45:06.999Z</time></trkpt><trkpt lat="45.41132416055435" lon="7.666897500863409"><ele>499.0</ele><time>2026-04-26T12:45:07.999Z</time></trkpt><trkpt lat="45.41140418675183" lon="7.666789051311663"><ele>499.0</ele><time>2026-04-26T12:45:08.999Z</time></trkpt><trkpt lat="45.411499314497796" lon="7.666714830297142"><ele>498.79999999999995</ele><time>2026-04-26T12:45:09.999Z</time></trkpt><trkpt lat="45.41158061241709" lon="7.666618099472919"><ele>498.59999999999997</ele><time>2026-04-26T12:45:10.999Z</time></trkpt><trkpt lat="45.41167342202061" lon="7.666541202147221"><ele>498.4</ele><time>2026-04-26T12:45:11.999Z</time></trkpt><trkpt lat="45.41175922520413" lon="7.666455243226389"><ele>498.2</ele><time>2026-04-26T12:45:12.999Z</time></trkpt><trkpt lat="45.41183696799994" lon="7.666356157004702"><ele>498.0</ele><time>2026-04-26T12:45:13.999Z</time></trkpt><trkpt lat="45.411909636540834" lon="7.66624952998605"><ele>498.0</ele><time>2026-04-26T12:45:14.999Z</time></trkpt><trkpt lat="45.41197556465618" lon="7.66613533284385"><ele>497.99999999999994</ele><time>2026-04-26T12:45:15.999Z</time></trkpt><trkpt lat="45.41203829514109" lon="7.666008208860562"><ele>497.99999999999994</ele><time>2026-04-26T12:45:16.999Z</time></trkpt><trkpt lat="45.412090641441594" lon="7.665900218263214"><ele>498.0</ele><time>2026-04-26T12:45:17.999Z</time></trkpt><trkpt lat="45.4121331180099" lon="7.665771377404064"><ele>498.0</ele><time>2026-04-26T12:45:18.999Z</time></trkpt><trkpt lat="45.41214066734941" lon="7.665638582160715"><ele>495.59999999999997</ele><time>2026-04-26T12:45:19.999Z</time></trkpt><trkpt lat="45.412123327730704" lon="7.66551584754008"><ele>493.19999999999993</ele><time>2026-04-26T12:45:20.999Z</time></trkpt><trkpt lat="45.41207012512464" lon="7.665410622289702"><ele>490.8</ele><time>2026-04-26T12:45:21.999Z</time></trkpt><trkpt lat="45.41198753325945" lon="7.6653325332196225"><ele>488.4</ele><time>2026-04-26T12:45:22.999Z</time></trkpt><trkpt lat="45.411884720273214" lon="7.6652822756695445"><ele>486.0</ele><time>2026-04-26T12:45:23.999Z</time></trkpt><trkpt lat="45.41176333819802" lon="7.665242397408879"><ele>484.5</ele><time>2026-04-26T12:45:24.999Z</time></trkpt><trkpt lat="45.411630533122384" lon="7.665190136058571"><ele>483.0</ele><time>2026-04-26T12:45:25.999Z</time></trkpt><trkpt lat="45.411508938360605" lon="7.6651273021896085"><ele>481.5</ele><time>2026-04-26T12:45:26.999Z</time></trkpt><trkpt lat="45.41139506891607" lon="7.665068629632557"><ele>480.0</ele><time>2026-04-26T12:45:27.999Z</time></trkpt><trkpt lat="45.41129902111075" lon="7.665002635028769"><ele>478.6666666666667</ele><time>2026-04-26T12:45:28.999Z</time></trkpt><trkpt lat="45.41121343976374" lon="7.664941800233816"><ele>477.33333333333337</ele><time>2026-04-26T12:45:29.999Z</time></trkpt><trkpt lat="45.41116004460686" lon="7.664861310562656"><ele>476.0</ele><time>2026-04-26T12:45:30.999Z</time></trkpt><trkpt lat="45.411139140541486" lon="7.664759827634706"><ele>474.6666666666667</ele><time>2026-04-26T12:45:31.999Z</time></trkpt><trkpt lat="45.4111719618723" lon="7.664664986172088"><ele>473.33333333333337</ele><time>2026-04-26T12:45:32.999Z</time></trkpt><trkpt lat="45.4112206255472" lon="7.664572255725709"><ele>472.0</ele><time>2026-04-26T12:45:33.999Z</time></trkpt><trkpt lat="45.411291205943336" lon="7.664456012209094"><ele>473.25</ele><time>2026-04-26T12:45:34.999Z</time></trkpt><trkpt lat="45.411365770523304" lon="7.66431628572867"><ele>474.5</ele><time>2026-04-26T12:45:35.999Z</time></trkpt><trkpt lat="45.41144696325991" lon="7.664179113493096"><ele>475.75</ele><time>2026-04-26T12:45:36.999Z</time></trkpt><trkpt lat="45.411524279259226" lon="7.664052337282211"><ele>477.0</ele><time>2026-04-26T12:45:37.999Z</time></trkpt><trkpt lat="45.411589205350694" lon="7.663949594080668"><ele>477.0</ele><time>2026-04-26T12:45:38.999Z</time></trkpt><trkpt lat="45.411634696042775" lon="7.663853721761005"><ele>477.0</ele><time>2026-04-26T12:45:39.999Z</time></trkpt><trkpt lat="45.411644340125505" lon="7.663749245620246"><ele>477.0</ele><time>2026-04-26T12:45:40.999Z</time></trkpt><trkpt lat="45.4116427690345" lon="7.66363712186829"><ele>477.0</ele><time>2026-04-26T12:45:41.999Z</time></trkpt><trkpt lat="45.41161272726129" lon="7.663528513137502"><ele>477.0</ele><time>2026-04-26T12:45:42.999Z</time></trkpt><trkpt lat="45.411564768077966" lon="7.663421611286373"><ele>477.0</ele><time>2026-04-26T12:45:43.998Z</time></trkpt><trkpt lat="45.411493345482036" lon="7.6632997018922735"><ele>475.75</ele><time>2026-04-26T12:45:44.998Z</time></trkpt><trkpt lat="45.411432760569426" lon="7.663152467556769"><ele>474.5</ele><time>2026-04-26T12:45:45.998Z</time></trkpt><trkpt lat="45.411352005175885" lon="7.663038653775457"><ele>473.25</ele><time>2026-04-26T12:45:47.001Z</time></trkpt><trkpt lat="45.41130083109843" lon="7.662897205569415"><ele>472.0</ele><time>2026-04-26T12:45:48.001Z</time></trkpt><trkpt lat="45.41123081352816" lon="7.6627707572412636"><ele>470.6</ele><time>2026-04-26T12:45:49.001Z</time></trkpt><trkpt lat="45.411167581396036" lon="7.662643939159522"><ele>469.20000000000005</ele><time>2026-04-26T12:45:50.001Z</time></trkpt><trkpt lat="45.41110027298358" lon="7.662530442247512"><ele>467.8</ele><time>2026-04-26T12:45:51.001Z</time></trkpt><trkpt lat="45.41101317928301" lon="7.662444103191785"><ele>466.4</ele><time>2026-04-26T12:45:52.001Z</time></trkpt><trkpt lat="45.41090699804356" lon="7.662391016590256"><ele>465.0</ele><time>2026-04-26T12:45:53.001Z</time></trkpt><trkpt lat="45.41078936187585" lon="7.662365942201128"><ele>465.0</ele><time>2026-04-26T12:45:54.001Z</time></trkpt><trkpt lat="45.41067715276619" lon="7.662263545887828"><ele>465.0</ele><time>2026-04-26T12:45:55.001Z</time></trkpt><trkpt lat="45.4105698744119" lon="7.662183019508778"><ele>465.0</ele><time>2026-04-26T12:45:56.001Z</time></trkpt><trkpt lat="45.410467413505884" lon="7.662098853363189"><ele>465.0</ele><time>2026-04-26T12:45:57.001Z</time></trkpt><trkpt lat="45.41035512152833" lon="7.661997361035301"><ele>461.66666666666663</ele><time>2026-04-26T12:45:58.001Z</time></trkpt><trkpt lat="45.41021975867901" lon="7.661869278234733"><ele>458.3333333333333</ele><time>2026-04-26T12:45:59Z</time></trkpt><trkpt lat="45.410114397590924" lon="7.661742168298644"><ele>455.0</ele><time>2026-04-26T12:46:00Z</time></trkpt><trkpt lat="45.409969411993245" lon="7.661563425981225"><ele>455.0</ele><time>2026-04-26T12:46:01Z</time></trkpt><trkpt lat="45.40983524833736" lon="7.661446697273448"><ele>455.0</ele><time>2026-04-26T12:46:02Z</time></trkpt><trkpt lat="45.40971342113881" lon="7.661324764095909"><ele>455.0</ele><time>2026-04-26T12:46:03Z</time></trkpt><trkpt lat="45.40958820451654" lon="7.661210463737065"><ele>453.5</ele><time>2026-04-26T12:46:04Z</time></trkpt><trkpt lat="45.409466672752814" lon="7.661099070981595"><ele>452.0</ele><time>2026-04-26T12:46:05Z</time></trkpt><trkpt lat="45.409357182591094" lon="7.660984854535273"><ele>450.5</ele><time>2026-04-26T12:46:06Z</time></trkpt><trkpt lat="45.409243277525135" lon="7.660878896317451"><ele>449.0</ele><time>2026-04-26T12:46:07Z</time></trkpt><trkpt lat="45.40912516946753" lon="7.660770222017777"><ele>449.0</ele><time>2026-04-26T12:46:08Z</time></trkpt><trkpt lat="45.40900666892001" lon="7.6606626426375195"><ele>449.0</ele><time>2026-04-26T12:46:09Z</time></trkpt><trkpt lat="45.4088942488693" lon="7.660556273948654"><ele>449.0</ele><time>2026-04-26T12:46:10Z</time></trkpt><trkpt lat="45.40878044036906" lon="7.660454174615576"><ele>449.0</ele><time>2026-04-26T12:46:11Z</time></trkpt><trkpt lat="45.408666857593275" lon="7.660351573789973"><ele>446.75</ele><time>2026-04-26T12:46:12Z</time></trkpt><trkpt lat="45.40855307036114" lon="7.660250349200446"><ele>444.5</ele><time>2026-04-26T12:46:13Z</time></trkpt><trkpt lat="45.408450950437405" lon="7.660141463850554"><ele>442.25</ele><time>2026-04-26T12:46:14Z</time></trkpt><trkpt lat="45.408356193988574" lon="7.660046948613606"><ele>440.0</ele><time>2026-04-26T12:46:15Z</time></trkpt><trkpt lat="45.40826588882035" lon="7.659961509108469"><ele>440.0</ele><time>2026-04-26T12:46:16Z</time></trkpt><trkpt lat="45.40817758868046" lon="7.659884105265748"><ele>440.0</ele><time>2026-04-26T12:46:17Z</time></trkpt><trkpt lat="45.40808845522375" lon="7.65980105169664"><ele>440.0</ele><time>2026-04-26T12:46:18Z</time></trkpt><trkpt lat="45.40800546244808" lon="7.6597231562170744"><ele>440.0</ele><time>2026-04-26T12:46:19Z</time></trkpt><trkpt lat="45.40792260011536" lon="7.659638418223483"><ele>440.0</ele><time>2026-04-26T12:46:20Z</time></trkpt><trkpt lat="45.40784780518118" lon="7.659563739220508"><ele>438.0</ele><time>2026-04-26T12:46:21Z</time></trkpt><trkpt lat="45.40777786210927" lon="7.659500741641838"><ele>436.0</ele><time>2026-04-26T12:46:22Z</time></trkpt><trkpt lat="45.40772682993848" lon="7.659446746226415"><ele>434.0</ele><time>2026-04-26T12:46:23Z</time></trkpt><trkpt lat="45.407659442360796" lon="7.659414283305098"><ele>432.0</ele><time>2026-04-26T12:46:24Z</time></trkpt><trkpt lat="45.40754211570562" lon="7.659413092216372"><ele>430.0</ele><time>2026-04-26T12:46:26Z</time></trkpt><trkpt lat="45.40741159299986" lon="7.6595074177816835"><ele>430.0</ele><time>2026-04-26T12:46:27Z</time></trkpt><trkpt lat="45.40731886149705" lon="7.659588641971037"><ele>430.0</ele><time>2026-04-26T12:46:28Z</time></trkpt><trkpt lat="45.407221209173706" lon="7.659628749347343"><ele>430.0</ele><time>2026-04-26T12:46:29Z</time></trkpt><trkpt lat="45.407127478860076" lon="7.659662765055678"><ele>430.0</ele><time>2026-04-26T12:46:30Z</time></trkpt><trkpt lat="45.40704425889666" lon="7.65972096257385"><ele>430.0</ele><time>2026-04-26T12:46:31Z</time></trkpt><trkpt lat="45.40696457814654" lon="7.659752284143934"><ele>429.00000000000006</ele><time>2026-04-26T12:46:32Z</time></trkpt><trkpt lat="45.40688868612667" lon="7.659780591834846"><ele>428.0</ele><time>2026-04-26T12:46:33Z</time></trkpt><trkpt lat="45.40682308838772" lon="7.6598352212468805"><ele>427.0</ele><time>2026-04-26T12:46:34Z</time></trkpt><trkpt lat="45.40677531907849" lon="7.6599132432011015"><ele>426.0</ele><time>2026-04-26T12:46:35Z</time></trkpt><trkpt lat="45.40674499944437" lon="7.660002239826689"><ele>425.00000000000006</ele><time>2026-04-26T12:46:36Z</time></trkpt><trkpt lat="45.40672764675028" lon="7.6600940920168865"><ele>424.0</ele><time>2026-04-26T12:46:37Z</time></trkpt><trkpt lat="45.40669948336897" lon="7.660236414950262"><ele>424.50000000000006</ele><time>2026-04-26T12:46:39Z</time></trkpt><trkpt lat="45.406614883576985" lon="7.660346618442864"><ele>425.0</ele><time>2026-04-26T12:46:41Z</time></trkpt><trkpt lat="45.406557098125205" lon="7.660390490013878"><ele>425.5</ele><time>2026-04-26T12:46:42Z</time></trkpt><trkpt lat="45.406504011652736" lon="7.660447204647581"><ele>426.0</ele><time>2026-04-26T12:46:43Z</time></trkpt><trkpt lat="45.40643437990983" lon="7.66043421888304"><ele>426.50000000000006</ele><time>2026-04-26T12:46:44Z</time></trkpt><trkpt lat="45.40635161312762" lon="7.660383583102765"><ele>427.0</ele><time>2026-04-26T12:46:44.999Z</time></trkpt><trkpt lat="45.406268704142896" lon="7.660347721446899"><ele>425.83333333333337</ele><time>2026-04-26T12:46:45.999Z</time></trkpt><trkpt lat="45.40618881475437" lon="7.66033788407345"><ele>424.6666666666667</ele><time>2026-04-26T12:46:46.999Z</time></trkpt><trkpt lat="45.40612335793692" lon="7.660269159935059"><ele>423.5</ele><time>2026-04-26T12:46:47.999Z</time></trkpt><trkpt lat="45.40603829036808" lon="7.660212308722613"><ele>422.33333333333337</ele><time>2026-04-26T12:46:48.999Z</time></trkpt><trkpt lat="45.40594910634747" lon="7.660185337019828"><ele>421.1666666666667</ele><time>2026-04-26T12:46:49.999Z</time></trkpt><trkpt lat="45.40585945618684" lon="7.660168268770098"><ele>420.0</ele><time>2026-04-26T12:46:50.999Z</time></trkpt><trkpt lat="45.40576894005582" lon="7.66013214098155"><ele>419.6</ele><time>2026-04-26T12:46:51.999Z</time></trkpt><trkpt lat="45.40567412199714" lon="7.660110940154027"><ele>419.2</ele><time>2026-04-26T12:46:52.999Z</time></trkpt><trkpt lat="45.40557321115239" lon="7.660088376699819"><ele>418.79999999999995</ele><time>2026-04-26T12:46:53.999Z</time></trkpt><trkpt lat="45.40545999970447" lon="7.660068018665287"><ele>418.4</ele><time>2026-04-26T12:46:54.999Z</time></trkpt><trkpt lat="45.405346217333275" lon="7.660071100884162"><ele>418.0</ele><time>2026-04-26T12:46:55.999Z</time></trkpt><trkpt lat="45.405230033690486" lon="7.660048862825109"><ele>416.2</ele><time>2026-04-26T12:46:56.999Z</time></trkpt><trkpt lat="45.405121356731144" lon="7.66000011615012"><ele>414.4</ele><time>2026-04-26T12:46:57.999Z</time></trkpt><trkpt lat="45.40501071902511" lon="7.65999066049927"><ele>412.59999999999997</ele><time>2026-04-26T12:46:58.999Z</time></trkpt><trkpt lat="45.404905302888146" lon="7.659968846257698"><ele>410.79999999999995</ele><time>2026-04-26T12:46:59.999Z</time></trkpt><trkpt lat="45.404804090901614" lon="7.65994834490406"><ele>409.0</ele><time>2026-04-26T12:47:00.999Z</time></trkpt><trkpt lat="45.404703045841075" lon="7.659925042590337"><ele>408.75</ele><time>2026-04-26T12:47:01.999Z</time></trkpt><trkpt lat="45.40458111092094" lon="7.659900489253588"><ele>408.5</ele><time>2026-04-26T12:47:02.999Z</time></trkpt><trkpt lat="45.40444007610526" lon="7.659873132320301"><ele>408.25</ele><time>2026-04-26T12:47:03.999Z</time></trkpt><trkpt lat="45.40429788530268" lon="7.659849751015576"><ele>408.0</ele><time>2026-04-26T12:47:04.999Z</time></trkpt><trkpt lat="45.40415897760775" lon="7.659820612467167"><ele>408.0</ele><time>2026-04-26T12:47:05.999Z</time></trkpt><trkpt lat="45.40402266838678" lon="7.659740458740468"><ele>408.0</ele><time>2026-04-26T12:47:06.999Z</time></trkpt><trkpt lat="45.40388313866506" lon="7.659658588261822"><ele>408.0</ele><time>2026-04-26T12:47:07.999Z</time></trkpt><trkpt lat="45.40373569816143" lon="7.659592901657021"><ele>406.75</ele><time>2026-04-26T12:47:08.999Z</time></trkpt><trkpt lat="45.40360126359782" lon="7.6595304966838675"><ele>405.5</ele><time>2026-04-26T12:47:09.999Z</time></trkpt><trkpt lat="45.40346519521629" lon="7.659505015851493"><ele>404.25</ele><time>2026-04-26T12:47:10.999Z</time></trkpt><trkpt lat="45.403331593835006" lon="7.659449581556368"><ele>403.0</ele><time>2026-04-26T12:47:11.999Z</time></trkpt><trkpt lat="45.40320666862939" lon="7.659417784916209"><ele>402.79999999999995</ele><time>2026-04-26T12:47:12.999Z</time></trkpt><trkpt lat="45.4030793966982" lon="7.659405170031536"><ele>402.6</ele><time>2026-04-26T12:47:13.999Z</time></trkpt><trkpt lat="45.40296028961143" lon="7.659379163065853"><ele>402.4</ele><time>2026-04-26T12:47:14.999Z</time></trkpt><trkpt lat="45.40286047308536" lon="7.659350928294887"><ele>402.20000000000005</ele><time>2026-04-26T12:47:15.999Z</time></trkpt><trkpt lat="45.402773589405676" lon="7.65928420318825"><ele>402.0</ele><time>2026-04-26T12:47:16.999Z</time></trkpt><trkpt lat="45.40268839980376" lon="7.659232156448472"><ele>402.0</ele><time>2026-04-26T12:47:17.999Z</time></trkpt><trkpt lat="45.402626209789986" lon="7.659131835110523"><ele>402.0</ele><time>2026-04-26T12:47:18.999Z</time></trkpt><trkpt lat="45.40261669111366" lon="7.658983217303419"><ele>402.0</ele><time>2026-04-26T12:47:19.999Z</time></trkpt><trkpt lat="45.402595586487905" lon="7.6588442850210035"><ele>402.0</ele><time>2026-04-26T12:47:20.999Z</time></trkpt><trkpt lat="45.402555931205114" lon="7.6587266910427765"><ele>402.0</ele><time>2026-04-26T12:47:21.999Z</time></trkpt><trkpt lat="45.40250152404438" lon="7.658628052671215"><ele>401.8</ele><time>2026-04-26T12:47:22.999Z</time></trkpt><trkpt lat="45.40241270324092" lon="7.6585629043087735"><ele>401.6</ele><time>2026-04-26T12:47:23.999Z</time></trkpt><trkpt lat="45.40230166371022" lon="7.658547225428427"><ele>401.40000000000003</ele><time>2026-04-26T12:47:24.999Z</time></trkpt><trkpt lat="45.40219359666655" lon="7.658502773607514"><ele>401.20000000000005</ele><time>2026-04-26T12:47:25.999Z</time></trkpt><trkpt lat="45.40210472251148" lon="7.658461529818946"><ele>401.0</ele><time>2026-04-26T12:47:26.999Z</time></trkpt><trkpt lat="45.40200766447548" lon="7.658413650034004"><ele>400.8333333333333</ele><time>2026-04-26T12:47:27.999Z</time></trkpt><trkpt lat="45.40191176437951" lon="7.658364021298834"><ele>400.66666666666663</ele><time>2026-04-26T12:47:28.999Z</time></trkpt><trkpt lat="45.40182553318246" lon="7.65832079698306"><ele>400.5</ele><time>2026-04-26T12:47:29.999Z</time></trkpt><trkpt lat="45.40173889576152" lon="7.658290476433389"><ele>400.33333333333337</ele><time>2026-04-26T12:47:30.999Z</time></trkpt><trkpt lat="45.40166329415311" lon="7.658246502215658"><ele>400.1666666666667</ele><time>2026-04-26T12:47:31.999Z</time></trkpt><trkpt lat="45.401629778959474" lon="7.658146134718419"><ele>400.0</ele><time>2026-04-26T12:47:32.999Z</time></trkpt><trkpt lat="45.40155114925613" lon="7.658031412946608"><ele>400.00000000000006</ele><time>2026-04-26T12:47:34.999Z</time></trkpt><trkpt lat="45.40154652807177" lon="7.657901744995008"><ele>400.0</ele><time>2026-04-26T12:47:36.999Z</time></trkpt><trkpt lat="45.40156555161846" lon="7.657791357551113"><ele>400.0</ele><time>2026-04-26T12:47:37.999Z</time></trkpt><trkpt lat="45.40157806245188" lon="7.657669082438768"><ele>400.0</ele><time>2026-04-26T12:47:38.999Z</time></trkpt><trkpt lat="45.401566534256254" lon="7.657561193115134"><ele>400.00000000000006</ele><time>2026-04-26T12:47:39.999Z</time></trkpt><trkpt lat="45.40154852175334" lon="7.65745457312787"><ele>400.0</ele><time>2026-04-26T12:47:40.999Z</time></trkpt><trkpt lat="45.401470692875904" lon="7.657392977706535"><ele>399.6666666666667</ele><time>2026-04-26T12:47:41.999Z</time></trkpt><trkpt lat="45.401386483515765" lon="7.657379792653194"><ele>399.33333333333337</ele><time>2026-04-26T12:47:42.998Z</time></trkpt><trkpt lat="45.40131183130641" lon="7.657407406144269"><ele>399.0</ele><time>2026-04-26T12:47:43.998Z</time></trkpt><trkpt lat="45.401264090493974" lon="7.657499936776343"><ele>398.66666666666663</ele><time>2026-04-26T12:47:44.998Z</time></trkpt><trkpt lat="45.40122930820314" lon="7.657592477942408"><ele>398.3333333333333</ele><time>2026-04-26T12:47:45.998Z</time></trkpt><trkpt lat="45.40119803835687" lon="7.657702529400729"><ele>398.0</ele><time>2026-04-26T12:47:46.998Z</time></trkpt><trkpt lat="45.40116844017363" lon="7.657835808190049"><ele>398.0</ele><time>2026-04-26T12:47:47.998Z</time></trkpt><trkpt lat="45.40112324679806" lon="7.657937120944276"><ele>398.0</ele><time>2026-04-26T12:47:48.998Z</time></trkpt><trkpt lat="45.401043135544114" lon="7.658031568241966"><ele>398.0</ele><time>2026-04-26T12:47:49.998Z</time></trkpt><trkpt lat="45.40093156327232" lon="7.658146918083011"><ele>398.0</ele><time>2026-04-26T12:47:50.998Z</time></trkpt><trkpt lat="45.40082884763883" lon="7.658246801157061"><ele>398.0</ele><time>2026-04-26T12:47:51.998Z</time></trkpt><trkpt lat="45.400744538989265" lon="7.65833851137958"><ele>398.0</ele><time>2026-04-26T12:47:53Z</time></trkpt><trkpt lat="45.400662268586544" lon="7.658429748603228"><ele>398.0</ele><time>2026-04-26T12:47:54Z</time></trkpt><trkpt lat="45.40058120650799" lon="7.65851653991906"><ele>398.0</ele><time>2026-04-26T12:47:55Z</time></trkpt><trkpt lat="45.40050355190473" lon="7.658594336180011"><ele>398.0</ele><time>2026-04-26T12:47:56Z</time></trkpt><trkpt lat="45.400430611673784" lon="7.65864931431517"><ele>397.25</ele><time>2026-04-26T12:47:57Z</time></trkpt><trkpt lat="45.40036640349084" lon="7.658717060366914"><ele>396.5</ele><time>2026-04-26T12:47:58Z</time></trkpt><trkpt lat="45.40029589721458" lon="7.658808911355274"><ele>395.75</ele><time>2026-04-26T12:47:59Z</time></trkpt><trkpt lat="45.40019233117791" lon="7.658934065551141"><ele>395.0</ele><time>2026-04-26T12:48:00Z</time></trkpt><trkpt lat="45.40005525684259" lon="7.659079526840319"><ele>395.0</ele><time>2026-04-26T12:48:01Z</time></trkpt><trkpt lat="45.39989490318712" lon="7.6592394842952825"><ele>395.0</ele><time>2026-04-26T12:48:02Z</time></trkpt><trkpt lat="45.39970607327546" lon="7.659411082713416"><ele>395.0</ele><time>2026-04-26T12:48:03Z</time></trkpt><trkpt lat="45.3995027593326" lon="7.659560210427989"><ele>394.5</ele><time>2026-04-26T12:48:04Z</time></trkpt><trkpt lat="45.39927874846832" lon="7.659697595354888"><ele>394.0</ele><time>2026-04-26T12:48:05Z</time></trkpt><trkpt lat="45.399042226759285" lon="7.659814058325635"><ele>391.0</ele><time>2026-04-26T12:48:06Z</time></trkpt><trkpt lat="45.39881360169843" lon="7.65989710288531"><ele>388.0</ele><time>2026-04-26T12:48:07Z</time></trkpt><trkpt lat="45.398586177055684" lon="7.659963097474414"><ele>388.0</ele><time>2026-04-26T12:48:08Z</time></trkpt><trkpt lat="45.398373146288634" lon="7.660008824735531"><ele>388.0</ele><time>2026-04-26T12:48:09Z</time></trkpt><trkpt lat="45.3981659508967" lon="7.660044220231702"><ele>388.0</ele><time>2026-04-26T12:48:10Z</time></trkpt><trkpt lat="45.39796805401085" lon="7.660069859499775"><ele>386.0</ele><time>2026-04-26T12:48:11Z</time></trkpt><trkpt lat="45.39777743795869" lon="7.660100173718691"><ele>384.0</ele><time>2026-04-26T12:48:12Z</time></trkpt><trkpt lat="45.397588580088446" lon="7.660122172851743"><ele>382.0</ele><time>2026-04-26T12:48:13Z</time></trkpt><trkpt lat="45.39740936271915" lon="7.660141731113767"><ele>382.0</ele><time>2026-04-26T12:48:14Z</time></trkpt><trkpt lat="45.39723382627645" lon="7.660162295684013"><ele>382.0</ele><time>2026-04-26T12:48:15Z</time></trkpt><trkpt lat="45.397063023319426" lon="7.660182616675255"><ele>382.0</ele><time>2026-04-26T12:48:16Z</time></trkpt><trkpt lat="45.396903908192904" lon="7.660201953948527"><ele>381.75</ele><time>2026-04-26T12:48:17Z</time></trkpt><trkpt lat="45.396752958061704" lon="7.660219348613358"><ele>381.5</ele><time>2026-04-26T12:48:18Z</time></trkpt><trkpt lat="45.39660824294171" lon="7.660230472335379"><ele>381.25</ele><time>2026-04-26T12:48:19Z</time></trkpt><trkpt lat="45.39647410578618" lon="7.660241967417932"><ele>381.0</ele><time>2026-04-26T12:48:20Z</time></trkpt><trkpt lat="45.39634612369453" lon="7.6602604026879435"><ele>380.6</ele><time>2026-04-26T12:48:21Z</time></trkpt><trkpt lat="45.3962238845038" lon="7.660282871672424"><ele>380.20000000000005</ele><time>2026-04-26T12:48:22Z</time></trkpt><trkpt lat="45.39611299712653" lon="7.6603005019752635"><ele>379.79999999999995</ele><time>2026-04-26T12:48:23Z</time></trkpt><trkpt lat="45.39602609263558" lon="7.660309653978939"><ele>379.4</ele><time>2026-04-26T12:48:24Z</time></trkpt><trkpt lat="45.39594779218787" lon="7.660312885812552"><ele>379.0</ele><time>2026-04-26T12:48:25Z</time></trkpt><trkpt lat="45.39587682188425" lon="7.660311167031722"><ele>379.0</ele><time>2026-04-26T12:48:26Z</time></trkpt><trkpt lat="45.39580442501388" lon="7.660295560870741"><ele>379.0</ele><time>2026-04-26T12:48:27Z</time></trkpt><trkpt lat="45.39572042633202" lon="7.66024485852301"><ele>379.0</ele><time>2026-04-26T12:48:28Z</time></trkpt><trkpt lat="45.39564775246602" lon="7.660167154727361"><ele>379.0</ele><time>2026-04-26T12:48:29Z</time></trkpt><trkpt lat="45.39556942024689" lon="7.660093713410465"><ele>379.0</ele><time>2026-04-26T12:48:30Z</time></trkpt><trkpt lat="45.39546886285024" lon="7.660126670573264"><ele>379.0</ele><time>2026-04-26T12:48:31Z</time></trkpt><trkpt lat="45.39537624091386" lon="7.660195932227937"><ele>379.0</ele><time>2026-04-26T12:48:32Z</time></trkpt><trkpt lat="45.395279572842966" lon="7.660306860212081"><ele>379.0</ele><time>2026-04-26T12:48:33Z</time></trkpt><trkpt lat="45.39517138243893" lon="7.660377148207523"><ele>379.0</ele><time>2026-04-26T12:48:34Z</time></trkpt><trkpt lat="45.39502306505389" lon="7.660358138241206"><ele>379.0</ele><time>2026-04-26T12:48:35Z</time></trkpt><trkpt lat="45.3948302180958" lon="7.660357216592872"><ele>379.0</ele><time>2026-04-26T12:48:36Z</time></trkpt><trkpt lat="45.394608644936675" lon="7.660337081832155"><ele>379.0</ele><time>2026-04-26T12:48:37Z</time></trkpt><trkpt lat="45.39438423120943" lon="7.6603387497519355"><ele>377.66666666666663</ele><time>2026-04-26T12:48:38Z</time></trkpt><trkpt lat="45.39415682651696" lon="7.660351685689149"><ele>376.3333333333333</ele><time>2026-04-26T12:48:39Z</time></trkpt><trkpt lat="45.3939605753048" lon="7.660358059670319"><ele>375.0</ele><time>2026-04-26T12:48:40Z</time></trkpt><trkpt lat="45.393782297171626" lon="7.66035389500745"><ele>373.3333333333333</ele><time>2026-04-26T12:48:41Z</time></trkpt><trkpt lat="45.39361653118681" lon="7.660342118067299"><ele>371.66666666666663</ele><time>2026-04-26T12:48:42Z</time></trkpt><trkpt lat="45.393457309101265" lon="7.660334464019951"><ele>370.0</ele><time>2026-04-26T12:48:43Z</time></trkpt><trkpt lat="45.39328499749434" lon="7.660332528807523"><ele>370.0</ele><time>2026-04-26T12:48:44Z</time></trkpt><trkpt lat="45.393091254160595" lon="7.660334685714846"><ele>370.0</ele><time>2026-04-26T12:48:45Z</time></trkpt><trkpt lat="45.39290709815437" lon="7.660335451987658"><ele>370.0</ele><time>2026-04-26T12:48:45.999Z</time></trkpt><trkpt lat="45.39272701843377" lon="7.660333355313388"><ele>370.3333333333333</ele><time>2026-04-26T12:48:46.999Z</time></trkpt><trkpt lat="45.392544244629185" lon="7.660328578118442"><ele>370.6666666666667</ele><time>2026-04-26T12:48:47.999Z</time></trkpt><trkpt lat="45.392356970270654" lon="7.660325726257986"><ele>371.0</ele><time>2026-04-26T12:48:48.999Z</time></trkpt><trkpt lat="45.39216159482399" lon="7.660321536229456"><ele>371.6666666666667</ele><time>2026-04-26T12:48:49.999Z</time></trkpt><trkpt lat="45.391960256973725" lon="7.6603205935124"><ele>372.3333333333333</ele><time>2026-04-26T12:48:50.999Z</time></trkpt><trkpt lat="45.39176743471931" lon="7.660318669175489"><ele>373.0</ele><time>2026-04-26T12:48:51.999Z</time></trkpt><trkpt lat="45.39158322911314" lon="7.660317266039806"><ele>373.0</ele><time>2026-04-26T12:48:52.999Z</time></trkpt><trkpt lat="45.3914010650126" lon="7.660320005115152"><ele>373.0</ele><time>2026-04-26T12:48:53.999Z</time></trkpt><trkpt lat="45.391218246168535" lon="7.660313897576032"><ele>373.0</ele><time>2026-04-26T12:48:54.999Z</time></trkpt><trkpt lat="45.391025924608286" lon="7.6603066989756465"><ele>373.0</ele><time>2026-04-26T12:48:55.999Z</time></trkpt><trkpt lat="45.39082550398478" lon="7.660309434408936"><ele>373.0</ele><time>2026-04-26T12:48:56.999Z</time></trkpt><trkpt lat="45.39062724441512" lon="7.660316534998166"><ele>373.0</ele><time>2026-04-26T12:48:57.999Z</time></trkpt><trkpt lat="45.3904384120257" lon="7.66032211580513"><ele>373.0</ele><time>2026-04-26T12:48:58.999Z</time></trkpt><trkpt lat="45.39024876120766" lon="7.660330130838384"><ele>373.0</ele><time>2026-04-26T12:48:59.999Z</time></trkpt><trkpt lat="45.39006129632414" lon="7.660359362835589"><ele>373.0</ele><time>2026-04-26T12:49:00.999Z</time></trkpt><trkpt lat="45.38987965992743" lon="7.660410625211242"><ele>373.0</ele><time>2026-04-26T12:49:01.999Z</time></trkpt><trkpt lat="45.38969629579325" lon="7.66046332145655"><ele>373.0</ele><time>2026-04-26T12:49:02.999Z</time></trkpt><trkpt lat="45.38951414374309" lon="7.660516383298465"><ele>373.0</ele><time>2026-04-26T12:49:03.999Z</time></trkpt><trkpt lat="45.389344885463565" lon="7.660575298747455"><ele>373.0</ele><time>2026-04-26T12:49:04.999Z</time></trkpt><trkpt lat="45.38918425809077" lon="7.660647307684522"><ele>373.0</ele><time>2026-04-26T12:49:05.999Z</time></trkpt><trkpt lat="45.38902883416188" lon="7.660729953972249"><ele>373.0</ele><time>2026-04-26T12:49:06.999Z</time></trkpt><trkpt lat="45.38886186014114" lon="7.660810019895189"><ele>373.66666666666663</ele><time>2026-04-26T12:49:07.999Z</time></trkpt><trkpt lat="45.388686840049935" lon="7.660884017926927"><ele>374.3333333333333</ele><time>2026-04-26T12:49:08.999Z</time></trkpt><trkpt lat="45.388506053251994" lon="7.660964400819029"><ele>375.0</ele><time>2026-04-26T12:49:09.999Z</time></trkpt><trkpt lat="45.38832300123179" lon="7.6610604249225025"><ele>374.0</ele><time>2026-04-26T12:49:10.999Z</time></trkpt><trkpt lat="45.38813371975482" lon="7.661164143474767"><ele>373.0</ele><time>2026-04-26T12:49:11.999Z</time></trkpt><trkpt lat="45.38793978674627" lon="7.661264761441723"><ele>372.0</ele><time>2026-04-26T12:49:12.999Z</time></trkpt><trkpt lat="45.38775396445292" lon="7.661355379688916"><ele>372.0</ele><time>2026-04-26T12:49:13.999Z</time></trkpt><trkpt lat="45.38756822162054" lon="7.661442841288714"><ele>372.0</ele><time>2026-04-26T12:49:14.999Z</time></trkpt><trkpt lat="45.387382230514234" lon="7.661536553815435"><ele>372.0</ele><time>2026-04-26T12:49:15.999Z</time></trkpt><trkpt lat="45.38719772626222" lon="7.661629778360994"><ele>374.6666666666667</ele><time>2026-04-26T12:49:16.999Z</time></trkpt><trkpt lat="45.387013884051136" lon="7.661721452312434"><ele>377.33333333333337</ele><time>2026-04-26T12:49:17.999Z</time></trkpt><trkpt lat="45.38683227761145" lon="7.661811284859271"><ele>380.0</ele><time>2026-04-26T12:49:18.999Z</time></trkpt><trkpt lat="45.38665080419684" lon="7.66190531285967"><ele>380.33333333333337</ele><time>2026-04-26T12:49:19.999Z</time></trkpt><trkpt lat="45.38646905290329" lon="7.662005891403262"><ele>380.6666666666667</ele><time>2026-04-26T12:49:20.999Z</time></trkpt><trkpt lat="45.38628640133615" lon="7.662105427173827"><ele>381.0</ele><time>2026-04-26T12:49:21.999Z</time></trkpt><trkpt lat="45.38609704913586" lon="7.662207600110592"><ele>381.0</ele><time>2026-04-26T12:49:22.999Z</time></trkpt><trkpt lat="45.385917941444454" lon="7.6623118636256535"><ele>381.0</ele><time>2026-04-26T12:49:23.999Z</time></trkpt><trkpt lat="45.38575359605765" lon="7.662407236495325"><ele>381.0</ele><time>2026-04-26T12:49:24.999Z</time></trkpt><trkpt lat="45.38559689891831" lon="7.662496387748384"><ele>383.66666666666663</ele><time>2026-04-26T12:49:25.999Z</time></trkpt><trkpt lat="45.38544140845388" lon="7.662580328882543"><ele>386.3333333333333</ele><time>2026-04-26T12:49:26.999Z</time></trkpt><trkpt lat="45.38529566778527" lon="7.6626592840139525"><ele>389.0</ele><time>2026-04-26T12:49:27.999Z</time></trkpt><trkpt lat="45.38516231603755" lon="7.662729661127078"><ele>388.75</ele><time>2026-04-26T12:49:28.999Z</time></trkpt><trkpt lat="45.3850381351483" lon="7.662789939432135"><ele>388.5</ele><time>2026-04-26T12:49:29.999Z</time></trkpt><trkpt lat="45.38489808469916" lon="7.662855592301384"><ele>388.25</ele><time>2026-04-26T12:49:30.999Z</time></trkpt><trkpt lat="45.384783356224716" lon="7.662907644059159"><ele>388.0</ele><time>2026-04-26T12:49:31.999Z</time></trkpt><trkpt lat="45.38467409562983" lon="7.662957661999258"><ele>388.0</ele><time>2026-04-26T12:49:32.999Z</time></trkpt><trkpt lat="45.384572376046194" lon="7.663006022634997"><ele>388.0</ele><time>2026-04-26T12:49:33.999Z</time></trkpt><trkpt lat="45.38447240476106" lon="7.663045790513553"><ele>388.0</ele><time>2026-04-26T12:49:34.999Z</time></trkpt><trkpt lat="45.38436868194781" lon="7.663087709337242"><ele>388.0</ele><time>2026-04-26T12:49:35.999Z</time></trkpt><trkpt lat="45.38426778073947" lon="7.663126005450198"><ele>388.0</ele><time>2026-04-26T12:49:36.999Z</time></trkpt><trkpt lat="45.38417411307005" lon="7.6631684255686"><ele>388.00000000000006</ele><time>2026-04-26T12:49:37.999Z</time></trkpt><trkpt lat="45.38408137570018" lon="7.6632096236171545"><ele>388.0</ele><time>2026-04-26T12:49:38.999Z</time></trkpt><trkpt lat="45.383997322672364" lon="7.663237575194979"><ele>388.0</ele><time>2026-04-26T12:49:39.999Z</time></trkpt><trkpt lat="45.38392299052768" lon="7.663246520523335"><ele>388.0</ele><time>2026-04-26T12:49:40.998Z</time></trkpt><trkpt lat="45.38384740988169" lon="7.663220694379503"><ele>388.00000000000006</ele><time>2026-04-26T12:49:41.998Z</time></trkpt><trkpt lat="45.383774364352476" lon="7.663140940246528"><ele>388.0</ele><time>2026-04-26T12:49:42.998Z</time></trkpt><trkpt lat="45.38369273538389" lon="7.663056916820258"><ele>387.4</ele><time>2026-04-26T12:49:43.998Z</time></trkpt><trkpt lat="45.38360311127026" lon="7.663046950879484"><ele>386.79999999999995</ele><time>2026-04-26T12:49:44.998Z</time></trkpt><trkpt lat="45.38350364813362" lon="7.663089260656758"><ele>386.2</ele><time>2026-04-26T12:49:45.998Z</time></trkpt><trkpt lat="45.38341100893678" lon="7.6631776162754734"><ele>385.6</ele><time>2026-04-26T12:49:46.998Z</time></trkpt><trkpt lat="45.38336993933319" lon="7.663335116498391"><ele>385.0</ele><time>2026-04-26T12:49:47.998Z</time></trkpt><trkpt lat="45.383296728301715" lon="7.663465890713025"><ele>385.0</ele><time>2026-04-26T12:49:48.998Z</time></trkpt><trkpt lat="45.3832380441031" lon="7.663599555350942"><ele>385.0</ele><time>2026-04-26T12:49:49.998Z</time></trkpt><trkpt lat="45.383148818248586" lon="7.663678239325021"><ele>385.0</ele><time>2026-04-26T12:49:50.998Z</time></trkpt><trkpt lat="45.383034364102585" lon="7.663744882763143"><ele>385.0</ele><time>2026-04-26T12:49:51.998Z</time></trkpt><trkpt lat="45.38290543207879" lon="7.663800562893866"><ele>384.25</ele><time>2026-04-26T12:49:52.998Z</time></trkpt><trkpt lat="45.38276425322489" lon="7.663863601129935"><ele>383.5</ele><time>2026-04-26T12:49:53.998Z</time></trkpt><trkpt lat="45.38262235506614" lon="7.663927203627435"><ele>382.75</ele><time>2026-04-26T12:49:54.998Z</time></trkpt><trkpt lat="45.38250047199722" lon="7.6639856674612385"><ele>382.0</ele><time>2026-04-26T12:49:55.998Z</time></trkpt><trkpt lat="45.38239748028688" lon="7.6640348365013695"><ele>382.0</ele><time>2026-04-26T12:49:56.998Z</time></trkpt><trkpt lat="45.38230067548396" lon="7.664081305924561"><ele>382.0</ele><time>2026-04-26T12:49:58Z</time></trkpt><trkpt lat="45.38223309819279" lon="7.6641156593721025"><ele>382.0</ele><time>2026-04-26T12:49:59Z</time></trkpt><trkpt lat="45.382173003713504" lon="7.664144681903207"><ele>382.0</ele><time>2026-04-26T12:50:00Z</time></trkpt><trkpt lat="45.3820548984262" lon="7.664152445247144"><ele>382.0</ele><time>2026-04-26T12:50:02Z</time></trkpt><trkpt lat="45.3819444744168" lon="7.664125773072964"><ele>382.16666666666663</ele><time>2026-04-26T12:50:04Z</time></trkpt><trkpt lat="45.381860572165245" lon="7.6641656293384495"><ele>382.3333333333333</ele><time>2026-04-26T12:50:06Z</time></trkpt><trkpt lat="45.3817964734165" lon="7.664135819764677"><ele>382.5</ele><time>2026-04-26T12:55:09.999Z</time></trkpt><trkpt lat="45.38172093740466" lon="7.66419724967556"><ele>382.6666666666667</ele><time>2026-04-26T12:55:11.999Z</time></trkpt><trkpt lat="45.381667219674554" lon="7.6642675870867105"><ele>382.83333333333337</ele><time>2026-04-26T12:55:13.999Z</time></trkpt><trkpt lat="45.381624105987335" lon="7.664376126135634"><ele>383.0</ele><time>2026-04-26T12:55:23.999Z</time></trkpt><trkpt lat="45.38152179041766" lon="7.664455795458986"><ele>383.0</ele><time>2026-04-26T12:55:25.999Z</time></trkpt><trkpt lat="45.38139319436925" lon="7.664523525888744"><ele>383.0</ele><time>2026-04-26T12:55:27.999Z</time></trkpt><trkpt lat="45.381303422338455" lon="7.664568169315206"><ele>383.0</ele><time>2026-04-26T12:55:28.999Z</time></trkpt><trkpt lat="45.3812061868364" lon="7.6646233276544615"><ele>383.0</ele><time>2026-04-26T12:55:29.999Z</time></trkpt><trkpt lat="45.38110361191778" lon="7.664672921710908"><ele>383.0</ele><time>2026-04-26T12:55:30.999Z</time></trkpt><trkpt lat="45.38099526569699" lon="7.664726000100685"><ele>382.25</ele><time>2026-04-26T12:55:31.999Z</time></trkpt><trkpt lat="45.38088297064994" lon="7.6647794401989655"><ele>381.5</ele><time>2026-04-26T12:55:32.999Z</time></trkpt><trkpt lat="45.38077980998821" lon="7.664833125063524"><ele>380.75</ele><time>2026-04-26T12:55:33.999Z</time></trkpt><trkpt lat="45.38066730078438" lon="7.664883730191595"><ele>380.0</ele><time>2026-04-26T12:55:34.999Z</time></trkpt><trkpt lat="45.38054998447444" lon="7.664943671784487"><ele>379.5</ele><time>2026-04-26T12:55:35.999Z</time></trkpt><trkpt lat="45.38043821617147" lon="7.664992832248122"><ele>379.0</ele><time>2026-04-26T12:55:36.999Z</time></trkpt><trkpt lat="45.380322356053874" lon="7.665050741070523"><ele>378.5</ele><time>2026-04-26T12:55:37.999Z</time></trkpt><trkpt lat="45.380211939703685" lon="7.665107853032667"><ele>378.0</ele><time>2026-04-26T12:55:38.999Z</time></trkpt><trkpt lat="45.38010571631819" lon="7.665160729772772"><ele>378.0</ele><time>2026-04-26T12:55:39.998Z</time></trkpt><trkpt lat="45.37999550760705" lon="7.665220846542229"><ele>378.0</ele><time>2026-04-26T12:55:40.998Z</time></trkpt><trkpt lat="45.379871065637694" lon="7.665286132260207"><ele>378.0</ele><time>2026-04-26T12:55:41.998Z</time></trkpt><trkpt lat="45.37973900934688" lon="7.665338962867355"><ele>378.0</ele><time>2026-04-26T12:55:42.998Z</time></trkpt><trkpt lat="45.37960673254673" lon="7.6654108292925915"><ele>377.75</ele><time>2026-04-26T12:55:43.998Z</time></trkpt><trkpt lat="45.37947284060009" lon="7.665483006512863"><ele>377.5</ele><time>2026-04-26T12:55:44.998Z</time></trkpt><trkpt lat="45.379338116052715" lon="7.665547873919148"><ele>377.25</ele><time>2026-04-26T12:55:45.998Z</time></trkpt><trkpt lat="45.37920449456522" lon="7.66560733684433"><ele>377.0</ele><time>2026-04-26T12:55:46.998Z</time></trkpt><trkpt lat="45.37906465437971" lon="7.665678932577005"><ele>377.0</ele><time>2026-04-26T12:55:47.998Z</time></trkpt><trkpt lat="45.37892629509621" lon="7.665749577347557"><ele>377.0</ele><time>2026-04-26T12:55:48.998Z</time></trkpt><trkpt lat="45.37878412047007" lon="7.665823300582065"><ele>377.0</ele><time>2026-04-26T12:55:49.998Z</time></trkpt><trkpt lat="45.37860479567725" lon="7.66591712973002"><ele>377.0</ele><time>2026-04-26T12:55:50.998Z</time></trkpt><trkpt lat="45.378419622364014" lon="7.666016749455997"><ele>377.0</ele><time>2026-04-26T12:55:51.998Z</time></trkpt><trkpt lat="45.3782190346742" lon="7.6661288945049995"><ele>377.0</ele><time>2026-04-26T12:55:52.998Z</time></trkpt><trkpt lat="45.37802959676542" lon="7.666237713830899"><ele>378.5</ele><time>2026-04-26T12:55:53.998Z</time></trkpt><trkpt lat="45.37782817156771" lon="7.666366704208627"><ele>380.0</ele><time>2026-04-26T12:55:54.998Z</time></trkpt><trkpt lat="45.37761343120542" lon="7.666553303525093"><ele>380.0</ele><time>2026-04-26T12:55:55.998Z</time></trkpt><trkpt lat="45.37739005833147" lon="7.66677048057128"><ele>380.0</ele><time>2026-04-26T12:55:56.998Z</time></trkpt><trkpt lat="45.37714033044954" lon="7.666997482098234"><ele>377.0</ele><time>2026-04-26T12:55:57.998Z</time></trkpt><trkpt lat="45.376879092430315" lon="7.667224371993817"><ele>374.0</ele><time>2026-04-26T12:55:58.998Z</time></trkpt><trkpt lat="45.37660744200615" lon="7.6674623167697105"><ele>375.0</ele><time>2026-04-26T12:55:59.998Z</time></trkpt><trkpt lat="45.37633417762008" lon="7.6677131772176566"><ele>376.0</ele><time>2026-04-26T12:56:00.998Z</time></trkpt><trkpt lat="45.3760372725335" lon="7.66794118062535"><ele>376.0</ele><time>2026-04-26T12:56:01.998Z</time></trkpt><trkpt lat="45.37575078627243" lon="7.668201971545945"><ele>376.0</ele><time>2026-04-26T12:56:02.998Z</time></trkpt><trkpt lat="45.375479942880396" lon="7.66842234094166"><ele>374.0</ele><time>2026-04-26T12:56:03.998Z</time></trkpt><trkpt lat="45.37523924011705" lon="7.668632351655376"><ele>372.0</ele><time>2026-04-26T12:56:04.998Z</time></trkpt><trkpt lat="45.37501190304586" lon="7.668838659525841"><ele>372.0</ele><time>2026-04-26T12:56:05.998Z</time></trkpt><trkpt lat="45.37480366209756" lon="7.6690262349013025"><ele>372.0</ele><time>2026-04-26T12:56:06.998Z</time></trkpt><trkpt lat="45.37460503988148" lon="7.669198923801102"><ele>372.0</ele><time>2026-04-26T12:56:07.998Z</time></trkpt><trkpt lat="45.37441952256572" lon="7.669372444226529"><ele>372.0</ele><time>2026-04-26T12:56:08.998Z</time></trkpt><trkpt lat="45.37424945230581" lon="7.669558855675716"><ele>372.0</ele><time>2026-04-26T12:56:09.998Z</time></trkpt><trkpt lat="45.37409310207361" lon="7.669758736966091"><ele>372.0</ele><time>2026-04-26T12:56:10.998Z</time></trkpt><trkpt lat="45.373957804013536" lon="7.669970887396073"><ele>372.0</ele><time>2026-04-26T12:56:11.998Z</time></trkpt><trkpt lat="45.37382707708715" lon="7.670178770916018"><ele>372.0</ele><time>2026-04-26T12:56:12.998Z</time></trkpt><trkpt lat="45.37370333226113" lon="7.670380952854737"><ele>372.3333333333333</ele><time>2026-04-26T12:56:13.998Z</time></trkpt><trkpt lat="45.373581645719355" lon="7.670590121299953"><ele>372.66666666666663</ele><time>2026-04-26T12:56:14.998Z</time></trkpt><trkpt lat="45.37345665677682" lon="7.670808286591025"><ele>373.0</ele><time>2026-04-26T12:56:16Z</time></trkpt><trkpt lat="45.37333424081619" lon="7.671024078456978"><ele>372.0</ele><time>2026-04-26T12:56:17Z</time></trkpt><trkpt lat="45.37321839392576" lon="7.671235132965122"><ele>371.0</ele><time>2026-04-26T12:56:18Z</time></trkpt><trkpt lat="45.37310377730524" lon="7.671437525233708"><ele>370.0</ele><time>2026-04-26T12:56:19Z</time></trkpt><trkpt lat="45.37299064080273" lon="7.671628647892871"><ele>370.0</ele><time>2026-04-26T12:56:20Z</time></trkpt><trkpt lat="45.372879466678135" lon="7.671813321831068"><ele>370.0</ele><time>2026-04-26T12:56:21Z</time></trkpt><trkpt lat="45.37277297133031" lon="7.671998522787281"><ele>370.0</ele><time>2026-04-26T12:56:22Z</time></trkpt><trkpt lat="45.37267215329075" lon="7.672180445611776"><ele>369.0</ele><time>2026-04-26T12:56:23Z</time></trkpt><trkpt lat="45.372572399847144" lon="7.672354593613659"><ele>368.0</ele><time>2026-04-26T12:56:24Z</time></trkpt><trkpt lat="45.372473085199516" lon="7.672519170540642"><ele>367.0</ele><time>2026-04-26T12:56:25Z</time></trkpt><trkpt lat="45.372375042947425" lon="7.672682547917481"><ele>367.0</ele><time>2026-04-26T12:56:26Z</time></trkpt><trkpt lat="45.37227962053493" lon="7.67284130719373"><ele>367.0</ele><time>2026-04-26T12:56:27Z</time></trkpt><trkpt lat="45.37219129133417" lon="7.672998918705499"><ele>367.0</ele><time>2026-04-26T12:56:28Z</time></trkpt><trkpt lat="45.372111453714766" lon="7.673147983229104"><ele>367.0</ele><time>2026-04-26T12:56:29Z</time></trkpt><trkpt lat="45.37203711107616" lon="7.673282246273829"><ele>367.0</ele><time>2026-04-26T12:56:30Z</time></trkpt><trkpt lat="45.371970630806416" lon="7.673395580670838"><ele>367.0</ele><time>2026-04-26T12:56:31Z</time></trkpt><trkpt lat="45.37190659099772" lon="7.673486954256738"><ele>367.0</ele><time>2026-04-26T12:56:32Z</time></trkpt><trkpt lat="45.37183702634866" lon="7.673555608144953"><ele>367.0</ele><time>2026-04-26T12:56:33Z</time></trkpt><trkpt lat="45.37175607316771" lon="7.673601261590048"><ele>367.0</ele><time>2026-04-26T12:56:34Z</time></trkpt><trkpt lat="45.37166982753816" lon="7.673636170862584"><ele>366.6</ele><time>2026-04-26T12:56:35Z</time></trkpt><trkpt lat="45.371603507621465" lon="7.673705536095467"><ele>366.20000000000005</ele><time>2026-04-26T12:56:36Z</time></trkpt><trkpt lat="45.37156371049045" lon="7.673817075805478"><ele>365.8</ele><time>2026-04-26T12:56:37Z</time></trkpt><trkpt lat="45.37155005519113" lon="7.673947375374061"><ele>365.4</ele><time>2026-04-26T12:56:38Z</time></trkpt><trkpt lat="45.37154264051256" lon="7.674082700315185"><ele>365.0</ele><time>2026-04-26T12:56:39Z</time></trkpt><trkpt lat="45.37151029161494" lon="7.674221292097744"><ele>365.0</ele><time>2026-04-26T12:56:40Z</time></trkpt><trkpt lat="45.3714404341058" lon="7.6743486934374605"><ele>365.0</ele><time>2026-04-26T12:56:41Z</time></trkpt><trkpt lat="45.37135096151833" lon="7.674478128237829"><ele>365.0</ele><time>2026-04-26T12:56:42Z</time></trkpt><trkpt lat="45.37126138034356" lon="7.674617482780087"><ele>365.0</ele><time>2026-04-26T12:56:43Z</time></trkpt><trkpt lat="45.371167050554234" lon="7.674778196800546"><ele>364.75</ele><time>2026-04-26T12:56:44Z</time></trkpt><trkpt lat="45.371072018975276" lon="7.674946206127305"><ele>364.5</ele><time>2026-04-26T12:56:45Z</time></trkpt><trkpt lat="45.37097603335125" lon="7.675109941056332"><ele>364.25</ele><time>2026-04-26T12:56:46Z</time></trkpt><trkpt lat="45.37088427576021" lon="7.675270208112492"><ele>364.0</ele><time>2026-04-26T12:56:47Z</time></trkpt><trkpt lat="45.370787796661894" lon="7.675440888173261"><ele>364.5</ele><time>2026-04-26T12:56:48Z</time></trkpt><trkpt lat="45.37069159188122" lon="7.675611814374823"><ele>365.0</ele><time>2026-04-26T12:56:49Z</time></trkpt><trkpt lat="45.37059547811639" lon="7.675778003942088"><ele>365.5</ele><time>2026-04-26T12:56:49.999Z</time></trkpt><trkpt lat="45.370506405802594" lon="7.675937876265405"><ele>366.0</ele><time>2026-04-26T12:56:50.999Z</time></trkpt><trkpt lat="45.37041969586384" lon="7.676092583048352"><ele>365.25</ele><time>2026-04-26T12:56:51.999Z</time></trkpt><trkpt lat="45.37032814610508" lon="7.676252557286981"><ele>364.5</ele><time>2026-04-26T12:56:52.999Z</time></trkpt><trkpt lat="45.37024201944291" lon="7.676397575273171"><ele>363.75</ele><time>2026-04-26T12:56:53.999Z</time></trkpt><trkpt lat="45.3701538367135" lon="7.676539070276563"><ele>363.0</ele><time>2026-04-26T12:56:54.999Z</time></trkpt><trkpt lat="45.37006389479423" lon="7.676705982354716"><ele>363.0</ele><time>2026-04-26T12:56:55.999Z</time></trkpt><trkpt lat="45.36996788198679" lon="7.676872424318964"><ele>363.0</ele><time>2026-04-26T12:56:56.999Z</time></trkpt><trkpt lat="45.36986707621741" lon="7.677034095007602"><ele>363.0</ele><time>2026-04-26T12:56:57.999Z</time></trkpt><trkpt lat="45.36976629345353" lon="7.677206491873126"><ele>362.6666666666667</ele><time>2026-04-26T12:56:58.999Z</time></trkpt><trkpt lat="45.3696666700585" lon="7.677380126868087"><ele>362.33333333333337</ele><time>2026-04-26T12:56:59.999Z</time></trkpt><trkpt lat="45.369565639541946" lon="7.677559405764218"><ele>362.0</ele><time>2026-04-26T12:57:00.999Z</time></trkpt><trkpt lat="45.369465331842854" lon="7.677726249287588"><ele>361.0</ele><time>2026-04-26T12:57:01.999Z</time></trkpt><trkpt lat="45.36937056928514" lon="7.677886775416029"><ele>360.0</ele><time>2026-04-26T12:57:02.999Z</time></trkpt><trkpt lat="45.3692796123026" lon="7.678045889215169"><ele>359.0</ele><time>2026-04-26T12:57:03.999Z</time></trkpt><trkpt lat="45.36919271003138" lon="7.678207097468584"><ele>358.0</ele><time>2026-04-26T12:57:04.999Z</time></trkpt><trkpt lat="45.369101265751034" lon="7.678357719552326"><ele>358.0</ele><time>2026-04-26T12:57:05.999Z</time></trkpt><trkpt lat="45.36900532819427" lon="7.678516470252943"><ele>358.0</ele><time>2026-04-26T12:57:06.999Z</time></trkpt><trkpt lat="45.36891234978321" lon="7.678681846249874"><ele>358.0</ele><time>2026-04-26T12:57:07.999Z</time></trkpt><trkpt lat="45.36881225606959" lon="7.67885005625664"><ele>358.75</ele><time>2026-04-26T12:57:08.999Z</time></trkpt><trkpt lat="45.36871659286219" lon="7.679012437779978"><ele>359.5</ele><time>2026-04-26T12:57:09.999Z</time></trkpt><trkpt lat="45.36863097747002" lon="7.679174191590856"><ele>360.25</ele><time>2026-04-26T12:57:10.999Z</time></trkpt><trkpt lat="45.368542826500295" lon="7.679335225266426"><ele>361.0</ele><time>2026-04-26T12:57:11.999Z</time></trkpt><trkpt lat="45.368448189686525" lon="7.679502523060654"><ele>361.0</ele><time>2026-04-26T12:57:12.999Z</time></trkpt><trkpt lat="45.36835142181907" lon="7.679669046589905"><ele>361.0</ele><time>2026-04-26T12:57:13.999Z</time></trkpt><trkpt lat="45.36825173813922" lon="7.679840016794667"><ele>361.0</ele><time>2026-04-26T12:57:14.999Z</time></trkpt><trkpt lat="45.36814884965923" lon="7.680017172720265"><ele>361.0</ele><time>2026-04-26T12:57:15.999Z</time></trkpt><trkpt lat="45.36804327670562" lon="7.680193318921835"><ele>361.0</ele><time>2026-04-26T12:57:16.999Z</time></trkpt><trkpt lat="45.36792982761432" lon="7.6803752839882895"><ele>361.0</ele><time>2026-04-26T12:57:17.999Z</time></trkpt><trkpt lat="45.36780699998366" lon="7.680549039698786"><ele>360.0</ele><time>2026-04-26T12:57:18.999Z</time></trkpt><trkpt lat="45.367685276513875" lon="7.680722258096794"><ele>359.0</ele><time>2026-04-26T12:57:19.999Z</time></trkpt><trkpt lat="45.367565362004626" lon="7.680896431888763"><ele>358.0</ele><time>2026-04-26T12:57:20.999Z</time></trkpt><trkpt lat="45.367446117952284" lon="7.681068884579926"><ele>357.66666666666663</ele><time>2026-04-26T12:57:21.999Z</time></trkpt><trkpt lat="45.36732723163508" lon="7.681232301449089"><ele>357.3333333333333</ele><time>2026-04-26T12:57:22.999Z</time></trkpt><trkpt lat="45.36721312375246" lon="7.681386531078791"><ele>357.0</ele><time>2026-04-26T12:57:23.999Z</time></trkpt><trkpt lat="45.36710446285868" lon="7.681537126053175"><ele>357.0</ele><time>2026-04-26T12:57:24.999Z</time></trkpt><trkpt lat="45.36700146388458" lon="7.681686010680306"><ele>357.0</ele><time>2026-04-26T12:57:25.999Z</time></trkpt><trkpt lat="45.366897437309795" lon="7.68182858032545"><ele>357.0</ele><time>2026-04-26T12:57:26.999Z</time></trkpt><trkpt lat="45.366793431082" lon="7.681965971693082"><ele>357.0</ele><time>2026-04-26T12:57:27.999Z</time></trkpt><trkpt lat="45.36669986443691" lon="7.682098653979741"><ele>356.6</ele><time>2026-04-26T12:57:28.999Z</time></trkpt><trkpt lat="45.366616671860065" lon="7.682227733511552"><ele>356.20000000000005</ele><time>2026-04-26T12:57:29.999Z</time></trkpt><trkpt lat="45.36653685150725" lon="7.682346346363163"><ele>355.8</ele><time>2026-04-26T12:57:30.999Z</time></trkpt><trkpt lat="45.36645783433476" lon="7.682437359082876"><ele>355.4</ele><time>2026-04-26T12:57:31.999Z</time></trkpt><trkpt lat="45.366373924734724" lon="7.6824954987372855"><ele>355.0</ele><time>2026-04-26T12:57:32.999Z</time></trkpt><trkpt lat="45.36627961479355" lon="7.682519959294761"><ele>355.0</ele><time>2026-04-26T12:57:33.999Z</time></trkpt><trkpt lat="45.36618311515215" lon="7.682564370482419"><ele>355.0</ele><time>2026-04-26T12:57:34.999Z</time></trkpt><trkpt lat="45.36610667352255" lon="7.682661385646057"><ele>355.0</ele><time>2026-04-26T12:57:35.999Z</time></trkpt><trkpt lat="45.366062120519544" lon="7.682791277974056"><ele>355.0</ele><time>2026-04-26T12:57:36.999Z</time></trkpt><trkpt lat="45.366029951081146" lon="7.682951017349685"><ele>355.0</ele><time>2026-04-26T12:57:37.999Z</time></trkpt><trkpt lat="45.365975956603556" lon="7.683108926220471"><ele>353.66666666666663</ele><time>2026-04-26T12:57:38.999Z</time></trkpt><trkpt lat="45.3658805479087" lon="7.683255759904356"><ele>352.3333333333333</ele><time>2026-04-26T12:57:39.999Z</time></trkpt><trkpt lat="45.365763735591" lon="7.683398125032094"><ele>351.0</ele><time>2026-04-26T12:57:40.999Z</time></trkpt><trkpt lat="45.36564473507183" lon="7.68355661725939"><ele>351.3333333333333</ele><time>2026-04-26T12:57:41.999Z</time></trkpt><trkpt lat="45.36553760516571" lon="7.683715435597138"><ele>351.66666666666663</ele><time>2026-04-26T12:57:42.998Z</time></trkpt><trkpt lat="45.36542390097055" lon="7.68387778108807"><ele>352.0</ele><time>2026-04-26T12:57:43.998Z</time></trkpt><trkpt lat="45.365299196645644" lon="7.684044316648441"><ele>350.66666666666663</ele><time>2026-04-26T12:57:44.998Z</time></trkpt><trkpt lat="45.36516871601534" lon="7.684224049441708"><ele>349.3333333333333</ele><time>2026-04-26T12:57:45.998Z</time></trkpt><trkpt lat="45.36503743142582" lon="7.68441496639119"><ele>348.0</ele><time>2026-04-26T12:57:46.998Z</time></trkpt><trkpt lat="45.36489739192631" lon="7.684610118639783"><ele>348.0</ele><time>2026-04-26T12:57:47.998Z</time></trkpt><trkpt lat="45.36475469949119" lon="7.6848041184419245"><ele>348.0</ele><time>2026-04-26T12:57:48.998Z</time></trkpt><trkpt lat="45.36461867468411" lon="7.684991221326818"><ele>348.0</ele><time>2026-04-26T12:57:49.998Z</time></trkpt><trkpt lat="45.36447845663403" lon="7.68518235714262"><ele>348.0</ele><time>2026-04-26T12:57:50.998Z</time></trkpt><trkpt lat="45.36433131524016" lon="7.685381383197167"><ele>348.0</ele><time>2026-04-26T12:57:51.998Z</time></trkpt><trkpt lat="45.364181908675285" lon="7.685585520392627"><ele>348.0</ele><time>2026-04-26T12:57:52.998Z</time></trkpt><trkpt lat="45.36403491790658" lon="7.685790260604583"><ele>348.0</ele><time>2026-04-26T12:57:53.998Z</time></trkpt><trkpt lat="45.363892289530455" lon="7.685994326429347"><ele>348.0</ele><time>2026-04-26T12:57:54.998Z</time></trkpt><trkpt lat="45.363754449584405" lon="7.686191944651975"><ele>348.0</ele><time>2026-04-26T12:57:55.998Z</time></trkpt><trkpt lat="45.36361906788805" lon="7.686378265152261"><ele>347.3333333333333</ele><time>2026-04-26T12:57:56.998Z</time></trkpt><trkpt lat="45.36348778634919" lon="7.686551564998127"><ele>346.66666666666663</ele><time>2026-04-26T12:57:57.998Z</time></trkpt><trkpt lat="45.36335892503332" lon="7.6867222336061545"><ele>346.0</ele><time>2026-04-26T12:57:58.998Z</time></trkpt><trkpt lat="45.36323729190333" lon="7.686893462187323"><ele>346.0</ele><time>2026-04-26T12:57:59.998Z</time></trkpt><trkpt lat="45.36312004365951" lon="7.687058225734403"><ele>346.0</ele><time>2026-04-26T12:58:00.998Z</time></trkpt><trkpt lat="45.363002519539414" lon="7.687217137680027"><ele>346.0</ele><time>2026-04-26T12:58:01.998Z</time></trkpt><trkpt lat="45.36289089556821" lon="7.687367380441809"><ele>346.0</ele><time>2026-04-26T12:58:02.998Z</time></trkpt><trkpt lat="45.36278221199761" lon="7.687520122896312"><ele>346.0</ele><time>2026-04-26T12:58:03.998Z</time></trkpt><trkpt lat="45.36267651442183" lon="7.687669627144903"><ele>346.0</ele><time>2026-04-26T12:58:04.998Z</time></trkpt><trkpt lat="45.3625681196215" lon="7.687819862346907"><ele>345.3333333333333</ele><time>2026-04-26T12:58:05.998Z</time></trkpt><trkpt lat="45.36245422551039" lon="7.687976111180994"><ele>344.6666666666667</ele><time>2026-04-26T12:58:06.998Z</time></trkpt><trkpt lat="45.36233384167733" lon="7.688141088748711"><ele>344.0</ele><time>2026-04-26T12:58:07.998Z</time></trkpt><trkpt lat="45.362211593245725" lon="7.688313147428549"><ele>344.0</ele><time>2026-04-26T12:58:08.998Z</time></trkpt><trkpt lat="45.362084011574225" lon="7.688491985953897"><ele>344.0</ele><time>2026-04-26T12:58:09.998Z</time></trkpt><trkpt lat="45.36195457197535" lon="7.688667555349554"><ele>344.0</ele><time>2026-04-26T12:58:10.998Z</time></trkpt><trkpt lat="45.36182558638491" lon="7.688841310366513"><ele>343.6666666666667</ele><time>2026-04-26T12:58:11.998Z</time></trkpt><trkpt lat="45.36169625088695" lon="7.689017784921054"><ele>343.3333333333333</ele><time>2026-04-26T12:58:12.998Z</time></trkpt><trkpt lat="45.36156133058733" lon="7.68920950550474"><ele>343.0</ele><time>2026-04-26T12:58:13.998Z</time></trkpt><trkpt lat="45.36141960031305" lon="7.689403356920103"><ele>342.66666666666663</ele><time>2026-04-26T12:58:14.998Z</time></trkpt><trkpt lat="45.36127593088368" lon="7.68960341495626"><ele>342.3333333333333</ele><time>2026-04-26T12:58:15.998Z</time></trkpt><trkpt lat="45.36112841408772" lon="7.689806952625694"><ele>342.0</ele><time>2026-04-26T12:58:16.998Z</time></trkpt><trkpt lat="45.360977980265694" lon="7.690014252483573"><ele>342.0</ele><time>2026-04-26T12:58:17.998Z</time></trkpt><trkpt lat="45.360825823429096" lon="7.690221938560874"><ele>342.0</ele><time>2026-04-26T12:58:18.998Z</time></trkpt><trkpt lat="45.36067274936292" lon="7.690435227523906"><ele>342.0</ele><time>2026-04-26T12:58:19.998Z</time></trkpt><trkpt lat="45.36052435835301" lon="7.690638801269424"><ele>341.6666666666667</ele><time>2026-04-26T12:58:20.998Z</time></trkpt><trkpt lat="45.36037951527907" lon="7.690838465940517"><ele>341.33333333333337</ele><time>2026-04-26T12:58:22Z</time></trkpt><trkpt lat="45.36023980974019" lon="7.691030652101538"><ele>341.0</ele><time>2026-04-26T12:58:23Z</time></trkpt><trkpt lat="45.36009942085826" lon="7.691223620848526"><ele>340.6666666666667</ele><time>2026-04-26T12:58:24Z</time></trkpt><trkpt lat="45.35995528157995" lon="7.691415366515418"><ele>340.3333333333333</ele><time>2026-04-26T12:58:25Z</time></trkpt><trkpt lat="45.35981545410104" lon="7.691609624167312"><ele>340.0</ele><time>2026-04-26T12:58:26Z</time></trkpt><trkpt lat="45.3596765397468" lon="7.691805909856177"><ele>339.66666666666663</ele><time>2026-04-26T12:58:27Z</time></trkpt><trkpt lat="45.35953697897319" lon="7.6920021535462"><ele>339.3333333333333</ele><time>2026-04-26T12:58:28Z</time></trkpt><trkpt lat="45.35939877121515" lon="7.692194861282552"><ele>339.0</ele><time>2026-04-26T12:58:29Z</time></trkpt><trkpt lat="45.35926161114929" lon="7.692389419761288"><ele>339.0</ele><time>2026-04-26T12:58:30Z</time></trkpt><trkpt lat="45.359118918533845" lon="7.692582633604917"><ele>339.0</ele><time>2026-04-26T12:58:31Z</time></trkpt><trkpt lat="45.35897899147768" lon="7.692775724253139"><ele>339.0</ele><time>2026-04-26T12:58:32Z</time></trkpt><trkpt lat="45.35883817245253" lon="7.692970113064002"><ele>338.6666666666667</ele><time>2026-04-26T12:58:33Z</time></trkpt><trkpt lat="45.35869857647839" lon="7.693164457583773"><ele>338.33333333333337</ele><time>2026-04-26T12:58:34Z</time></trkpt><trkpt lat="45.35855749558937" lon="7.693363059999349"><ele>338.0</ele><time>2026-04-26T12:58:35Z</time></trkpt><trkpt lat="45.35841293208288" lon="7.693563689161349"><ele>337.33333333333337</ele><time>2026-04-26T12:58:36Z</time></trkpt><trkpt lat="45.3582688977736" lon="7.693763079408313"><ele>336.6666666666667</ele><time>2026-04-26T12:58:37Z</time></trkpt><trkpt lat="45.358122752071694" lon="7.693966245304782"><ele>336.0</ele><time>2026-04-26T12:58:38Z</time></trkpt><trkpt lat="45.357972756821034" lon="7.694170069505121"><ele>336.0</ele><time>2026-04-26T12:58:39Z</time></trkpt><trkpt lat="45.35782329107654" lon="7.694374682692765"><ele>336.0</ele><time>2026-04-26T12:58:40Z</time></trkpt><trkpt lat="45.35767653548319" lon="7.694579386219451"><ele>336.0</ele><time>2026-04-26T12:58:41Z</time></trkpt><trkpt lat="45.35752025115447" lon="7.694788823272787"><ele>335.6666666666667</ele><time>2026-04-26T12:58:42Z</time></trkpt><trkpt lat="45.35736895936541" lon="7.6949952050022645"><ele>335.33333333333337</ele><time>2026-04-26T12:58:43Z</time></trkpt><trkpt lat="45.357221546315365" lon="7.695200438888682"><ele>335.0</ele><time>2026-04-26T12:58:44Z</time></trkpt><trkpt lat="45.35708101920895" lon="7.695393783530921"><ele>335.0</ele><time>2026-04-26T12:58:45Z</time></trkpt><trkpt lat="45.35694983737775" lon="7.695574897992211"><ele>335.0</ele><time>2026-04-26T12:58:46Z</time></trkpt><trkpt lat="45.35681512963055" lon="7.695750774829679"><ele>335.0</ele><time>2026-04-26T12:58:47Z</time></trkpt><trkpt lat="45.35668462488109" lon="7.6959168573318655"><ele>335.0</ele><time>2026-04-26T12:58:48Z</time></trkpt><trkpt lat="45.35655650147605" lon="7.696080460693245"><ele>335.0</ele><time>2026-04-26T12:58:49Z</time></trkpt><trkpt lat="45.35644123269024" lon="7.696236763256218"><ele>335.0</ele><time>2026-04-26T12:58:49.999Z</time></trkpt><trkpt lat="45.35632610252508" lon="7.696389037474526"><ele>335.25</ele><time>2026-04-26T12:58:50.999Z</time></trkpt><trkpt lat="45.35620711152444" lon="7.696520875227641"><ele>335.5</ele><time>2026-04-26T12:58:51.999Z</time></trkpt><trkpt lat="45.356082900017554" lon="7.696614251718006"><ele>335.75</ele><time>2026-04-26T12:58:52.999Z</time></trkpt><trkpt lat="45.355946918854016" lon="7.696677051574112"><ele>336.0</ele><time>2026-04-26T12:58:53.999Z</time></trkpt><trkpt lat="45.355810650340786" lon="7.6967226906248"><ele>336.0</ele><time>2026-04-26T12:58:54.999Z</time></trkpt><trkpt lat="45.3556742479279" lon="7.696755730318307"><ele>336.0</ele><time>2026-04-26T12:58:55.999Z</time></trkpt><trkpt lat="45.35552340753798" lon="7.696780369806146"><ele>336.0</ele><time>2026-04-26T12:58:56.999Z</time></trkpt><trkpt lat="45.355376813595825" lon="7.69676920484307"><ele>336.0</ele><time>2026-04-26T12:58:57.999Z</time></trkpt><trkpt lat="45.3552347007602" lon="7.696737032477456"><ele>336.75</ele><time>2026-04-26T12:58:58.999Z</time></trkpt><trkpt lat="45.35509397625599" lon="7.696711368329603"><ele>337.5</ele><time>2026-04-26T12:58:59.999Z</time></trkpt><trkpt lat="45.35496128375535" lon="7.6967171787530235"><ele>338.25</ele><time>2026-04-26T12:59:00.999Z</time></trkpt><trkpt lat="45.35484171631669" lon="7.696760839344319"><ele>339.0</ele><time>2026-04-26T12:59:01.999Z</time></trkpt><trkpt lat="45.35473355011737" lon="7.696845601151993"><ele>337.75</ele><time>2026-04-26T12:59:02.999Z</time></trkpt><trkpt lat="45.35463943614577" lon="7.696967668584016"><ele>336.5</ele><time>2026-04-26T12:59:03.999Z</time></trkpt><trkpt lat="45.35455443351278" lon="7.697112851671459"><ele>335.25</ele><time>2026-04-26T12:59:04.999Z</time></trkpt><trkpt lat="45.35447417116899" lon="7.697282501299629"><ele>334.0</ele><time>2026-04-26T12:59:05.999Z</time></trkpt><trkpt lat="45.354411339047125" lon="7.697479283486286"><ele>334.0</ele><time>2026-04-26T12:59:06.999Z</time></trkpt><trkpt lat="45.354382717887006" lon="7.697689220236364"><ele>334.0</ele><time>2026-04-26T12:59:07.999Z</time></trkpt><trkpt lat="45.35436957409269" lon="7.697900090727029"><ele>334.0</ele><time>2026-04-26T12:59:08.999Z</time></trkpt><trkpt lat="45.354385576133424" lon="7.698103520267594"><ele>334.0</ele><time>2026-04-26T12:59:09.999Z</time></trkpt><trkpt lat="45.3544167261501" lon="7.698287796640575"><ele>333.75</ele><time>2026-04-26T12:59:10.999Z</time></trkpt><trkpt lat="45.35444715087974" lon="7.698444280977018"><ele>333.5</ele><time>2026-04-26T12:59:11.999Z</time></trkpt><trkpt lat="45.35447077088491" lon="7.698688851769717"><ele>333.25</ele><time>2026-04-26T12:59:12.999Z</time></trkpt><trkpt lat="45.354518885528705" lon="7.698906155393836"><ele>333.0</ele><time>2026-04-26T12:59:13.999Z</time></trkpt><trkpt lat="45.35456210349477" lon="7.699129153309721"><ele>332.3333333333333</ele><time>2026-04-26T12:59:14.999Z</time></trkpt><trkpt lat="45.35461450503145" lon="7.699365579681545"><ele>331.66666666666663</ele><time>2026-04-26T12:59:15.999Z</time></trkpt><trkpt lat="45.354673410288385" lon="7.699608602427897"><ele>331.0</ele><time>2026-04-26T12:59:16.999Z</time></trkpt><trkpt lat="45.35473941511717" lon="7.699848869379954"><ele>331.0</ele><time>2026-04-26T12:59:17.999Z</time></trkpt><trkpt lat="45.354810149765" lon="7.700097137485924"><ele>331.0</ele><time>2026-04-26T12:59:18.999Z</time></trkpt><trkpt lat="45.35489049124677" lon="7.700343217352807"><ele>331.0</ele><time>2026-04-26T12:59:19.999Z</time></trkpt><trkpt lat="45.35497055844881" lon="7.700587694535168"><ele>331.0</ele><time>2026-04-26T12:59:20.999Z</time></trkpt><trkpt lat="45.35505121700053" lon="7.700843554739339"><ele>331.0</ele><time>2026-04-26T12:59:21.999Z</time></trkpt><trkpt lat="45.355134224688626" lon="7.701106495804125"><ele>331.0</ele><time>2026-04-26T12:59:22.999Z</time></trkpt><trkpt lat="45.35522816671796" lon="7.7013742206812905"><ele>330.66666666666663</ele><time>2026-04-26T12:59:23.999Z</time></trkpt><trkpt lat="45.35532849571584" lon="7.701655530264339"><ele>330.3333333333333</ele><time>2026-04-26T12:59:24.999Z</time></trkpt><trkpt lat="45.35543123584878" lon="7.70192760940095"><ele>330.0</ele><time>2026-04-26T12:59:25.999Z</time></trkpt><trkpt lat="45.355545798314374" lon="7.702200704963681"><ele>330.0</ele><time>2026-04-26T12:59:26.999Z</time></trkpt><trkpt lat="45.35565450264616" lon="7.7024783564803"><ele>330.0</ele><time>2026-04-26T12:59:27.999Z</time></trkpt><trkpt lat="45.35576586862935" lon="7.702759469048154"><ele>330.5</ele><time>2026-04-26T12:59:28.999Z</time></trkpt><trkpt lat="45.3558801325397" lon="7.70304377227233"><ele>331.0</ele><time>2026-04-26T12:59:29.999Z</time></trkpt><trkpt lat="45.35599525823369" lon="7.7033244993547365"><ele>330.5</ele><time>2026-04-26T12:59:30.999Z</time></trkpt><trkpt lat="45.35610813494885" lon="7.703618872381277"><ele>330.0</ele><time>2026-04-26T12:59:31.999Z</time></trkpt><trkpt lat="45.35622039229091" lon="7.703916512535531"><ele>330.0</ele><time>2026-04-26T12:59:32.999Z</time></trkpt><trkpt lat="45.35633818895183" lon="7.704220101309379"><ele>330.0</ele><time>2026-04-26T12:59:33.999Z</time></trkpt><trkpt lat="45.356447686406895" lon="7.704505501502399"><ele>329.6666666666667</ele><time>2026-04-26T12:59:34.999Z</time></trkpt><trkpt lat="45.35654521221055" lon="7.704769845207265"><ele>329.33333333333337</ele><time>2026-04-26T12:59:35.999Z</time></trkpt><trkpt lat="45.3566438102007" lon="7.705018792891657"><ele>329.0</ele><time>2026-04-26T12:59:36.999Z</time></trkpt><trkpt lat="45.35673875225816" lon="7.705263789337944"><ele>328.6666666666667</ele><time>2026-04-26T12:59:37.999Z</time></trkpt><trkpt lat="45.35683548537729" lon="7.705519068653744"><ele>328.3333333333333</ele><time>2026-04-26T12:59:38.999Z</time></trkpt><trkpt lat="45.35693360308133" lon="7.705776575795525"><ele>328.0</ele><time>2026-04-26T12:59:39.999Z</time></trkpt><trkpt lat="45.35703211592728" lon="7.70603353546394"><ele>327.3333333333333</ele><time>2026-04-26T12:59:40.999Z</time></trkpt><trkpt lat="45.35713697392981" lon="7.706294372997866"><ele>326.6666666666667</ele><time>2026-04-26T12:59:41.999Z</time></trkpt><trkpt lat="45.357238503438396" lon="7.706554688837648"><ele>326.0</ele><time>2026-04-26T12:59:42.999Z</time></trkpt><trkpt lat="45.35734282655922" lon="7.706818623294234"><ele>324.6666666666667</ele><time>2026-04-26T12:59:43.999Z</time></trkpt><trkpt lat="45.357439590452586" lon="7.707065170049552"><ele>323.3333333333333</ele><time>2026-04-26T12:59:44.998Z</time></trkpt><trkpt lat="45.35753544322518" lon="7.707320691614862"><ele>322.0</ele><time>2026-04-26T12:59:45.998Z</time></trkpt><trkpt lat="45.357630987009784" lon="7.707583891824593"><ele>322.3333333333333</ele><time>2026-04-26T12:59:46.998Z</time></trkpt><trkpt lat="45.357729815571545" lon="7.707843035513179"><ele>322.6666666666667</ele><time>2026-04-26T12:59:47.998Z</time></trkpt><trkpt lat="45.35783177556423" lon="7.708101588821614"><ele>323.0</ele><time>2026-04-26T12:59:48.998Z</time></trkpt><trkpt lat="45.357936997789984" lon="7.708363841533743"><ele>322.0</ele><time>2026-04-26T12:59:49.998Z</time></trkpt><trkpt lat="45.35803894116527" lon="7.708627507435938"><ele>321.0</ele><time>2026-04-26T12:59:50.998Z</time></trkpt><trkpt lat="45.358141607388234" lon="7.708896092083817"><ele>320.0</ele><time>2026-04-26T12:59:51.998Z</time></trkpt><trkpt lat="45.358246243630305" lon="7.709167845196869"><ele>319.0</ele><time>2026-04-26T12:59:52.998Z</time></trkpt><trkpt lat="45.35835311014078" lon="7.709441294043448"><ele>318.0</ele><time>2026-04-26T12:59:53.998Z</time></trkpt><trkpt lat="45.3584629521914" lon="7.709714554776262"><ele>317.0</ele><time>2026-04-26T12:59:54.998Z</time></trkpt><trkpt lat="45.35856894151559" lon="7.70999356474324"><ele>316.33333333333337</ele><time>2026-04-26T12:59:55.998Z</time></trkpt><trkpt lat="45.35867697818797" lon="7.710273440706571"><ele>315.6666666666667</ele><time>2026-04-26T12:59:56.998Z</time></trkpt><trkpt lat="45.35878508343497" lon="7.710552292881564"><ele>315.0</ele><time>2026-04-26T12:59:57.998Z</time></trkpt><trkpt lat="45.35889607732408" lon="7.710834045566591"><ele>315.0</ele><time>2026-04-26T12:59:58.998Z</time></trkpt><trkpt lat="45.35900418774849" lon="7.711116373965334"><ele>315.0</ele><time>2026-04-26T12:59:59.998Z</time></trkpt><trkpt lat="45.35911353848358" lon="7.711401483693329"><ele>315.0</ele><time>2026-04-26T13:00:00.998Z</time></trkpt><trkpt lat="45.35922453883187" lon="7.711686468930414"><ele>315.0</ele><time>2026-04-26T13:00:01.998Z</time></trkpt><trkpt lat="45.359334497195626" lon="7.711972320202548"><ele>316.0</ele><time>2026-04-26T13:00:02.998Z</time></trkpt><trkpt lat="45.35944683234488" lon="7.712258417091622"><ele>317.0</ele><time>2026-04-26T13:00:03.998Z</time></trkpt><trkpt lat="45.35955782022774" lon="7.712542467437831"><ele>318.0</ele><time>2026-04-26T13:00:04.998Z</time></trkpt><trkpt lat="45.35967031839227" lon="7.71282752796021"><ele>319.0</ele><time>2026-04-26T13:00:05.998Z</time></trkpt><trkpt lat="45.35977539088106" lon="7.713106805833649"><ele>319.3333333333333</ele><time>2026-04-26T13:00:06.998Z</time></trkpt><trkpt lat="45.35988270688412" lon="7.713381854463578"><ele>319.6666666666667</ele><time>2026-04-26T13:00:07.998Z</time></trkpt><trkpt lat="45.35998957834331" lon="7.713652959494341"><ele>320.0</ele><time>2026-04-26T13:00:08.998Z</time></trkpt><trkpt lat="45.360095772992125" lon="7.713923614777839"><ele>319.33333333333337</ele><time>2026-04-26T13:00:09.998Z</time></trkpt><trkpt lat="45.36020216229085" lon="7.714192104011381"><ele>318.6666666666667</ele><time>2026-04-26T13:00:10.998Z</time></trkpt><trkpt lat="45.3603053417148" lon="7.71446599046658"><ele>318.0</ele><time>2026-04-26T13:00:11.998Z</time></trkpt><trkpt lat="45.36040902650654" lon="7.7147438088200095"><ele>317.0</ele><time>2026-04-26T13:00:12.998Z</time></trkpt><trkpt lat="45.360518425447346" lon="7.715023492741608"><ele>316.0</ele><time>2026-04-26T13:00:13.998Z</time></trkpt><trkpt lat="45.36062973182042" lon="7.715302578866863"><ele>315.5</ele><time>2026-04-26T13:00:14.998Z</time></trkpt><trkpt lat="45.36074303157599" lon="7.7155842977664"><ele>315.0</ele><time>2026-04-26T13:00:15.998Z</time></trkpt><trkpt lat="45.36085415651635" lon="7.71587277400171"><ele>315.0</ele><time>2026-04-26T13:00:16.998Z</time></trkpt><trkpt lat="45.360965698508735" lon="7.716165828356477"><ele>315.0</ele><time>2026-04-26T13:00:17.998Z</time></trkpt><trkpt lat="45.361080515292315" lon="7.716456857164592"><ele>315.0</ele><time>2026-04-26T13:00:18.998Z</time></trkpt><trkpt lat="45.361193645479126" lon="7.716747556685861"><ele>315.0</ele><time>2026-04-26T13:00:19.998Z</time></trkpt><trkpt lat="45.36130355878135" lon="7.717033984042164"><ele>315.3333333333333</ele><time>2026-04-26T13:00:20.998Z</time></trkpt><trkpt lat="45.36141022214756" lon="7.717301623208974"><ele>315.66666666666663</ele><time>2026-04-26T13:00:21.998Z</time></trkpt><trkpt lat="45.361511447452656" lon="7.717567113015194"><ele>316.0</ele><time>2026-04-26T13:00:22.998Z</time></trkpt><trkpt lat="45.36160886593832" lon="7.717824117864324"><ele>316.0</ele><time>2026-04-26T13:00:23.998Z</time></trkpt><trkpt lat="45.361710430234204" lon="7.718089554037527"><ele>316.0</ele><time>2026-04-26T13:00:24.998Z</time></trkpt><trkpt lat="45.361812945836704" lon="7.718353118308245"><ele>316.0</ele><time>2026-04-26T13:00:25.998Z</time></trkpt><trkpt lat="45.361916826104" lon="7.718617726282521"><ele>316.0</ele><time>2026-04-26T13:00:26.998Z</time></trkpt><trkpt lat="45.36202455982355" lon="7.71888557064404"><ele>316.0</ele><time>2026-04-26T13:00:28Z</time></trkpt><trkpt lat="45.36213349783585" lon="7.719143883291676"><ele>316.0</ele><time>2026-04-26T13:00:29Z</time></trkpt><trkpt lat="45.36224873223531" lon="7.719411234473868"><ele>316.3333333333333</ele><time>2026-04-26T13:00:30Z</time></trkpt><trkpt lat="45.36236303413478" lon="7.71967515508494"><ele>316.6666666666667</ele><time>2026-04-26T13:00:31Z</time></trkpt><trkpt lat="45.36248111334972" lon="7.7199374313954445"><ele>317.0</ele><time>2026-04-26T13:00:32Z</time></trkpt><trkpt lat="45.362603534845675" lon="7.720199658649534"><ele>316.6666666666667</ele><time>2026-04-26T13:00:33Z</time></trkpt><trkpt lat="45.36272797155736" lon="7.720457296972017"><ele>316.3333333333333</ele><time>2026-04-26T13:00:34Z</time></trkpt><trkpt lat="45.36285634491031" lon="7.7207121994715"><ele>316.0</ele><time>2026-04-26T13:00:35Z</time></trkpt><trkpt lat="45.36299001731381" lon="7.720971460617145"><ele>317.0</ele><time>2026-04-26T13:00:36Z</time></trkpt><trkpt lat="45.36312341404695" lon="7.721228155324286"><ele>318.0</ele><time>2026-04-26T13:00:37Z</time></trkpt><trkpt lat="45.36325975154919" lon="7.721486690365106"><ele>318.0</ele><time>2026-04-26T13:00:38Z</time></trkpt><trkpt lat="45.363397426793625" lon="7.721737340870082"><ele>318.0</ele><time>2026-04-26T13:00:39Z</time></trkpt><trkpt lat="45.36353734878195" lon="7.72199106473109"><ele>318.0</ele><time>2026-04-26T13:00:40Z</time></trkpt><trkpt lat="45.36367946845621" lon="7.722241111637938"><ele>318.0</ele><time>2026-04-26T13:00:41Z</time></trkpt><trkpt lat="45.36382230176176" lon="7.722486884464218"><ele>319.5</ele><time>2026-04-26T13:00:42Z</time></trkpt><trkpt lat="45.36397087097088" lon="7.722728065645173"><ele>321.0</ele><time>2026-04-26T13:00:43Z</time></trkpt><trkpt lat="45.36411789971867" lon="7.722968970128221"><ele>321.3333333333333</ele><time>2026-04-26T13:00:44Z</time></trkpt><trkpt lat="45.36426645598804" lon="7.723206551750012"><ele>321.66666666666663</ele><time>2026-04-26T13:00:45Z</time></trkpt><trkpt lat="45.364418456474695" lon="7.723443520084368"><ele>322.0</ele><time>2026-04-26T13:00:46Z</time></trkpt><trkpt lat="45.364572375699645" lon="7.723674850016178"><ele>323.0</ele><time>2026-04-26T13:00:47Z</time></trkpt><trkpt lat="45.36472976011631" lon="7.723896828936852"><ele>324.0</ele><time>2026-04-26T13:00:48Z</time></trkpt><trkpt lat="45.3648840202427" lon="7.724114620290695"><ele>325.0</ele><time>2026-04-26T13:00:49Z</time></trkpt><trkpt lat="45.3650384932242" lon="7.724328501747279"><ele>324.66666666666663</ele><time>2026-04-26T13:00:50Z</time></trkpt><trkpt lat="45.36518443583653" lon="7.72453432482439"><ele>324.3333333333333</ele><time>2026-04-26T13:00:51Z</time></trkpt><trkpt lat="45.36533018520399" lon="7.72472855876531"><ele>324.0</ele><time>2026-04-26T13:00:52Z</time></trkpt><trkpt lat="45.36547504177705" lon="7.724915925007768"><ele>324.0</ele><time>2026-04-26T13:00:53Z</time></trkpt><trkpt lat="45.365628752504335" lon="7.725100974216092"><ele>324.0</ele><time>2026-04-26T13:00:53.999Z</time></trkpt><trkpt lat="45.365783948165074" lon="7.725293297770986"><ele>324.0</ele><time>2026-04-26T13:00:54.999Z</time></trkpt><trkpt lat="45.3659416005698" lon="7.725487962431441"><ele>324.3333333333333</ele><time>2026-04-26T13:00:55.999Z</time></trkpt><trkpt lat="45.3661058067624" lon="7.725684066768503"><ele>324.66666666666663</ele><time>2026-04-26T13:00:56.999Z</time></trkpt><trkpt lat="45.36627562232096" lon="7.725879699081488"><ele>325.0</ele><time>2026-04-26T13:00:57.999Z</time></trkpt><trkpt lat="45.36645043928642" lon="7.7260709302792145"><ele>324.0</ele><time>2026-04-26T13:00:58.999Z</time></trkpt><trkpt lat="45.36662888764642" lon="7.726263584052941"><ele>323.0</ele><time>2026-04-26T13:00:59.999Z</time></trkpt><trkpt lat="45.366808922985285" lon="7.726457292066003"><ele>323.0</ele><time>2026-04-26T13:01:00.999Z</time></trkpt><trkpt lat="45.366992475662286" lon="7.726649962500376"><ele>323.0</ele><time>2026-04-26T13:01:01.999Z</time></trkpt><trkpt lat="45.36718075811218" lon="7.726838336307199"><ele>322.0</ele><time>2026-04-26T13:01:02.999Z</time></trkpt><trkpt lat="45.36737040830599" lon="7.727025048754748"><ele>321.0</ele><time>2026-04-26T13:01:03.999Z</time></trkpt><trkpt lat="45.3675639276137" lon="7.727213876461513"><ele>321.0</ele><time>2026-04-26T13:01:04.999Z</time></trkpt><trkpt lat="45.36776011257796" lon="7.727399042992263"><ele>321.0</ele><time>2026-04-26T13:01:05.999Z</time></trkpt><trkpt lat="45.367960333802934" lon="7.72757946341234"><ele>321.6666666666667</ele><time>2026-04-26T13:01:06.999Z</time></trkpt><trkpt lat="45.3681559939384" lon="7.727749044984792"><ele>322.33333333333337</ele><time>2026-04-26T13:01:07.999Z</time></trkpt><trkpt lat="45.368339812883576" lon="7.72790695347929"><ele>323.0</ele><time>2026-04-26T13:01:08.999Z</time></trkpt><trkpt lat="45.36851869774655" lon="7.728058397309391"><ele>323.0</ele><time>2026-04-26T13:01:09.999Z</time></trkpt><trkpt lat="45.36869371290918" lon="7.728205247251376"><ele>323.0</ele><time>2026-04-26T13:01:10.999Z</time></trkpt><trkpt lat="45.368870486043676" lon="7.728349001476324"><ele>323.0</ele><time>2026-04-26T13:01:11.999Z</time></trkpt><trkpt lat="45.36904758927441" lon="7.728493118162685"><ele>322.33333333333337</ele><time>2026-04-26T13:01:12.999Z</time></trkpt><trkpt lat="45.36922812665095" lon="7.728636627619032"><ele>321.6666666666667</ele><time>2026-04-26T13:01:13.999Z</time></trkpt><trkpt lat="45.36941394878132" lon="7.72877329399371"><ele>321.0</ele><time>2026-04-26T13:01:14.999Z</time></trkpt><trkpt lat="45.36960131630039" lon="7.728903232995915"><ele>321.3333333333333</ele><time>2026-04-26T13:01:15.999Z</time></trkpt><trkpt lat="45.3697916940776" lon="7.729030784460634"><ele>321.66666666666663</ele><time>2026-04-26T13:01:16.999Z</time></trkpt><trkpt lat="45.36998139444753" lon="7.729150822486492"><ele>322.0</ele><time>2026-04-26T13:01:17.999Z</time></trkpt><trkpt lat="45.370175027889225" lon="7.729274613628549"><ele>322.3333333333333</ele><time>2026-04-26T13:01:18.999Z</time></trkpt><trkpt lat="45.37037006686435" lon="7.72939806509903"><ele>322.6666666666667</ele><time>2026-04-26T13:01:19.999Z</time></trkpt><trkpt lat="45.37056603553238" lon="7.729518000974853"><ele>323.0</ele><time>2026-04-26T13:01:20.999Z</time></trkpt><trkpt lat="45.3707652891264" lon="7.729635666829464"><ele>323.0</ele><time>2026-04-26T13:01:21.999Z</time></trkpt><trkpt lat="45.370953987125404" lon="7.729742907116356"><ele>323.0</ele><time>2026-04-26T13:01:22.999Z</time></trkpt><trkpt lat="45.37113738245306" lon="7.729840100834437"><ele>323.0</ele><time>2026-04-26T13:01:23.999Z</time></trkpt><trkpt lat="45.37131066587996" lon="7.729933591211558"><ele>323.6666666666667</ele><time>2026-04-26T13:01:24.999Z</time></trkpt><trkpt lat="45.37147729070645" lon="7.730020914609731"><ele>324.3333333333333</ele><time>2026-04-26T13:01:25.999Z</time></trkpt><trkpt lat="45.371654516078685" lon="7.730110049258758"><ele>325.0</ele><time>2026-04-26T13:01:26.999Z</time></trkpt><trkpt lat="45.371834646092836" lon="7.730192824071702"><ele>324.3333333333333</ele><time>2026-04-26T13:01:27.999Z</time></trkpt><trkpt lat="45.37201068920827" lon="7.730275098256738"><ele>323.6666666666667</ele><time>2026-04-26T13:01:28.999Z</time></trkpt><trkpt lat="45.37218929467229" lon="7.730357787886996"><ele>323.0</ele><time>2026-04-26T13:01:29.999Z</time></trkpt><trkpt lat="45.37237097956208" lon="7.730437388948751"><ele>322.6666666666667</ele><time>2026-04-26T13:01:30.999Z</time></trkpt><trkpt lat="45.37255269796381" lon="7.730511074594305"><ele>322.3333333333333</ele><time>2026-04-26T13:01:31.999Z</time></trkpt><trkpt lat="45.37273327028761" lon="7.730578248618204"><ele>322.0</ele><time>2026-04-26T13:01:32.999Z</time></trkpt><trkpt lat="45.37292084406554" lon="7.730652837633403"><ele>322.3333333333333</ele><time>2026-04-26T13:01:33.999Z</time></trkpt><trkpt lat="45.37311025248576" lon="7.730721314326036"><ele>322.6666666666667</ele><time>2026-04-26T13:01:34.999Z</time></trkpt><trkpt lat="45.3732968293032" lon="7.730790648581036"><ele>323.0</ele><time>2026-04-26T13:01:35.999Z</time></trkpt><trkpt lat="45.37348807431945" lon="7.730856244789198"><ele>323.0</ele><time>2026-04-26T13:01:36.999Z</time></trkpt><trkpt lat="45.37368330130635" lon="7.7309198872026"><ele>323.0</ele><time>2026-04-26T13:01:37.999Z</time></trkpt><trkpt lat="45.373877228381325" lon="7.730980503568086"><ele>323.0</ele><time>2026-04-26T13:01:38.999Z</time></trkpt><trkpt lat="45.37406096811859" lon="7.731037294872217"><ele>323.0</ele><time>2026-04-26T13:01:39.999Z</time></trkpt><trkpt lat="45.37423958064005" lon="7.731099377322756"><ele>323.0</ele><time>2026-04-26T13:01:40.999Z</time></trkpt><trkpt lat="45.37440963053761" lon="7.731161601287015"><ele>323.0</ele><time>2026-04-26T13:01:41.999Z</time></trkpt><trkpt lat="45.374568239121665" lon="7.731217327601136"><ele>323.33333333333337</ele><time>2026-04-26T13:01:42.999Z</time></trkpt><trkpt lat="45.374725908910385" lon="7.731267975312939"><ele>323.6666666666667</ele><time>2026-04-26T13:01:43.999Z</time></trkpt><trkpt lat="45.37488634576489" lon="7.731323228073604"><ele>324.0</ele><time>2026-04-26T13:01:44.999Z</time></trkpt><trkpt lat="45.375053456137096" lon="7.731376972088992"><ele>324.0</ele><time>2026-04-26T13:01:45.999Z</time></trkpt><trkpt lat="45.37522530275585" lon="7.73143144407829"><ele>324.0</ele><time>2026-04-26T13:01:46.999Z</time></trkpt><trkpt lat="45.375386233500734" lon="7.731482627965637"><ele>324.0</ele><time>2026-04-26T13:01:47.999Z</time></trkpt><trkpt lat="45.375557681296" lon="7.731541740420742"><ele>323.6666666666667</ele><time>2026-04-26T13:01:48.999Z</time></trkpt><trkpt lat="45.37573197550582" lon="7.731596337208191"><ele>323.33333333333337</ele><time>2026-04-26T13:01:49.999Z</time></trkpt><trkpt lat="45.375910694195206" lon="7.731654926633823"><ele>323.0</ele><time>2026-04-26T13:01:50.998Z</time></trkpt><trkpt lat="45.37609041198998" lon="7.731710958926765"><ele>323.0</ele><time>2026-04-26T13:01:51.998Z</time></trkpt><trkpt lat="45.37627256422485" lon="7.731772929118731"><ele>323.0</ele><time>2026-04-26T13:01:52.998Z</time></trkpt><trkpt lat="45.3764641719275" lon="7.731841006010434"><ele>323.0</ele><time>2026-04-26T13:01:53.998Z</time></trkpt><trkpt lat="45.376658243185055" lon="7.731906097062141"><ele>323.33333333333337</ele><time>2026-04-26T13:01:54.998Z</time></trkpt><trkpt lat="45.37685653677033" lon="7.731968786077938"><ele>323.6666666666667</ele><time>2026-04-26T13:01:55.998Z</time></trkpt><trkpt lat="45.37705816017039" lon="7.732047304371558"><ele>324.0</ele><time>2026-04-26T13:01:56.998Z</time></trkpt><trkpt lat="45.37727516880282" lon="7.732110334252335"><ele>324.3333333333333</ele><time>2026-04-26T13:01:57.998Z</time></trkpt><trkpt lat="45.377490331039645" lon="7.732175529756174"><ele>324.66666666666663</ele><time>2026-04-26T13:01:58.998Z</time></trkpt><trkpt lat="45.377708441889354" lon="7.732242158324975"><ele>325.0</ele><time>2026-04-26T13:01:59.998Z</time></trkpt><trkpt lat="45.37792677992584" lon="7.732322528241794"><ele>325.5</ele><time>2026-04-26T13:02:00.998Z</time></trkpt><trkpt lat="45.3781485616365" lon="7.7324002555120135"><ele>326.0</ele><time>2026-04-26T13:02:01.998Z</time></trkpt><trkpt lat="45.37837392514679" lon="7.732473277299361"><ele>326.0</ele><time>2026-04-26T13:02:02.998Z</time></trkpt><trkpt lat="45.37860233423504" lon="7.7325459259336675"><ele>326.0</ele><time>2026-04-26T13:02:03.998Z</time></trkpt><trkpt lat="45.37883213069944" lon="7.732620124371869"><ele>325.5</ele><time>2026-04-26T13:02:04.998Z</time></trkpt><trkpt lat="45.37906438492683" lon="7.732696895227794"><ele>325.0</ele><time>2026-04-26T13:02:05.998Z</time></trkpt><trkpt lat="45.379299845589664" lon="7.732772213496057"><ele>325.0</ele><time>2026-04-26T13:02:06.998Z</time></trkpt><trkpt lat="45.379532654611815" lon="7.732848163827356"><ele>325.0</ele><time>2026-04-26T13:02:07.998Z</time></trkpt><trkpt lat="45.37976559832007" lon="7.732921276608617"><ele>326.5</ele><time>2026-04-26T13:02:08.998Z</time></trkpt><trkpt lat="45.37999095912513" lon="7.732997984339137"><ele>328.0</ele><time>2026-04-26T13:02:09.998Z</time></trkpt><trkpt lat="45.38021270169341" lon="7.73307218984935"><ele>328.0</ele><time>2026-04-26T13:02:10.998Z</time></trkpt><trkpt lat="45.38043575638664" lon="7.7331465937181365"><ele>328.0</ele><time>2026-04-26T13:02:11.998Z</time></trkpt><trkpt lat="45.38065955694608" lon="7.733219868792185"><ele>327.66666666666663</ele><time>2026-04-26T13:02:12.998Z</time></trkpt><trkpt lat="45.380878515254906" lon="7.733286420593548"><ele>327.3333333333333</ele><time>2026-04-26T13:02:13.998Z</time></trkpt><trkpt lat="45.381070054696536" lon="7.733337551785699"><ele>327.0</ele><time>2026-04-26T13:02:14.998Z</time></trkpt><trkpt lat="45.381256966816544" lon="7.733402740033473"><ele>327.3333333333333</ele><time>2026-04-26T13:02:15.998Z</time></trkpt><trkpt lat="45.381455218249855" lon="7.73347358349217"><ele>327.66666666666663</ele><time>2026-04-26T13:02:16.998Z</time></trkpt><trkpt lat="45.3816542872073" lon="7.733547619145267"><ele>328.0</ele><time>2026-04-26T13:02:17.998Z</time></trkpt><trkpt lat="45.381846971041874" lon="7.733628194016163"><ele>328.0</ele><time>2026-04-26T13:02:18.998Z</time></trkpt><trkpt lat="45.38202721851037" lon="7.733723815991776"><ele>328.0</ele><time>2026-04-26T13:02:19.998Z</time></trkpt><trkpt lat="45.382204573271714" lon="7.733819141904477"><ele>328.0</ele><time>2026-04-26T13:02:20.998Z</time></trkpt><trkpt lat="45.3823793681879" lon="7.733908813226158"><ele>327.66666666666663</ele><time>2026-04-26T13:02:21.998Z</time></trkpt><trkpt lat="45.3825544095922" lon="7.734002856822182"><ele>327.3333333333333</ele><time>2026-04-26T13:02:22.998Z</time></trkpt><trkpt lat="45.382730845377814" lon="7.7341162018617675"><ele>327.0</ele><time>2026-04-26T13:02:23.998Z</time></trkpt><trkpt lat="45.38290751170842" lon="7.734227867491095"><ele>327.6666666666667</ele><time>2026-04-26T13:02:24.998Z</time></trkpt><trkpt lat="45.38308467509849" lon="7.7343448804574955"><ele>328.33333333333337</ele><time>2026-04-26T13:02:25.998Z</time></trkpt><trkpt lat="45.383260709801306" lon="7.734469925699113"><ele>329.0</ele><time>2026-04-26T13:02:26.998Z</time></trkpt><trkpt lat="45.383440786884805" lon="7.73459761288862"><ele>329.33333333333337</ele><time>2026-04-26T13:02:27.998Z</time></trkpt><trkpt lat="45.38361513175279" lon="7.734731371346679"><ele>329.6666666666667</ele><time>2026-04-26T13:02:28.998Z</time></trkpt><trkpt lat="45.38378474546" lon="7.734865950981131"><ele>330.0</ele><time>2026-04-26T13:02:29.998Z</time></trkpt><trkpt lat="45.38394409216888" lon="7.7350030753209875"><ele>330.0</ele><time>2026-04-26T13:02:30.998Z</time></trkpt><trkpt lat="45.38409317192714" lon="7.735142849475021"><ele>330.0</ele><time>2026-04-26T13:02:31.998Z</time></trkpt><trkpt lat="45.38423221638647" lon="7.735280781727109"><ele>330.0</ele><time>2026-04-26T13:02:33Z</time></trkpt><trkpt lat="45.38436356673095" lon="7.735416625216635"><ele>330.3333333333333</ele><time>2026-04-26T13:02:34Z</time></trkpt><trkpt lat="45.38449044758568" lon="7.735547700306878"><ele>330.66666666666663</ele><time>2026-04-26T13:02:35Z</time></trkpt><trkpt lat="45.38461845669618" lon="7.735681186296345"><ele>331.0</ele><time>2026-04-26T13:02:36Z</time></trkpt><trkpt lat="45.38474489807296" lon="7.735824731256284"><ele>331.3333333333333</ele><time>2026-04-26T13:02:37Z</time></trkpt><trkpt lat="45.38487119192744" lon="7.7359744574455895"><ele>331.6666666666667</ele><time>2026-04-26T13:02:38Z</time></trkpt><trkpt lat="45.38499789957672" lon="7.736129019346245"><ele>332.0</ele><time>2026-04-26T13:02:39Z</time></trkpt><trkpt lat="45.385132331041035" lon="7.736283932259641"><ele>332.33333333333337</ele><time>2026-04-26T13:02:40Z</time></trkpt><trkpt lat="45.38525944617437" lon="7.7364327804961235"><ele>332.6666666666667</ele><time>2026-04-26T13:02:41Z</time></trkpt><trkpt lat="45.385385914230554" lon="7.736587081264256"><ele>333.0</ele><time>2026-04-26T13:02:42Z</time></trkpt><trkpt lat="45.38551761933078" lon="7.7367440125545635"><ele>333.3333333333333</ele><time>2026-04-26T13:02:43Z</time></trkpt><trkpt lat="45.385652341577114" lon="7.736903680987715"><ele>333.66666666666663</ele><time>2026-04-26T13:02:44Z</time></trkpt><trkpt lat="45.3857870854287" lon="7.737064750258716"><ele>334.0</ele><time>2026-04-26T13:02:45Z</time></trkpt><trkpt lat="45.38592511944635" lon="7.7372249025385536"><ele>334.0</ele><time>2026-04-26T13:02:46Z</time></trkpt><trkpt lat="45.38606088959622" lon="7.737380939915942"><ele>334.0</ele><time>2026-04-26T13:02:47Z</time></trkpt><trkpt lat="45.386194421956425" lon="7.737536796811165"><ele>334.0</ele><time>2026-04-26T13:02:48Z</time></trkpt><trkpt lat="45.38632910370994" lon="7.737698003178237"><ele>335.66666666666663</ele><time>2026-04-26T13:02:49Z</time></trkpt><trkpt lat="45.38646714488271" lon="7.737871267416176"><ele>337.3333333333333</ele><time>2026-04-26T13:02:50Z</time></trkpt><trkpt lat="45.38659282384485" lon="7.738009863304903"><ele>339.0</ele><time>2026-04-26T13:02:51Z</time></trkpt><trkpt lat="45.38671429804793" lon="7.738152663742675"><ele>339.0</ele><time>2026-04-26T13:02:52Z</time></trkpt><trkpt lat="45.38683210245468" lon="7.738299662248526"><ele>339.0</ele><time>2026-04-26T13:02:52.999Z</time></trkpt><trkpt lat="45.38695678296421" lon="7.738450728467012"><ele>339.0</ele><time>2026-04-26T13:02:53.999Z</time></trkpt><trkpt lat="45.38708447758186" lon="7.738602378061776"><ele>338.6666666666667</ele><time>2026-04-26T13:02:54.999Z</time></trkpt><trkpt lat="45.38721923174269" lon="7.738760423423063"><ele>338.33333333333337</ele><time>2026-04-26T13:02:55.999Z</time></trkpt><trkpt lat="45.38735309113289" lon="7.7389180722703"><ele>338.0</ele><time>2026-04-26T13:02:56.999Z</time></trkpt><trkpt lat="45.38749123862526" lon="7.739084506803941"><ele>338.0</ele><time>2026-04-26T13:02:57.999Z</time></trkpt><trkpt lat="45.38763187122555" lon="7.7392519364003585"><ele>338.0</ele><time>2026-04-26T13:02:58.999Z</time></trkpt><trkpt lat="45.3877735189781" lon="7.739418887199243"><ele>338.0</ele><time>2026-04-26T13:02:59.999Z</time></trkpt><trkpt lat="45.387918317752934" lon="7.739587527735281"><ele>339.6666666666667</ele><time>2026-04-26T13:03:00.999Z</time></trkpt><trkpt lat="45.388065280801676" lon="7.739760519129598"><ele>341.3333333333333</ele><time>2026-04-26T13:03:01.999Z</time></trkpt><trkpt lat="45.38820785245614" lon="7.739932050675784"><ele>343.0</ele><time>2026-04-26T13:03:02.999Z</time></trkpt><trkpt lat="45.38835024170669" lon="7.740104985696183"><ele>343.66666666666663</ele><time>2026-04-26T13:03:03.999Z</time></trkpt><trkpt lat="45.38848618179441" lon="7.740264670816774"><ele>344.3333333333333</ele><time>2026-04-26T13:03:04.999Z</time></trkpt><trkpt lat="45.38862263864508" lon="7.740424133915005"><ele>345.0</ele><time>2026-04-26T13:03:05.999Z</time></trkpt><trkpt lat="45.38875332701897" lon="7.740577627936359"><ele>345.6666666666667</ele><time>2026-04-26T13:03:06.999Z</time></trkpt><trkpt lat="45.388886059860184" lon="7.740732653356348"><ele>346.33333333333337</ele><time>2026-04-26T13:03:07.999Z</time></trkpt><trkpt lat="45.38901905178929" lon="7.7408872354994855"><ele>347.0</ele><time>2026-04-26T13:03:08.999Z</time></trkpt><trkpt lat="45.38915272857904" lon="7.741047004623939"><ele>347.33333333333337</ele><time>2026-04-26T13:03:09.999Z</time></trkpt><trkpt lat="45.38928557279515" lon="7.741205220564877"><ele>347.6666666666667</ele><time>2026-04-26T13:03:10.999Z</time></trkpt><trkpt lat="45.38941906199269" lon="7.7413686687610355"><ele>348.0</ele><time>2026-04-26T13:03:11.999Z</time></trkpt><trkpt lat="45.38955809245439" lon="7.7415329464152665"><ele>348.3333333333333</ele><time>2026-04-26T13:03:12.999Z</time></trkpt><trkpt lat="45.38969629922574" lon="7.741693635818764"><ele>348.66666666666663</ele><time>2026-04-26T13:03:13.999Z</time></trkpt><trkpt lat="45.38983464112376" lon="7.741863395226052"><ele>349.0</ele><time>2026-04-26T13:03:14.999Z</time></trkpt><trkpt lat="45.38997691052858" lon="7.74202750982822"><ele>349.0</ele><time>2026-04-26T13:03:15.999Z</time></trkpt><trkpt lat="45.39011747961" lon="7.742192858382996"><ele>349.0</ele><time>2026-04-26T13:03:16.999Z</time></trkpt><trkpt lat="45.39025812538491" lon="7.742360648495488"><ele>349.0</ele><time>2026-04-26T13:03:17.999Z</time></trkpt><trkpt lat="45.39039591323112" lon="7.742527507384565"><ele>349.3333333333333</ele><time>2026-04-26T13:03:18.999Z</time></trkpt><trkpt lat="45.39053824963145" lon="7.74269950220073"><ele>349.6666666666667</ele><time>2026-04-26T13:03:19.999Z</time></trkpt><trkpt lat="45.390675299455054" lon="7.742863148727318"><ele>350.0</ele><time>2026-04-26T13:03:20.999Z</time></trkpt><trkpt lat="45.390812153217574" lon="7.743029496663149"><ele>350.0</ele><time>2026-04-26T13:03:21.999Z</time></trkpt><trkpt lat="45.39095131714054" lon="7.743193388083024"><ele>350.0</ele><time>2026-04-26T13:03:22.999Z</time></trkpt><trkpt lat="45.391092484848" lon="7.743353827493323"><ele>350.0</ele><time>2026-04-26T13:03:23.999Z</time></trkpt><trkpt lat="45.391231608448976" lon="7.743517203379958"><ele>350.6666666666667</ele><time>2026-04-26T13:03:24.999Z</time></trkpt><trkpt lat="45.39137314940491" lon="7.743687057731147"><ele>351.3333333333333</ele><time>2026-04-26T13:03:25.999Z</time></trkpt><trkpt lat="45.39151359489788" lon="7.743854297763797"><ele>352.0</ele><time>2026-04-26T13:03:26.999Z</time></trkpt><trkpt lat="45.39165236813089" lon="7.7440145075716185"><ele>352.0</ele><time>2026-04-26T13:03:27.999Z</time></trkpt><trkpt lat="45.39178823486905" lon="7.744167458552648"><ele>352.0</ele><time>2026-04-26T13:03:28.999Z</time></trkpt><trkpt lat="45.391916847856415" lon="7.74431941856358"><ele>352.0</ele><time>2026-04-26T13:03:29.998Z</time></trkpt><trkpt lat="45.39204995952114" lon="7.744472605520099"><ele>353.0</ele><time>2026-04-26T13:03:30.998Z</time></trkpt><trkpt lat="45.3921804181322" lon="7.744627768402046"><ele>354.0</ele><time>2026-04-26T13:03:31.998Z</time></trkpt><trkpt lat="45.39231490696403" lon="7.744793228658984"><ele>355.0</ele><time>2026-04-26T13:03:32.998Z</time></trkpt><trkpt lat="45.39244959285686" lon="7.744956802164407"><ele>355.0</ele><time>2026-04-26T13:03:33.998Z</time></trkpt><trkpt lat="45.392592691842786" lon="7.745121636050739"><ele>355.0</ele><time>2026-04-26T13:03:34.998Z</time></trkpt><trkpt lat="45.392734074034806" lon="7.7452898975770434"><ele>355.0</ele><time>2026-04-26T13:03:35.998Z</time></trkpt><trkpt lat="45.3928785978302" lon="7.745461671076772"><ele>356.0</ele><time>2026-04-26T13:03:36.998Z</time></trkpt><trkpt lat="45.393021431390345" lon="7.745633528906896"><ele>357.0</ele><time>2026-04-26T13:03:37.998Z</time></trkpt><trkpt lat="45.39316907059601" lon="7.745809710136746"><ele>358.0</ele><time>2026-04-26T13:03:38.998Z</time></trkpt><trkpt lat="45.393316705993804" lon="7.745989092726648"><ele>358.66666666666663</ele><time>2026-04-26T13:03:39.998Z</time></trkpt><trkpt lat="45.393473327745404" lon="7.746160354885589"><ele>359.3333333333333</ele><time>2026-04-26T13:03:40.998Z</time></trkpt><trkpt lat="45.39362250262638" lon="7.746339753520077"><ele>360.0</ele><time>2026-04-26T13:03:41.998Z</time></trkpt><trkpt lat="45.39377640645766" lon="7.746519782740386"><ele>361.3333333333333</ele><time>2026-04-26T13:03:42.998Z</time></trkpt><trkpt lat="45.3939282147973" lon="7.746701527290754"><ele>362.66666666666663</ele><time>2026-04-26T13:03:43.998Z</time></trkpt><trkpt lat="45.394078324273785" lon="7.746883272973432"><ele>364.0</ele><time>2026-04-26T13:03:44.998Z</time></trkpt><trkpt lat="45.394231366499206" lon="7.747058708509632"><ele>364.3333333333333</ele><time>2026-04-26T13:03:45.998Z</time></trkpt><trkpt lat="45.3943850593319" lon="7.7472389909106205"><ele>364.6666666666667</ele><time>2026-04-26T13:03:46.998Z</time></trkpt><trkpt lat="45.39453571104022" lon="7.747426097280895"><ele>365.0</ele><time>2026-04-26T13:03:47.998Z</time></trkpt><trkpt lat="45.394690821893214" lon="7.747608078402825"><ele>366.0</ele><time>2026-04-26T13:03:48.998Z</time></trkpt><trkpt lat="45.39484365784856" lon="7.747788784657535"><ele>367.0</ele><time>2026-04-26T13:03:49.998Z</time></trkpt><trkpt lat="45.395000144115016" lon="7.7479703723045805"><ele>368.0</ele><time>2026-04-26T13:03:50.998Z</time></trkpt><trkpt lat="45.39515394735259" lon="7.748155474706167"><ele>368.0</ele><time>2026-04-26T13:03:51.998Z</time></trkpt><trkpt lat="45.39531120606102" lon="7.748344031044608"><ele>368.0</ele><time>2026-04-26T13:03:52.998Z</time></trkpt><trkpt lat="45.395469821240326" lon="7.748524705806324"><ele>368.0</ele><time>2026-04-26T13:03:53.998Z</time></trkpt><trkpt lat="45.39561796643587" lon="7.748694022917181"><ele>369.0</ele><time>2026-04-26T13:03:54.998Z</time></trkpt><trkpt lat="45.39575684712519" lon="7.748865517515863"><ele>370.0</ele><time>2026-04-26T13:03:55.998Z</time></trkpt><trkpt lat="45.39589341053855" lon="7.749029912384083"><ele>371.0</ele><time>2026-04-26T13:03:56.998Z</time></trkpt><trkpt lat="45.396035500086455" lon="7.749201509659134"><ele>371.0</ele><time>2026-04-26T13:03:57.998Z</time></trkpt><trkpt lat="45.39617824076232" lon="7.7493733188706875"><ele>371.0</ele><time>2026-04-26T13:03:58.998Z</time></trkpt><trkpt lat="45.396323761988086" lon="7.7495471431805685"><ele>371.0</ele><time>2026-04-26T13:03:59.998Z</time></trkpt><trkpt lat="45.39646783910528" lon="7.74972126216735"><ele>372.33333333333337</ele><time>2026-04-26T13:04:00.998Z</time></trkpt><trkpt lat="45.39661184738007" lon="7.749893870714821"><ele>373.6666666666667</ele><time>2026-04-26T13:04:01.998Z</time></trkpt><trkpt lat="45.396751252613896" lon="7.750058231678411"><ele>375.0</ele><time>2026-04-26T13:04:02.998Z</time></trkpt><trkpt lat="45.39687867112264" lon="7.75021103459962"><ele>375.3333333333333</ele><time>2026-04-26T13:04:03.998Z</time></trkpt><trkpt lat="45.39700966484211" lon="7.750362322886809"><ele>375.66666666666663</ele><time>2026-04-26T13:04:04.998Z</time></trkpt><trkpt lat="45.39713859946785" lon="7.750511393866227"><ele>376.0</ele><time>2026-04-26T13:04:05.998Z</time></trkpt><trkpt lat="45.39727144316355" lon="7.750660520776945"><ele>377.3333333333333</ele><time>2026-04-26T13:04:06.998Z</time></trkpt><trkpt lat="45.39740512355872" lon="7.750817246783922"><ele>378.6666666666667</ele><time>2026-04-26T13:04:07.998Z</time></trkpt><trkpt lat="45.397539880160934" lon="7.750980427507196"><ele>380.0</ele><time>2026-04-26T13:04:08.998Z</time></trkpt><trkpt lat="45.397677921959" lon="7.751151115631682"><ele>380.33333333333337</ele><time>2026-04-26T13:04:09.998Z</time></trkpt><trkpt lat="45.39781342269244" lon="7.751317055254483"><ele>380.6666666666667</ele><time>2026-04-26T13:04:10.998Z</time></trkpt><trkpt lat="45.397957054852164" lon="7.751481895736593"><ele>381.0</ele><time>2026-04-26T13:04:11.998Z</time></trkpt><trkpt lat="45.398099543805465" lon="7.751648344117346"><ele>382.0</ele><time>2026-04-26T13:04:12.998Z</time></trkpt><trkpt lat="45.39824258024868" lon="7.751815948727194"><ele>383.0</ele><time>2026-04-26T13:04:13.998Z</time></trkpt><trkpt lat="45.39838539468539" lon="7.751989270366618"><ele>384.0</ele><time>2026-04-26T13:04:14.998Z</time></trkpt><trkpt lat="45.39853064535328" lon="7.752160519902499"><ele>385.0</ele><time>2026-04-26T13:04:15.998Z</time></trkpt><trkpt lat="45.39867366561619" lon="7.752331634913407"><ele>386.0</ele><time>2026-04-26T13:04:16.998Z</time></trkpt><trkpt lat="45.39881505139971" lon="7.752502083791261"><ele>387.0</ele><time>2026-04-26T13:04:17.998Z</time></trkpt><trkpt lat="45.3989540292152" lon="7.752664627073459"><ele>387.66666666666663</ele><time>2026-04-26T13:04:18.998Z</time></trkpt><trkpt lat="45.39909056163235" lon="7.752831057038969"><ele>388.3333333333333</ele><time>2026-04-26T13:04:19.998Z</time></trkpt><trkpt lat="45.39922795753169" lon="7.752998819257795"><ele>389.0</ele><time>2026-04-26T13:04:20.998Z</time></trkpt><trkpt lat="45.399368331841906" lon="7.753163582355007"><ele>389.0</ele><time>2026-04-26T13:04:21.998Z</time></trkpt><trkpt lat="45.39950839998222" lon="7.75333200618961"><ele>389.0</ele><time>2026-04-26T13:04:22.997Z</time></trkpt><trkpt lat="45.39964976136992" lon="7.753495208598108"><ele>389.0</ele><time>2026-04-26T13:04:23.997Z</time></trkpt><trkpt lat="45.39979059309085" lon="7.753659846423853"><ele>390.3333333333333</ele><time>2026-04-26T13:04:24.997Z</time></trkpt><trkpt lat="45.399931592404656" lon="7.753826633324017"><ele>391.66666666666663</ele><time>2026-04-26T13:04:25.997Z</time></trkpt><trkpt lat="45.40007363650945" lon="7.753994130677244"><ele>393.0</ele><time>2026-04-26T13:04:26.997Z</time></trkpt><trkpt lat="45.40021647502429" lon="7.754163623523647"><ele>393.0</ele><time>2026-04-26T13:04:27.997Z</time></trkpt><trkpt lat="45.40036125613292" lon="7.754334887100725"><ele>393.0</ele><time>2026-04-26T13:04:28.997Z</time></trkpt><trkpt lat="45.400506355395855" lon="7.754502548327076"><ele>393.0</ele><time>2026-04-26T13:04:29.997Z</time></trkpt><trkpt lat="45.40065021913101" lon="7.7546690601493395"><ele>395.33333333333337</ele><time>2026-04-26T13:04:30.997Z</time></trkpt><trkpt lat="45.400796957568694" lon="7.754838700882814"><ele>397.6666666666667</ele><time>2026-04-26T13:04:31.997Z</time></trkpt><trkpt lat="45.40094852350571" lon="7.754996950674554"><ele>400.0</ele><time>2026-04-26T13:04:32.997Z</time></trkpt><trkpt lat="45.40110571805895" lon="7.7551373524344385"><ele>402.33333333333337</ele><time>2026-04-26T13:04:33.997Z</time></trkpt><trkpt lat="45.40126469972333" lon="7.755282407307021"><ele>404.66666666666663</ele><time>2026-04-26T13:04:34.997Z</time></trkpt><trkpt lat="45.40142973975801" lon="7.755413603379791"><ele>407.0</ele><time>2026-04-26T13:04:35.997Z</time></trkpt><trkpt lat="45.40159954325953" lon="7.755542430319642"><ele>407.0</ele><time>2026-04-26T13:04:36.997Z</time></trkpt><trkpt lat="45.40176130202555" lon="7.755667387021424"><ele>407.0</ele><time>2026-04-26T13:04:37.997Z</time></trkpt><trkpt lat="45.401941116979316" lon="7.755771010695236"><ele>407.0</ele><time>2026-04-26T13:04:38.999Z</time></trkpt><trkpt lat="45.40211533736651" lon="7.755855361806039"><ele>407.0</ele><time>2026-04-26T13:04:39.999Z</time></trkpt><trkpt lat="45.40228300343067" lon="7.755928044742568"><ele>407.0</ele><time>2026-04-26T13:04:40.999Z</time></trkpt><trkpt lat="45.40244244369067" lon="7.755993741282549"><ele>407.0</ele><time>2026-04-26T13:04:41.999Z</time></trkpt><trkpt lat="45.402595511752665" lon="7.756054870062273"><ele>410.66666666666663</ele><time>2026-04-26T13:04:42.999Z</time></trkpt><trkpt lat="45.40274340699869" lon="7.75612172171366"><ele>414.33333333333337</ele><time>2026-04-26T13:04:43.999Z</time></trkpt><trkpt lat="45.40289936213859" lon="7.756187816501147"><ele>418.0</ele><time>2026-04-26T13:04:44.999Z</time></trkpt><trkpt lat="45.40305256475027" lon="7.756252384659574"><ele>418.25</ele><time>2026-04-26T13:04:45.999Z</time></trkpt><trkpt lat="45.40319777211475" lon="7.756301909934965"><ele>418.5</ele><time>2026-04-26T13:04:46.999Z</time></trkpt><trkpt lat="45.403340477673034" lon="7.756354621073007"><ele>418.75</ele><time>2026-04-26T13:04:47.999Z</time></trkpt><trkpt lat="45.40347086006599" lon="7.7563712042648945"><ele>419.0</ele><time>2026-04-26T13:04:49Z</time></trkpt><trkpt lat="45.40375326499246" lon="7.756463876335964"><ele>418.25</ele><time>2026-04-26T13:04:51Z</time></trkpt><trkpt lat="45.40390409606306" lon="7.756509816433327"><ele>417.5</ele><time>2026-04-26T13:04:52.074Z</time></trkpt><trkpt lat="45.40404262195602" lon="7.756551968088693"><ele>416.75</ele><time>2026-04-26T13:04:53.063Z</time></trkpt><trkpt lat="45.40418277814959" lon="7.75659458342412"><ele>416.0</ele><time>2026-04-26T13:04:54.063Z</time></trkpt><trkpt lat="45.40432260832814" lon="7.756637096693221"><ele>419.0</ele><time>2026-04-26T13:04:55.061Z</time></trkpt><trkpt lat="45.40628941970493" lon="7.755908325422009"><ele>404.0</ele><time>2026-04-26T13:04:58.649Z</time></trkpt><trkpt lat="45.40709552986324" lon="7.755623514480043"><ele>400.0</ele><time>2026-04-26T13:05:11.999Z</time></trkpt><trkpt lat="45.40724512625311" lon="7.755462323164325"><ele>396.0</ele><time>2026-04-26T13:05:12.999Z</time></trkpt><trkpt lat="45.40743471524111" lon="7.755414609008668"><ele>392.0</ele><time>2026-04-26T13:05:13.999Z</time></trkpt><trkpt lat="45.40759914602558" lon="7.755328494367683"><ele>392.0</ele><time>2026-04-26T13:05:14.999Z</time></trkpt><trkpt lat="45.40776710851282" lon="7.7552517605983935"><ele>392.0</ele><time>2026-04-26T13:05:15.999Z</time></trkpt><trkpt lat="45.407930699572894" lon="7.7551660157168465"><ele>392.0</ele><time>2026-04-26T13:05:16.999Z</time></trkpt><trkpt lat="45.408096227063446" lon="7.755074445097662"><ele>389.3333333333333</ele><time>2026-04-26T13:05:17.999Z</time></trkpt><trkpt lat="45.408262831964926" lon="7.754969177750482"><ele>386.66666666666663</ele><time>2026-04-26T13:05:18.999Z</time></trkpt><trkpt lat="45.40842714908173" lon="7.754860085246194"><ele>384.0</ele><time>2026-04-26T13:05:19.999Z</time></trkpt><trkpt lat="45.408590039233665" lon="7.7547513153284"><ele>384.0</ele><time>2026-04-26T13:05:20.999Z</time></trkpt><trkpt lat="45.40875455364032" lon="7.754647199829431"><ele>384.0</ele><time>2026-04-26T13:05:21.999Z</time></trkpt><trkpt lat="45.408920941373104" lon="7.754540211191441"><ele>384.0</ele><time>2026-04-26T13:05:22.999Z</time></trkpt><trkpt lat="45.40908277758677" lon="7.75443194521982"><ele>384.0</ele><time>2026-04-26T13:05:23.999Z</time></trkpt><trkpt lat="45.40924088989653" lon="7.754325143278903"><ele>384.0</ele><time>2026-04-26T13:05:24.999Z</time></trkpt><trkpt lat="45.40939329053442" lon="7.754217139208917"><ele>384.0</ele><time>2026-04-26T13:05:25.999Z</time></trkpt><trkpt lat="45.40955121766545" lon="7.754112719177333"><ele>382.0</ele><time>2026-04-26T13:05:26.999Z</time></trkpt><trkpt lat="45.409715205540515" lon="7.754007871289089"><ele>380.0</ele><time>2026-04-26T13:05:27.999Z</time></trkpt><trkpt lat="45.40988246014078" lon="7.753899731747797"><ele>378.0</ele><time>2026-04-26T13:05:28.999Z</time></trkpt><trkpt lat="45.41004543605323" lon="7.753789400401561"><ele>378.0</ele><time>2026-04-26T13:05:29.999Z</time></trkpt><trkpt lat="45.410203777068034" lon="7.753686969021121"><ele>378.0</ele><time>2026-04-26T13:05:30.999Z</time></trkpt><trkpt lat="45.410359576795294" lon="7.75359702515176"><ele>378.0</ele><time>2026-04-26T13:05:31.999Z</time></trkpt><trkpt lat="45.4105198783287" lon="7.753518947230995"><ele>377.6666666666667</ele><time>2026-04-26T13:05:32.999Z</time></trkpt><trkpt lat="45.410675319236454" lon="7.753441197558239"><ele>377.33333333333337</ele><time>2026-04-26T13:05:33.999Z</time></trkpt><trkpt lat="45.41082829519922" lon="7.7533600786814745"><ele>377.0</ele><time>2026-04-26T13:05:34.999Z</time></trkpt><trkpt lat="45.41097759376734" lon="7.753280705638868"><ele>377.0</ele><time>2026-04-26T13:05:35.999Z</time></trkpt><trkpt lat="45.411124437811445" lon="7.753198360883817"><ele>377.0</ele><time>2026-04-26T13:05:36.999Z</time></trkpt><trkpt lat="45.4112701127012" lon="7.753117336228337"><ele>377.0</ele><time>2026-04-26T13:05:37.999Z</time></trkpt><trkpt lat="45.411425170234125" lon="7.753036551225733"><ele>375.0</ele><time>2026-04-26T13:05:38.999Z</time></trkpt><trkpt lat="45.41161330594448" lon="7.7529537927479035"><ele>373.0</ele><time>2026-04-26T13:05:39.999Z</time></trkpt><trkpt lat="45.41170678741165" lon="7.752893210315292"><ele>371.0</ele><time>2026-04-26T13:05:40.999Z</time></trkpt><trkpt lat="45.41184800239365" lon="7.752819434872749"><ele>371.0</ele><time>2026-04-26T13:05:41.999Z</time></trkpt><trkpt lat="45.411989289864" lon="7.75274453019354"><ele>371.0</ele><time>2026-04-26T13:05:42.999Z</time></trkpt><trkpt lat="45.41212754899711" lon="7.752675875386628"><ele>371.0</ele><time>2026-04-26T13:05:43.999Z</time></trkpt><trkpt lat="45.41226648774528" lon="7.752619892262899"><ele>371.0</ele><time>2026-04-26T13:05:44.999Z</time></trkpt><trkpt lat="45.412406959530855" lon="7.752584592107017"><ele>371.25</ele><time>2026-04-26T13:05:45.999Z</time></trkpt><trkpt lat="45.41255209153725" lon="7.752571372030248"><ele>371.5</ele><time>2026-04-26T13:05:46.999Z</time></trkpt><trkpt lat="45.41270015388086" lon="7.752579315073743"><ele>371.75</ele><time>2026-04-26T13:05:47.999Z</time></trkpt><trkpt lat="45.412849859364485" lon="7.752609555048953"><ele>372.0</ele><time>2026-04-26T13:05:48.999Z</time></trkpt><trkpt lat="45.412996582481796" lon="7.752660161452953"><ele>370.5</ele><time>2026-04-26T13:05:49.999Z</time></trkpt><trkpt lat="45.41313339983212" lon="7.752736174939487"><ele>369.0</ele><time>2026-04-26T13:05:50.999Z</time></trkpt><trkpt lat="45.41326140066775" lon="7.752839861683707"><ele>367.5</ele><time>2026-04-26T13:05:51.999Z</time></trkpt><trkpt lat="45.41337867347178" lon="7.75296450149785"><ele>366.0</ele><time>2026-04-26T13:05:52.999Z</time></trkpt><trkpt lat="45.41348904950569" lon="7.753108205145939"><ele>366.0</ele><time>2026-04-26T13:05:53.999Z</time></trkpt><trkpt lat="45.41359685054788" lon="7.7532715424258996"><ele>366.0</ele><time>2026-04-26T13:05:54.999Z</time></trkpt><trkpt lat="45.413698730073534" lon="7.7534608544810055"><ele>366.0</ele><time>2026-04-26T13:05:55.999Z</time></trkpt><trkpt lat="45.413799112722394" lon="7.753649577157201"><ele>360.6666666666667</ele><time>2026-04-26T13:05:56.999Z</time></trkpt><trkpt lat="45.41389962850414" lon="7.75382845376361"><ele>355.33333333333337</ele><time>2026-04-26T13:05:57.999Z</time></trkpt><trkpt lat="45.414004888277546" lon="7.753997058825017"><ele>350.0</ele><time>2026-04-26T13:05:58.999Z</time></trkpt><trkpt lat="45.41411602731623" lon="7.754138151130524"><ele>350.0</ele><time>2026-04-26T13:05:59.999Z</time></trkpt><trkpt lat="45.41423965459326" lon="7.754253289151011"><ele>350.0</ele><time>2026-04-26T13:06:00.999Z</time></trkpt><trkpt lat="45.414374904309504" lon="7.754341654763039"><ele>350.0</ele><time>2026-04-26T13:06:01.999Z</time></trkpt><trkpt lat="45.41451349387377" lon="7.754415998355692"><ele>350.0</ele><time>2026-04-26T13:06:02.999Z</time></trkpt><trkpt lat="45.41465313330959" lon="7.754496469768585"><ele>346.5</ele><time>2026-04-26T13:06:03.999Z</time></trkpt><trkpt lat="45.4147888324632" lon="7.754580185992713"><ele>343.0</ele><time>2026-04-26T13:06:04.999Z</time></trkpt><trkpt lat="45.414918680430354" lon="7.754661432867282"><ele>339.5</ele><time>2026-04-26T13:06:05.999Z</time></trkpt><trkpt lat="45.415036683174876" lon="7.754739332806125"><ele>336.0</ele><time>2026-04-26T13:06:06.999Z</time></trkpt><trkpt lat="45.41512983482667" lon="7.754809398911673"><ele>336.0</ele><time>2026-04-26T13:06:07.998Z</time></trkpt><trkpt lat="45.41521015982472" lon="7.754908568064216"><ele>336.0</ele><time>2026-04-26T13:06:08.998Z</time></trkpt><trkpt lat="45.41526826485417" lon="7.755038377485489"><ele>336.0</ele><time>2026-04-26T13:06:09.998Z</time></trkpt><trkpt lat="45.41531389185636" lon="7.755193631674408"><ele>336.0</ele><time>2026-04-26T13:06:10.998Z</time></trkpt><trkpt lat="45.41532662581571" lon="7.755361773241509"><ele>337.75</ele><time>2026-04-26T13:06:11.998Z</time></trkpt><trkpt lat="45.41530674574411" lon="7.75553358426411"><ele>339.5</ele><time>2026-04-26T13:06:12.998Z</time></trkpt><trkpt lat="45.41525656751321" lon="7.755717080422425"><ele>341.25</ele><time>2026-04-26T13:06:13.998Z</time></trkpt><trkpt lat="45.41518378760248" lon="7.755903728828175"><ele>343.0</ele><time>2026-04-26T13:06:14.998Z</time></trkpt><trkpt lat="45.41511571049107" lon="7.756090870449803"><ele>343.25</ele><time>2026-04-26T13:06:15.998Z</time></trkpt><trkpt lat="45.415074848507885" lon="7.756270562065299"><ele>343.5</ele><time>2026-04-26T13:06:16.998Z</time></trkpt><trkpt lat="45.41505500078029" lon="7.756463939918524"><ele>343.75</ele><time>2026-04-26T13:06:17.998Z</time></trkpt><trkpt lat="45.41505942605075" lon="7.756668242324798"><ele>344.0</ele><time>2026-04-26T13:06:18.998Z</time></trkpt><trkpt lat="45.41508878481962" lon="7.756875050917216"><ele>343.0</ele><time>2026-04-26T13:06:19.998Z</time></trkpt><trkpt lat="45.41513159739322" lon="7.757091255782512"><ele>342.0</ele><time>2026-04-26T13:06:20.998Z</time></trkpt><trkpt lat="45.41519616615242" lon="7.757325304562318"><ele>341.0</ele><time>2026-04-26T13:06:21.998Z</time></trkpt><trkpt lat="45.415270022545414" lon="7.757575149463477"><ele>339.33333333333337</ele><time>2026-04-26T13:06:22.998Z</time></trkpt><trkpt lat="45.415338607109" lon="7.757835657008826"><ele>337.6666666666667</ele><time>2026-04-26T13:06:23.998Z</time></trkpt><trkpt lat="45.415401303526835" lon="7.758079234369789"><ele>336.0</ele><time>2026-04-26T13:06:24.998Z</time></trkpt><trkpt lat="45.41545931904938" lon="7.758314248518783"><ele>339.6666666666667</ele><time>2026-04-26T13:06:25.998Z</time></trkpt><trkpt lat="45.41552418989027" lon="7.758541487841064"><ele>343.33333333333337</ele><time>2026-04-26T13:06:26.998Z</time></trkpt><trkpt lat="45.41560748464454" lon="7.758760962836572"><ele>347.0</ele><time>2026-04-26T13:06:27.998Z</time></trkpt><trkpt lat="45.41571244775951" lon="7.7589662858415815"><ele>347.0</ele><time>2026-04-26T13:06:28.998Z</time></trkpt><trkpt lat="45.415834826153635" lon="7.759158328468286"><ele>347.0</ele><time>2026-04-26T13:06:29.998Z</time></trkpt><trkpt lat="45.41595724977257" lon="7.759346427900017"><ele>347.0</ele><time>2026-04-26T13:06:30.998Z</time></trkpt><trkpt lat="45.41607109102122" lon="7.759534512568149"><ele>348.33333333333337</ele><time>2026-04-26T13:06:31.998Z</time></trkpt><trkpt lat="45.4161808283873" lon="7.759721143419957"><ele>349.6666666666667</ele><time>2026-04-26T13:06:32.998Z</time></trkpt><trkpt lat="45.41628864030371" lon="7.759895492379715"><ele>351.0</ele><time>2026-04-26T13:06:33.998Z</time></trkpt><trkpt lat="45.416396810839785" lon="7.76006783624775"><ele>345.3333333333333</ele><time>2026-04-26T13:06:34.998Z</time></trkpt><trkpt lat="45.41650424830494" lon="7.760249154251424"><ele>339.66666666666663</ele><time>2026-04-26T13:06:35.998Z</time></trkpt><trkpt lat="45.41661286837787" lon="7.7604318739797185"><ele>334.0</ele><time>2026-04-26T13:06:36.998Z</time></trkpt><trkpt lat="45.416721807291125" lon="7.760606393039658"><ele>334.0</ele><time>2026-04-26T13:06:37.998Z</time></trkpt><trkpt lat="45.41682604018744" lon="7.760772935618354"><ele>334.0</ele><time>2026-04-26T13:06:38.998Z</time></trkpt><trkpt lat="45.41692389567147" lon="7.760924645194433"><ele>334.0</ele><time>2026-04-26T13:06:39.998Z</time></trkpt><trkpt lat="45.41702104462845" lon="7.761084377379293"><ele>335.75</ele><time>2026-04-26T13:06:40.998Z</time></trkpt><trkpt lat="45.41711874459286" lon="7.761240771993905"><ele>337.5</ele><time>2026-04-26T13:06:41.998Z</time></trkpt><trkpt lat="45.41721855420225" lon="7.761399644205993"><ele>339.25</ele><time>2026-04-26T13:06:42.998Z</time></trkpt><trkpt lat="45.41732172697858" lon="7.761559896196573"><ele>341.0</ele><time>2026-04-26T13:06:43.998Z</time></trkpt><trkpt lat="45.41743356719013" lon="7.761735264596133"><ele>335.0</ele><time>2026-04-26T13:06:45Z</time></trkpt><trkpt lat="45.41754606619172" lon="7.761892177567614"><ele>329.0</ele><time>2026-04-26T13:06:46Z</time></trkpt><trkpt lat="45.417665755488855" lon="7.762048786172817"><ele>323.0</ele><time>2026-04-26T13:06:47Z</time></trkpt><trkpt lat="45.4177949142343" lon="7.762200816137993"><ele>323.0</ele><time>2026-04-26T13:06:48Z</time></trkpt><trkpt lat="45.41792306385502" lon="7.762341600539532"><ele>323.0</ele><time>2026-04-26T13:06:49Z</time></trkpt><trkpt lat="45.4180548135746" lon="7.762477104383863"><ele>323.0</ele><time>2026-04-26T13:06:50Z</time></trkpt><trkpt lat="45.41818536639578" lon="7.762604811482246"><ele>322.6666666666667</ele><time>2026-04-26T13:06:51Z</time></trkpt><trkpt lat="45.41831703284428" lon="7.76272587891232"><ele>322.3333333333333</ele><time>2026-04-26T13:06:52Z</time></trkpt><trkpt lat="45.41844978980054" lon="7.762843532369158"><ele>322.0</ele><time>2026-04-26T13:06:53Z</time></trkpt><trkpt lat="45.41858142870117" lon="7.762972161487648"><ele>322.0</ele><time>2026-04-26T13:06:54Z</time></trkpt><trkpt lat="45.41871276782423" lon="7.763112920627861"><ele>322.0</ele><time>2026-04-26T13:06:55Z</time></trkpt><trkpt lat="45.41883720978838" lon="7.763266720069554"><ele>322.0</ele><time>2026-04-26T13:06:56Z</time></trkpt><trkpt lat="45.418953569195615" lon="7.763435763549517"><ele>325.3333333333333</ele><time>2026-04-26T13:06:57Z</time></trkpt><trkpt lat="45.41906097666684" lon="7.763613244701092"><ele>328.6666666666667</ele><time>2026-04-26T13:06:58Z</time></trkpt><trkpt lat="45.41916446156953" lon="7.763794067356952"><ele>332.0</ele><time>2026-04-26T13:06:59Z</time></trkpt><trkpt lat="45.41926357360839" lon="7.763969975349489"><ele>332.0</ele><time>2026-04-26T13:07:00Z</time></trkpt><trkpt lat="45.41936025046825" lon="7.764130439136585"><ele>332.0</ele><time>2026-04-26T13:07:01Z</time></trkpt><trkpt lat="45.41945754548469" lon="7.76429113230966"><ele>332.0</ele><time>2026-04-26T13:07:02Z</time></trkpt><trkpt lat="45.41955129651403" lon="7.764449158358024"><ele>332.0</ele><time>2026-04-26T13:07:03Z</time></trkpt><trkpt lat="45.419640863515966" lon="7.764600844966133"><ele>333.8</ele><time>2026-04-26T13:07:04Z</time></trkpt><trkpt lat="45.41972890813824" lon="7.764745101838023"><ele>335.6</ele><time>2026-04-26T13:07:05Z</time></trkpt><trkpt lat="45.419805634927286" lon="7.764865526388729"><ele>337.40000000000003</ele><time>2026-04-26T13:07:06Z</time></trkpt><trkpt lat="45.41986955628442" lon="7.764976194501102"><ele>339.20000000000005</ele><time>2026-04-26T13:07:07Z</time></trkpt><trkpt lat="45.419920855215835" lon="7.7650716409587615"><ele>341.0</ele><time>2026-04-26T13:07:08Z</time></trkpt><trkpt lat="45.41996551510659" lon="7.765147213691855"><ele>339.0</ele><time>2026-04-26T13:07:09Z</time></trkpt><trkpt lat="45.420035107723116" lon="7.765242166016093"><ele>337.0</ele><time>2026-04-26T13:07:11Z</time></trkpt><trkpt lat="45.42008037883568" lon="7.765328715209141"><ele>335.0</ele><time>2026-04-26T13:07:21Z</time></trkpt><trkpt lat="45.420137280761885" lon="7.765385348168647"><ele>333.0</ele><time>2026-04-26T13:07:22.999Z</time></trkpt><trkpt lat="45.42025546382824" lon="7.765386529800012"><ele>331.0</ele><time>2026-04-26T13:07:24.999Z</time></trkpt><trkpt lat="45.4203222631775" lon="7.765527276062122"><ele>331.0</ele><time>2026-04-26T13:07:26.999Z</time></trkpt><trkpt lat="45.42035784232914" lon="7.765666228375311"><ele>331.0</ele><time>2026-04-26T13:07:27.999Z</time></trkpt><trkpt lat="45.42039306269758" lon="7.765810668327554"><ele>331.0</ele><time>2026-04-26T13:07:28.999Z</time></trkpt><trkpt lat="45.42050974175757" lon="7.765903502550947"><ele>331.0</ele><time>2026-04-26T13:07:29.999Z</time></trkpt><trkpt lat="45.420565680569624" lon="7.766079528580793"><ele>334.0</ele><time>2026-04-26T13:07:30.999Z</time></trkpt><trkpt lat="45.42061877808547" lon="7.766239712616008"><ele>337.0</ele><time>2026-04-26T13:07:31.999Z</time></trkpt><trkpt lat="45.42067837274362" lon="7.766404607109893"><ele>340.0</ele><time>2026-04-26T13:07:32.999Z</time></trkpt><trkpt lat="45.42073643920393" lon="7.76657779152281"><ele>343.0</ele><time>2026-04-26T13:07:33.999Z</time></trkpt><trkpt lat="45.42079867349058" lon="7.7667571018147825"><ele>341.75</ele><time>2026-04-26T13:07:34.999Z</time></trkpt><trkpt lat="45.420862744751226" lon="7.766938951615396"><ele>340.5</ele><time>2026-04-26T13:07:35.999Z</time></trkpt><trkpt lat="45.42092809258877" lon="7.76712497713114"><ele>339.25</ele><time>2026-04-26T13:07:36.999Z</time></trkpt><trkpt lat="45.42099542655114" lon="7.767314564713591"><ele>338.0</ele><time>2026-04-26T13:07:37.999Z</time></trkpt><trkpt lat="45.42105732079958" lon="7.767489411200807"><ele>338.0</ele><time>2026-04-26T13:07:38.999Z</time></trkpt><trkpt lat="45.42112955943417" lon="7.767680649583388"><ele>338.0</ele><time>2026-04-26T13:07:39.999Z</time></trkpt><trkpt lat="45.421202824605395" lon="7.767870135773656"><ele>338.0</ele><time>2026-04-26T13:07:40.999Z</time></trkpt><trkpt lat="45.42128372755196" lon="7.76804324235918"><ele>339.75</ele><time>2026-04-26T13:07:41.999Z</time></trkpt><trkpt lat="45.42136739131385" lon="7.768215589274912"><ele>341.5</ele><time>2026-04-26T13:07:42.999Z</time></trkpt><trkpt lat="45.42144858296325" lon="7.768381183052419"><ele>343.25</ele><time>2026-04-26T13:07:43.999Z</time></trkpt><trkpt lat="45.42153744476707" lon="7.768547430170759"><ele>345.0</ele><time>2026-04-26T13:07:44.999Z</time></trkpt><trkpt lat="45.42162169622478" lon="7.76872034567674"><ele>345.0</ele><time>2026-04-26T13:07:45.999Z</time></trkpt><trkpt lat="45.42170382061029" lon="7.768888733767487"><ele>345.0</ele><time>2026-04-26T13:07:46.999Z</time></trkpt><trkpt lat="45.4217774188815" lon="7.769055913311734"><ele>345.0</ele><time>2026-04-26T13:07:47.999Z</time></trkpt><trkpt lat="45.42183947676175" lon="7.7692131159142"><ele>345.0</ele><time>2026-04-26T13:07:48.999Z</time></trkpt><trkpt lat="45.421865471823246" lon="7.76937455605712"><ele>344.6</ele><time>2026-04-26T13:07:49.999Z</time></trkpt><trkpt lat="45.42188881189917" lon="7.7695235845599635"><ele>344.2</ele><time>2026-04-26T13:07:50.999Z</time></trkpt><trkpt lat="45.42190028056929" lon="7.769642381996762"><ele>343.79999999999995</ele><time>2026-04-26T13:07:51.999Z</time></trkpt><trkpt lat="45.42190726909301" lon="7.769759879769851"><ele>343.4</ele><time>2026-04-26T13:07:52.999Z</time></trkpt><trkpt lat="45.421927225717454" lon="7.769884982329568"><ele>343.0</ele><time>2026-04-26T13:07:53.999Z</time></trkpt><trkpt lat="45.42192911612377" lon="7.770011405286772"><ele>343.0</ele><time>2026-04-26T13:07:54.999Z</time></trkpt><trkpt lat="45.42202983154604" lon="7.770129127542799"><ele>343.0</ele><time>2026-04-26T13:07:55.999Z</time></trkpt><trkpt lat="45.42207844237324" lon="7.770268166131225"><ele>343.0</ele><time>2026-04-26T13:07:56.999Z</time></trkpt><trkpt lat="45.42212264280755" lon="7.770423345476267"><ele>343.0</ele><time>2026-04-26T13:07:57.999Z</time></trkpt><trkpt lat="45.42216967334131" lon="7.770581093992876"><ele>344.75</ele><time>2026-04-26T13:07:58.999Z</time></trkpt><trkpt lat="45.422230645196365" lon="7.770734216867943"><ele>346.5</ele><time>2026-04-26T13:07:59.999Z</time></trkpt><trkpt lat="45.422306672961575" lon="7.770888284808676"><ele>348.25</ele><time>2026-04-26T13:08:00.999Z</time></trkpt><trkpt lat="45.42239040713882" lon="7.771035678045702"><ele>350.0</ele><time>2026-04-26T13:08:01.999Z</time></trkpt><trkpt lat="45.42247199524988" lon="7.771174067508981"><ele>350.0</ele><time>2026-04-26T13:08:02.999Z</time></trkpt><trkpt lat="45.4225458360944" lon="7.771293926925404"><ele>350.0</ele><time>2026-04-26T13:08:03.999Z</time></trkpt><trkpt lat="45.42261034320195" lon="7.7713887138181645"><ele>350.0</ele><time>2026-04-26T13:08:04.999Z</time></trkpt><trkpt lat="45.42267939071327" lon="7.771459495619613"><ele>350.0</ele><time>2026-04-26T13:08:05.999Z</time></trkpt><trkpt lat="45.42275712398941" lon="7.771508328820047"><ele>350.0</ele><time>2026-04-26T13:08:06.999Z</time></trkpt><trkpt lat="45.42284774162804" lon="7.771532583496259"><ele>350.0</ele><time>2026-04-26T13:08:07.999Z</time></trkpt><trkpt lat="45.42295285164906" lon="7.771535282194111"><ele>350.0</ele><time>2026-04-26T13:08:08.999Z</time></trkpt><trkpt lat="45.42307250001978" lon="7.771520638379073"><ele>350.0</ele><time>2026-04-26T13:08:09.999Z</time></trkpt><trkpt lat="45.423186930174055" lon="7.771543455569402"><ele>350.0</ele><time>2026-04-26T13:08:10.999Z</time></trkpt><trkpt lat="45.423293012528035" lon="7.77154359821659"><ele>350.0</ele><time>2026-04-26T13:08:11.999Z</time></trkpt><trkpt lat="45.42339587907878" lon="7.771615874993537"><ele>351.0</ele><time>2026-04-26T13:08:12.999Z</time></trkpt><trkpt lat="45.42350579025225" lon="7.7716741013126835"><ele>352.0</ele><time>2026-04-26T13:08:13.999Z</time></trkpt><trkpt lat="45.42360509881977" lon="7.771778943494163"><ele>353.0</ele><time>2026-04-26T13:08:14.999Z</time></trkpt><trkpt lat="45.42369248560552" lon="7.771907384204658"><ele>354.0</ele><time>2026-04-26T13:08:15.998Z</time></trkpt><trkpt lat="45.42377790275828" lon="7.772049818428299"><ele>357.2</ele><time>2026-04-26T13:08:16.998Z</time></trkpt><trkpt lat="45.42385121178712" lon="7.772200410814687"><ele>360.4</ele><time>2026-04-26T13:08:17.998Z</time></trkpt><trkpt lat="45.42391362037236" lon="7.772337758982803"><ele>363.6</ele><time>2026-04-26T13:08:18.998Z</time></trkpt><trkpt lat="45.4239831398963" lon="7.772451166908079"><ele>366.8</ele><time>2026-04-26T13:08:19.998Z</time></trkpt><trkpt lat="45.424061373575086" lon="7.772537133374802"><ele>370.0</ele><time>2026-04-26T13:08:20.998Z</time></trkpt><trkpt lat="45.42414542943357" lon="7.772618966078837"><ele>370.0</ele><time>2026-04-26T13:08:21.998Z</time></trkpt><trkpt lat="45.424243111917846" lon="7.772679940647578"><ele>370.0</ele><time>2026-04-26T13:08:22.998Z</time></trkpt><trkpt lat="45.42434459935592" lon="7.772728625370443"><ele>370.0</ele><time>2026-04-26T13:08:23.998Z</time></trkpt><trkpt lat="45.42443685317284" lon="7.772767865920674"><ele>370.0</ele><time>2026-04-26T13:08:24.998Z</time></trkpt><trkpt lat="45.424513722661594" lon="7.772799926400229"><ele>370.0</ele><time>2026-04-26T13:08:25.998Z</time></trkpt><trkpt lat="45.42458276570698" lon="7.772809869132453"><ele>370.0</ele><time>2026-04-26T13:08:26.998Z</time></trkpt><trkpt lat="45.424681194106526" lon="7.772782418940712"><ele>370.0</ele><time>2026-04-26T13:08:28.998Z</time></trkpt><trkpt lat="45.424709150430516" lon="7.772652012624806"><ele>370.0</ele><time>2026-04-26T13:08:29.998Z</time></trkpt><trkpt lat="45.424690058502" lon="7.77253256433305"><ele>370.0</ele><time>2026-04-26T13:08:30.998Z</time></trkpt><trkpt lat="45.424621201746085" lon="7.772434794412236"><ele>370.0</ele><time>2026-04-26T13:08:31.998Z</time></trkpt><trkpt lat="45.42455318686517" lon="7.772340410505963"><ele>370.0</ele><time>2026-04-26T13:08:32.998Z</time></trkpt><trkpt lat="45.42447546175367" lon="7.772238659403133"><ele>370.0</ele><time>2026-04-26T13:08:33.998Z</time></trkpt><trkpt lat="45.42439547550887" lon="7.7721162187146895"><ele>370.0</ele><time>2026-04-26T13:08:34.998Z</time></trkpt><trkpt lat="45.42434442498177" lon="7.771946653530715"><ele>370.0</ele><time>2026-04-26T13:08:35.998Z</time></trkpt><trkpt lat="45.42428162473764" lon="7.771786483024933"><ele>372.0</ele><time>2026-04-26T13:08:36.998Z</time></trkpt><trkpt lat="45.424227824258715" lon="7.771644887569101"><ele>374.0</ele><time>2026-04-26T13:08:37.998Z</time></trkpt><trkpt lat="45.42417046543417" lon="7.77149820483793"><ele>376.0</ele><time>2026-04-26T13:08:38.998Z</time></trkpt><trkpt lat="45.42409381338294" lon="7.771355189661323"><ele>378.0</ele><time>2026-04-26T13:08:39.998Z</time></trkpt><trkpt lat="45.42402433872412" lon="7.771209353836842"><ele>378.0</ele><time>2026-04-26T13:08:40.998Z</time></trkpt><trkpt lat="45.423956284717995" lon="7.771044889910197"><ele>378.0</ele><time>2026-04-26T13:08:41.998Z</time></trkpt><trkpt lat="45.42388329982177" lon="7.770900952421028"><ele>378.0</ele><time>2026-04-26T13:08:42.998Z</time></trkpt><trkpt lat="45.42381641319462" lon="7.770774119240951"><ele>378.0</ele><time>2026-04-26T13:08:43.998Z</time></trkpt><trkpt lat="45.423760093042304" lon="7.7706645349180326"><ele>378.79999999999995</ele><time>2026-04-26T13:08:44.998Z</time></trkpt><trkpt lat="45.42370594195554" lon="7.770553472210149"><ele>379.6</ele><time>2026-04-26T13:08:45.998Z</time></trkpt><trkpt lat="45.423653695646756" lon="7.770442113607874"><ele>380.4</ele><time>2026-04-26T13:08:46.998Z</time></trkpt><trkpt lat="45.42361051768996" lon="7.770316922720973"><ele>381.20000000000005</ele><time>2026-04-26T13:08:47.998Z</time></trkpt><trkpt lat="45.42358972989146" lon="7.7701946703143605"><ele>382.0</ele><time>2026-04-26T13:08:48.998Z</time></trkpt><trkpt lat="45.423584746058594" lon="7.770081105974894"><ele>382.0</ele><time>2026-04-26T13:08:50Z</time></trkpt><trkpt lat="45.423598485827085" lon="7.769979062122555"><ele>382.0</ele><time>2026-04-26T13:08:51Z</time></trkpt><trkpt lat="45.42363323124609" lon="7.7698704202908235"><ele>382.0</ele><time>2026-04-26T13:08:52Z</time></trkpt><trkpt lat="45.42369440475641" lon="7.769772223446578"><ele>382.0</ele><time>2026-04-26T13:08:53Z</time></trkpt><trkpt lat="45.42376835151058" lon="7.769669651368841"><ele>382.0</ele><time>2026-04-26T13:08:54Z</time></trkpt><trkpt lat="45.42387320013038" lon="7.769623096907177"><ele>384.6</ele><time>2026-04-26T13:08:55Z</time></trkpt><trkpt lat="45.423986699572325" lon="7.769609489307422"><ele>387.20000000000005</ele><time>2026-04-26T13:08:56Z</time></trkpt><trkpt lat="45.424103582991435" lon="7.7696096557845085"><ele>389.8</ele><time>2026-04-26T13:08:57Z</time></trkpt><trkpt lat="45.42420001998964" lon="7.769584969829633"><ele>392.4</ele><time>2026-04-26T13:08:58Z</time></trkpt><trkpt lat="45.42428558332592" lon="7.7695216383879675"><ele>395.0</ele><time>2026-04-26T13:08:59Z</time></trkpt><trkpt lat="45.424352725568696" lon="7.769422045631304"><ele>395.5</ele><time>2026-04-26T13:09:00Z</time></trkpt><trkpt lat="45.42440236123894" lon="7.769287979307691"><ele>396.0</ele><time>2026-04-26T13:09:01Z</time></trkpt><trkpt lat="45.42442874251096" lon="7.76912280514795"><ele>396.5</ele><time>2026-04-26T13:09:02Z</time></trkpt><trkpt lat="45.42444019008997" lon="7.768937611993574"><ele>397.0</ele><time>2026-04-26T13:09:03Z</time></trkpt><trkpt lat="45.42443943220194" lon="7.768751785927363"><ele>397.0</ele><time>2026-04-26T13:09:04Z</time></trkpt><trkpt lat="45.42441734574108" lon="7.768540983350608"><ele>397.0</ele><time>2026-04-26T13:09:05Z</time></trkpt><trkpt lat="45.42438038483191" lon="7.768337588519782"><ele>397.0</ele><time>2026-04-26T13:09:06Z</time></trkpt><trkpt lat="45.424334189948084" lon="7.7681596368897585"><ele>397.0</ele><time>2026-04-26T13:09:07Z</time></trkpt><trkpt lat="45.42429783834357" lon="7.76797800020567"><ele>398.5</ele><time>2026-04-26T13:09:08Z</time></trkpt><trkpt lat="45.424239468785" lon="7.767800606475441"><ele>400.0</ele><time>2026-04-26T13:09:09Z</time></trkpt><trkpt lat="45.42417210305863" lon="7.767619146149102"><ele>401.5</ele><time>2026-04-26T13:09:10Z</time></trkpt><trkpt lat="45.42408976112293" lon="7.767449681475597"><ele>403.0</ele><time>2026-04-26T13:09:11Z</time></trkpt><trkpt lat="45.42400909287747" lon="7.767268502087845"><ele>407.33333333333337</ele><time>2026-04-26T13:09:12Z</time></trkpt><trkpt lat="45.42394249953729" lon="7.7670768792016185"><ele>411.66666666666663</ele><time>2026-04-26T13:09:13Z</time></trkpt><trkpt lat="45.423885511735946" lon="7.766875987413823"><ele>416.0</ele><time>2026-04-26T13:09:14Z</time></trkpt><trkpt lat="45.423823887299825" lon="7.766660987711652"><ele>410.3333333333333</ele><time>2026-04-26T13:09:15Z</time></trkpt><trkpt lat="45.42374378634914" lon="7.766443156868079"><ele>404.66666666666663</ele><time>2026-04-26T13:09:16Z</time></trkpt><trkpt lat="45.42366973287944" lon="7.76622663858868"><ele>399.0</ele><time>2026-04-26T13:09:17Z</time></trkpt><trkpt lat="45.42357629204492" lon="7.766048117616164"><ele>403.66666666666663</ele><time>2026-04-26T13:09:18Z</time></trkpt><trkpt lat="45.42348870974279" lon="7.765863234434801"><ele>408.3333333333333</ele><time>2026-04-26T13:09:19Z</time></trkpt><trkpt lat="45.423370731776316" lon="7.765705630356986"><ele>413.0</ele><time>2026-04-26T13:09:20Z</time></trkpt><trkpt lat="45.423289741046396" lon="7.765505199797902"><ele>413.0</ele><time>2026-04-26T13:09:20.999Z</time></trkpt><trkpt lat="45.42319877713144" lon="7.7653106586463645"><ele>413.0</ele><time>2026-04-26T13:09:21.999Z</time></trkpt><trkpt lat="45.4230957181346" lon="7.765121137675681"><ele>413.0</ele><time>2026-04-26T13:09:22.999Z</time></trkpt><trkpt lat="45.42299431312895" lon="7.76493631790644"><ele>410.0</ele><time>2026-04-26T13:09:23.999Z</time></trkpt><trkpt lat="45.422872766989826" lon="7.764768981625446"><ele>407.0</ele><time>2026-04-26T13:09:24.999Z</time></trkpt><trkpt lat="45.422758637504444" lon="7.7646146968294"><ele>404.0</ele><time>2026-04-26T13:09:25.999Z</time></trkpt><trkpt lat="45.42265569623714" lon="7.764476503263554"><ele>411.75</ele><time>2026-04-26T13:09:26.999Z</time></trkpt><trkpt lat="45.42255097855731" lon="7.764342885508069"><ele>419.5</ele><time>2026-04-26T13:09:27.999Z</time></trkpt><trkpt lat="45.42244888020985" lon="7.764212339906141"><ele>427.25</ele><time>2026-04-26T13:09:28.999Z</time></trkpt><trkpt lat="45.422345713260384" lon="7.7640994505080965"><ele>435.0</ele><time>2026-04-26T13:09:29.999Z</time></trkpt><trkpt lat="45.42224822425371" lon="7.764009577350507"><ele>435.0</ele><time>2026-04-26T13:09:30.999Z</time></trkpt><trkpt lat="45.42215114134415" lon="7.763932963967183"><ele>435.0</ele><time>2026-04-26T13:09:31.999Z</time></trkpt><trkpt lat="45.42205632361761" lon="7.763859421176011"><ele>435.0</ele><time>2026-04-26T13:09:32.999Z</time></trkpt><trkpt lat="45.421970945106615" lon="7.763791328037714"><ele>435.0</ele><time>2026-04-26T13:09:33.999Z</time></trkpt><trkpt lat="45.421912017510905" lon="7.763698135122914"><ele>435.0</ele><time>2026-04-26T13:09:34.999Z</time></trkpt><trkpt lat="45.421887054464065" lon="7.763567798292021"><ele>432.0</ele><time>2026-04-26T13:09:35.999Z</time></trkpt><trkpt lat="45.42183707600008" lon="7.76343646879956"><ele>429.0</ele><time>2026-04-26T13:09:36.999Z</time></trkpt><trkpt lat="45.42181515458889" lon="7.763268182570583"><ele>426.0</ele><time>2026-04-26T13:09:37.999Z</time></trkpt><trkpt lat="45.42177954858654" lon="7.7631017052978315"><ele>423.0</ele><time>2026-04-26T13:09:38.999Z</time></trkpt><trkpt lat="45.42174109444152" lon="7.762957229985891"><ele>423.0</ele><time>2026-04-26T13:09:39.999Z</time></trkpt><trkpt lat="45.42173502162514" lon="7.7628264868471115"><ele>423.0</ele><time>2026-04-26T13:09:40.999Z</time></trkpt><trkpt lat="45.42171845983196" lon="7.76271492372657"><ele>423.0</ele><time>2026-04-26T13:09:41.999Z</time></trkpt><trkpt lat="45.42175429189967" lon="7.762599646368313"><ele>423.0</ele><time>2026-04-26T13:09:42.999Z</time></trkpt><trkpt lat="45.42181294541029" lon="7.762483611238475"><ele>423.0</ele><time>2026-04-26T13:09:43.999Z</time></trkpt><trkpt lat="45.42188124162754" lon="7.762364236478214"><ele>424.2</ele><time>2026-04-26T13:09:44.999Z</time></trkpt><trkpt lat="45.42193928593715" lon="7.762233081844365"><ele>425.4</ele><time>2026-04-26T13:09:45.999Z</time></trkpt><trkpt lat="45.42196284225412" lon="7.762090995995867"><ele>426.59999999999997</ele><time>2026-04-26T13:09:46.999Z</time></trkpt><trkpt lat="45.42196006270991" lon="7.761949119683105"><ele>427.79999999999995</ele><time>2026-04-26T13:09:47.999Z</time></trkpt><trkpt lat="45.42194757685042" lon="7.761807500880261"><ele>429.0</ele><time>2026-04-26T13:09:48.999Z</time></trkpt><trkpt lat="45.42192489873008" lon="7.761661551142856"><ele>430.2</ele><time>2026-04-26T13:09:49.999Z</time></trkpt><trkpt lat="45.42191368795574" lon="7.7615100603564064"><ele>431.4</ele><time>2026-04-26T13:09:50.999Z</time></trkpt><trkpt lat="45.421896074100474" lon="7.7613814480386"><ele>432.6</ele><time>2026-04-26T13:09:51.999Z</time></trkpt><trkpt lat="45.42187309240878" lon="7.761273938925843"><ele>433.8</ele><time>2026-04-26T13:09:52.999Z</time></trkpt><trkpt lat="45.421870027096844" lon="7.76118292006743"><ele>435.0</ele><time>2026-04-26T13:09:53.999Z</time></trkpt><trkpt lat="45.421871817278316" lon="7.761022671295647"><ele>436.0</ele><time>2026-04-26T13:09:55.999Z</time></trkpt><trkpt lat="45.421867048730604" lon="7.76085260991132"><ele>437.0</ele><time>2026-04-26T13:09:57.999Z</time></trkpt><trkpt lat="45.4218666954108" lon="7.760742794216536"><ele>438.0</ele><time>2026-04-26T13:09:58.999Z</time></trkpt><trkpt lat="45.42187046863355" lon="7.760618654405721"><ele>439.0</ele><time>2026-04-26T13:09:59.999Z</time></trkpt><trkpt lat="45.42187390372042" lon="7.760474626741275"><ele>440.0</ele><time>2026-04-26T13:10:00.999Z</time></trkpt><trkpt lat="45.421881232289294" lon="7.760312536911548"><ele>440.0</ele><time>2026-04-26T13:10:01.999Z</time></trkpt><trkpt lat="45.42188697011905" lon="7.760163879355706"><ele>440.0</ele><time>2026-04-26T13:10:02.999Z</time></trkpt><trkpt lat="45.421892038453784" lon="7.759942727605226"><ele>440.0</ele><time>2026-04-26T13:10:03.999Z</time></trkpt><trkpt lat="45.42189625139504" lon="7.759761017844175"><ele>440.0</ele><time>2026-04-26T13:10:04.999Z</time></trkpt><trkpt lat="45.42191500889855" lon="7.7595946391120485"><ele>440.0</ele><time>2026-04-26T13:10:05.999Z</time></trkpt><trkpt lat="45.421935885236394" lon="7.759420435539769"><ele>440.0</ele><time>2026-04-26T13:10:06.999Z</time></trkpt><trkpt lat="45.42195145792049" lon="7.75926300917672"><ele>440.0</ele><time>2026-04-26T13:10:07.999Z</time></trkpt><trkpt lat="45.42198582524163" lon="7.759133055847195"><ele>440.0</ele><time>2026-04-26T13:10:08.999Z</time></trkpt><trkpt lat="45.42199308315132" lon="7.75900488752863"><ele>440.0</ele><time>2026-04-26T13:10:09.999Z</time></trkpt><trkpt lat="45.422015295657665" lon="7.758890304871764"><ele>440.2</ele><time>2026-04-26T13:10:10.999Z</time></trkpt><trkpt lat="45.422027735247426" lon="7.758769622875608"><ele>440.4</ele><time>2026-04-26T13:10:11.999Z</time></trkpt><trkpt lat="45.42204439818472" lon="7.758650168072346"><ele>440.6</ele><time>2026-04-26T13:10:12.999Z</time></trkpt><trkpt lat="45.42204860714062" lon="7.758520001558848"><ele>440.8</ele><time>2026-04-26T13:10:13.999Z</time></trkpt><trkpt lat="45.42203890616199" lon="7.758378233101957"><ele>441.0</ele><time>2026-04-26T13:10:14.998Z</time></trkpt><trkpt lat="45.42201353823133" lon="7.758239474036302"><ele>441.1666666666667</ele><time>2026-04-26T13:10:15.998Z</time></trkpt><trkpt lat="45.42198629807691" lon="7.7581180932360425"><ele>441.33333333333337</ele><time>2026-04-26T13:10:16.998Z</time></trkpt><trkpt lat="45.42194164869895" lon="7.758016063020269"><ele>441.5</ele><time>2026-04-26T13:10:17.998Z</time></trkpt><trkpt lat="45.42189509412056" lon="7.757911726596732"><ele>441.6666666666667</ele><time>2026-04-26T13:10:18.998Z</time></trkpt><trkpt lat="45.42183471149274" lon="7.757820916879879"><ele>441.83333333333337</ele><time>2026-04-26T13:10:19.998Z</time></trkpt><trkpt lat="45.42177717498074" lon="7.757739728524893"><ele>442.0</ele><time>2026-04-26T13:10:20.998Z</time></trkpt><trkpt lat="45.42173371840362" lon="7.757659460346465"><ele>443.83333333333337</ele><time>2026-04-26T13:10:21.998Z</time></trkpt><trkpt lat="45.42170501764989" lon="7.757570327660722"><ele>445.6666666666667</ele><time>2026-04-26T13:10:22.998Z</time></trkpt><trkpt lat="45.421674801808194" lon="7.757454631457003"><ele>447.5</ele><time>2026-04-26T13:10:23.998Z</time></trkpt><trkpt lat="45.421651267474154" lon="7.757327880917478"><ele>449.33333333333337</ele><time>2026-04-26T13:10:24.998Z</time></trkpt><trkpt lat="45.42165924113711" lon="7.7572282654336355"><ele>451.1666666666667</ele><time>2026-04-26T13:10:25.998Z</time></trkpt><trkpt lat="45.42166828304176" lon="7.7571178739460125"><ele>453.0</ele><time>2026-04-26T13:10:26.998Z</time></trkpt><trkpt lat="45.42170932827084" lon="7.757008551631364"><ele>453.0</ele><time>2026-04-26T13:10:27.998Z</time></trkpt><trkpt lat="45.42176732480601" lon="7.756895925319466"><ele>452.99999999999994</ele><time>2026-04-26T13:10:28.998Z</time></trkpt><trkpt lat="45.421836264326956" lon="7.756794329503517"><ele>452.99999999999994</ele><time>2026-04-26T13:10:29.998Z</time></trkpt><trkpt lat="45.421905058475424" lon="7.756709088083683"><ele>453.0</ele><time>2026-04-26T13:10:30.998Z</time></trkpt><trkpt lat="45.421980840256595" lon="7.756624094234843"><ele>453.0</ele><time>2026-04-26T13:10:31.998Z</time></trkpt><trkpt lat="45.42206447355758" lon="7.756543281480502"><ele>454.59999999999997</ele><time>2026-04-26T13:10:32.998Z</time></trkpt><trkpt lat="45.42214832590281" lon="7.756464300854546"><ele>456.19999999999993</ele><time>2026-04-26T13:10:33.998Z</time></trkpt><trkpt lat="45.42222275882509" lon="7.756381020083557"><ele>457.8</ele><time>2026-04-26T13:10:34.998Z</time></trkpt><trkpt lat="45.42229697859006" lon="7.756295141148032"><ele>459.4</ele><time>2026-04-26T13:10:35.998Z</time></trkpt><trkpt lat="45.422369492691026" lon="7.75621955384302"><ele>461.0</ele><time>2026-04-26T13:10:36.998Z</time></trkpt><trkpt lat="45.422443109193175" lon="7.756148278720526"><ele>460.99999999999994</ele><time>2026-04-26T13:10:37.998Z</time></trkpt><trkpt lat="45.42251649646316" lon="7.756078834220442"><ele>461.0</ele><time>2026-04-26T13:10:38.998Z</time></trkpt><trkpt lat="45.422587182608694" lon="7.7560128840400955"><ele>461.0</ele><time>2026-04-26T13:10:39.998Z</time></trkpt><trkpt lat="45.422664567347816" lon="7.755956159127305"><ele>461.0</ele><time>2026-04-26T13:10:40.998Z</time></trkpt><trkpt lat="45.422742278797344" lon="7.75592091149948"><ele>460.99999999999994</ele><time>2026-04-26T13:10:41.998Z</time></trkpt><trkpt lat="45.42282314605527" lon="7.755911069696918"><ele>461.0</ele><time>2026-04-26T13:10:42.998Z</time></trkpt><trkpt lat="45.42290473079665" lon="7.755939698578048"><ele>460.49999999999994</ele><time>2026-04-26T13:10:43.998Z</time></trkpt><trkpt lat="45.42297709434949" lon="7.755995958861481"><ele>460.0</ele><time>2026-04-26T13:10:44.998Z</time></trkpt><trkpt lat="45.42303759760287" lon="7.756075069419646"><ele>459.5</ele><time>2026-04-26T13:10:45.998Z</time></trkpt><trkpt lat="45.42311124399735" lon="7.756156043941528"><ele>459.0</ele><time>2026-04-26T13:10:46.998Z</time></trkpt><trkpt lat="45.42318591822241" lon="7.756234696125946"><ele>458.49999999999994</ele><time>2026-04-26T13:10:47.998Z</time></trkpt><trkpt lat="45.42326512294035" lon="7.756307299795472"><ele>458.0</ele><time>2026-04-26T13:10:48.998Z</time></trkpt><trkpt lat="45.42334721326645" lon="7.756377843673023"><ele>458.0</ele><time>2026-04-26T13:10:49.998Z</time></trkpt><trkpt lat="45.42343216237739" lon="7.756442857342831"><ele>457.99999999999994</ele><time>2026-04-26T13:10:50.998Z</time></trkpt><trkpt lat="45.423518136737414" lon="7.7565135351004075"><ele>457.99999999999994</ele><time>2026-04-26T13:10:51.998Z</time></trkpt><trkpt lat="45.42360140809558" lon="7.756609937273677"><ele>458.0</ele><time>2026-04-26T13:10:52.998Z</time></trkpt><trkpt lat="45.42367500358637" lon="7.756724080020297"><ele>458.0</ele><time>2026-04-26T13:10:53.998Z</time></trkpt><trkpt lat="45.423738827414155" lon="7.756848356598658"><ele>458.59999999999997</ele><time>2026-04-26T13:10:54.998Z</time></trkpt><trkpt lat="45.423810269213284" lon="7.756963047596521"><ele>459.19999999999993</ele><time>2026-04-26T13:10:56Z</time></trkpt><trkpt lat="45.423882976251576" lon="7.757069349966697"><ele>459.8</ele><time>2026-04-26T13:10:57Z</time></trkpt><trkpt lat="45.42394739307978" lon="7.7571755696290925"><ele>460.4</ele><time>2026-04-26T13:10:58Z</time></trkpt><trkpt lat="45.42401510968904" lon="7.757281342901208"><ele>461.0</ele><time>2026-04-26T13:10:59Z</time></trkpt><trkpt lat="45.42409358437243" lon="7.757387890357705"><ele>461.0</ele><time>2026-04-26T13:11:00Z</time></trkpt><trkpt lat="45.42417421155318" lon="7.757494202599294"><ele>461.0</ele><time>2026-04-26T13:11:01Z</time></trkpt><trkpt lat="45.424255345868424" lon="7.757596306346665"><ele>461.0</ele><time>2026-04-26T13:11:02Z</time></trkpt><trkpt lat="45.424332686023085" lon="7.75769164415679"><ele>461.0</ele><time>2026-04-26T13:11:03Z</time></trkpt><trkpt lat="45.42440585836043" lon="7.757791599073702"><ele>461.0</ele><time>2026-04-26T13:11:04Z</time></trkpt><trkpt lat="45.42447533227361" lon="7.75789799624585"><ele>465.5</ele><time>2026-04-26T13:11:05Z</time></trkpt><trkpt lat="45.4245445952287" lon="7.758015297635138"><ele>470.0</ele><time>2026-04-26T13:11:06Z</time></trkpt><trkpt lat="45.42461392600959" lon="7.758148682147774"><ele>474.5</ele><time>2026-04-26T13:11:07Z</time></trkpt><trkpt lat="45.424683343510196" lon="7.758299480724914"><ele>479.0</ele><time>2026-04-26T13:11:08Z</time></trkpt><trkpt lat="45.424743624398424" lon="7.758458594142887"><ele>473.75</ele><time>2026-04-26T13:11:09Z</time></trkpt><trkpt lat="45.424799163487485" lon="7.758606252132408"><ele>468.5</ele><time>2026-04-26T13:11:10Z</time></trkpt><trkpt lat="45.42486121139698" lon="7.758749534033586"><ele>463.25</ele><time>2026-04-26T13:11:11Z</time></trkpt><trkpt lat="45.424918020523265" lon="7.7588890517480085"><ele>458.0</ele><time>2026-04-26T13:11:12Z</time></trkpt><trkpt lat="45.42497254189404" lon="7.759026172735074"><ele>458.0</ele><time>2026-04-26T13:11:13Z</time></trkpt><trkpt lat="45.42502681410471" lon="7.759164085674922"><ele>457.99999999999994</ele><time>2026-04-26T13:11:14Z</time></trkpt><trkpt lat="45.42508454804045" lon="7.759294357982595"><ele>457.99999999999994</ele><time>2026-04-26T13:11:15Z</time></trkpt><trkpt lat="45.42516197645539" lon="7.7594078930997865"><ele>458.0</ele><time>2026-04-26T13:11:16Z</time></trkpt><trkpt lat="45.42524802451746" lon="7.7595077993039565"><ele>458.0</ele><time>2026-04-26T13:11:17Z</time></trkpt><trkpt lat="45.425332147786335" lon="7.7596131825584544"><ele>457.25</ele><time>2026-04-26T13:11:18Z</time></trkpt><trkpt lat="45.42542850437011" lon="7.759720298593936"><ele>456.5</ele><time>2026-04-26T13:11:18.999Z</time></trkpt><trkpt lat="45.4255391104803" lon="7.759816253850851"><ele>455.75</ele><time>2026-04-26T13:11:19.999Z</time></trkpt><trkpt lat="45.425657642898074" lon="7.759916214657983"><ele>455.0</ele><time>2026-04-26T13:11:20.999Z</time></trkpt><trkpt lat="45.425773510048096" lon="7.760003045115057"><ele>455.0</ele><time>2026-04-26T13:11:21.999Z</time></trkpt><trkpt lat="45.42588949418561" lon="7.760097542229055"><ele>455.0</ele><time>2026-04-26T13:11:22.999Z</time></trkpt><trkpt lat="45.426011602321374" lon="7.7601949330502515"><ele>455.0</ele><time>2026-04-26T13:11:23.999Z</time></trkpt><trkpt lat="45.426147392316416" lon="7.760291344057727"><ele>455.0</ele><time>2026-04-26T13:11:24.999Z</time></trkpt><trkpt lat="45.42628589579458" lon="7.7603663393993685"><ele>457.25</ele><time>2026-04-26T13:11:25.999Z</time></trkpt><trkpt lat="45.426416556536175" lon="7.760424119512489"><ele>459.5</ele><time>2026-04-26T13:11:26.999Z</time></trkpt><trkpt lat="45.426546647829845" lon="7.7604751223796535"><ele>461.75</ele><time>2026-04-26T13:11:27.999Z</time></trkpt><trkpt lat="45.426673076294605" lon="7.760531960104617"><ele>464.0</ele><time>2026-04-26T13:11:28.999Z</time></trkpt><trkpt lat="45.426801644146174" lon="7.760597233934135"><ele>464.0</ele><time>2026-04-26T13:11:29.999Z</time></trkpt><trkpt lat="45.42693669499047" lon="7.760674276553043"><ele>464.0</ele><time>2026-04-26T13:11:30.999Z</time></trkpt><trkpt lat="45.427072127878105" lon="7.760762265631356"><ele>464.0</ele><time>2026-04-26T13:11:31.999Z</time></trkpt><trkpt lat="45.4272023207569" lon="7.760852890987093"><ele>464.0</ele><time>2026-04-26T13:11:32.999Z</time></trkpt><trkpt lat="45.427324877290935" lon="7.760943676276223"><ele>464.75</ele><time>2026-04-26T13:11:33.999Z</time></trkpt><trkpt lat="45.42743836169409" lon="7.761051691140524"><ele>465.5</ele><time>2026-04-26T13:11:34.999Z</time></trkpt><trkpt lat="45.427540914572155" lon="7.761184026041214"><ele>466.25</ele><time>2026-04-26T13:11:35.999Z</time></trkpt><trkpt lat="45.42763482598097" lon="7.761320671749025"><ele>467.0</ele><time>2026-04-26T13:11:36.999Z</time></trkpt><trkpt lat="45.42772787663553" lon="7.761447537109633"><ele>467.0</ele><time>2026-04-26T13:11:37.999Z</time></trkpt><trkpt lat="45.427817292553975" lon="7.761573658034876"><ele>467.0</ele><time>2026-04-26T13:11:38.999Z</time></trkpt><trkpt lat="45.4279068982714" lon="7.761700901164254"><ele>467.0</ele><time>2026-04-26T13:11:39.999Z</time></trkpt><trkpt lat="45.4279995058789" lon="7.761823783907388"><ele>467.0</ele><time>2026-04-26T13:11:40.999Z</time></trkpt><trkpt lat="45.428099967102305" lon="7.761939476188637"><ele>465.0</ele><time>2026-04-26T13:11:41.999Z</time></trkpt><trkpt lat="45.42820537216878" lon="7.762047179709229"><ele>463.0</ele><time>2026-04-26T13:11:42.999Z</time></trkpt><trkpt lat="45.42831986502761" lon="7.762139528324541"><ele>461.0</ele><time>2026-04-26T13:11:43.999Z</time></trkpt><trkpt lat="45.42844084555967" lon="7.7622127686578875"><ele>459.0</ele><time>2026-04-26T13:11:44.999Z</time></trkpt><trkpt lat="45.42856689965103" lon="7.762273945424775"><ele>459.0</ele><time>2026-04-26T13:11:45.999Z</time></trkpt><trkpt lat="45.428694496713725" lon="7.762320430123464"><ele>459.0</ele><time>2026-04-26T13:11:46.999Z</time></trkpt><trkpt lat="45.42881730898289" lon="7.7623518571945525"><ele>459.0</ele><time>2026-04-26T13:11:47.999Z</time></trkpt><trkpt lat="45.42893362789251" lon="7.762371769620611"><ele>459.0</ele><time>2026-04-26T13:11:48.999Z</time></trkpt><trkpt lat="45.42905275634801" lon="7.762385749615479"><ele>456.75</ele><time>2026-04-26T13:11:49.999Z</time></trkpt><trkpt lat="45.42917082537356" lon="7.7623841891688095"><ele>454.5</ele><time>2026-04-26T13:11:50.999Z</time></trkpt><trkpt lat="45.429286657407545" lon="7.762386757076419"><ele>452.25</ele><time>2026-04-26T13:11:51.999Z</time></trkpt><trkpt lat="45.42939706518996" lon="7.76241359255476"><ele>450.0</ele><time>2026-04-26T13:11:52.999Z</time></trkpt><trkpt lat="45.42950549147009" lon="7.762459123212669"><ele>450.0</ele><time>2026-04-26T13:11:53.999Z</time></trkpt><trkpt lat="45.429608467729686" lon="7.762547041295222"><ele>450.0</ele><time>2026-04-26T13:11:54.999Z</time></trkpt><trkpt lat="45.42971328056454" lon="7.762636453719909"><ele>450.0</ele><time>2026-04-26T13:11:55.999Z</time></trkpt><trkpt lat="45.4298226098194" lon="7.76273893396638"><ele>450.0</ele><time>2026-04-26T13:11:56.999Z</time></trkpt><trkpt lat="45.42993537718696" lon="7.762862557301765"><ele>453.25</ele><time>2026-04-26T13:11:57.999Z</time></trkpt><trkpt lat="45.43005537357782" lon="7.762980765888987"><ele>456.5</ele><time>2026-04-26T13:11:58.999Z</time></trkpt><trkpt lat="45.43017967123185" lon="7.763095215335315"><ele>459.75</ele><time>2026-04-26T13:11:59.999Z</time></trkpt><trkpt lat="45.430302181055964" lon="7.76320166417681"><ele>463.0</ele><time>2026-04-26T13:12:00.999Z</time></trkpt><trkpt lat="45.43042396502735" lon="7.763289086187215"><ele>465.0</ele><time>2026-04-26T13:12:01.999Z</time></trkpt><trkpt lat="45.430533688451206" lon="7.763383593427709"><ele>467.0</ele><time>2026-04-26T13:12:02.999Z</time></trkpt><trkpt lat="45.430641164476" lon="7.763471033605734"><ele>469.0</ele><time>2026-04-26T13:12:03.999Z</time></trkpt><trkpt lat="45.43074499050245" lon="7.763560851835478"><ele>471.0</ele><time>2026-04-26T13:12:04.999Z</time></trkpt><trkpt lat="45.430842877248345" lon="7.763656159592382"><ele>471.0</ele><time>2026-04-26T13:12:05.999Z</time></trkpt><trkpt lat="45.43093366510942" lon="7.763768611224095"><ele>471.0</ele><time>2026-04-26T13:12:06.999Z</time></trkpt><trkpt lat="45.43101805249591" lon="7.763885548523346"><ele>471.0</ele><time>2026-04-26T13:12:07.999Z</time></trkpt><trkpt lat="45.43109965643995" lon="7.7640018309217735"><ele>471.0</ele><time>2026-04-26T13:12:08.999Z</time></trkpt><trkpt lat="45.43119249076897" lon="7.764118161581537"><ele>471.0</ele><time>2026-04-26T13:12:09.999Z</time></trkpt><trkpt lat="45.43129461211306" lon="7.764231718798063"><ele>471.0</ele><time>2026-04-26T13:12:10.999Z</time></trkpt><trkpt lat="45.43140068088619" lon="7.764344434843352"><ele>471.0</ele><time>2026-04-26T13:12:11.999Z</time></trkpt><trkpt lat="45.43151486085298" lon="7.764448681535882"><ele>471.0</ele><time>2026-04-26T13:12:12.999Z</time></trkpt><trkpt lat="45.43164393261079" lon="7.76453833548659"><ele>470.0</ele><time>2026-04-26T13:12:13.999Z</time></trkpt><trkpt lat="45.43177833496104" lon="7.764621012881017"><ele>469.0</ele><time>2026-04-26T13:12:14.999Z</time></trkpt><trkpt lat="45.431916159596476" lon="7.764689422765068"><ele>468.0</ele><time>2026-04-26T13:12:15.998Z</time></trkpt><trkpt lat="45.432061114490054" lon="7.764761566856643"><ele>467.0</ele><time>2026-04-26T13:12:16.998Z</time></trkpt><trkpt lat="45.43220544053058" lon="7.764834239441755"><ele>461.66666666666663</ele><time>2026-04-26T13:12:17.998Z</time></trkpt><trkpt lat="45.432353171605136" lon="7.764907953737434"><ele>456.33333333333337</ele><time>2026-04-26T13:12:18.998Z</time></trkpt><trkpt lat="45.43251439956122" lon="7.764983467220668"><ele>451.0</ele><time>2026-04-26T13:12:19.998Z</time></trkpt><trkpt lat="45.43266930999478" lon="7.765058827627449"><ele>451.0</ele><time>2026-04-26T13:12:20.998Z</time></trkpt><trkpt lat="45.43281223788097" lon="7.765129008011283"><ele>451.0</ele><time>2026-04-26T13:12:21.998Z</time></trkpt><trkpt lat="45.43294806853608" lon="7.765197064418193"><ele>451.0</ele><time>2026-04-26T13:12:22.998Z</time></trkpt><trkpt lat="45.43307484745806" lon="7.765258562343879"><ele>451.0</ele><time>2026-04-26T13:12:23.998Z</time></trkpt><trkpt lat="45.433191758192905" lon="7.765316004856627"><ele>451.25</ele><time>2026-04-26T13:12:24.998Z</time></trkpt><trkpt lat="45.43331031782092" lon="7.765373272054754"><ele>451.5</ele><time>2026-04-26T13:12:25.998Z</time></trkpt><trkpt lat="45.43342316411822" lon="7.765427570112165"><ele>451.75</ele><time>2026-04-26T13:12:26.998Z</time></trkpt><trkpt lat="45.433546463509806" lon="7.765488427011707"><ele>452.0</ele><time>2026-04-26T13:12:27.998Z</time></trkpt><trkpt lat="45.433673846820874" lon="7.765555165232852"><ele>452.25</ele><time>2026-04-26T13:12:28.998Z</time></trkpt><trkpt lat="45.433806552781796" lon="7.765622664610652"><ele>452.5</ele><time>2026-04-26T13:12:29.998Z</time></trkpt><trkpt lat="45.4339444546787" lon="7.76569262700902"><ele>452.75</ele><time>2026-04-26T13:12:30.998Z</time></trkpt><trkpt lat="45.43408828744479" lon="7.76576623011323"><ele>453.0</ele><time>2026-04-26T13:12:31.998Z</time></trkpt><trkpt lat="45.434244400738066" lon="7.765843293998947"><ele>453.0</ele><time>2026-04-26T13:12:32.998Z</time></trkpt><trkpt lat="45.4344011329754" lon="7.765916978111242"><ele>453.0</ele><time>2026-04-26T13:12:33.998Z</time></trkpt><trkpt lat="45.434552399703854" lon="7.765989536739881"><ele>453.0</ele><time>2026-04-26T13:12:34.998Z</time></trkpt><trkpt lat="45.4346905666795" lon="7.766057582239432"><ele>454.25</ele><time>2026-04-26T13:12:35.998Z</time></trkpt><trkpt lat="45.43482488144161" lon="7.766124337766143"><ele>455.5</ele><time>2026-04-26T13:12:36.998Z</time></trkpt><trkpt lat="45.43495156437432" lon="7.766189183305847"><ele>456.75</ele><time>2026-04-26T13:12:37.998Z</time></trkpt><trkpt lat="45.435080331099435" lon="7.766253085899868"><ele>458.0</ele><time>2026-04-26T13:12:38.998Z</time></trkpt><trkpt lat="45.43520770757236" lon="7.766313759348081"><ele>458.0</ele><time>2026-04-26T13:12:39.998Z</time></trkpt><trkpt lat="45.43533313205165" lon="7.7663778397547585"><ele>458.0</ele><time>2026-04-26T13:12:40.998Z</time></trkpt><trkpt lat="45.43545849590716" lon="7.766444908061619"><ele>458.0</ele><time>2026-04-26T13:12:41.998Z</time></trkpt><trkpt lat="45.43558631714597" lon="7.766506602401798"><ele>458.0</ele><time>2026-04-26T13:12:42.998Z</time></trkpt><trkpt lat="45.43570918121077" lon="7.766572866391169"><ele>458.5</ele><time>2026-04-26T13:12:43.998Z</time></trkpt><trkpt lat="45.43583154912638" lon="7.766631073846016"><ele>459.0</ele><time>2026-04-26T13:12:44.998Z</time></trkpt><trkpt lat="45.43595080163192" lon="7.766694291885186"><ele>459.5</ele><time>2026-04-26T13:12:45.998Z</time></trkpt><trkpt lat="45.43606713315575" lon="7.766760165139353"><ele>460.0</ele><time>2026-04-26T13:12:46.998Z</time></trkpt><trkpt lat="45.43618677633131" lon="7.766819127066256"><ele>461.0</ele><time>2026-04-26T13:12:47.998Z</time></trkpt><trkpt lat="45.43630578215965" lon="7.7668748397669205"><ele>462.0</ele><time>2026-04-26T13:12:48.998Z</time></trkpt><trkpt lat="45.43642291489929" lon="7.7669324656229595"><ele>463.0</ele><time>2026-04-26T13:12:49.998Z</time></trkpt><trkpt lat="45.43654434593018" lon="7.766989141839841"><ele>464.0</ele><time>2026-04-26T13:12:50.998Z</time></trkpt><trkpt lat="45.43667147580831" lon="7.76705237295089"><ele>464.0</ele><time>2026-04-26T13:12:51.998Z</time></trkpt><trkpt lat="45.43679718657826" lon="7.767120330015269"><ele>464.0</ele><time>2026-04-26T13:12:52.998Z</time></trkpt><trkpt lat="45.43692701747901" lon="7.767181186735599"><ele>464.0</ele><time>2026-04-26T13:12:53.998Z</time></trkpt><trkpt lat="45.43705560515688" lon="7.767244230216968"><ele>464.0</ele><time>2026-04-26T13:12:54.998Z</time></trkpt><trkpt lat="45.437182315990626" lon="7.767301039906923"><ele>464.0</ele><time>2026-04-26T13:12:55.998Z</time></trkpt><trkpt lat="45.43730218145547" lon="7.767362371275694"><ele>464.0</ele><time>2026-04-26T13:12:56.998Z</time></trkpt><trkpt lat="45.4374183976682" lon="7.767427514287979"><ele>464.0</ele><time>2026-04-26T13:12:57.998Z</time></trkpt><trkpt lat="45.437517321816934" lon="7.767480492038061"><ele>464.0</ele><time>2026-04-26T13:12:58.998Z</time></trkpt><trkpt lat="45.437627196516985" lon="7.767527319973715"><ele>464.0</ele><time>2026-04-26T13:12:59.998Z</time></trkpt><trkpt lat="45.437736683766076" lon="7.767573635840275"><ele>464.0</ele><time>2026-04-26T13:13:00.998Z</time></trkpt><trkpt lat="45.437847697269696" lon="7.767606427513274"><ele>464.0</ele><time>2026-04-26T13:13:02Z</time></trkpt><trkpt lat="45.43796043362153" lon="7.767648823580382"><ele>464.0</ele><time>2026-04-26T13:13:03Z</time></trkpt><trkpt lat="45.438078103095165" lon="7.767552645525458"><ele>464.75</ele><time>2026-04-26T13:13:04Z</time></trkpt><trkpt lat="45.43819729540039" lon="7.767480457162578"><ele>465.5</ele><time>2026-04-26T13:13:05Z</time></trkpt><trkpt lat="45.43831004970739" lon="7.767391842749792"><ele>466.25</ele><time>2026-04-26T13:13:06Z</time></trkpt><trkpt lat="45.43841899340658" lon="7.767287547288514"><ele>467.0</ele><time>2026-04-26T13:13:07Z</time></trkpt><trkpt lat="45.43853244813689" lon="7.767189393558072"><ele>467.0</ele><time>2026-04-26T13:13:08Z</time></trkpt><trkpt lat="45.43864866139796" lon="7.767101516314234"><ele>467.0</ele><time>2026-04-26T13:13:09Z</time></trkpt><trkpt lat="45.438755405913184" lon="7.767012907539942"><ele>467.0</ele><time>2026-04-26T13:13:10Z</time></trkpt><trkpt lat="45.43885843146919" lon="7.76693708579324"><ele>467.0</ele><time>2026-04-26T13:13:11Z</time></trkpt><trkpt lat="45.4389508063714" lon="7.766851948654766"><ele>466.6</ele><time>2026-04-26T13:13:11.999Z</time></trkpt><trkpt lat="45.43904502470619" lon="7.766778422018663"><ele>466.20000000000005</ele><time>2026-04-26T13:13:12.999Z</time></trkpt><trkpt lat="45.4391406312144" lon="7.766719068053517"><ele>465.8</ele><time>2026-04-26T13:13:13.999Z</time></trkpt><trkpt lat="45.439226858481256" lon="7.766646530992456"><ele>465.4</ele><time>2026-04-26T13:13:14.999Z</time></trkpt><trkpt lat="45.439317802346565" lon="7.7665796254663855"><ele>465.0</ele><time>2026-04-26T13:13:15.999Z</time></trkpt><trkpt lat="45.43941799849231" lon="7.766511313112104"><ele>465.0</ele><time>2026-04-26T13:13:16.999Z</time></trkpt><trkpt lat="45.43952309631195" lon="7.766436172527676"><ele>465.0</ele><time>2026-04-26T13:13:17.999Z</time></trkpt><trkpt lat="45.439635205835984" lon="7.766370270784383"><ele>465.0</ele><time>2026-04-26T13:13:18.999Z</time></trkpt><trkpt lat="45.43975481469563" lon="7.766343569319513"><ele>465.0</ele><time>2026-04-26T13:13:19.999Z</time></trkpt><trkpt lat="45.43987172332206" lon="7.766280925970052"><ele>466.25</ele><time>2026-04-26T13:13:20.999Z</time></trkpt><trkpt lat="45.43999544560465" lon="7.766246959931297"><ele>467.5</ele><time>2026-04-26T13:13:21.999Z</time></trkpt><trkpt lat="45.44012451428648" lon="7.766219330435986"><ele>468.75</ele><time>2026-04-26T13:13:22.999Z</time></trkpt><trkpt lat="45.44025693528077" lon="7.766200212526884"><ele>470.0</ele><time>2026-04-26T13:13:23.999Z</time></trkpt><trkpt lat="45.4403793124265" lon="7.766180031185789"><ele>470.4</ele><time>2026-04-26T13:13:24.999Z</time></trkpt><trkpt lat="45.44048577293824" lon="7.766168786842237"><ele>470.8</ele><time>2026-04-26T13:13:25.999Z</time></trkpt><trkpt lat="45.44059320319763" lon="7.76614828897773"><ele>471.20000000000005</ele><time>2026-04-26T13:13:26.999Z</time></trkpt><trkpt lat="45.44069324558564" lon="7.766123026846503"><ele>471.6</ele><time>2026-04-26T13:13:27.999Z</time></trkpt><trkpt lat="45.4407870919811" lon="7.766109122817251"><ele>472.0</ele><time>2026-04-26T13:13:28.999Z</time></trkpt><trkpt lat="45.440862235739246" lon="7.766092513869835"><ele>472.0</ele><time>2026-04-26T13:13:29.999Z</time></trkpt><trkpt lat="45.44092906474382" lon="7.766085312927261"><ele>472.0</ele><time>2026-04-26T13:13:30.999Z</time></trkpt><trkpt lat="45.440996820472876" lon="7.766088126944633"><ele>472.0</ele><time>2026-04-26T13:13:31.999Z</time></trkpt><trkpt lat="45.44106522576676" lon="7.766104166548078"><ele>472.0</ele><time>2026-04-26T13:13:32.999Z</time></trkpt><trkpt lat="45.441129631822925" lon="7.766131542043195"><ele>472.0</ele><time>2026-04-26T13:13:33.999Z</time></trkpt><trkpt lat="45.44120788774748" lon="7.766137831679176"><ele>472.0</ele><time>2026-04-26T13:13:34.999Z</time></trkpt><trkpt lat="45.44129291693627" lon="7.766183181520703"><ele>472.0</ele><time>2026-04-26T13:13:35.999Z</time></trkpt><trkpt lat="45.44138213993345" lon="7.7662791012198005"><ele>472.0</ele><time>2026-04-26T13:13:36.999Z</time></trkpt><trkpt lat="45.44145764375971" lon="7.766416222338155"><ele>472.00000000000006</ele><time>2026-04-26T13:13:37.999Z</time></trkpt><trkpt lat="45.441501561952165" lon="7.766569469849144"><ele>472.00000000000006</ele><time>2026-04-26T13:13:38.999Z</time></trkpt><trkpt lat="45.44156043650914" lon="7.766699579388906"><ele>472.0</ele><time>2026-04-26T13:13:39.999Z</time></trkpt><trkpt lat="45.441606041056524" lon="7.76682868096291"><ele>472.0</ele><time>2026-04-26T13:13:40.999Z</time></trkpt><trkpt lat="45.44166253724565" lon="7.76695006280762"><ele>473.20000000000005</ele><time>2026-04-26T13:13:41.999Z</time></trkpt><trkpt lat="45.44172048211738" lon="7.7670742104520745"><ele>474.40000000000003</ele><time>2026-04-26T13:13:42.999Z</time></trkpt><trkpt lat="45.44178540335081" lon="7.767198160952112"><ele>475.59999999999997</ele><time>2026-04-26T13:13:43.999Z</time></trkpt><trkpt lat="45.441857506187574" lon="7.767303211793779"><ele>476.79999999999995</ele><time>2026-04-26T13:13:44.999Z</time></trkpt><trkpt lat="45.44192411300089" lon="7.767402093619262"><ele>478.0</ele><time>2026-04-26T13:13:45.999Z</time></trkpt><trkpt lat="45.44199158724826" lon="7.767488172151495"><ele>478.0</ele><time>2026-04-26T13:13:46.999Z</time></trkpt><trkpt lat="45.44206360561846" lon="7.767559087320255"><ele>477.99999999999994</ele><time>2026-04-26T13:13:47.999Z</time></trkpt><trkpt lat="45.44213908511504" lon="7.767633071898182"><ele>477.99999999999994</ele><time>2026-04-26T13:13:48.999Z</time></trkpt><trkpt lat="45.442219625793456" lon="7.767711891352617"><ele>478.0</ele><time>2026-04-26T13:13:49.999Z</time></trkpt><trkpt lat="45.442303516548904" lon="7.767797132865669"><ele>478.0</ele><time>2026-04-26T13:13:50.999Z</time></trkpt><trkpt lat="45.44239424089407" lon="7.767889830687376"><ele>478.79999999999995</ele><time>2026-04-26T13:13:51.999Z</time></trkpt><trkpt lat="45.44247999799138" lon="7.767980859560307"><ele>479.59999999999997</ele><time>2026-04-26T13:13:52.999Z</time></trkpt><trkpt lat="45.44255730700285" lon="7.768065049304962"><ele>480.40000000000003</ele><time>2026-04-26T13:13:53.999Z</time></trkpt><trkpt lat="45.4426301323388" lon="7.768136819246507"><ele>481.20000000000005</ele><time>2026-04-26T13:13:54.999Z</time></trkpt><trkpt lat="45.442699917786314" lon="7.7682110185659585"><ele>482.0</ele><time>2026-04-26T13:13:55.999Z</time></trkpt><trkpt lat="45.44276636119129" lon="7.76828777282283"><ele>481.99999999999994</ele><time>2026-04-26T13:13:56.999Z</time></trkpt><trkpt lat="45.44283262515462" lon="7.768362116908461"><ele>482.0</ele><time>2026-04-26T13:13:57.999Z</time></trkpt><trkpt lat="45.442904155514185" lon="7.768417601921875"><ele>482.0</ele><time>2026-04-26T13:13:58.999Z</time></trkpt><trkpt lat="45.442979246831236" lon="7.768444443801967"><ele>482.0</ele><time>2026-04-26T13:13:59.999Z</time></trkpt><trkpt lat="45.443058776637365" lon="7.768412113165794"><ele>481.99999999999994</ele><time>2026-04-26T13:14:00.999Z</time></trkpt><trkpt lat="45.44313747047038" lon="7.768340259835634"><ele>482.0</ele><time>2026-04-26T13:14:01.999Z</time></trkpt><trkpt lat="45.443216287303954" lon="7.768254961160849"><ele>483.20000000000005</ele><time>2026-04-26T13:14:02.999Z</time></trkpt><trkpt lat="45.44330181824911" lon="7.768169390708037"><ele>484.40000000000003</ele><time>2026-04-26T13:14:03.999Z</time></trkpt><trkpt lat="45.44339448668095" lon="7.768094782588642"><ele>485.59999999999997</ele><time>2026-04-26T13:14:04.999Z</time></trkpt><trkpt lat="45.44349629321406" lon="7.768047535938132"><ele>486.79999999999995</ele><time>2026-04-26T13:14:05.999Z</time></trkpt><trkpt lat="45.44358821219264" lon="7.767981481765028"><ele>488.0</ele><time>2026-04-26T13:14:06.999Z</time></trkpt><trkpt lat="45.4436836236027" lon="7.7679095107860014"><ele>488.0</ele><time>2026-04-26T13:14:07.999Z</time></trkpt><trkpt lat="45.443771078379534" lon="7.767802328623841"><ele>488.0</ele><time>2026-04-26T13:14:08.999Z</time></trkpt><trkpt lat="45.443862307752525" lon="7.7677017692329615"><ele>488.0</ele><time>2026-04-26T13:14:09.999Z</time></trkpt><trkpt lat="45.44394864680747" lon="7.767590017901195"><ele>488.0</ele><time>2026-04-26T13:14:10.999Z</time></trkpt><trkpt lat="45.444026498692004" lon="7.767474329034554"><ele>489.2</ele><time>2026-04-26T13:14:11.999Z</time></trkpt><trkpt lat="45.4441065092937" lon="7.767400312583413"><ele>490.4</ele><time>2026-04-26T13:14:12.999Z</time></trkpt><trkpt lat="45.44417546527022" lon="7.767323457615438"><ele>491.59999999999997</ele><time>2026-04-26T13:14:13.999Z</time></trkpt><trkpt lat="45.444241263608816" lon="7.767231508082401"><ele>492.79999999999995</ele><time>2026-04-26T13:14:14.999Z</time></trkpt><trkpt lat="45.444330558795976" lon="7.7671611524039035"><ele>494.0</ele><time>2026-04-26T13:14:15.999Z</time></trkpt><trkpt lat="45.444432762573825" lon="7.767091362388163"><ele>494.0</ele><time>2026-04-26T13:14:16.999Z</time></trkpt><trkpt lat="45.44454987053654" lon="7.767023021953474"><ele>494.0</ele><time>2026-04-26T13:14:17.999Z</time></trkpt><trkpt lat="45.444686035266635" lon="7.76698689839266"><ele>494.0</ele><time>2026-04-26T13:14:18.999Z</time></trkpt><trkpt lat="45.444821725660894" lon="7.766932669327458"><ele>494.0</ele><time>2026-04-26T13:14:19.999Z</time></trkpt><trkpt lat="45.44494526447146" lon="7.766913693171607"><ele>494.75</ele><time>2026-04-26T13:14:20.999Z</time></trkpt><trkpt lat="45.44506346092601" lon="7.766888503928636"><ele>495.5</ele><time>2026-04-26T13:14:21.999Z</time></trkpt><trkpt lat="45.445177181703116" lon="7.766856711874529"><ele>496.25</ele><time>2026-04-26T13:14:22.999Z</time></trkpt><trkpt lat="45.44530834291861" lon="7.766814368911365"><ele>497.0</ele><time>2026-04-26T13:14:23.998Z</time></trkpt><trkpt lat="45.445465156257896" lon="7.766751860642118"><ele>501.0</ele><time>2026-04-26T13:14:24.998Z</time></trkpt><trkpt lat="45.44555328795568" lon="7.766699767136535"><ele>505.0</ele><time>2026-04-26T13:14:25.998Z</time></trkpt><trkpt lat="45.445685716515996" lon="7.766626694510661"><ele>509.0</ele><time>2026-04-26T13:14:26.998Z</time></trkpt><trkpt lat="45.445816579502306" lon="7.766544867747455"><ele>513.0</ele><time>2026-04-26T13:14:27.998Z</time></trkpt><trkpt lat="45.44592988217241" lon="7.766453013083599"><ele>513.0</ele><time>2026-04-26T13:14:28.998Z</time></trkpt><trkpt lat="45.4460408635253" lon="7.766348820026183"><ele>513.0</ele><time>2026-04-26T13:14:29.998Z</time></trkpt><trkpt lat="45.44615242107987" lon="7.766241574569528"><ele>513.0</ele><time>2026-04-26T13:14:30.998Z</time></trkpt><trkpt lat="45.44626886137306" lon="7.766134231587001"><ele>513.0</ele><time>2026-04-26T13:14:31.998Z</time></trkpt><trkpt lat="45.446385306045954" lon="7.766013197659998"><ele>514.0</ele><time>2026-04-26T13:14:32.998Z</time></trkpt><trkpt lat="45.44650287823418" lon="7.765889705753785"><ele>515.0</ele><time>2026-04-26T13:14:33.998Z</time></trkpt><trkpt lat="45.44662275966386" lon="7.765776864515379"><ele>516.0</ele><time>2026-04-26T13:14:34.998Z</time></trkpt><trkpt lat="45.44673661106197" lon="7.765690880642743"><ele>517.0</ele><time>2026-04-26T13:14:35.998Z</time></trkpt><trkpt lat="45.446853984016286" lon="7.765617262069443"><ele>517.0</ele><time>2026-04-26T13:14:36.998Z</time></trkpt><trkpt lat="45.4469702529198" lon="7.765540853590285"><ele>517.0</ele><time>2026-04-26T13:14:37.998Z</time></trkpt><trkpt lat="45.44708432577843" lon="7.765456162592238"><ele>517.0</ele><time>2026-04-26T13:14:38.998Z</time></trkpt><trkpt lat="45.44719875423737" lon="7.765373077182043"><ele>517.0</ele><time>2026-04-26T13:14:39.998Z</time></trkpt><trkpt lat="45.447313404458036" lon="7.765293897096341"><ele>517.75</ele><time>2026-04-26T13:14:40.998Z</time></trkpt><trkpt lat="45.447421652417404" lon="7.7652090921495045"><ele>518.5</ele><time>2026-04-26T13:14:41.998Z</time></trkpt><trkpt lat="45.44752031033224" lon="7.765115306102141"><ele>519.25</ele><time>2026-04-26T13:14:42.998Z</time></trkpt><trkpt lat="45.447605964941715" lon="7.7650074115206"><ele>520.0</ele><time>2026-04-26T13:14:43.998Z</time></trkpt><trkpt lat="45.447680525071945" lon="7.764880383846491"><ele>520.0</ele><time>2026-04-26T13:14:44.998Z</time></trkpt><trkpt lat="45.44775079953946" lon="7.764737128783047"><ele>520.0</ele><time>2026-04-26T13:14:45.998Z</time></trkpt><trkpt lat="45.447812215025074" lon="7.764579303119231"><ele>520.0</ele><time>2026-04-26T13:14:46.998Z</time></trkpt><trkpt lat="45.447866132235404" lon="7.764409825718763"><ele>520.0</ele><time>2026-04-26T13:14:47.998Z</time></trkpt><trkpt lat="45.44791820966726" lon="7.764235887408499"><ele>523.25</ele><time>2026-04-26T13:14:48.998Z</time></trkpt><trkpt lat="45.447960548717894" lon="7.764064604078786"><ele>526.5</ele><time>2026-04-26T13:14:49.998Z</time></trkpt><trkpt lat="45.44798491774491" lon="7.763900897747748"><ele>529.75</ele><time>2026-04-26T13:14:50.998Z</time></trkpt><trkpt lat="45.448001239901494" lon="7.763747593306551"><ele>533.0</ele><time>2026-04-26T13:14:51.998Z</time></trkpt><trkpt lat="45.44801845832945" lon="7.7636029707140315"><ele>532.1666666666666</ele><time>2026-04-26T13:14:52.998Z</time></trkpt><trkpt lat="45.44802628206797" lon="7.763462971355054"><ele>531.3333333333333</ele><time>2026-04-26T13:14:53.998Z</time></trkpt><trkpt lat="45.44801739627963" lon="7.763324734300504"><ele>530.5</ele><time>2026-04-26T13:14:54.998Z</time></trkpt><trkpt lat="45.448006622079305" lon="7.76319303179127"><ele>529.6666666666666</ele><time>2026-04-26T13:14:55.998Z</time></trkpt><trkpt lat="45.4480052215377" lon="7.763077664878459"><ele>528.8333333333334</ele><time>2026-04-26T13:14:56.998Z</time></trkpt><trkpt lat="45.44801329768091" lon="7.7629869718361215"><ele>528.0</ele><time>2026-04-26T13:14:57.998Z</time></trkpt><trkpt lat="45.448105503930165" lon="7.76288294430086"><ele>528.0</ele><time>2026-04-26T13:14:59.998Z</time></trkpt><trkpt lat="45.44818305938512" lon="7.762902998172654"><ele>528.0</ele><time>2026-04-26T13:15:00.998Z</time></trkpt><trkpt lat="45.448255533907165" lon="7.762966935688907"><ele>528.0</ele><time>2026-04-26T13:15:01.998Z</time></trkpt><trkpt lat="45.44831372261957" lon="7.763062098377767"><ele>528.0</ele><time>2026-04-26T13:15:02.998Z</time></trkpt><trkpt lat="45.44836547967219" lon="7.7631794309241435"><ele>528.0</ele><time>2026-04-26T13:15:03.998Z</time></trkpt><trkpt lat="45.44841701751246" lon="7.763310481220986"><ele>528.0</ele><time>2026-04-26T13:15:04.998Z</time></trkpt><trkpt lat="45.44848209234353" lon="7.7634485907881645"><ele>528.0</ele><time>2026-04-26T13:15:05.998Z</time></trkpt><trkpt lat="45.44855802689198" lon="7.763587599401013"><ele>528.0</ele><time>2026-04-26T13:15:06.998Z</time></trkpt><trkpt lat="45.44862812350714" lon="7.76373200901771"><ele>528.0</ele><time>2026-04-26T13:15:08Z</time></trkpt><trkpt lat="45.44869434575136" lon="7.763866892650121"><ele>528.25</ele><time>2026-04-26T13:15:09Z</time></trkpt><trkpt lat="45.44876095354182" lon="7.764010542259036"><ele>528.5</ele><time>2026-04-26T13:15:10Z</time></trkpt><trkpt lat="45.44883393515111" lon="7.764166653920009"><ele>528.75</ele><time>2026-04-26T13:15:11Z</time></trkpt><trkpt lat="45.44891865747667" lon="7.764333964031521"><ele>529.0</ele><time>2026-04-26T13:15:12Z</time></trkpt><trkpt lat="45.44901034014472" lon="7.764520175838909"><ele>533.3333333333334</ele><time>2026-04-26T13:15:13Z</time></trkpt><trkpt lat="45.44910891857729" lon="7.764730350203783"><ele>537.6666666666666</ele><time>2026-04-26T13:15:14Z</time></trkpt><trkpt lat="45.4492128304301" lon="7.76495790314547"><ele>542.0</ele><time>2026-04-26T13:15:15Z</time></trkpt><trkpt lat="45.44932425143906" lon="7.765199870062116"><ele>544.3333333333333</ele><time>2026-04-26T13:15:16Z</time></trkpt><trkpt lat="45.44942773135316" lon="7.765430876344071"><ele>546.6666666666666</ele><time>2026-04-26T13:15:17Z</time></trkpt><trkpt lat="45.44952044396766" lon="7.765638862190736"><ele>549.0</ele><time>2026-04-26T13:15:18Z</time></trkpt><trkpt lat="45.449616125527214" lon="7.765825919993826"><ele>549.6666666666666</ele><time>2026-04-26T13:15:19Z</time></trkpt><trkpt lat="45.44970960280507" lon="7.766001310595232"><ele>550.3333333333333</ele><time>2026-04-26T13:15:20Z</time></trkpt><trkpt lat="45.449802562093204" lon="7.766169991714485"><ele>551.0</ele><time>2026-04-26T13:15:21Z</time></trkpt><trkpt lat="45.44989323613598" lon="7.766340724150432"><ele>551.0</ele><time>2026-04-26T13:15:22Z</time></trkpt><trkpt lat="45.4499823561588" lon="7.7665186107006114"><ele>551.0</ele><time>2026-04-26T13:15:23Z</time></trkpt><trkpt lat="45.45007324450033" lon="7.766692559986438"><ele>551.0</ele><time>2026-04-26T13:15:24Z</time></trkpt><trkpt lat="45.45016400084558" lon="7.766864493370525"><ele>553.0</ele><time>2026-04-26T13:15:25Z</time></trkpt><trkpt lat="45.45025523125792" lon="7.767042698477745"><ele>555.0</ele><time>2026-04-26T13:15:26Z</time></trkpt><trkpt lat="45.45035159888925" lon="7.767216797220493"><ele>557.0</ele><time>2026-04-26T13:15:27Z</time></trkpt><trkpt lat="45.45045614071612" lon="7.767380413359186"><ele>558.25</ele><time>2026-04-26T13:15:28Z</time></trkpt><trkpt lat="45.450558455303906" lon="7.7675387371220355"><ele>559.5</ele><time>2026-04-26T13:15:29Z</time></trkpt><trkpt lat="45.45064546949869" lon="7.767690376124491"><ele>560.75</ele><time>2026-04-26T13:15:30Z</time></trkpt><trkpt lat="45.45072786332274" lon="7.767832263268318"><ele>562.0</ele><time>2026-04-26T13:15:31Z</time></trkpt><trkpt lat="45.450807276202944" lon="7.767957290020885"><ele>562.0</ele><time>2026-04-26T13:15:32Z</time></trkpt><trkpt lat="45.450884595961284" lon="7.76807214173972"><ele>562.0</ele><time>2026-04-26T13:15:33Z</time></trkpt><trkpt lat="45.4509530682693" lon="7.768185496346894"><ele>562.0</ele><time>2026-04-26T13:15:34Z</time></trkpt><trkpt lat="45.451010907030685" lon="7.768297393649444"><ele>562.0</ele><time>2026-04-26T13:15:35Z</time></trkpt><trkpt lat="45.45105112188119" lon="7.768403783239661"><ele>562.0</ele><time>2026-04-26T13:15:36Z</time></trkpt><trkpt lat="45.45110134542747" lon="7.768505040569799"><ele>564.0</ele><time>2026-04-26T13:15:36.999Z</time></trkpt><trkpt lat="45.45116635107617" lon="7.768609977279973"><ele>566.0</ele><time>2026-04-26T13:15:37.999Z</time></trkpt><trkpt lat="45.45123472605441" lon="7.768704659498283"><ele>568.0</ele><time>2026-04-26T13:15:38.999Z</time></trkpt><trkpt lat="45.451321482008375" lon="7.768766855691806"><ele>570.0</ele><time>2026-04-26T13:15:39.999Z</time></trkpt><trkpt lat="45.45141747299006" lon="7.768793056401651"><ele>572.0</ele><time>2026-04-26T13:15:40.999Z</time></trkpt><trkpt lat="45.45151197414332" lon="7.7687675712412405"><ele>572.0</ele><time>2026-04-26T13:15:41.999Z</time></trkpt><trkpt lat="45.451583610987875" lon="7.768667576181226"><ele>572.0</ele><time>2026-04-26T13:15:42.999Z</time></trkpt><trkpt lat="45.451662027134965" lon="7.76855732156717"><ele>572.0</ele><time>2026-04-26T13:15:43.999Z</time></trkpt><trkpt lat="45.45169702387989" lon="7.768403974353898"><ele>572.0</ele><time>2026-04-26T13:15:44.999Z</time></trkpt><trkpt lat="45.451671633712934" lon="7.7682421447531596"><ele>572.0</ele><time>2026-04-26T13:15:45.999Z</time></trkpt><trkpt lat="45.451651258161185" lon="7.768064684715815"><ele>570.2</ele><time>2026-04-26T13:15:46.999Z</time></trkpt><trkpt lat="45.45159133128545" lon="7.767835540473056"><ele>568.4000000000001</ele><time>2026-04-26T13:15:48.999Z</time></trkpt><trkpt lat="45.45154802803405" lon="7.767712297443194"><ele>566.5999999999999</ele><time>2026-04-26T13:15:49.999Z</time></trkpt><trkpt lat="45.45152532591663" lon="7.767605771608878"><ele>564.8</ele><time>2026-04-26T13:15:50.999Z</time></trkpt><trkpt lat="45.45152224295301" lon="7.76751214076869"><ele>563.0</ele><time>2026-04-26T13:15:51.999Z</time></trkpt><trkpt lat="45.45155503541122" lon="7.767423713258372"><ele>562.6</ele><time>2026-04-26T13:15:52.999Z</time></trkpt><trkpt lat="45.451606367299334" lon="7.767334328858627"><ele>562.1999999999999</ele><time>2026-04-26T13:15:53.999Z</time></trkpt><trkpt lat="45.45165455446934" lon="7.767215763730873"><ele>561.8</ele><time>2026-04-26T13:15:54.999Z</time></trkpt><trkpt lat="45.451740091525785" lon="7.767110688471981"><ele>561.4</ele><time>2026-04-26T13:15:55.999Z</time></trkpt><trkpt lat="45.451802116053464" lon="7.766985307122238"><ele>561.0</ele><time>2026-04-26T13:15:56.999Z</time></trkpt><trkpt lat="45.45184998289348" lon="7.766872985058608"><ele>560.0</ele><time>2026-04-26T13:15:57.999Z</time></trkpt><trkpt lat="45.45188192569906" lon="7.766790929695655"><ele>559.0</ele><time>2026-04-26T13:15:58.999Z</time></trkpt><trkpt lat="45.45195377741956" lon="7.766697596175093"><ele>558.0</ele><time>2026-04-26T13:16:00.999Z</time></trkpt><trkpt lat="45.4520504475736" lon="7.766732186231942"><ele>557.0</ele><time>2026-04-26T13:16:02.999Z</time></trkpt><trkpt lat="45.45210333902274" lon="7.766795702229812"><ele>556.0</ele><time>2026-04-26T13:16:03.999Z</time></trkpt><trkpt lat="45.45214472919853" lon="7.766903965494388"><ele>555.0</ele><time>2026-04-26T13:16:04.999Z</time></trkpt><trkpt lat="45.452214481376814" lon="7.767005321414895"><ele>557.3333333333334</ele><time>2026-04-26T13:16:05.999Z</time></trkpt><trkpt lat="45.452269247583786" lon="7.767126248632846"><ele>559.6666666666666</ele><time>2026-04-26T13:16:06.999Z</time></trkpt><trkpt lat="45.452324751843854" lon="7.767225539061007"><ele>562.0</ele><time>2026-04-26T13:16:07.999Z</time></trkpt><trkpt lat="45.452381614642945" lon="7.76729615965202"><ele>564.3333333333333</ele><time>2026-04-26T13:16:08.999Z</time></trkpt><trkpt lat="45.4524365878494" lon="7.767360304268847"><ele>566.6666666666666</ele><time>2026-04-26T13:16:09.999Z</time></trkpt><trkpt lat="45.45249513095452" lon="7.767402874274245"><ele>569.0</ele><time>2026-04-26T13:16:10.999Z</time></trkpt><trkpt lat="45.45256305402706" lon="7.767454486559902"><ele>569.0</ele><time>2026-04-26T13:16:11.999Z</time></trkpt><trkpt lat="45.45264980966369" lon="7.767480180652809"><ele>569.0</ele><time>2026-04-26T13:16:12.999Z</time></trkpt><trkpt lat="45.45275308769946" lon="7.767477882753237"><ele>569.0</ele><time>2026-04-26T13:16:13.999Z</time></trkpt><trkpt lat="45.45285903305677" lon="7.767452073581448"><ele>569.0</ele><time>2026-04-26T13:16:14.999Z</time></trkpt><trkpt lat="45.45295894629393" lon="7.767409234882125"><ele>569.0</ele><time>2026-04-26T13:16:15.999Z</time></trkpt><trkpt lat="45.453050179308434" lon="7.767361848929535"><ele>568.0</ele><time>2026-04-26T13:16:16.999Z</time></trkpt><trkpt lat="45.45314701566518" lon="7.767287097676702"><ele>567.0</ele><time>2026-04-26T13:16:17.999Z</time></trkpt><trkpt lat="45.45323744919496" lon="7.767235317578844"><ele>566.0</ele><time>2026-04-26T13:16:18.999Z</time></trkpt><trkpt lat="45.453336344481194" lon="7.767186438329176"><ele>565.0</ele><time>2026-04-26T13:16:19.999Z</time></trkpt><trkpt lat="45.45343426595499" lon="7.767126812570109"><ele>564.0</ele><time>2026-04-26T13:16:20.999Z</time></trkpt><trkpt lat="45.45353479167569" lon="7.767064562966339"><ele>564.0</ele><time>2026-04-26T13:16:21.999Z</time></trkpt><trkpt lat="45.45363382573024" lon="7.767012231736694"><ele>564.0</ele><time>2026-04-26T13:16:22.999Z</time></trkpt><trkpt lat="45.45372803562275" lon="7.766959773032663"><ele>564.0</ele><time>2026-04-26T13:16:23.999Z</time></trkpt><trkpt lat="45.45381489644003" lon="7.766908380890733"><ele>564.0</ele><time>2026-04-26T13:16:24.999Z</time></trkpt><trkpt lat="45.45390475790534" lon="7.766860764804568"><ele>564.0</ele><time>2026-04-26T13:16:25.999Z</time></trkpt><trkpt lat="45.45400121117851" lon="7.7668191376444815"><ele>564.4</ele><time>2026-04-26T13:16:26.999Z</time></trkpt><trkpt lat="45.454102056524945" lon="7.766774838846723"><ele>564.8</ele><time>2026-04-26T13:16:27.999Z</time></trkpt><trkpt lat="45.45420725740668" lon="7.766729919538141"><ele>565.2</ele><time>2026-04-26T13:16:28.999Z</time></trkpt><trkpt lat="45.454317586727" lon="7.766691232007656"><ele>565.6</ele><time>2026-04-26T13:16:29.999Z</time></trkpt><trkpt lat="45.454432285234695" lon="7.766655094472768"><ele>566.0</ele><time>2026-04-26T13:16:30.999Z</time></trkpt><trkpt lat="45.45453700601231" lon="7.76662136558781"><ele>566.2</ele><time>2026-04-26T13:16:31.999Z</time></trkpt><trkpt lat="45.45463514161645" lon="7.76658466081342"><ele>566.4000000000001</ele><time>2026-04-26T13:16:32.998Z</time></trkpt><trkpt lat="45.45473791636842" lon="7.7665739732259995"><ele>566.6</ele><time>2026-04-26T13:16:33.998Z</time></trkpt><trkpt lat="45.454830080074196" lon="7.766539999616541"><ele>566.8000000000001</ele><time>2026-04-26T13:16:34.998Z</time></trkpt><trkpt lat="45.454923761658215" lon="7.766501134136739"><ele>567.0</ele><time>2026-04-26T13:16:35.998Z</time></trkpt><trkpt lat="45.455016525268846" lon="7.766467138479572"><ele>567.0</ele><time>2026-04-26T13:16:36.998Z</time></trkpt><trkpt lat="45.45510264316206" lon="7.76643207224728"><ele>567.0</ele><time>2026-04-26T13:16:37.998Z</time></trkpt><trkpt lat="45.45518522050783" lon="7.766406423642312"><ele>567.0</ele><time>2026-04-26T13:16:38.998Z</time></trkpt><trkpt lat="45.45526880856375" lon="7.766402065641298"><ele>567.0</ele><time>2026-04-26T13:16:39.998Z</time></trkpt><trkpt lat="45.45535120774073" lon="7.766441056313735"><ele>567.0</ele><time>2026-04-26T13:16:40.998Z</time></trkpt><trkpt lat="45.455438900337015" lon="7.766513154836269"><ele>567.0</ele><time>2026-04-26T13:16:41.998Z</time></trkpt><trkpt lat="45.455520803735325" lon="7.766608097889626"><ele>567.0</ele><time>2026-04-26T13:16:42.998Z</time></trkpt><trkpt lat="45.455614554458" lon="7.766703980442598"><ele>567.0</ele><time>2026-04-26T13:16:43.998Z</time></trkpt><trkpt lat="45.455729577960355" lon="7.766787193696315"><ele>567.0</ele><time>2026-04-26T13:16:44.998Z</time></trkpt><trkpt lat="45.45585063315342" lon="7.766831116202735"><ele>567.0</ele><time>2026-04-26T13:16:45.998Z</time></trkpt><trkpt lat="45.45597269268052" lon="7.766840733550246"><ele>567.0</ele><time>2026-04-26T13:16:46.998Z</time></trkpt><trkpt lat="45.45608285130072" lon="7.766830588936744"><ele>567.0</ele><time>2026-04-26T13:16:47.998Z</time></trkpt><trkpt lat="45.456190746092936" lon="7.76680920654674"><ele>567.0</ele><time>2026-04-26T13:16:48.998Z</time></trkpt><trkpt lat="45.45629531812257" lon="7.766774253715591"><ele>567.0</ele><time>2026-04-26T13:16:49.998Z</time></trkpt><trkpt lat="45.45640485224364" lon="7.766736408342338"><ele>567.0</ele><time>2026-04-26T13:16:50.998Z</time></trkpt><trkpt lat="45.456521615542876" lon="7.766724204235613"><ele>567.25</ele><time>2026-04-26T13:16:51.998Z</time></trkpt><trkpt lat="45.456647946091365" lon="7.7667522551332135"><ele>567.5</ele><time>2026-04-26T13:16:52.998Z</time></trkpt><trkpt lat="45.456778065546075" lon="7.766797057432996"><ele>567.75</ele><time>2026-04-26T13:16:53.998Z</time></trkpt><trkpt lat="45.45691681111834" lon="7.766828425656856"><ele>568.0</ele><time>2026-04-26T13:16:54.998Z</time></trkpt><trkpt lat="45.45706668123265" lon="7.766846303210339"><ele>568.75</ele><time>2026-04-26T13:16:55.998Z</time></trkpt><trkpt lat="45.457211158506375" lon="7.766848585387464"><ele>569.5</ele><time>2026-04-26T13:16:56.998Z</time></trkpt><trkpt lat="45.45735259314783" lon="7.766858200699005"><ele>570.25</ele><time>2026-04-26T13:16:57.998Z</time></trkpt><trkpt lat="45.457472739969916" lon="7.766892542005186"><ele>571.0</ele><time>2026-04-26T13:16:58.998Z</time></trkpt><trkpt lat="45.45758505453493" lon="7.76694722328272"><ele>572.25</ele><time>2026-04-26T13:16:59.998Z</time></trkpt><trkpt lat="45.45769533153273" lon="7.767004844740338"><ele>573.5</ele><time>2026-04-26T13:17:00.998Z</time></trkpt><trkpt lat="45.45780525687735" lon="7.767066276268199"><ele>574.75</ele><time>2026-04-26T13:17:01.998Z</time></trkpt><trkpt lat="45.45792307859928" lon="7.7671109695190035"><ele>576.0</ele><time>2026-04-26T13:17:02.998Z</time></trkpt><trkpt lat="45.45804580054594" lon="7.767137315646975"><ele>576.0</ele><time>2026-04-26T13:17:03.998Z</time></trkpt><trkpt lat="45.45817586607117" lon="7.767157983930153"><ele>576.0</ele><time>2026-04-26T13:17:04.998Z</time></trkpt><trkpt lat="45.458309026451175" lon="7.767170182427696"><ele>576.0</ele><time>2026-04-26T13:17:05.998Z</time></trkpt><trkpt lat="45.458435471856156" lon="7.767168160673089"><ele>576.0</ele><time>2026-04-26T13:17:06.998Z</time></trkpt><trkpt lat="45.45855233318172" lon="7.76716673013401"><ele>576.0</ele><time>2026-04-26T13:17:07.998Z</time></trkpt><trkpt lat="45.45866581732413" lon="7.7671788800636286"><ele>576.0</ele><time>2026-04-26T13:17:08.998Z</time></trkpt><trkpt lat="45.45878727335633" lon="7.76718636768353"><ele>576.0</ele><time>2026-04-26T13:17:09.998Z</time></trkpt><trkpt lat="45.458904576048404" lon="7.767198012536561"><ele>576.0</ele><time>2026-04-26T13:17:10.998Z</time></trkpt><trkpt lat="45.45900477310517" lon="7.76722620875243"><ele>576.5</ele><time>2026-04-26T13:17:11.998Z</time></trkpt><trkpt lat="45.45908217609551" lon="7.767248749763894"><ele>577.0</ele><time>2026-04-26T13:17:12.998Z</time></trkpt><trkpt lat="45.45914504458475" lon="7.767269213841412"><ele>577.5</ele><time>2026-04-26T13:17:14Z</time></trkpt><trkpt lat="45.45921263813984" lon="7.7673081229325875"><ele>578.0</ele><time>2026-04-26T13:17:15Z</time></trkpt><trkpt lat="45.45929264115751" lon="7.767374618029041"><ele>578.5</ele><time>2026-04-26T13:17:16Z</time></trkpt><trkpt lat="45.459370415776014" lon="7.767466869181601"><ele>579.0</ele><time>2026-04-26T13:17:17Z</time></trkpt><trkpt lat="45.45945734302361" lon="7.767570126442387"><ele>579.0</ele><time>2026-04-26T13:17:18Z</time></trkpt><trkpt lat="45.45955558016907" lon="7.7676814495027395"><ele>579.0</ele><time>2026-04-26T13:17:19Z</time></trkpt><trkpt lat="45.45966978794541" lon="7.767804236031881"><ele>579.0</ele><time>2026-04-26T13:17:20Z</time></trkpt><trkpt lat="45.45979629880423" lon="7.7679402059302864"><ele>579.0</ele><time>2026-04-26T13:17:21Z</time></trkpt><trkpt lat="45.45992963650227" lon="7.768082305473765"><ele>581.3333333333334</ele><time>2026-04-26T13:17:22Z</time></trkpt><trkpt lat="45.46005289872172" lon="7.768212542102201"><ele>583.6666666666667</ele><time>2026-04-26T13:17:23Z</time></trkpt><trkpt lat="45.460168102231016" lon="7.768351822694987"><ele>586.0</ele><time>2026-04-26T13:17:24Z</time></trkpt><trkpt lat="45.460268477956575" lon="7.768513099053084"><ele>585.6666666666667</ele><time>2026-04-26T13:17:25Z</time></trkpt><trkpt lat="45.46035502773592" lon="7.768692284419014"><ele>585.3333333333334</ele><time>2026-04-26T13:17:26Z</time></trkpt><trkpt lat="45.46043220445829" lon="7.768889183247553"><ele>585.0</ele><time>2026-04-26T13:17:27Z</time></trkpt><trkpt lat="45.46049789731382" lon="7.769085375708669"><ele>588.0</ele><time>2026-04-26T13:17:28Z</time></trkpt><trkpt lat="45.460550005112" lon="7.769272168960731"><ele>591.0</ele><time>2026-04-26T13:17:29Z</time></trkpt><trkpt lat="45.4605944784112" lon="7.769464279792327"><ele>594.0</ele><time>2026-04-26T13:17:30Z</time></trkpt><trkpt lat="45.46067108139893" lon="7.769692839662863"><ele>594.0</ele><time>2026-04-26T13:17:31Z</time></trkpt><trkpt lat="45.460765088550666" lon="7.769941131138007"><ele>594.0</ele><time>2026-04-26T13:17:32Z</time></trkpt><trkpt lat="45.46084206472635" lon="7.770136342985677"><ele>594.0</ele><time>2026-04-26T13:17:34Z</time></trkpt><trkpt lat="45.4608909368865" lon="7.7702809599785985"><ele>593.5</ele><time>2026-04-26T13:17:35Z</time></trkpt><trkpt lat="45.460939431745125" lon="7.77041618620275"><ele>593.0</ele><time>2026-04-26T13:17:36Z</time></trkpt><trkpt lat="45.460976287690414" lon="7.770579712300126"><ele>592.5</ele><time>2026-04-26T13:17:37Z</time></trkpt><trkpt lat="45.46101611018344" lon="7.770747989088776"><ele>592.0</ele><time>2026-04-26T13:17:38Z</time></trkpt><trkpt lat="45.46104877812597" lon="7.770923336081246"><ele>592.2</ele><time>2026-04-26T13:17:39Z</time></trkpt><trkpt lat="45.461078447843555" lon="7.771102726514568"><ele>592.4000000000001</ele><time>2026-04-26T13:17:40Z</time></trkpt><trkpt lat="45.46110981982599" lon="7.771260887104583"><ele>592.5999999999999</ele><time>2026-04-26T13:17:40.999Z</time></trkpt><trkpt lat="45.46114443842966" lon="7.771390008904299"><ele>592.8</ele><time>2026-04-26T13:17:41.999Z</time></trkpt><trkpt lat="45.461177133509516" lon="7.771516407632026"><ele>593.0</ele><time>2026-04-26T13:17:42.999Z</time></trkpt><trkpt lat="45.46120449793285" lon="7.771639131009588"><ele>593.0</ele><time>2026-04-26T13:17:43.999Z</time></trkpt><trkpt lat="45.46123310165163" lon="7.771742030170542"><ele>593.0</ele><time>2026-04-26T13:17:44.999Z</time></trkpt><trkpt lat="45.46126625484618" lon="7.771849914035521"><ele>593.0</ele><time>2026-04-26T13:17:45.999Z</time></trkpt><trkpt lat="45.461295560440774" lon="7.771956978339408"><ele>593.0</ele><time>2026-04-26T13:17:46.999Z</time></trkpt><trkpt lat="45.46132046540389" lon="7.772045460388093"><ele>593.0</ele><time>2026-04-26T13:17:47.999Z</time></trkpt><trkpt lat="45.461359056291165" lon="7.772197631842674"><ele>593.0</ele><time>2026-04-26T13:17:49.999Z</time></trkpt><trkpt lat="45.46141195071364" lon="7.772342741010515"><ele>597.5</ele><time>2026-04-26T13:17:51.999Z</time></trkpt><trkpt lat="45.461479306092194" lon="7.772357777990463"><ele>602.0</ele><time>2026-04-26T13:17:52.999Z</time></trkpt><trkpt lat="45.46154508961211" lon="7.772323436123017"><ele>606.5</ele><time>2026-04-26T13:17:53.999Z</time></trkpt><trkpt lat="45.46159971039582" lon="7.772217701460581"><ele>611.0</ele><time>2026-04-26T13:17:54.999Z</time></trkpt><trkpt lat="45.461625367193605" lon="7.77210214083432"><ele>615.5</ele><time>2026-04-26T13:17:55.999Z</time></trkpt><trkpt lat="45.46162424318629" lon="7.771970570356561"><ele>620.0</ele><time>2026-04-26T13:17:56.999Z</time></trkpt><trkpt lat="45.461648301587516" lon="7.771856805000391"><ele>618.8333333333333</ele><time>2026-04-26T13:17:57.999Z</time></trkpt><trkpt lat="45.461659328529414" lon="7.7717574246618"><ele>617.6666666666666</ele><time>2026-04-26T13:17:58.999Z</time></trkpt><trkpt lat="45.46168691749202" lon="7.771593122308967"><ele>616.5</ele><time>2026-04-26T13:18:00.999Z</time></trkpt><trkpt lat="45.46169960401411" lon="7.771490548164135"><ele>615.3333333333334</ele><time>2026-04-26T13:18:01.999Z</time></trkpt><trkpt lat="45.46175222090597" lon="7.7714010402246885"><ele>614.1666666666667</ele><time>2026-04-26T13:18:02.999Z</time></trkpt><trkpt lat="45.461813999652044" lon="7.771345816445388"><ele>613.0</ele><time>2026-04-26T13:18:03.999Z</time></trkpt><trkpt lat="45.46188453977123" lon="7.771333231941867"><ele>613.0</ele><time>2026-04-26T13:18:04.999Z</time></trkpt><trkpt lat="45.461963991985" lon="7.771318971182579"><ele>613.0</ele><time>2026-04-26T13:18:05.999Z</time></trkpt><trkpt lat="45.46204469936131" lon="7.771305014538832"><ele>613.0</ele><time>2026-04-26T13:18:06.999Z</time></trkpt><trkpt lat="45.46211233264965" lon="7.771352819236327"><ele>613.0</ele><time>2026-04-26T13:18:07.999Z</time></trkpt><trkpt lat="45.462177548034646" lon="7.7714338061515065"><ele>613.0</ele><time>2026-04-26T13:18:08.999Z</time></trkpt><trkpt lat="45.46224646014429" lon="7.771537727134841"><ele>613.0</ele><time>2026-04-26T13:18:09.999Z</time></trkpt><trkpt lat="45.46232147952246" lon="7.7716655151970215"><ele>611.8</ele><time>2026-04-26T13:18:10.999Z</time></trkpt><trkpt lat="45.46239879939414" lon="7.771785414409689"><ele>610.5999999999999</ele><time>2026-04-26T13:18:11.999Z</time></trkpt><trkpt lat="45.46246788425424" lon="7.771893877935881"><ele>609.4000000000001</ele><time>2026-04-26T13:18:12.999Z</time></trkpt><trkpt lat="45.46252812401897" lon="7.7720079755268445"><ele>608.2</ele><time>2026-04-26T13:18:13.999Z</time></trkpt><trkpt lat="45.46260442148592" lon="7.7721249539117"><ele>607.0</ele><time>2026-04-26T13:18:14.999Z</time></trkpt><trkpt lat="45.46268658388392" lon="7.772240159904479"><ele>605.75</ele><time>2026-04-26T13:18:15.999Z</time></trkpt><trkpt lat="45.46277932843901" lon="7.772351349223633"><ele>604.5</ele><time>2026-04-26T13:18:16.999Z</time></trkpt><trkpt lat="45.46287424593594" lon="7.772461142277842"><ele>603.25</ele><time>2026-04-26T13:18:17.999Z</time></trkpt><trkpt lat="45.46296386594782" lon="7.772576343899004"><ele>602.0</ele><time>2026-04-26T13:18:18.999Z</time></trkpt><trkpt lat="45.463045433770795" lon="7.77268826058407"><ele>605.8000000000001</ele><time>2026-04-26T13:18:19.999Z</time></trkpt><trkpt lat="45.46311847639314" lon="7.772801526519103"><ele>609.6</ele><time>2026-04-26T13:18:20.999Z</time></trkpt><trkpt lat="45.463187446364095" lon="7.772908018398875"><ele>613.4000000000001</ele><time>2026-04-26T13:18:21.999Z</time></trkpt><trkpt lat="45.46324651068389" lon="7.773011385450452"><ele>617.2</ele><time>2026-04-26T13:18:22.999Z</time></trkpt><trkpt lat="45.46330500159044" lon="7.773129111005919"><ele>621.0</ele><time>2026-04-26T13:18:23.999Z</time></trkpt><trkpt lat="45.46335776055801" lon="7.773257907802858"><ele>621.0</ele><time>2026-04-26T13:18:24.999Z</time></trkpt><trkpt lat="45.4634085222067" lon="7.773416331699989"><ele>621.0</ele><time>2026-04-26T13:18:25.999Z</time></trkpt><trkpt lat="45.46345785566022" lon="7.77359441407199"><ele>621.0</ele><time>2026-04-26T13:18:26.999Z</time></trkpt><trkpt lat="45.46350972676231" lon="7.77378129734295"><ele>621.0</ele><time>2026-04-26T13:18:27.999Z</time></trkpt><trkpt lat="45.463553251560434" lon="7.773963459513256"><ele>624.5</ele><time>2026-04-26T13:18:28.999Z</time></trkpt><trkpt lat="45.46359910219694" lon="7.774140274432956"><ele>628.0</ele><time>2026-04-26T13:18:29.999Z</time></trkpt><trkpt lat="45.463638518410626" lon="7.774325979558723"><ele>631.5</ele><time>2026-04-26T13:18:30.999Z</time></trkpt><trkpt lat="45.46367180919889" lon="7.774499658016606"><ele>635.0</ele><time>2026-04-26T13:18:31.999Z</time></trkpt><trkpt lat="45.46369864704395" lon="7.774668538573655"><ele>635.25</ele><time>2026-04-26T13:18:32.999Z</time></trkpt><trkpt lat="45.46371206815158" lon="7.774831675553713"><ele>635.5</ele><time>2026-04-26T13:18:33.999Z</time></trkpt><trkpt lat="45.46370648160871" lon="7.774995359897493"><ele>635.75</ele><time>2026-04-26T13:18:34.999Z</time></trkpt><trkpt lat="45.46368084908284" lon="7.7751646954575655"><ele>636.0</ele><time>2026-04-26T13:18:35.999Z</time></trkpt><trkpt lat="45.46364289107768" lon="7.7753326078564635"><ele>636.0</ele><time>2026-04-26T13:18:36.999Z</time></trkpt><trkpt lat="45.46360857587025" lon="7.7755005442117815"><ele>636.0</ele><time>2026-04-26T13:18:37.998Z</time></trkpt><trkpt lat="45.463560265697595" lon="7.775663493873488"><ele>636.0</ele><time>2026-04-26T13:18:38.998Z</time></trkpt><trkpt lat="45.463505748537585" lon="7.775809734220435"><ele>636.0</ele><time>2026-04-26T13:18:39.998Z</time></trkpt><trkpt lat="45.46345535383927" lon="7.775949588556726"><ele>636.4</ele><time>2026-04-26T13:18:40.998Z</time></trkpt><trkpt lat="45.46341810501065" lon="7.776084212879872"><ele>636.8</ele><time>2026-04-26T13:18:41.998Z</time></trkpt><trkpt lat="45.46339482661033" lon="7.776219900673267"><ele>637.1999999999999</ele><time>2026-04-26T13:18:42.998Z</time></trkpt><trkpt lat="45.46338369078829" lon="7.776351901701388"><ele>637.6</ele><time>2026-04-26T13:18:43.998Z</time></trkpt><trkpt lat="45.46339570069574" lon="7.776484060945771"><ele>638.0</ele><time>2026-04-26T13:18:44.998Z</time></trkpt><trkpt lat="45.463423329626195" lon="7.776625768242186"><ele>638.0</ele><time>2026-04-26T13:18:45.998Z</time></trkpt><trkpt lat="45.46347052587933" lon="7.776772858275977"><ele>638.0</ele><time>2026-04-26T13:18:46.998Z</time></trkpt><trkpt lat="45.46353012676509" lon="7.776924984471645"><ele>638.0</ele><time>2026-04-26T13:18:47.998Z</time></trkpt><trkpt lat="45.463610696220314" lon="7.777075645843714"><ele>638.0</ele><time>2026-04-26T13:18:48.998Z</time></trkpt><trkpt lat="45.46369043050157" lon="7.777216640671979"><ele>641.25</ele><time>2026-04-26T13:18:49.998Z</time></trkpt><trkpt lat="45.46375145903943" lon="7.7773639468451545"><ele>644.5</ele><time>2026-04-26T13:18:50.998Z</time></trkpt><trkpt lat="45.46380150075302" lon="7.777518211420015"><ele>647.75</ele><time>2026-04-26T13:18:51.998Z</time></trkpt><trkpt lat="45.46384435285236" lon="7.777681181698494"><ele>651.0</ele><time>2026-04-26T13:18:52.998Z</time></trkpt><trkpt lat="45.46387446971753" lon="7.777857367960194"><ele>643.5</ele><time>2026-04-26T13:18:53.998Z</time></trkpt><trkpt lat="45.46390714417214" lon="7.778020435245604"><ele>636.0</ele><time>2026-04-26T13:18:54.998Z</time></trkpt><trkpt lat="45.463940617257414" lon="7.7781701585924985"><ele>628.5</ele><time>2026-04-26T13:18:55.998Z</time></trkpt><trkpt lat="45.46396419771535" lon="7.7783241278866955"><ele>621.0</ele><time>2026-04-26T13:18:56.998Z</time></trkpt><trkpt lat="45.46400327570064" lon="7.778472165650297"><ele>626.5</ele><time>2026-04-26T13:18:57.998Z</time></trkpt><trkpt lat="45.46405998155634" lon="7.77861969776818"><ele>632.0</ele><time>2026-04-26T13:18:58.998Z</time></trkpt><trkpt lat="45.46413588556332" lon="7.778759436061229"><ele>637.5</ele><time>2026-04-26T13:18:59.998Z</time></trkpt><trkpt lat="45.46421962706177" lon="7.778894963321301"><ele>643.0</ele><time>2026-04-26T13:19:00.998Z</time></trkpt><trkpt lat="45.46430962874524" lon="7.779033870726108"><ele>643.0</ele><time>2026-04-26T13:19:01.998Z</time></trkpt><trkpt lat="45.464388443634064" lon="7.779192235902397"><ele>643.0</ele><time>2026-04-26T13:19:02.998Z</time></trkpt><trkpt lat="45.46444966232891" lon="7.779370734241417"><ele>643.0</ele><time>2026-04-26T13:19:03.998Z</time></trkpt><trkpt lat="45.46450661056179" lon="7.779548473174855"><ele>643.0</ele><time>2026-04-26T13:19:04.998Z</time></trkpt><trkpt lat="45.46456873738484" lon="7.779704067515378"><ele>644.5</ele><time>2026-04-26T13:19:05.998Z</time></trkpt><trkpt lat="45.46464376675176" lon="7.779854301010255"><ele>646.0</ele><time>2026-04-26T13:19:06.998Z</time></trkpt><trkpt lat="45.46472931459837" lon="7.779997274947711"><ele>647.5</ele><time>2026-04-26T13:19:07.998Z</time></trkpt><trkpt lat="45.464817724135244" lon="7.7801319140203"><ele>649.0</ele><time>2026-04-26T13:19:08.998Z</time></trkpt><trkpt lat="45.464900322936856" lon="7.780269386897714"><ele>649.0</ele><time>2026-04-26T13:19:09.998Z</time></trkpt><trkpt lat="45.46498859335116" lon="7.780403897929129"><ele>649.0</ele><time>2026-04-26T13:19:10.998Z</time></trkpt><trkpt lat="45.465079683129616" lon="7.780535781587787"><ele>649.0</ele><time>2026-04-26T13:19:11.998Z</time></trkpt><trkpt lat="45.465177614268185" lon="7.780655876652427"><ele>649.0</ele><time>2026-04-26T13:19:12.998Z</time></trkpt><trkpt lat="45.46528489961279" lon="7.780761782071092"><ele>649.0</ele><time>2026-04-26T13:19:13.998Z</time></trkpt><trkpt lat="45.46539479297315" lon="7.7808601261137635"><ele>649.0</ele><time>2026-04-26T13:19:14.998Z</time></trkpt><trkpt lat="45.46550385680774" lon="7.780957599706859"><ele>649.0</ele><time>2026-04-26T13:19:15.998Z</time></trkpt><trkpt lat="45.4656174673488" lon="7.781051308780718"><ele>649.0</ele><time>2026-04-26T13:19:16.998Z</time></trkpt><trkpt lat="45.46572369252124" lon="7.781133967172401"><ele>648.25</ele><time>2026-04-26T13:19:17.998Z</time></trkpt><trkpt lat="45.465833061729334" lon="7.781227799050033"><ele>647.5</ele><time>2026-04-26T13:19:18.998Z</time></trkpt><trkpt lat="45.465944949372975" lon="7.781331124301131"><ele>646.75</ele><time>2026-04-26T13:19:20Z</time></trkpt><trkpt lat="45.46605988337231" lon="7.7814438442236495"><ele>646.0</ele><time>2026-04-26T13:19:21Z</time></trkpt><trkpt lat="45.46618461809086" lon="7.7815520554585405"><ele>647.6666666666667</ele><time>2026-04-26T13:19:22Z</time></trkpt><trkpt lat="45.466325871717665" lon="7.781680391298706"><ele>649.3333333333334</ele><time>2026-04-26T13:19:23Z</time></trkpt><trkpt lat="45.46644717331262" lon="7.781792699670316"><ele>651.0</ele><time>2026-04-26T13:19:24Z</time></trkpt><trkpt lat="45.4665649382468" lon="7.781901053729063"><ele>651.0</ele><time>2026-04-26T13:19:25Z</time></trkpt><trkpt lat="45.466687167117044" lon="7.781995125348421"><ele>651.0</ele><time>2026-04-26T13:19:26Z</time></trkpt><trkpt lat="45.46679624546491" lon="7.782081032986997"><ele>651.0</ele><time>2026-04-26T13:19:27Z</time></trkpt><trkpt lat="45.466908600628976" lon="7.7821428999811815"><ele>651.0</ele><time>2026-04-26T13:19:28Z</time></trkpt><trkpt lat="45.46702930469491" lon="7.782172458597836"><ele>649.25</ele><time>2026-04-26T13:19:29Z</time></trkpt><trkpt lat="45.46715361949657" lon="7.782196294525091"><ele>647.5</ele><time>2026-04-26T13:19:30Z</time></trkpt><trkpt lat="45.467270195191844" lon="7.782220002374167"><ele>645.75</ele><time>2026-04-26T13:19:31Z</time></trkpt><trkpt lat="45.46737972375941" lon="7.7822372312087"><ele>644.0</ele><time>2026-04-26T13:19:32Z</time></trkpt><trkpt lat="45.46749554234722" lon="7.782233776576351"><ele>644.0</ele><time>2026-04-26T13:19:33Z</time></trkpt><trkpt lat="45.46761806666069" lon="7.782225777369916"><ele>644.0</ele><time>2026-04-26T13:19:34Z</time></trkpt><trkpt lat="45.46774195597269" lon="7.78220743768164"><ele>644.0</ele><time>2026-04-26T13:19:35Z</time></trkpt><trkpt lat="45.4678547264702" lon="7.782178903952011"><ele>644.0</ele><time>2026-04-26T13:19:36Z</time></trkpt><trkpt lat="45.467955643541345" lon="7.782145037594436"><ele>643.25</ele><time>2026-04-26T13:19:37Z</time></trkpt><trkpt lat="45.46806238337192" lon="7.782148930159788"><ele>642.5</ele><time>2026-04-26T13:19:38Z</time></trkpt><trkpt lat="45.4681868262685" lon="7.78212570720454"><ele>641.75</ele><time>2026-04-26T13:19:39Z</time></trkpt><trkpt lat="45.46831284245344" lon="7.782143624114466"><ele>641.0</ele><time>2026-04-26T13:19:40Z</time></trkpt><trkpt lat="45.468423496418474" lon="7.782150357767057"><ele>641.0</ele><time>2026-04-26T13:19:41Z</time></trkpt><trkpt lat="45.46852818509258" lon="7.782158510870496"><ele>641.0</ele><time>2026-04-26T13:19:42Z</time></trkpt><trkpt lat="45.46863281889598" lon="7.782172597136704"><ele>641.0</ele><time>2026-04-26T13:19:43Z</time></trkpt><trkpt lat="45.46874057545258" lon="7.7822091687136234"><ele>641.0</ele><time>2026-04-26T13:19:43.999Z</time></trkpt><trkpt lat="45.46883993245606" lon="7.782301318897355"><ele>641.0</ele><time>2026-04-26T13:19:44.999Z</time></trkpt><trkpt lat="45.46894067916061" lon="7.782400046173704"><ele>640.4</ele><time>2026-04-26T13:19:45.999Z</time></trkpt><trkpt lat="45.46903966599945" lon="7.782494375996567"><ele>639.8</ele><time>2026-04-26T13:19:46.999Z</time></trkpt><trkpt lat="45.46912369469894" lon="7.782589692052301"><ele>639.1999999999999</ele><time>2026-04-26T13:19:47.999Z</time></trkpt><trkpt lat="45.4692184291386" lon="7.782659635926195"><ele>638.5999999999999</ele><time>2026-04-26T13:19:48.999Z</time></trkpt><trkpt lat="45.469327757745475" lon="7.782706455566191"><ele>638.0</ele><time>2026-04-26T13:19:49.999Z</time></trkpt><trkpt lat="45.469444712789745" lon="7.7827217440716145"><ele>638.75</ele><time>2026-04-26T13:19:50.999Z</time></trkpt><trkpt lat="45.46956723579255" lon="7.7827003207039365"><ele>639.5</ele><time>2026-04-26T13:19:51.999Z</time></trkpt><trkpt lat="45.469687929385216" lon="7.782645947063741"><ele>640.25</ele><time>2026-04-26T13:19:52.999Z</time></trkpt><trkpt lat="45.469799563411804" lon="7.782565321324857"><ele>641.0</ele><time>2026-04-26T13:19:53.999Z</time></trkpt><trkpt lat="45.46989491254746" lon="7.782466234910346"><ele>641.0</ele><time>2026-04-26T13:19:54.999Z</time></trkpt><trkpt lat="45.46997222229048" lon="7.78235685766771"><ele>641.0</ele><time>2026-04-26T13:19:55.999Z</time></trkpt><trkpt lat="45.470050161612754" lon="7.782260300419358"><ele>641.0</ele><time>2026-04-26T13:19:56.999Z</time></trkpt><trkpt lat="45.4701335911519" lon="7.7821733607235215"><ele>641.0</ele><time>2026-04-26T13:19:57.999Z</time></trkpt><trkpt lat="45.47022268167977" lon="7.782087482401243"><ele>641.0</ele><time>2026-04-26T13:19:58.999Z</time></trkpt><trkpt lat="45.47031094825524" lon="7.781993581357594"><ele>641.0</ele><time>2026-04-26T13:19:59.999Z</time></trkpt><trkpt lat="45.47039804922699" lon="7.7818911748861215"><ele>641.0</ele><time>2026-04-26T13:20:00.999Z</time></trkpt><trkpt lat="45.470492782887625" lon="7.7818014809586025"><ele>641.0</ele><time>2026-04-26T13:20:01.999Z</time></trkpt><trkpt lat="45.47058680528464" lon="7.781717441532145"><ele>641.0</ele><time>2026-04-26T13:20:02.999Z</time></trkpt><trkpt lat="45.47068604663108" lon="7.781658976447962"><ele>641.0</ele><time>2026-04-26T13:20:03.999Z</time></trkpt><trkpt lat="45.47079582601899" lon="7.781624214339837"><ele>641.8</ele><time>2026-04-26T13:20:04.999Z</time></trkpt><trkpt lat="45.470915443931105" lon="7.781618923332055"><ele>642.5999999999999</ele><time>2026-04-26T13:20:05.999Z</time></trkpt><trkpt lat="45.47103100588208" lon="7.7816259158688466"><ele>643.4</ele><time>2026-04-26T13:20:06.999Z</time></trkpt><trkpt lat="45.47113324243594" lon="7.78163879002582"><ele>644.2</ele><time>2026-04-26T13:20:07.999Z</time></trkpt><trkpt lat="45.471240712738286" lon="7.781631942715332"><ele>645.0</ele><time>2026-04-26T13:20:08.999Z</time></trkpt><trkpt lat="45.47133564568037" lon="7.781611081043562"><ele>646.2</ele><time>2026-04-26T13:20:09.999Z</time></trkpt><trkpt lat="45.47142724299981" lon="7.781576152332166"><ele>647.4</ele><time>2026-04-26T13:20:10.999Z</time></trkpt><trkpt lat="45.47151494370388" lon="7.781539508370216"><ele>648.5999999999999</ele><time>2026-04-26T13:20:11.999Z</time></trkpt><trkpt lat="45.47160293171553" lon="7.781522959068814"><ele>649.8</ele><time>2026-04-26T13:20:12.999Z</time></trkpt><trkpt lat="45.4716902446565" lon="7.781478057270183"><ele>651.0</ele><time>2026-04-26T13:20:13.999Z</time></trkpt><trkpt lat="45.471783885137526" lon="7.781465909187174"><ele>651.0</ele><time>2026-04-26T13:20:14.999Z</time></trkpt><trkpt lat="45.47187639213574" lon="7.781482832271582"><ele>651.0</ele><time>2026-04-26T13:20:15.999Z</time></trkpt><trkpt lat="45.47195282706494" lon="7.781508488047406"><ele>651.0</ele><time>2026-04-26T13:20:16.999Z</time></trkpt><trkpt lat="45.47202403635822" lon="7.781544401549639"><ele>651.0</ele><time>2026-04-26T13:20:17.999Z</time></trkpt><trkpt lat="45.47213414021051" lon="7.78159949147935"><ele>651.0</ele><time>2026-04-26T13:20:19.999Z</time></trkpt><trkpt lat="45.4721670939295" lon="7.781711109103206"><ele>651.0</ele><time>2026-04-26T13:20:20.999Z</time></trkpt><trkpt lat="45.472228582580684" lon="7.781741546231602"><ele>650.8333333333334</ele><time>2026-04-26T13:20:21.999Z</time></trkpt><trkpt lat="45.47235171295338" lon="7.781803796570501"><ele>650.6666666666666</ele><time>2026-04-26T13:20:23.999Z</time></trkpt><trkpt lat="45.472417137044864" lon="7.78181967758818"><ele>650.5</ele><time>2026-04-26T13:20:24.999Z</time></trkpt><trkpt lat="45.47248095598039" lon="7.781835006212138"><ele>650.3333333333333</ele><time>2026-04-26T13:20:25.999Z</time></trkpt><trkpt lat="45.47254377662409" lon="7.781848352509839"><ele>650.1666666666666</ele><time>2026-04-26T13:20:26.999Z</time></trkpt><trkpt lat="45.47266372044636" lon="7.7818603453270505"><ele>650.0</ele><time>2026-04-26T13:20:28.999Z</time></trkpt><trkpt lat="45.47278571062956" lon="7.7819173152935095"><ele>652.2</ele><time>2026-04-26T13:20:30.999Z</time></trkpt><trkpt lat="45.47285530191126" lon="7.781966964242165"><ele>654.4</ele><time>2026-04-26T13:20:31.999Z</time></trkpt><trkpt lat="45.47293519131317" lon="7.782030072512243"><ele>656.5999999999999</ele><time>2026-04-26T13:20:32.999Z</time></trkpt><trkpt lat="45.473018481263786" lon="7.78210335454129"><ele>658.8</ele><time>2026-04-26T13:20:33.999Z</time></trkpt><trkpt lat="45.47310006757866" lon="7.78219198940466"><ele>661.0</ele><time>2026-04-26T13:20:34.999Z</time></trkpt><trkpt lat="45.473185002989716" lon="7.782243430886922"><ele>661.0</ele><time>2026-04-26T13:20:35.999Z</time></trkpt><trkpt lat="45.473248394032574" lon="7.78226193125388"><ele>661.0</ele><time>2026-04-26T13:20:36.999Z</time></trkpt><trkpt lat="45.473319564560455" lon="7.782277390954073"><ele>661.0</ele><time>2026-04-26T13:20:38.999Z</time></trkpt><trkpt lat="45.47360617393662" lon="7.782411517076629"><ele>661.0</ele><time>2026-04-26T13:20:40.999Z</time></trkpt><trkpt lat="45.473665335598575" lon="7.782457158421382"><ele>661.0</ele><time>2026-04-26T13:20:41.998Z</time></trkpt><trkpt lat="45.47371608490556" lon="7.782538336315591"><ele>661.0</ele><time>2026-04-26T13:20:42.998Z</time></trkpt><trkpt lat="45.473785924723735" lon="7.7825869934281355"><ele>661.0</ele><time>2026-04-26T13:20:43.998Z</time></trkpt><trkpt lat="45.47385060759582" lon="7.782633204850589"><ele>661.0</ele><time>2026-04-26T13:20:44.998Z</time></trkpt><trkpt lat="45.47391449727125" lon="7.782666193670367"><ele>661.0</ele><time>2026-04-26T13:20:45.998Z</time></trkpt><trkpt lat="45.47402068028218" lon="7.782682269207438"><ele>661.0</ele><time>2026-04-26T13:20:47.998Z</time></trkpt><trkpt lat="45.47404524171128" lon="7.782792792835619"><ele>661.0</ele><time>2026-04-26T13:20:49.998Z</time></trkpt><trkpt lat="45.47393413671549" lon="7.7828433703176785"><ele>661.0</ele><time>2026-04-26T13:20:51.998Z</time></trkpt><trkpt lat="45.47387974447916" lon="7.78276726050501"><ele>661.0</ele><time>2026-04-26T13:20:52.998Z</time></trkpt><trkpt lat="45.47381337092704" lon="7.7827253194783985"><ele>661.0</ele><time>2026-04-26T13:20:53.998Z</time></trkpt><trkpt lat="45.47374635060759" lon="7.7826938770376755"><ele>661.0</ele><time>2026-04-26T13:20:54.998Z</time></trkpt><trkpt lat="45.47369067443189" lon="7.782651008939116"><ele>661.0</ele><time>2026-04-26T13:20:55.998Z</time></trkpt><trkpt lat="45.47362944452748" lon="7.78260589671791"><ele>661.0</ele><time>2026-04-26T13:20:56.998Z</time></trkpt><trkpt lat="45.473572346958626" lon="7.78255360323215"><ele>661.0</ele><time>2026-04-26T13:20:57.998Z</time></trkpt><trkpt lat="45.473506317779396" lon="7.78250901072041"><ele>661.0</ele><time>2026-04-26T13:20:58.998Z</time></trkpt><trkpt lat="45.473441908278375" lon="7.782484598405931"><ele>661.0</ele><time>2026-04-26T13:20:59.998Z</time></trkpt><trkpt lat="45.473362838994795" lon="7.782484175394867"><ele>661.0</ele><time>2026-04-26T13:21:00.998Z</time></trkpt><trkpt lat="45.47328485783118" lon="7.782503424442809"><ele>661.0</ele><time>2026-04-26T13:21:01.998Z</time></trkpt><trkpt lat="45.47319246202899" lon="7.782524508997923"><ele>661.0</ele><time>2026-04-26T13:21:02.998Z</time></trkpt><trkpt lat="45.473111409526574" lon="7.782547415892049"><ele>661.0</ele><time>2026-04-26T13:21:03.998Z</time></trkpt><trkpt lat="45.47304302647456" lon="7.782564316361541"><ele>661.0</ele><time>2026-04-26T13:21:04.998Z</time></trkpt><trkpt lat="45.47290561092715" lon="7.78257044565592"><ele>661.0</ele><time>2026-04-26T13:21:06.998Z</time></trkpt><trkpt lat="45.472814169932875" lon="7.782557614926337"><ele>661.0</ele><time>2026-04-26T13:21:07.998Z</time></trkpt><trkpt lat="45.47271881446222" lon="7.7825583549318"><ele>662.4</ele><time>2026-04-26T13:21:08.998Z</time></trkpt><trkpt lat="45.4726242405047" lon="7.78258516625228"><ele>663.8</ele><time>2026-04-26T13:21:09.998Z</time></trkpt><trkpt lat="45.472514470148546" lon="7.7826423560307765"><ele>665.1999999999999</ele><time>2026-04-26T13:21:10.998Z</time></trkpt><trkpt lat="45.47241316523376" lon="7.782692801715509"><ele>666.5999999999999</ele><time>2026-04-26T13:21:11.998Z</time></trkpt><trkpt lat="45.47232973767016" lon="7.782755732635454"><ele>668.0</ele><time>2026-04-26T13:21:12.998Z</time></trkpt><trkpt lat="45.472259566683924" lon="7.7828194508064"><ele>666.5</ele><time>2026-04-26T13:21:13.998Z</time></trkpt><trkpt lat="45.47219947768391" lon="7.782872344486329"><ele>665.0</ele><time>2026-04-26T13:21:14.998Z</time></trkpt><trkpt lat="45.47213591741699" lon="7.78291880845097"><ele>663.5</ele><time>2026-04-26T13:21:15.998Z</time></trkpt><trkpt lat="45.47208693279289" lon="7.782980113000704"><ele>662.0</ele><time>2026-04-26T13:21:16.998Z</time></trkpt><trkpt lat="45.47203007202595" lon="7.7831258589975825"><ele>660.5</ele><time>2026-04-26T13:21:18.998Z</time></trkpt><trkpt lat="45.47202719472553" lon="7.783224034464038"><ele>659.0</ele><time>2026-04-26T13:21:19.998Z</time></trkpt><trkpt lat="45.47203442832297" lon="7.783327262226921"><ele>659.0</ele><time>2026-04-26T13:21:20.998Z</time></trkpt><trkpt lat="45.472060004481555" lon="7.783495456212838"><ele>659.0</ele><time>2026-04-26T13:21:22.998Z</time></trkpt><trkpt lat="45.47207776130571" lon="7.783648095507436"><ele>659.0</ele><time>2026-04-26T13:21:24.998Z</time></trkpt><trkpt lat="45.47213217969952" lon="7.783765958310088"><ele>659.0</ele><time>2026-04-26T13:21:27Z</time></trkpt><trkpt lat="45.47225015441989" lon="7.7837516393826425"><ele>659.0</ele><time>2026-04-26T13:21:29Z</time></trkpt><trkpt lat="45.47227121005175" lon="7.7836197859110205"><ele>663.2</ele><time>2026-04-26T13:21:30Z</time></trkpt><trkpt lat="45.47223911870313" lon="7.783502322410894"><ele>667.4000000000001</ele><time>2026-04-26T13:21:31Z</time></trkpt><trkpt lat="45.472261310481926" lon="7.7834061412561955"><ele>671.6</ele><time>2026-04-26T13:21:32Z</time></trkpt><trkpt lat="45.47230647661418" lon="7.783290260961574"><ele>675.8</ele><time>2026-04-26T13:21:34Z</time></trkpt><trkpt lat="45.47237489825874" lon="7.783151066888469"><ele>680.0</ele><time>2026-04-26T13:21:36Z</time></trkpt><trkpt lat="45.47245978198481" lon="7.783053867786868"><ele>680.0</ele><time>2026-04-26T13:21:38Z</time></trkpt><trkpt lat="45.47252799524455" lon="7.783034748494656"><ele>680.0</ele><time>2026-04-26T13:21:40Z</time></trkpt><trkpt lat="45.4725181194287" lon="7.783181001567533"><ele>680.0</ele><time>2026-04-26T13:21:42Z</time></trkpt><trkpt lat="45.472421174914636" lon="7.783281652822435"><ele>680.0</ele><time>2026-04-26T13:21:44Z</time></trkpt><trkpt lat="45.47238041870117" lon="7.783359648789213"><ele>680.0</ele><time>2026-04-26T13:21:45Z</time></trkpt><trkpt lat="45.472368099512245" lon="7.783518186700055"><ele>680.6666666666666</ele><time>2026-04-26T13:21:47Z</time></trkpt><trkpt lat="45.47238183854457" lon="7.783690840627995"><ele>681.3333333333333</ele><time>2026-04-26T13:21:49Z</time></trkpt><trkpt lat="45.47238501861976" lon="7.783790618482812"><ele>682.0</ele><time>2026-04-26T13:21:50Z</time></trkpt><trkpt lat="45.472406486240565" lon="7.783888369390582"><ele>682.6666666666666</ele><time>2026-04-26T13:21:51Z</time></trkpt><trkpt lat="45.47243267996123" lon="7.7839917633154325"><ele>683.3333333333334</ele><time>2026-04-26T13:21:52Z</time></trkpt><trkpt lat="45.47245582935751" lon="7.7840954167767995"><ele>684.0</ele><time>2026-04-26T13:21:53Z</time></trkpt><trkpt lat="45.47248745610888" lon="7.784202893012782"><ele>684.0</ele><time>2026-04-26T13:21:54Z</time></trkpt><trkpt lat="45.47251983854997" lon="7.784311161525059"><ele>684.0</ele><time>2026-04-26T13:21:55Z</time></trkpt><trkpt lat="45.47255720375451" lon="7.784426840183062"><ele>684.0</ele><time>2026-04-26T13:21:56Z</time></trkpt><trkpt lat="45.47257674647976" lon="7.784554757111646"><ele>684.0</ele><time>2026-04-26T13:21:57Z</time></trkpt><trkpt lat="45.472590361165544" lon="7.784685378056706"><ele>684.0</ele><time>2026-04-26T13:21:58Z</time></trkpt><trkpt lat="45.47261260263452" lon="7.784811475113605"><ele>684.0</ele><time>2026-04-26T13:21:59Z</time></trkpt><trkpt lat="45.47264063325355" lon="7.784939105549954"><ele>684.8000000000001</ele><time>2026-04-26T13:22:00Z</time></trkpt><trkpt lat="45.472670046669634" lon="7.785068036462193"><ele>685.6</ele><time>2026-04-26T13:22:00.999Z</time></trkpt><trkpt lat="45.47268993838306" lon="7.785199711537891"><ele>686.4</ele><time>2026-04-26T13:22:01.999Z</time></trkpt><trkpt lat="45.47270376428698" lon="7.785334449907201"><ele>687.2</ele><time>2026-04-26T13:22:02.999Z</time></trkpt><trkpt lat="45.47271588828459" lon="7.785455474193457"><ele>688.0</ele><time>2026-04-26T13:22:03.999Z</time></trkpt><trkpt lat="45.4727290142367" lon="7.785570006749508"><ele>688.8333333333334</ele><time>2026-04-26T13:22:04.999Z</time></trkpt><trkpt lat="45.47273721343508" lon="7.785674443439297"><ele>689.6666666666667</ele><time>2026-04-26T13:22:05.999Z</time></trkpt><trkpt lat="45.47274334527649" lon="7.785774800520576"><ele>690.5</ele><time>2026-04-26T13:22:06.999Z</time></trkpt><trkpt lat="45.47272647498544" lon="7.785902000288433"><ele>691.3333333333334</ele><time>2026-04-26T13:22:07.999Z</time></trkpt><trkpt lat="45.47270330041127" lon="7.785998461925257"><ele>692.1666666666666</ele><time>2026-04-26T13:22:08.999Z</time></trkpt><trkpt lat="45.47266224997035" lon="7.786103967740196"><ele>693.0</ele><time>2026-04-26T13:22:09.999Z</time></trkpt><trkpt lat="45.47260097357265" lon="7.78622154724403"><ele>695.1666666666666</ele><time>2026-04-26T13:22:10.999Z</time></trkpt><trkpt lat="45.472533369630696" lon="7.786325609203068"><ele>697.3333333333334</ele><time>2026-04-26T13:22:11.999Z</time></trkpt><trkpt lat="45.47247395374796" lon="7.786410722916007"><ele>699.5</ele><time>2026-04-26T13:22:12.999Z</time></trkpt><trkpt lat="45.47241068134621" lon="7.786483445732495"><ele>701.6666666666667</ele><time>2026-04-26T13:22:13.999Z</time></trkpt><trkpt lat="45.47234662163659" lon="7.7865538295253085"><ele>703.8333333333334</ele><time>2026-04-26T13:22:14.999Z</time></trkpt><trkpt lat="45.4722846858904" lon="7.786627936427706"><ele>706.0</ele><time>2026-04-26T13:22:15.999Z</time></trkpt><trkpt lat="45.47221604469257" lon="7.786702302133224"><ele>706.0</ele><time>2026-04-26T13:22:16.999Z</time></trkpt><trkpt lat="45.4721579691601" lon="7.78677095428227"><ele>706.0</ele><time>2026-04-26T13:22:17.999Z</time></trkpt><trkpt lat="45.472105933921824" lon="7.786832491726324"><ele>706.0</ele><time>2026-04-26T13:22:18.999Z</time></trkpt><trkpt lat="45.47205839729869" lon="7.786903308763495"><ele>706.0</ele><time>2026-04-26T13:22:19.999Z</time></trkpt><trkpt lat="45.472036667215065" lon="7.787064729261502"><ele>706.0</ele><time>2026-04-26T13:22:21.999Z</time></trkpt><trkpt lat="45.47208208462651" lon="7.787148248491818"><ele>706.0</ele><time>2026-04-26T13:22:22.999Z</time></trkpt><trkpt lat="45.47215703649232" lon="7.787214553278432"><ele>707.75</ele><time>2026-04-26T13:22:23.999Z</time></trkpt><trkpt lat="45.47224308443603" lon="7.787275686468137"><ele>709.5</ele><time>2026-04-26T13:22:24.999Z</time></trkpt><trkpt lat="45.47231634123971" lon="7.787381764915258"><ele>711.25</ele><time>2026-04-26T13:22:25.999Z</time></trkpt><trkpt lat="45.47239550257373" lon="7.787504797893431"><ele>713.0</ele><time>2026-04-26T13:22:27.999Z</time></trkpt><trkpt lat="45.472485933965544" lon="7.787645591810159"><ele>712.5</ele><time>2026-04-26T13:22:29.999Z</time></trkpt><trkpt lat="45.47254662722181" lon="7.78773310000576"><ele>712.0</ele><time>2026-04-26T13:22:30.999Z</time></trkpt><trkpt lat="45.47261504304831" lon="7.7878148579378355"><ele>711.5</ele><time>2026-04-26T13:22:31.999Z</time></trkpt><trkpt lat="45.472687695302426" lon="7.787903828101771"><ele>711.0</ele><time>2026-04-26T13:22:32.999Z</time></trkpt><trkpt lat="45.47275975727751" lon="7.787983157971302"><ele>710.5</ele><time>2026-04-26T13:22:33.999Z</time></trkpt><trkpt lat="45.47283482153066" lon="7.788039088930699"><ele>710.0</ele><time>2026-04-26T13:22:34.999Z</time></trkpt><trkpt lat="45.472897956923774" lon="7.788084556675092"><ele>711.3333333333333</ele><time>2026-04-26T13:22:35.999Z</time></trkpt><trkpt lat="45.4729597825321" lon="7.7881226020718515"><ele>712.6666666666666</ele><time>2026-04-26T13:22:36.999Z</time></trkpt><trkpt lat="45.4730289852076" lon="7.7881524182175115"><ele>714.0</ele><time>2026-04-26T13:22:37.999Z</time></trkpt><trkpt lat="45.47310257907792" lon="7.788176231174564"><ele>715.3333333333334</ele><time>2026-04-26T13:22:38.999Z</time></trkpt><trkpt lat="45.47320152154895" lon="7.788248684494011"><ele>716.6666666666667</ele><time>2026-04-26T13:22:40.999Z</time></trkpt><trkpt lat="45.47327637323447" lon="7.7883648178794305"><ele>718.0</ele><time>2026-04-26T13:22:42.999Z</time></trkpt><trkpt lat="45.47332820382516" lon="7.788494291730353"><ele>718.0</ele><time>2026-04-26T13:22:44.999Z</time></trkpt><trkpt lat="45.47337686506358" lon="7.788576801047664"><ele>718.0</ele><time>2026-04-26T13:22:46.999Z</time></trkpt><trkpt lat="45.47351940435287" lon="7.788500308533451"><ele>718.0</ele><time>2026-04-26T13:22:49.999Z</time></trkpt><trkpt lat="45.473513170951016" lon="7.788387593976444"><ele>718.0</ele><time>2026-04-26T13:22:50.999Z</time></trkpt><trkpt lat="45.47349842886976" lon="7.788234818283306"><ele>718.0</ele><time>2026-04-26T13:22:52.999Z</time></trkpt><trkpt lat="45.47345450204081" lon="7.788106426592883"><ele>718.0</ele><time>2026-04-26T13:22:54.999Z</time></trkpt><trkpt lat="45.473393545250154" lon="7.787980978874751"><ele>718.0</ele><time>2026-04-26T13:22:56.999Z</time></trkpt><trkpt lat="45.4733243650233" lon="7.7878471052328475"><ele>718.0</ele><time>2026-04-26T13:22:58.998Z</time></trkpt><trkpt lat="45.473249608375255" lon="7.787699861542839"><ele>718.0</ele><time>2026-04-26T13:23:00.998Z</time></trkpt><trkpt lat="45.473205380427835" lon="7.787542496493927"><ele>719.0</ele><time>2026-04-26T13:23:02.998Z</time></trkpt><trkpt lat="45.47320535905852" lon="7.787389525100519"><ele>720.0</ele><time>2026-04-26T13:23:04.998Z</time></trkpt><trkpt lat="45.47326059742608" lon="7.787245051626359"><ele>721.0</ele><time>2026-04-26T13:23:06.998Z</time></trkpt><trkpt lat="45.473293709654634" lon="7.787162361887242"><ele>722.0</ele><time>2026-04-26T13:23:07.998Z</time></trkpt><trkpt lat="45.47334733629699" lon="7.787068559580602"><ele>723.0</ele><time>2026-04-26T13:23:08.998Z</time></trkpt><trkpt lat="45.47339424664053" lon="7.786990609204517"><ele>724.0</ele><time>2026-04-26T13:23:09.998Z</time></trkpt><trkpt lat="45.47342969655565" lon="7.786910830932724"><ele>723.6</ele><time>2026-04-26T13:23:10.998Z</time></trkpt><trkpt lat="45.47347852681046" lon="7.786830415229599"><ele>723.2</ele><time>2026-04-26T13:23:11.998Z</time></trkpt><trkpt lat="45.473534854642196" lon="7.786744802613977"><ele>722.8000000000001</ele><time>2026-04-26T13:23:12.998Z</time></trkpt><trkpt lat="45.47359735564634" lon="7.786640824402256"><ele>722.4000000000001</ele><time>2026-04-26T13:23:13.998Z</time></trkpt><trkpt lat="45.473657132332285" lon="7.786560646809911"><ele>722.0</ele><time>2026-04-26T13:23:14.998Z</time></trkpt><trkpt lat="45.473755224256536" lon="7.786458854063498"><ele>723.1428571428572</ele><time>2026-04-26T13:23:16.998Z</time></trkpt><trkpt lat="45.47381440163805" lon="7.78641489737279"><ele>724.2857142857142</ele><time>2026-04-26T13:23:17.998Z</time></trkpt><trkpt lat="45.47387779026619" lon="7.786372002124913"><ele>725.4285714285714</ele><time>2026-04-26T13:23:18.998Z</time></trkpt><trkpt lat="45.47394776277236" lon="7.786326752003109"><ele>726.5714285714287</ele><time>2026-04-26T13:23:19.998Z</time></trkpt><trkpt lat="45.47401490205558" lon="7.786316715484146"><ele>727.7142857142858</ele><time>2026-04-26T13:23:20.998Z</time></trkpt><trkpt lat="45.47408700911495" lon="7.786356068709192"><ele>728.8571428571429</ele><time>2026-04-26T13:23:21.998Z</time></trkpt><trkpt lat="45.47416030404807" lon="7.786396801533014"><ele>730.0</ele><time>2026-04-26T13:23:22.998Z</time></trkpt><trkpt lat="45.474212118178464" lon="7.786451900658154"><ele>730.0</ele><time>2026-04-26T13:23:23.998Z</time></trkpt><trkpt lat="45.47426662919152" lon="7.786513192892035"><ele>730.0</ele><time>2026-04-26T13:23:24.998Z</time></trkpt><trkpt lat="45.47432744421422" lon="7.786600994708078"><ele>730.0</ele><time>2026-04-26T13:23:25.998Z</time></trkpt><trkpt lat="45.474375316685375" lon="7.786702507610651"><ele>730.0</ele><time>2026-04-26T13:23:26.998Z</time></trkpt><trkpt lat="45.47441080984585" lon="7.786780005018661"><ele>730.0</ele><time>2026-04-26T13:23:27.998Z</time></trkpt><trkpt lat="45.474509312246155" lon="7.78689986614179"><ele>730.0</ele><time>2026-04-26T13:23:29.998Z</time></trkpt><trkpt lat="45.47459899652334" lon="7.786947755585278"><ele>730.6666666666667</ele><time>2026-04-26T13:23:30.998Z</time></trkpt><trkpt lat="45.47470331413063" lon="7.786944205101482"><ele>731.3333333333334</ele><time>2026-04-26T13:23:32Z</time></trkpt><trkpt lat="45.474793854785176" lon="7.786921656405683"><ele>732.0</ele><time>2026-04-26T13:23:33Z</time></trkpt><trkpt lat="45.474870335972994" lon="7.786887269824109"><ele>732.6666666666666</ele><time>2026-04-26T13:23:34Z</time></trkpt><trkpt lat="45.474945230789174" lon="7.786892413793796"><ele>733.3333333333333</ele><time>2026-04-26T13:23:35Z</time></trkpt><trkpt lat="45.47501289590222" lon="7.786885606916215"><ele>734.0</ele><time>2026-04-26T13:23:36Z</time></trkpt><trkpt lat="45.47514139848374" lon="7.786915029591392"><ele>734.0</ele><time>2026-04-26T13:23:38Z</time></trkpt><trkpt lat="45.47521309610332" lon="7.787009551627444"><ele>734.0</ele><time>2026-04-26T13:23:40Z</time></trkpt><trkpt lat="45.475264401468706" lon="7.78709474613189"><ele>734.0</ele><time>2026-04-26T13:23:43Z</time></trkpt><trkpt lat="45.47532095027106" lon="7.787143675452778"><ele>734.0</ele><time>2026-04-26T13:28:06Z</time></trkpt><trkpt lat="45.47526517394141" lon="7.787058607183726"><ele>734.0</ele><time>2026-04-26T13:33:25.998Z</time></trkpt><trkpt lat="45.4752023321598" lon="7.78700510016373"><ele>734.0</ele><time>2026-04-26T13:33:28.998Z</time></trkpt><trkpt lat="45.47513459022142" lon="7.7869170450366"><ele>734.0</ele><time>2026-04-26T13:33:30.998Z</time></trkpt><trkpt lat="45.47505144591694" lon="7.78688595198761"><ele>734.0</ele><time>2026-04-26T13:33:32.998Z</time></trkpt><trkpt lat="45.47496496004532" lon="7.786896963582665"><ele>734.0</ele><time>2026-04-26T13:33:34.998Z</time></trkpt><trkpt lat="45.47489539001851" lon="7.786906762719428"><ele>734.0</ele><time>2026-04-26T13:33:36.998Z</time></trkpt><trkpt lat="45.47482117140859" lon="7.786915251102421"><ele>734.0</ele><time>2026-04-26T13:33:38.998Z</time></trkpt><trkpt lat="45.47473850063558" lon="7.786919043263399"><ele>734.0</ele><time>2026-04-26T13:33:40.998Z</time></trkpt><trkpt lat="45.47466324824044" lon="7.786915398525098"><ele>734.3333333333333</ele><time>2026-04-26T13:33:42.998Z</time></trkpt><trkpt lat="45.474581378055014" lon="7.786864835475586"><ele>734.6666666666666</ele><time>2026-04-26T13:33:44.998Z</time></trkpt><trkpt lat="45.47450763790459" lon="7.786768495741374"><ele>735.0</ele><time>2026-04-26T13:33:46.998Z</time></trkpt><trkpt lat="45.47443420945486" lon="7.7866549840653665"><ele>735.3333333333334</ele><time>2026-04-26T13:33:48.998Z</time></trkpt><trkpt lat="45.474384774125625" lon="7.7865898328456815"><ele>735.6666666666667</ele><time>2026-04-26T13:33:49.998Z</time></trkpt><trkpt lat="45.474326217024625" lon="7.786509508644203"><ele>736.0</ele><time>2026-04-26T13:33:50.998Z</time></trkpt><trkpt lat="45.47426318686384" lon="7.786440096724066"><ele>735.1428571428572</ele><time>2026-04-26T13:33:51.998Z</time></trkpt><trkpt lat="45.47420250146197" lon="7.786389970945077"><ele>734.2857142857142</ele><time>2026-04-26T13:33:52.998Z</time></trkpt><trkpt lat="45.474136336346305" lon="7.7863452908217585"><ele>733.4285714285714</ele><time>2026-04-26T13:33:53.998Z</time></trkpt><trkpt lat="45.47406848663922" lon="7.7863180015502795"><ele>732.5714285714287</ele><time>2026-04-26T13:33:54.998Z</time></trkpt><trkpt lat="45.47400495850823" lon="7.786324398600499"><ele>731.7142857142858</ele><time>2026-04-26T13:33:55.998Z</time></trkpt><trkpt lat="45.47393319421873" lon="7.786347304332161"><ele>730.8571428571429</ele><time>2026-04-26T13:33:56.998Z</time></trkpt><trkpt lat="45.47386084318311" lon="7.786383195156334"><ele>730.0</ele><time>2026-04-26T13:33:57.998Z</time></trkpt><trkpt lat="45.47379229222499" lon="7.786434055598435"><ele>729.0</ele><time>2026-04-26T13:33:58.997Z</time></trkpt><trkpt lat="45.47372496067763" lon="7.786497279426645"><ele>728.0</ele><time>2026-04-26T13:34:00Z</time></trkpt><trkpt lat="45.47365658878141" lon="7.786573288744621"><ele>727.0</ele><time>2026-04-26T13:34:01Z</time></trkpt><trkpt lat="45.473591898681036" lon="7.786660776607238"><ele>726.0</ele><time>2026-04-26T13:34:02Z</time></trkpt><trkpt lat="45.47353530432937" lon="7.786746963449541"><ele>725.0</ele><time>2026-04-26T13:34:03Z</time></trkpt><trkpt lat="45.473484478426215" lon="7.786837857305166"><ele>724.0</ele><time>2026-04-26T13:34:04Z</time></trkpt><trkpt lat="45.473428983321774" lon="7.786931858492253"><ele>724.0</ele><time>2026-04-26T13:34:05Z</time></trkpt><trkpt lat="45.473353472625696" lon="7.787011439982056"><ele>724.0</ele><time>2026-04-26T13:34:06Z</time></trkpt><trkpt lat="45.47330895866309" lon="7.787134114322447"><ele>724.0</ele><time>2026-04-26T13:34:07Z</time></trkpt><trkpt lat="45.47325581606037" lon="7.787233160245533"><ele>724.0</ele><time>2026-04-26T13:34:08Z</time></trkpt><trkpt lat="45.47321978794537" lon="7.787317241895883"><ele>724.0</ele><time>2026-04-26T13:34:09Z</time></trkpt><trkpt lat="45.47318324145655" lon="7.787394022414569"><ele>724.0</ele><time>2026-04-26T13:34:10Z</time></trkpt><trkpt lat="45.47317365039675" lon="7.787488574954067"><ele>724.0</ele><time>2026-04-26T13:34:11Z</time></trkpt><trkpt lat="45.473181754449364" lon="7.787588942382959"><ele>724.0</ele><time>2026-04-26T13:34:12Z</time></trkpt><trkpt lat="45.47320599027803" lon="7.787688921712484"><ele>724.0</ele><time>2026-04-26T13:34:13Z</time></trkpt><trkpt lat="45.47325313582114" lon="7.787787662683458"><ele>724.0</ele><time>2026-04-26T13:34:14Z</time></trkpt><trkpt lat="45.47330116451888" lon="7.78788226107205"><ele>724.0</ele><time>2026-04-26T13:34:15Z</time></trkpt><trkpt lat="45.4733526178326" lon="7.787981820213969"><ele>724.0</ele><time>2026-04-26T13:34:16Z</time></trkpt><trkpt lat="45.47339295059506" lon="7.788060757730931"><ele>722.8000000000001</ele><time>2026-04-26T13:34:17Z</time></trkpt><trkpt lat="45.47343481668141" lon="7.7881559236809945"><ele>721.6</ele><time>2026-04-26T13:34:18Z</time></trkpt><trkpt lat="45.47346440084021" lon="7.788250035212754"><ele>720.4</ele><time>2026-04-26T13:34:19Z</time></trkpt><trkpt lat="45.47348353518903" lon="7.788401519042555"><ele>719.2</ele><time>2026-04-26T13:34:21Z</time></trkpt><trkpt lat="45.473467851746335" lon="7.7885198609504185"><ele>718.0</ele><time>2026-04-26T13:34:23Z</time></trkpt><trkpt lat="45.47336215860866" lon="7.788412288557445"><ele>718.0</ele><time>2026-04-26T13:34:26.999Z</time></trkpt><trkpt lat="45.473322412742576" lon="7.788326382237837"><ele>718.0</ele><time>2026-04-26T13:34:27.999Z</time></trkpt><trkpt lat="45.47327565679993" lon="7.788247231713149"><ele>718.0</ele><time>2026-04-26T13:34:28.999Z</time></trkpt><trkpt lat="45.47321409188838" lon="7.788185589525371"><ele>718.0</ele><time>2026-04-26T13:34:29.999Z</time></trkpt><trkpt lat="45.47312076949945" lon="7.7881521907201385"><ele>718.0</ele><time>2026-04-26T13:34:30.999Z</time></trkpt><trkpt lat="45.4730301540673" lon="7.788111935712455"><ele>718.0</ele><time>2026-04-26T13:34:31.999Z</time></trkpt><trkpt lat="45.47296293967545" lon="7.788089488968881"><ele>716.4</ele><time>2026-04-26T13:34:32.999Z</time></trkpt><trkpt lat="45.47289167991867" lon="7.788045565979879"><ele>714.8</ele><time>2026-04-26T13:34:33.999Z</time></trkpt><trkpt lat="45.47281742235024" lon="7.787963918256243"><ele>713.2</ele><time>2026-04-26T13:34:34.999Z</time></trkpt><trkpt lat="45.47274669888848" lon="7.787899561587694"><ele>711.6</ele><time>2026-04-26T13:34:35.999Z</time></trkpt><trkpt lat="45.472663695084805" lon="7.787808415992005"><ele>710.0</ele><time>2026-04-26T13:34:36.999Z</time></trkpt><trkpt lat="45.4725871410686" lon="7.787705248438855"><ele>710.6</ele><time>2026-04-26T13:34:37.999Z</time></trkpt><trkpt lat="45.47251707488837" lon="7.787608568756985"><ele>711.2</ele><time>2026-04-26T13:34:38.999Z</time></trkpt><trkpt lat="45.47244021412687" lon="7.787524416812808"><ele>711.8</ele><time>2026-04-26T13:34:39.999Z</time></trkpt><trkpt lat="45.47238249943563" lon="7.7874305660300465"><ele>712.4</ele><time>2026-04-26T13:34:40.999Z</time></trkpt><trkpt lat="45.47230927785837" lon="7.787335589431736"><ele>713.0</ele><time>2026-04-26T13:34:41.999Z</time></trkpt><trkpt lat="45.472246873758316" lon="7.787251827846563"><ele>713.0</ele><time>2026-04-26T13:34:42.999Z</time></trkpt><trkpt lat="45.47218134056055" lon="7.787180123064949"><ele>713.0</ele><time>2026-04-26T13:34:43.999Z</time></trkpt><trkpt lat="45.472125767515436" lon="7.78713527201509"><ele>713.0</ele><time>2026-04-26T13:34:44.999Z</time></trkpt><trkpt lat="45.47205379903395" lon="7.787002027031356"><ele>713.0</ele><time>2026-04-26T13:34:46.999Z</time></trkpt><trkpt lat="45.47211476701909" lon="7.786865328754165"><ele>713.0</ele><time>2026-04-26T13:34:48.999Z</time></trkpt><trkpt lat="45.47216975593797" lon="7.786804391254112"><ele>713.0</ele><time>2026-04-26T13:34:49.999Z</time></trkpt><trkpt lat="45.47224041294264" lon="7.786733864846064"><ele>711.8333333333333</ele><time>2026-04-26T13:34:50.999Z</time></trkpt><trkpt lat="45.47231489401414" lon="7.786654375544687"><ele>710.6666666666666</ele><time>2026-04-26T13:34:51.999Z</time></trkpt><trkpt lat="45.47237714258158" lon="7.786583925645579"><ele>709.5</ele><time>2026-04-26T13:34:52.999Z</time></trkpt><trkpt lat="45.472443665901096" lon="7.786507892669083"><ele>708.3333333333334</ele><time>2026-04-26T13:34:53.999Z</time></trkpt><trkpt lat="45.47251933821669" lon="7.78642649242814"><ele>707.1666666666667</ele><time>2026-04-26T13:34:54.999Z</time></trkpt><trkpt lat="45.47257995493073" lon="7.78634256590128"><ele>706.0</ele><time>2026-04-26T13:34:55.999Z</time></trkpt><trkpt lat="45.47262671598098" lon="7.786244352554731"><ele>706.0</ele><time>2026-04-26T13:34:56.999Z</time></trkpt><trkpt lat="45.47267167112005" lon="7.786139861860853"><ele>706.0</ele><time>2026-04-26T13:34:57.999Z</time></trkpt><trkpt lat="45.47271330301677" lon="7.78604477188902"><ele>706.0</ele><time>2026-04-26T13:34:58.999Z</time></trkpt><trkpt lat="45.47276088244742" lon="7.78594977297387"><ele>706.0</ele><time>2026-04-26T13:34:59.999Z</time></trkpt><trkpt lat="45.472784542155175" lon="7.785838264391776"><ele>706.0</ele><time>2026-04-26T13:35:00.999Z</time></trkpt><trkpt lat="45.472787365661006" lon="7.7857233945875715"><ele>706.0</ele><time>2026-04-26T13:35:01.999Z</time></trkpt><trkpt lat="45.4727729212917" lon="7.7855968236746635"><ele>703.4</ele><time>2026-04-26T13:35:02.999Z</time></trkpt><trkpt lat="45.47275394298419" lon="7.78546843175433"><ele>700.8</ele><time>2026-04-26T13:35:03.999Z</time></trkpt><trkpt lat="45.472730252592896" lon="7.785337793847352"><ele>698.1999999999999</ele><time>2026-04-26T13:35:04.999Z</time></trkpt><trkpt lat="45.47271383124666" lon="7.785200974258172"><ele>695.5999999999999</ele><time>2026-04-26T13:35:05.999Z</time></trkpt><trkpt lat="45.472693337665284" lon="7.7850629778914175"><ele>693.0</ele><time>2026-04-26T13:35:06.999Z</time></trkpt><trkpt lat="45.47267228075339" lon="7.784930999103883"><ele>692.0</ele><time>2026-04-26T13:35:07.999Z</time></trkpt><trkpt lat="45.47264343137639" lon="7.784805050538466"><ele>691.0</ele><time>2026-04-26T13:35:08.999Z</time></trkpt><trkpt lat="45.472614779786205" lon="7.784681395574447"><ele>690.0</ele><time>2026-04-26T13:35:09.999Z</time></trkpt><trkpt lat="45.472600676042404" lon="7.784541148347921"><ele>689.0</ele><time>2026-04-26T13:35:10.999Z</time></trkpt><trkpt lat="45.472574142685936" lon="7.784403582921781"><ele>688.0</ele><time>2026-04-26T13:35:11.999Z</time></trkpt><trkpt lat="45.47254831031889" lon="7.784267056354774"><ele>687.2</ele><time>2026-04-26T13:35:12.999Z</time></trkpt><trkpt lat="45.47250612844134" lon="7.784139281652423"><ele>686.4</ele><time>2026-04-26T13:35:13.999Z</time></trkpt><trkpt lat="45.47246072708058" lon="7.784013473570241"><ele>685.6</ele><time>2026-04-26T13:35:14.999Z</time></trkpt><trkpt lat="45.47243039716812" lon="7.783895026349895"><ele>684.8000000000001</ele><time>2026-04-26T13:35:15.999Z</time></trkpt><trkpt lat="45.472425297252144" lon="7.783749036688145"><ele>684.0</ele><time>2026-04-26T13:35:16.998Z</time></trkpt><trkpt lat="45.47239676295031" lon="7.783619407272482"><ele>683.3333333333334</ele><time>2026-04-26T13:35:17.998Z</time></trkpt><trkpt lat="45.47239715426154" lon="7.783489556410598"><ele>682.6666666666666</ele><time>2026-04-26T13:35:18.998Z</time></trkpt><trkpt lat="45.47241824045432" lon="7.783377866851836"><ele>682.0</ele><time>2026-04-26T13:35:19.998Z</time></trkpt><trkpt lat="45.47246931279007" lon="7.783288529825601"><ele>681.3333333333333</ele><time>2026-04-26T13:35:20.998Z</time></trkpt><trkpt lat="45.47252585784224" lon="7.78321100026481"><ele>680.6666666666666</ele><time>2026-04-26T13:35:21.998Z</time></trkpt><trkpt lat="45.47257297346138" lon="7.783148843688417"><ele>680.0</ele><time>2026-04-26T13:35:22.998Z</time></trkpt><trkpt lat="45.47256792736385" lon="7.7830147728320025"><ele>680.0</ele><time>2026-04-26T13:35:24.998Z</time></trkpt><trkpt lat="45.47245041165716" lon="7.782986851102471"><ele>680.0</ele><time>2026-04-26T13:35:26.998Z</time></trkpt><trkpt lat="45.472366072673125" lon="7.783113289985739"><ele>680.0</ele><time>2026-04-26T13:35:28.998Z</time></trkpt><trkpt lat="45.4723312712364" lon="7.783196446847566"><ele>680.0</ele><time>2026-04-26T13:35:29.998Z</time></trkpt><trkpt lat="45.472285180817885" lon="7.783285572605767"><ele>680.0</ele><time>2026-04-26T13:35:30.998Z</time></trkpt><trkpt lat="45.47223273605545" lon="7.783371522716432"><ele>680.0</ele><time>2026-04-26T13:35:31.998Z</time></trkpt><trkpt lat="45.472198955770665" lon="7.783463102141371"><ele>680.0</ele><time>2026-04-26T13:35:32.998Z</time></trkpt><trkpt lat="45.47219975579875" lon="7.783557282422708"><ele>680.0</ele><time>2026-04-26T13:35:33.998Z</time></trkpt><trkpt lat="45.472208981526435" lon="7.783650387422313"><ele>680.0</ele><time>2026-04-26T13:35:34.998Z</time></trkpt><trkpt lat="45.47217335776216" lon="7.78377618348914"><ele>680.0</ele><time>2026-04-26T13:35:36.998Z</time></trkpt><trkpt lat="45.47208306120778" lon="7.7836988122932675"><ele>680.0</ele><time>2026-04-26T13:35:38.998Z</time></trkpt><trkpt lat="45.472106502131766" lon="7.783597915695095"><ele>680.0</ele><time>2026-04-26T13:35:39.998Z</time></trkpt><trkpt lat="45.47206468414721" lon="7.78344337895076"><ele>680.0</ele><time>2026-04-26T13:35:41.998Z</time></trkpt><trkpt lat="45.47204703785062" lon="7.783352430953127"><ele>680.0</ele><time>2026-04-26T13:35:42.998Z</time></trkpt><trkpt lat="45.47203260170346" lon="7.783262034065972"><ele>680.0</ele><time>2026-04-26T13:35:43.998Z</time></trkpt><trkpt lat="45.47205825761619" lon="7.783089617541104"><ele>680.0</ele><time>2026-04-26T13:35:45.998Z</time></trkpt><trkpt lat="45.47210620691016" lon="7.783007684303697"><ele>680.0</ele><time>2026-04-26T13:35:46.998Z</time></trkpt><trkpt lat="45.47217532356517" lon="7.782936227752114"><ele>680.0</ele><time>2026-04-26T13:35:47.998Z</time></trkpt><trkpt lat="45.472255878209936" lon="7.782870129839667"><ele>680.0</ele><time>2026-04-26T13:35:48.998Z</time></trkpt><trkpt lat="45.47234478584095" lon="7.782807003810483"><ele>680.0</ele><time>2026-04-26T13:35:49.998Z</time></trkpt><trkpt lat="45.472420282693726" lon="7.7827316617673254"><ele>680.0</ele><time>2026-04-26T13:35:50.998Z</time></trkpt><trkpt lat="45.47250122416872" lon="7.782672042195888"><ele>680.0</ele><time>2026-04-26T13:35:51.998Z</time></trkpt><trkpt lat="45.4725849280331" lon="7.7826337157104994"><ele>677.6</ele><time>2026-04-26T13:35:52.998Z</time></trkpt><trkpt lat="45.47267992473256" lon="7.782603957865976"><ele>675.2</ele><time>2026-04-26T13:35:53.998Z</time></trkpt><trkpt lat="45.47277966314546" lon="7.782584709957734"><ele>672.8</ele><time>2026-04-26T13:35:54.998Z</time></trkpt><trkpt lat="45.472866496948505" lon="7.782575491558714"><ele>670.4</ele><time>2026-04-26T13:35:55.998Z</time></trkpt><trkpt lat="45.472953367389096" lon="7.782619451034317"><ele>668.0</ele><time>2026-04-26T13:35:56.998Z</time></trkpt><trkpt lat="45.47306862413733" lon="7.782580361861148"><ele>666.8333333333333</ele><time>2026-04-26T13:35:57.998Z</time></trkpt><trkpt lat="45.47316606414646" lon="7.782559248868868"><ele>665.6666666666666</ele><time>2026-04-26T13:35:58.998Z</time></trkpt><trkpt lat="45.4732578419534" lon="7.782533683371973"><ele>664.5</ele><time>2026-04-26T13:35:59.998Z</time></trkpt><trkpt lat="45.473350874995425" lon="7.782511921707745"><ele>663.3333333333334</ele><time>2026-04-26T13:36:00.998Z</time></trkpt><trkpt lat="45.47343171001737" lon="7.782537873108358"><ele>662.1666666666667</ele><time>2026-04-26T13:36:01.998Z</time></trkpt><trkpt lat="45.47350769792928" lon="7.78255357447768"><ele>661.0</ele><time>2026-04-26T13:36:02.998Z</time></trkpt><trkpt lat="45.47357877287636" lon="7.78258781977836"><ele>661.0</ele><time>2026-04-26T13:36:03.998Z</time></trkpt><trkpt lat="45.47363684692499" lon="7.782645100610334"><ele>661.0</ele><time>2026-04-26T13:36:05Z</time></trkpt><trkpt lat="45.47372269597324" lon="7.782706305421176"><ele>661.0</ele><time>2026-04-26T13:36:06Z</time></trkpt><trkpt lat="45.47379379658429" lon="7.782759619855628"><ele>661.0</ele><time>2026-04-26T13:36:07Z</time></trkpt><trkpt lat="45.47385198181556" lon="7.782800825045422"><ele>661.0</ele><time>2026-04-26T13:36:08Z</time></trkpt><trkpt lat="45.47396948500922" lon="7.7828373737363234"><ele>661.0</ele><time>2026-04-26T13:36:10Z</time></trkpt><trkpt lat="45.47407615545512" lon="7.782789384061446"><ele>661.0</ele><time>2026-04-26T13:36:12Z</time></trkpt><trkpt lat="45.474078507921064" lon="7.782673530243344"><ele>661.0</ele><time>2026-04-26T13:36:13Z</time></trkpt><trkpt lat="45.474012572719275" lon="7.7826054056241105"><ele>661.0</ele><time>2026-04-26T13:36:14Z</time></trkpt><trkpt lat="45.473937579267954" lon="7.782613343694304"><ele>661.0</ele><time>2026-04-26T13:36:15Z</time></trkpt><trkpt lat="45.47381376634077" lon="7.782586440758253"><ele>661.0</ele><time>2026-04-26T13:36:17Z</time></trkpt><trkpt lat="45.47374518328274" lon="7.782508818525956"><ele>661.0</ele><time>2026-04-26T13:36:18Z</time></trkpt><trkpt lat="45.47366716444655" lon="7.78241924910181"><ele>661.0</ele><time>2026-04-26T13:36:19Z</time></trkpt><trkpt lat="45.473596316295456" lon="7.7823654086846705"><ele>661.0</ele><time>2026-04-26T13:36:20Z</time></trkpt><trkpt lat="45.47352183390004" lon="7.7823020042760165"><ele>661.0</ele><time>2026-04-26T13:36:21Z</time></trkpt><trkpt lat="45.4734280409224" lon="7.782266795139823"><ele>661.0</ele><time>2026-04-26T13:36:22Z</time></trkpt><trkpt lat="45.473329539818415" lon="7.782249761712113"><ele>661.0</ele><time>2026-04-26T13:36:23Z</time></trkpt><trkpt lat="45.47322855876034" lon="7.782208711682343"><ele>661.0</ele><time>2026-04-26T13:36:24Z</time></trkpt><trkpt lat="45.47313480109218" lon="7.782168626887262"><ele>661.0</ele><time>2026-04-26T13:36:25Z</time></trkpt><trkpt lat="45.473050450050096" lon="7.782096014120037"><ele>661.0</ele><time>2026-04-26T13:36:26Z</time></trkpt><trkpt lat="45.472968536870574" lon="7.782043158646612"><ele>661.0</ele><time>2026-04-26T13:36:27Z</time></trkpt><trkpt lat="45.47289779697717" lon="7.781975177207618"><ele>662.4</ele><time>2026-04-26T13:36:28Z</time></trkpt><trkpt lat="45.472806449699775" lon="7.781916117331202"><ele>663.8</ele><time>2026-04-26T13:36:29Z</time></trkpt><trkpt lat="45.4727084726167" lon="7.781864402168978"><ele>665.1999999999999</ele><time>2026-04-26T13:36:30Z</time></trkpt><trkpt lat="45.472602687560475" lon="7.781836501374653"><ele>666.5999999999999</ele><time>2026-04-26T13:36:31Z</time></trkpt><trkpt lat="45.47250411037846" lon="7.781819764922627"><ele>668.0</ele><time>2026-04-26T13:36:32Z</time></trkpt><trkpt lat="45.47240382456842" lon="7.781804185571212"><ele>665.1666666666666</ele><time>2026-04-26T13:36:32.999Z</time></trkpt><trkpt lat="45.4723155801602" lon="7.781764061361504"><ele>662.3333333333333</ele><time>2026-04-26T13:36:33.999Z</time></trkpt><trkpt lat="45.47222620903471" lon="7.781709579739687"><ele>659.5</ele><time>2026-04-26T13:36:34.999Z</time></trkpt><trkpt lat="45.47214468698428" lon="7.781659899230785"><ele>656.6666666666666</ele><time>2026-04-26T13:36:35.999Z</time></trkpt><trkpt lat="45.472064681463245" lon="7.781612554597945"><ele>653.8333333333334</ele><time>2026-04-26T13:36:36.999Z</time></trkpt><trkpt lat="45.47198963934359" lon="7.781569449511807"><ele>651.0</ele><time>2026-04-26T13:36:37.999Z</time></trkpt><trkpt lat="45.471917534611094" lon="7.78154561188769"><ele>651.0</ele><time>2026-04-26T13:36:38.999Z</time></trkpt><trkpt lat="45.47184854777722" lon="7.781527731020185"><ele>651.0</ele><time>2026-04-26T13:36:39.999Z</time></trkpt><trkpt lat="45.47174081948997" lon="7.781499510405956"><ele>651.0</ele><time>2026-04-26T13:36:41.999Z</time></trkpt><trkpt lat="45.47163141603234" lon="7.781483611141914"><ele>651.0</ele><time>2026-04-26T13:36:43.999Z</time></trkpt><trkpt lat="45.47154943872245" lon="7.78148607158262"><ele>651.0</ele><time>2026-04-26T13:36:44.999Z</time></trkpt><trkpt lat="45.4714681577003" lon="7.78151188755894"><ele>651.0</ele><time>2026-04-26T13:36:45.999Z</time></trkpt><trkpt lat="45.4713702945092" lon="7.781550040804904"><ele>651.0</ele><time>2026-04-26T13:36:46.999Z</time></trkpt><trkpt lat="45.47125688427187" lon="7.781581296712066"><ele>651.0</ele><time>2026-04-26T13:36:47.999Z</time></trkpt><trkpt lat="45.47114740703764" lon="7.78159673833448"><ele>651.0</ele><time>2026-04-26T13:36:48.999Z</time></trkpt><trkpt lat="45.47104670006202" lon="7.781577848815675"><ele>651.0</ele><time>2026-04-26T13:36:49.999Z</time></trkpt><trkpt lat="45.47093857459469" lon="7.781564981394157"><ele>649.8</ele><time>2026-04-26T13:36:50.999Z</time></trkpt><trkpt lat="45.47083223651418" lon="7.781574897647105"><ele>648.5999999999999</ele><time>2026-04-26T13:36:51.999Z</time></trkpt><trkpt lat="45.47072867763633" lon="7.78159948589498"><ele>647.4</ele><time>2026-04-26T13:36:52.999Z</time></trkpt><trkpt lat="45.47063279367941" lon="7.781656914874314"><ele>646.2</ele><time>2026-04-26T13:36:53.999Z</time></trkpt><trkpt lat="45.47053302926672" lon="7.781729332989043"><ele>645.0</ele><time>2026-04-26T13:36:54.999Z</time></trkpt><trkpt lat="45.470430616354506" lon="7.781830755023911"><ele>644.0</ele><time>2026-04-26T13:36:55.999Z</time></trkpt><trkpt lat="45.47032389185939" lon="7.781946584553342"><ele>643.0</ele><time>2026-04-26T13:36:56.999Z</time></trkpt><trkpt lat="45.47020645843666" lon="7.782062938254162"><ele>642.0</ele><time>2026-04-26T13:36:57.999Z</time></trkpt><trkpt lat="45.470095634751466" lon="7.7821736673716595"><ele>641.0</ele><time>2026-04-26T13:36:58.999Z</time></trkpt><trkpt lat="45.46999386634496" lon="7.782291281369717"><ele>641.0</ele><time>2026-04-26T13:36:59.999Z</time></trkpt><trkpt lat="45.4698963734863" lon="7.782406005824906"><ele>641.0</ele><time>2026-04-26T13:37:00.999Z</time></trkpt><trkpt lat="45.46979569757635" lon="7.782507032662915"><ele>641.0</ele><time>2026-04-26T13:37:01.999Z</time></trkpt><trkpt lat="45.46969758646449" lon="7.782585326972228"><ele>641.0</ele><time>2026-04-26T13:37:02.999Z</time></trkpt><trkpt lat="45.46958132609531" lon="7.782651620795582"><ele>640.4</ele><time>2026-04-26T13:37:03.999Z</time></trkpt><trkpt lat="45.46946796038727" lon="7.782676961580282"><ele>639.8</ele><time>2026-04-26T13:37:04.999Z</time></trkpt><trkpt lat="45.46935572124338" lon="7.782668973993884"><ele>639.1999999999999</ele><time>2026-04-26T13:37:05.999Z</time></trkpt><trkpt lat="45.46925336831066" lon="7.782621792904713"><ele>638.5999999999999</ele><time>2026-04-26T13:37:06.999Z</time></trkpt><trkpt lat="45.46916119990739" lon="7.782563052373199"><ele>638.0</ele><time>2026-04-26T13:37:07.999Z</time></trkpt><trkpt lat="45.46907805938287" lon="7.7824911515580455"><ele>638.0</ele><time>2026-04-26T13:37:08.999Z</time></trkpt><trkpt lat="45.46900253446417" lon="7.78241451540222"><ele>638.0</ele><time>2026-04-26T13:37:09.999Z</time></trkpt><trkpt lat="45.46893479868425" lon="7.782339378864098"><ele>638.0</ele><time>2026-04-26T13:37:10.999Z</time></trkpt><trkpt lat="45.46886548265917" lon="7.782269389200395"><ele>638.0</ele><time>2026-04-26T13:37:11.999Z</time></trkpt><trkpt lat="45.46879320120769" lon="7.782215327859668"><ele>638.0</ele><time>2026-04-26T13:37:12.999Z</time></trkpt><trkpt lat="45.4687168536732" lon="7.782173069519836"><ele>638.0</ele><time>2026-04-26T13:37:13.999Z</time></trkpt><trkpt lat="45.46862905391988" lon="7.7821481166816815"><ele>638.5999999999999</ele><time>2026-04-26T13:37:14.999Z</time></trkpt><trkpt lat="45.468533327653326" lon="7.782140567126697"><ele>639.1999999999999</ele><time>2026-04-26T13:37:15.999Z</time></trkpt><trkpt lat="45.46842809073382" lon="7.782121434765652"><ele>639.8</ele><time>2026-04-26T13:37:16.999Z</time></trkpt><trkpt lat="45.468313436045285" lon="7.782110410851375"><ele>640.4</ele><time>2026-04-26T13:37:17.999Z</time></trkpt><trkpt lat="45.46818649572741" lon="7.7821034594189555"><ele>641.0</ele><time>2026-04-26T13:37:18.999Z</time></trkpt><trkpt lat="45.468047934544124" lon="7.782111788058365"><ele>641.75</ele><time>2026-04-26T13:37:19.999Z</time></trkpt><trkpt lat="45.467920747015825" lon="7.7821317546422355"><ele>642.5</ele><time>2026-04-26T13:37:20.999Z</time></trkpt><trkpt lat="45.46775443614101" lon="7.782159575861233"><ele>643.25</ele><time>2026-04-26T13:37:21.999Z</time></trkpt><trkpt lat="45.46761140944721" lon="7.7822038373173354"><ele>644.0</ele><time>2026-04-26T13:37:22.999Z</time></trkpt><trkpt lat="45.46746909558415" lon="7.782191745308446"><ele>644.0</ele><time>2026-04-26T13:37:23.999Z</time></trkpt><trkpt lat="45.46733102964231" lon="7.78218369915309"><ele>644.0</ele><time>2026-04-26T13:37:24.998Z</time></trkpt><trkpt lat="45.46719483946802" lon="7.782187978228945"><ele>644.0</ele><time>2026-04-26T13:37:25.998Z</time></trkpt><trkpt lat="45.46706046357329" lon="7.7821550773828"><ele>644.0</ele><time>2026-04-26T13:37:26.998Z</time></trkpt><trkpt lat="45.466928732164256" lon="7.782099516896865"><ele>645.75</ele><time>2026-04-26T13:37:27.998Z</time></trkpt><trkpt lat="45.466809450088356" lon="7.782044122758632"><ele>647.5</ele><time>2026-04-26T13:37:28.998Z</time></trkpt><trkpt lat="45.46669569230192" lon="7.781961893049019"><ele>649.25</ele><time>2026-04-26T13:37:29.998Z</time></trkpt><trkpt lat="45.46657764503521" lon="7.781864379401545"><ele>651.0</ele><time>2026-04-26T13:37:30.998Z</time></trkpt><trkpt lat="45.466453256355976" lon="7.781754448453863"><ele>649.3333333333334</ele><time>2026-04-26T13:37:31.998Z</time></trkpt><trkpt lat="45.466315454471264" lon="7.7816534917346765"><ele>647.6666666666667</ele><time>2026-04-26T13:37:32.998Z</time></trkpt><trkpt lat="45.466186818292016" lon="7.781529913720371"><ele>646.0</ele><time>2026-04-26T13:37:33.998Z</time></trkpt><trkpt lat="45.466060988353824" lon="7.781412751792987"><ele>646.0</ele><time>2026-04-26T13:37:34.998Z</time></trkpt><trkpt lat="45.46593519162086" lon="7.781294480857145"><ele>646.0</ele><time>2026-04-26T13:37:35.998Z</time></trkpt><trkpt lat="45.46580488567685" lon="7.781179920924513"><ele>646.0</ele><time>2026-04-26T13:37:36.998Z</time></trkpt><trkpt lat="45.46567097003122" lon="7.781067055288345"><ele>647.0</ele><time>2026-04-26T13:37:37.998Z</time></trkpt><trkpt lat="45.46553574618326" lon="7.780958263235882"><ele>648.0</ele><time>2026-04-26T13:37:38.998Z</time></trkpt><trkpt lat="45.46540878625656" lon="7.780827450658465"><ele>649.0</ele><time>2026-04-26T13:37:39.998Z</time></trkpt><trkpt lat="45.465285410930534" lon="7.780704669490853"><ele>649.0</ele><time>2026-04-26T13:37:40.998Z</time></trkpt><trkpt lat="45.46516535703462" lon="7.780575719036162"><ele>649.0</ele><time>2026-04-26T13:37:41.998Z</time></trkpt><trkpt lat="45.465055941175436" lon="7.780441067010959"><ele>649.0</ele><time>2026-04-26T13:37:42.998Z</time></trkpt><trkpt lat="45.46495950981291" lon="7.780298808290999"><ele>649.0</ele><time>2026-04-26T13:37:43.998Z</time></trkpt><trkpt lat="45.4648604163797" lon="7.780141171765245"><ele>652.0</ele><time>2026-04-26T13:37:44.998Z</time></trkpt><trkpt lat="45.464752750890895" lon="7.780002690198832"><ele>655.0</ele><time>2026-04-26T13:37:45.998Z</time></trkpt><trkpt lat="45.46466507024206" lon="7.779850184516622"><ele>658.0</ele><time>2026-04-26T13:37:46.998Z</time></trkpt><trkpt lat="45.464603217551954" lon="7.779683902397271"><ele>661.0</ele><time>2026-04-26T13:37:47.998Z</time></trkpt><trkpt lat="45.46453491370349" lon="7.7795198431205375"><ele>661.0</ele><time>2026-04-26T13:37:48.998Z</time></trkpt><trkpt lat="45.46446269505024" lon="7.779361825929486"><ele>661.0</ele><time>2026-04-26T13:37:49.998Z</time></trkpt><trkpt lat="45.46440525015639" lon="7.77918361167332"><ele>661.0</ele><time>2026-04-26T13:37:50.998Z</time></trkpt><trkpt lat="45.464334993041696" lon="7.779022703992665"><ele>661.0</ele><time>2026-04-26T13:37:51.998Z</time></trkpt><trkpt lat="45.464251721487464" lon="7.778883564395207"><ele>656.5</ele><time>2026-04-26T13:37:52.998Z</time></trkpt><trkpt lat="45.46416056784564" lon="7.778755307273797"><ele>652.0</ele><time>2026-04-26T13:37:53.998Z</time></trkpt><trkpt lat="45.464094318309165" lon="7.778606637932162"><ele>647.5</ele><time>2026-04-26T13:37:54.998Z</time></trkpt><trkpt lat="45.46403490318788" lon="7.778462372906759"><ele>643.0</ele><time>2026-04-26T13:37:55.998Z</time></trkpt><trkpt lat="45.46399104609844" lon="7.7782964048132035"><ele>637.5</ele><time>2026-04-26T13:37:56.998Z</time></trkpt><trkpt lat="45.46395653590488" lon="7.778119526106958"><ele>632.0</ele><time>2026-04-26T13:37:57.998Z</time></trkpt><trkpt lat="45.463910344991845" lon="7.777934662092601"><ele>626.5</ele><time>2026-04-26T13:37:58.998Z</time></trkpt><trkpt lat="45.46387917063476" lon="7.777741340486955"><ele>621.0</ele><time>2026-04-26T13:37:59.998Z</time></trkpt><trkpt lat="45.46383856332567" lon="7.777552267179993"><ele>619.0</ele><time>2026-04-26T13:38:00.998Z</time></trkpt><trkpt lat="45.46378279032824" lon="7.777381818757787"><ele>617.0</ele><time>2026-04-26T13:38:01.998Z</time></trkpt><trkpt lat="45.463715689110316" lon="7.777216475353772"><ele>615.0</ele><time>2026-04-26T13:38:02.998Z</time></trkpt><trkpt lat="45.463638247887005" lon="7.7770607568813235"><ele>613.0</ele><time>2026-04-26T13:38:03.998Z</time></trkpt><trkpt lat="45.4635537439156" lon="7.7769129708000575"><ele>619.25</ele><time>2026-04-26T13:38:04.998Z</time></trkpt><trkpt lat="45.463499183311086" lon="7.776746736346098"><ele>625.5</ele><time>2026-04-26T13:38:05.998Z</time></trkpt><trkpt lat="45.463453298569455" lon="7.776591271521774"><ele>631.75</ele><time>2026-04-26T13:38:06.998Z</time></trkpt><trkpt lat="45.463429210575256" lon="7.776419641034592"><ele>638.0</ele><time>2026-04-26T13:38:07.998Z</time></trkpt><trkpt lat="45.46343406916095" lon="7.776243784421098"><ele>638.0</ele><time>2026-04-26T13:38:08.998Z</time></trkpt><trkpt lat="45.46346091653781" lon="7.77606616385654"><ele>638.0</ele><time>2026-04-26T13:38:09.998Z</time></trkpt><trkpt lat="45.463506775507824" lon="7.775890931856096"><ele>638.0</ele><time>2026-04-26T13:38:11Z</time></trkpt><trkpt lat="45.46356262898858" lon="7.775707309496362"><ele>638.0</ele><time>2026-04-26T13:38:12Z</time></trkpt><trkpt lat="45.463623727911646" lon="7.775531813710173"><ele>638.0</ele><time>2026-04-26T13:38:13Z</time></trkpt><trkpt lat="45.463666663759206" lon="7.775355216864629"><ele>638.0</ele><time>2026-04-26T13:38:14Z</time></trkpt><trkpt lat="45.463696188711864" lon="7.77518753305103"><ele>638.0</ele><time>2026-04-26T13:38:15Z</time></trkpt><trkpt lat="45.463723006250184" lon="7.775023518435717"><ele>638.0</ele><time>2026-04-26T13:38:16Z</time></trkpt><trkpt lat="45.46373559384923" lon="7.774864856991507"><ele>638.0</ele><time>2026-04-26T13:38:17Z</time></trkpt><trkpt lat="45.46372855891412" lon="7.7747025881246055"><ele>638.0</ele><time>2026-04-26T13:38:18Z</time></trkpt><trkpt lat="45.463703882051945" lon="7.774530853125287"><ele>638.0</ele><time>2026-04-26T13:38:19Z</time></trkpt><trkpt lat="45.463669488596025" lon="7.7743448278804435"><ele>638.0</ele><time>2026-04-26T13:38:20Z</time></trkpt><trkpt lat="45.4636276014391" lon="7.7741449256288675"><ele>637.0</ele><time>2026-04-26T13:38:21Z</time></trkpt><trkpt lat="45.46357154353959" lon="7.773941856778325"><ele>636.0</ele><time>2026-04-26T13:38:22Z</time></trkpt><trkpt lat="45.46351519391986" lon="7.773738594740234"><ele>635.0</ele><time>2026-04-26T13:38:23Z</time></trkpt><trkpt lat="45.463462758236155" lon="7.773542981870322"><ele>631.5</ele><time>2026-04-26T13:38:24Z</time></trkpt><trkpt lat="45.46341653440122" lon="7.773354607301444"><ele>628.0</ele><time>2026-04-26T13:38:25Z</time></trkpt><trkpt lat="45.46336151176283" lon="7.7731798800395895"><ele>624.5</ele><time>2026-04-26T13:38:26Z</time></trkpt><trkpt lat="45.46329394680269" lon="7.773016117447622"><ele>621.0</ele><time>2026-04-26T13:38:27Z</time></trkpt><trkpt lat="45.46320589166841" lon="7.772873302368961"><ele>621.0</ele><time>2026-04-26T13:38:28Z</time></trkpt><trkpt lat="45.46311108520961" lon="7.772733150024025"><ele>621.0</ele><time>2026-04-26T13:38:29Z</time></trkpt><trkpt lat="45.46301072696937" lon="7.772597389896691"><ele>621.0</ele><time>2026-04-26T13:38:30Z</time></trkpt><trkpt lat="45.462912808902345" lon="7.772460307047067"><ele>621.0</ele><time>2026-04-26T13:38:31Z</time></trkpt><trkpt lat="45.46280931645415" lon="7.772328827959975"><ele>623.75</ele><time>2026-04-26T13:38:32Z</time></trkpt><trkpt lat="45.462708519387014" lon="7.772195932207292"><ele>626.5</ele><time>2026-04-26T13:38:33Z</time></trkpt><trkpt lat="45.46261155108985" lon="7.772066914330887"><ele>629.25</ele><time>2026-04-26T13:38:34Z</time></trkpt><trkpt lat="45.46252433057245" lon="7.771941415200095"><ele>632.0</ele><time>2026-04-26T13:38:35Z</time></trkpt><trkpt lat="45.46244714232522" lon="7.771812347150479"><ele>628.2</ele><time>2026-04-26T13:38:36Z</time></trkpt><trkpt lat="45.462374350723465" lon="7.771685967813222"><ele>624.4000000000001</ele><time>2026-04-26T13:38:37Z</time></trkpt><trkpt lat="45.462314746694496" lon="7.771565622234307"><ele>620.5999999999999</ele><time>2026-04-26T13:38:37.999Z</time></trkpt><trkpt lat="45.46224952142762" lon="7.771459930091222"><ele>616.8</ele><time>2026-04-26T13:38:38.999Z</time></trkpt><trkpt lat="45.46218007876639" lon="7.771376833913816"><ele>613.0</ele><time>2026-04-26T13:38:39.999Z</time></trkpt><trkpt lat="45.46210506481245" lon="7.771324859241331"><ele>613.0</ele><time>2026-04-26T13:38:40.999Z</time></trkpt><trkpt lat="45.46203999219224" lon="7.771279325349589"><ele>613.0</ele><time>2026-04-26T13:38:41.999Z</time></trkpt><trkpt lat="45.46196229393547" lon="7.771261802391935"><ele>613.0</ele><time>2026-04-26T13:38:42.999Z</time></trkpt><trkpt lat="45.46188206428148" lon="7.771279776241635"><ele>613.0</ele><time>2026-04-26T13:38:43.999Z</time></trkpt><trkpt lat="45.461797624844365" lon="7.771319621549163"><ele>613.0</ele><time>2026-04-26T13:38:44.999Z</time></trkpt><trkpt lat="45.461725393683956" lon="7.771397745923807"><ele>613.0</ele><time>2026-04-26T13:38:45.999Z</time></trkpt><trkpt lat="45.46166652515251" lon="7.771493852114259"><ele>613.0</ele><time>2026-04-26T13:38:46.999Z</time></trkpt><trkpt lat="45.46163364380236" lon="7.771620348744497"><ele>613.0</ele><time>2026-04-26T13:38:47.999Z</time></trkpt><trkpt lat="45.46161715556344" lon="7.771755015114746"><ele>613.0</ele><time>2026-04-26T13:38:48.999Z</time></trkpt><trkpt lat="45.46161301477449" lon="7.771889084660535"><ele>613.0</ele><time>2026-04-26T13:38:49.999Z</time></trkpt><trkpt lat="45.46160340934016" lon="7.772011042401597"><ele>613.0</ele><time>2026-04-26T13:38:50.999Z</time></trkpt><trkpt lat="45.46159394127899" lon="7.772119748410261"><ele>613.0</ele><time>2026-04-26T13:38:51.999Z</time></trkpt><trkpt lat="45.46158052613524" lon="7.772218794094666"><ele>614.1666666666667</ele><time>2026-04-26T13:38:52.999Z</time></trkpt><trkpt lat="45.46154150996343" lon="7.772289777404643"><ele>615.3333333333334</ele><time>2026-04-26T13:38:53.999Z</time></trkpt><trkpt lat="45.46147756590368" lon="7.77231897920207"><ele>616.5</ele><time>2026-04-26T13:38:54.999Z</time></trkpt><trkpt lat="45.46141371456498" lon="7.772292585364027"><ele>617.6666666666666</ele><time>2026-04-26T13:38:55.999Z</time></trkpt><trkpt lat="45.46137220203016" lon="7.772098771755873"><ele>618.8333333333333</ele><time>2026-04-26T13:38:57.999Z</time></trkpt><trkpt lat="45.461346114998946" lon="7.771995839793371"><ele>620.0</ele><time>2026-04-26T13:38:58.999Z</time></trkpt><trkpt lat="45.46130184269254" lon="7.771859785820005"><ele>613.25</ele><time>2026-04-26T13:38:59.999Z</time></trkpt><trkpt lat="45.461261815941654" lon="7.771712562312443"><ele>606.5</ele><time>2026-04-26T13:39:00.999Z</time></trkpt><trkpt lat="45.46121517304651" lon="7.771543283676963"><ele>599.75</ele><time>2026-04-26T13:39:01.999Z</time></trkpt><trkpt lat="45.46117000565853" lon="7.771371331127511"><ele>593.0</ele><time>2026-04-26T13:39:02.999Z</time></trkpt><trkpt lat="45.46112409670695" lon="7.7711884168847485"><ele>592.75</ele><time>2026-04-26T13:39:03.999Z</time></trkpt><trkpt lat="45.46108179594846" lon="7.771013790509101"><ele>592.5</ele><time>2026-04-26T13:39:04.999Z</time></trkpt><trkpt lat="45.4610452742329" lon="7.770826075714777"><ele>592.25</ele><time>2026-04-26T13:39:05.999Z</time></trkpt><trkpt lat="45.46101016527471" lon="7.770638243486633"><ele>592.0</ele><time>2026-04-26T13:39:06.999Z</time></trkpt><trkpt lat="45.46097477781141" lon="7.770447895895363"><ele>592.0</ele><time>2026-04-26T13:39:07.999Z</time></trkpt><trkpt lat="45.460923911084876" lon="7.770244123843533"><ele>592.0</ele><time>2026-04-26T13:39:08.999Z</time></trkpt><trkpt lat="45.46086105694545" lon="7.770060934101345"><ele>592.0</ele><time>2026-04-26T13:39:09.999Z</time></trkpt><trkpt lat="45.46078858774746" lon="7.769893833614518"><ele>592.0</ele><time>2026-04-26T13:39:10.999Z</time></trkpt><trkpt lat="45.460713796052126" lon="7.769727743419619"><ele>592.5</ele><time>2026-04-26T13:39:11.999Z</time></trkpt><trkpt lat="45.46063968200883" lon="7.7695528458103205"><ele>593.0</ele><time>2026-04-26T13:39:12.999Z</time></trkpt><trkpt lat="45.46059962167567" lon="7.7693681588433385"><ele>593.5</ele><time>2026-04-26T13:39:13.999Z</time></trkpt><trkpt lat="45.460556614411004" lon="7.769193229116434"><ele>594.0</ele><time>2026-04-26T13:39:14.999Z</time></trkpt><trkpt lat="45.46050546183601" lon="7.769023452924087"><ele>595.25</ele><time>2026-04-26T13:39:15.999Z</time></trkpt><trkpt lat="45.460452789356886" lon="7.768858516765128"><ele>596.5</ele><time>2026-04-26T13:39:16.999Z</time></trkpt><trkpt lat="45.460382278955315" lon="7.7687031197675385"><ele>597.75</ele><time>2026-04-26T13:39:17.999Z</time></trkpt><trkpt lat="45.46030987876933" lon="7.768555380434706"><ele>599.0</ele><time>2026-04-26T13:39:18.999Z</time></trkpt><trkpt lat="45.4602332699616" lon="7.768410580181096"><ele>595.75</ele><time>2026-04-26T13:39:19.999Z</time></trkpt><trkpt lat="45.46014674922566" lon="7.768273168174253"><ele>592.5</ele><time>2026-04-26T13:39:20.999Z</time></trkpt><trkpt lat="45.46004680106055" lon="7.76815311147022"><ele>589.25</ele><time>2026-04-26T13:39:21.999Z</time></trkpt><trkpt lat="45.459937916623005" lon="7.768040401312717"><ele>586.0</ele><time>2026-04-26T13:39:22.999Z</time></trkpt><trkpt lat="45.45982509041191" lon="7.767920501075248"><ele>586.0</ele><time>2026-04-26T13:39:23.999Z</time></trkpt><trkpt lat="45.45971328732528" lon="7.767802641109399"><ele>586.0</ele><time>2026-04-26T13:39:24.999Z</time></trkpt><trkpt lat="45.45960836339382" lon="7.76768518133798"><ele>586.0</ele><time>2026-04-26T13:39:25.999Z</time></trkpt><trkpt lat="45.45951099429798" lon="7.767571220181728"><ele>586.0</ele><time>2026-04-26T13:39:26.999Z</time></trkpt><trkpt lat="45.4594182273056" lon="7.767455348252176"><ele>584.25</ele><time>2026-04-26T13:39:27.999Z</time></trkpt><trkpt lat="45.45932393208146" lon="7.767346812754612"><ele>582.5</ele><time>2026-04-26T13:39:28.998Z</time></trkpt><trkpt lat="45.45921537409803" lon="7.76726011754183"><ele>580.75</ele><time>2026-04-26T13:39:29.998Z</time></trkpt><trkpt lat="45.45909794754062" lon="7.767205974837001"><ele>579.0</ele><time>2026-04-26T13:39:30.998Z</time></trkpt><trkpt lat="45.458971316816566" lon="7.7671714684970805"><ele>579.0</ele><time>2026-04-26T13:39:31.998Z</time></trkpt><trkpt lat="45.4588360470385" lon="7.767159598849366"><ele>579.0</ele><time>2026-04-26T13:39:32.998Z</time></trkpt><trkpt lat="45.458694014899805" lon="7.7671520594650145"><ele>579.0</ele><time>2026-04-26T13:39:33.998Z</time></trkpt><trkpt lat="45.45854950944056" lon="7.7671374569324225"><ele>579.0</ele><time>2026-04-26T13:39:34.998Z</time></trkpt><trkpt lat="45.458408795319045" lon="7.767130670040081"><ele>578.75</ele><time>2026-04-26T13:39:35.998Z</time></trkpt><trkpt lat="45.45827490211553" lon="7.767125958383051"><ele>578.5</ele><time>2026-04-26T13:39:36.998Z</time></trkpt><trkpt lat="45.458139135684924" lon="7.767122936880107"><ele>578.25</ele><time>2026-04-26T13:39:37.998Z</time></trkpt><trkpt lat="45.45800594064481" lon="7.767099769732285"><ele>578.0</ele><time>2026-04-26T13:39:38.998Z</time></trkpt><trkpt lat="45.457872662504506" lon="7.767053816192409"><ele>578.0</ele><time>2026-04-26T13:39:39.998Z</time></trkpt><trkpt lat="45.45773861012049" lon="7.767001495858929"><ele>578.0</ele><time>2026-04-26T13:39:40.998Z</time></trkpt><trkpt lat="45.457612865217186" lon="7.766910089795806"><ele>578.0</ele><time>2026-04-26T13:39:41.998Z</time></trkpt><trkpt lat="45.45747642424748" lon="7.7668684159058365"><ele>578.0</ele><time>2026-04-26T13:39:42.998Z</time></trkpt><trkpt lat="45.45734391872667" lon="7.766814807700773"><ele>576.25</ele><time>2026-04-26T13:39:43.998Z</time></trkpt><trkpt lat="45.457207538386946" lon="7.766800982768475"><ele>574.5</ele><time>2026-04-26T13:39:44.998Z</time></trkpt><trkpt lat="45.45707103079018" lon="7.766799794269411"><ele>572.75</ele><time>2026-04-26T13:39:45.998Z</time></trkpt><trkpt lat="45.456931334658854" lon="7.76679525374074"><ele>571.0</ele><time>2026-04-26T13:39:46.998Z</time></trkpt><trkpt lat="45.45679494093606" lon="7.766744078174812"><ele>570.25</ele><time>2026-04-26T13:39:47.998Z</time></trkpt><trkpt lat="45.45665133492349" lon="7.766722339178392"><ele>569.5</ele><time>2026-04-26T13:39:48.998Z</time></trkpt><trkpt lat="45.45651836643375" lon="7.766688680631794"><ele>568.75</ele><time>2026-04-26T13:39:49.998Z</time></trkpt><trkpt lat="45.45638676011378" lon="7.766696509611261"><ele>568.0</ele><time>2026-04-26T13:39:50.998Z</time></trkpt><trkpt lat="45.45625583025402" lon="7.766745290684674"><ele>567.75</ele><time>2026-04-26T13:39:51.998Z</time></trkpt><trkpt lat="45.45612784987566" lon="7.766767796788496"><ele>567.5</ele><time>2026-04-26T13:39:52.998Z</time></trkpt><trkpt lat="45.456016576678834" lon="7.766814640403549"><ele>567.25</ele><time>2026-04-26T13:39:53.998Z</time></trkpt><trkpt lat="45.455898112416186" lon="7.766794551889179"><ele>567.0</ele><time>2026-04-26T13:39:54.998Z</time></trkpt><trkpt lat="45.45578263972083" lon="7.766757945917787"><ele>567.0</ele><time>2026-04-26T13:39:55.998Z</time></trkpt><trkpt lat="45.45567160904516" lon="7.766698930576663"><ele>567.0</ele><time>2026-04-26T13:39:56.998Z</time></trkpt><trkpt lat="45.45557403171704" lon="7.7666166954650455"><ele>567.0</ele><time>2026-04-26T13:39:57.998Z</time></trkpt><trkpt lat="45.455486544733645" lon="7.766527903239833"><ele>567.0</ele><time>2026-04-26T13:39:58.998Z</time></trkpt><trkpt lat="45.45540684801324" lon="7.766446527415389"><ele>567.0</ele><time>2026-04-26T13:39:59.998Z</time></trkpt><trkpt lat="45.45532082982703" lon="7.766400464349446"><ele>567.0</ele><time>2026-04-26T13:40:00.998Z</time></trkpt><trkpt lat="45.455226681347746" lon="7.766382628494534"><ele>567.0</ele><time>2026-04-26T13:40:01.998Z</time></trkpt><trkpt lat="45.4551186433909" lon="7.766403285859225"><ele>567.0</ele><time>2026-04-26T13:40:02.998Z</time></trkpt><trkpt lat="45.455003203553794" lon="7.766443801801716"><ele>567.0</ele><time>2026-04-26T13:40:03.998Z</time></trkpt><trkpt lat="45.45487968363654" lon="7.766486774783539"><ele>567.0</ele><time>2026-04-26T13:40:04.998Z</time></trkpt><trkpt lat="45.454739326795284" lon="7.766530911013251"><ele>567.0</ele><time>2026-04-26T13:40:05.998Z</time></trkpt><trkpt lat="45.45459569530037" lon="7.766575442364917"><ele>567.0</ele><time>2026-04-26T13:40:06.998Z</time></trkpt><trkpt lat="45.454457011532256" lon="7.76661524775954"><ele>567.0</ele><time>2026-04-26T13:40:07.998Z</time></trkpt><trkpt lat="45.45432428527311" lon="7.766656050843184"><ele>566.75</ele><time>2026-04-26T13:40:08.998Z</time></trkpt><trkpt lat="45.45419900267378" lon="7.766694617552475"><ele>566.5</ele><time>2026-04-26T13:40:09.998Z</time></trkpt><trkpt lat="45.45408410927353" lon="7.766738868587006"><ele>566.25</ele><time>2026-04-26T13:40:10.998Z</time></trkpt><trkpt lat="45.45397365610337" lon="7.766786997319709"><ele>566.0</ele><time>2026-04-26T13:40:11.998Z</time></trkpt><trkpt lat="45.4538649162375" lon="7.766839521588409"><ele>565.5</ele><time>2026-04-26T13:40:12.998Z</time></trkpt><trkpt lat="45.45375988918704" lon="7.766901821578681"><ele>565.0</ele><time>2026-04-26T13:40:13.998Z</time></trkpt><trkpt lat="45.45364919918147" lon="7.766968236968732"><ele>564.5</ele><time>2026-04-26T13:40:14.998Z</time></trkpt><trkpt lat="45.453532762472" lon="7.767035606763273"><ele>564.0</ele><time>2026-04-26T13:40:15.998Z</time></trkpt><trkpt lat="45.45340878489757" lon="7.767102543556066"><ele>564.0</ele><time>2026-04-26T13:40:17Z</time></trkpt><trkpt lat="45.45328330004465" lon="7.767169127676802"><ele>564.0</ele><time>2026-04-26T13:40:18Z</time></trkpt><trkpt lat="45.45316566143859" lon="7.767232840010513"><ele>564.0</ele><time>2026-04-26T13:40:19Z</time></trkpt><trkpt lat="45.453054996230236" lon="7.767289176752411"><ele>564.0</ele><time>2026-04-26T13:40:20Z</time></trkpt><trkpt lat="45.45295394961259" lon="7.767352187354523"><ele>565.0</ele><time>2026-04-26T13:40:21Z</time></trkpt><trkpt lat="45.45285518006197" lon="7.767401338177455"><ele>566.0</ele><time>2026-04-26T13:40:22Z</time></trkpt><trkpt lat="45.45275777318507" lon="7.767423233742398"><ele>567.0</ele><time>2026-04-26T13:40:23Z</time></trkpt><trkpt lat="45.452660311897105" lon="7.767420672451236"><ele>568.0</ele><time>2026-04-26T13:40:24Z</time></trkpt><trkpt lat="45.452561575713524" lon="7.767395795354756"><ele>569.0</ele><time>2026-04-26T13:40:25Z</time></trkpt><trkpt lat="45.452466959161264" lon="7.767330966372554"><ele>569.0</ele><time>2026-04-26T13:40:26Z</time></trkpt><trkpt lat="45.452377320987736" lon="7.76724895465994"><ele>569.0</ele><time>2026-04-26T13:40:27Z</time></trkpt><trkpt lat="45.452299512414875" lon="7.767137315680296"><ele>569.0</ele><time>2026-04-26T13:40:28Z</time></trkpt><trkpt lat="45.45223821751505" lon="7.767011057899841"><ele>569.0</ele><time>2026-04-26T13:40:29Z</time></trkpt><trkpt lat="45.45218189783996" lon="7.7668953541474925"><ele>569.0</ele><time>2026-04-26T13:40:30Z</time></trkpt><trkpt lat="45.45212629350002" lon="7.766802054626178"><ele>567.6666666666666</ele><time>2026-04-26T13:40:31Z</time></trkpt><trkpt lat="45.452067156903496" lon="7.7667368826749135"><ele>566.3333333333333</ele><time>2026-04-26T13:40:32Z</time></trkpt><trkpt lat="45.45199874292616" lon="7.766691781008377"><ele>565.0</ele><time>2026-04-26T13:40:33Z</time></trkpt><trkpt lat="45.451923768990156" lon="7.766699659608812"><ele>563.6666666666666</ele><time>2026-04-26T13:40:34Z</time></trkpt><trkpt lat="45.45186092737575" lon="7.766759717200015"><ele>562.3333333333334</ele><time>2026-04-26T13:40:35Z</time></trkpt><trkpt lat="45.45181497542875" lon="7.766855048186029"><ele>561.0</ele><time>2026-04-26T13:40:36Z</time></trkpt><trkpt lat="45.45176486640566" lon="7.766967955898394"><ele>561.0</ele><time>2026-04-26T13:40:37Z</time></trkpt><trkpt lat="45.451705334603346" lon="7.767086938968279"><ele>561.0</ele><time>2026-04-26T13:40:38Z</time></trkpt><trkpt lat="45.45164165231728" lon="7.7672062530603965"><ele>561.0</ele><time>2026-04-26T13:40:39Z</time></trkpt><trkpt lat="45.45157852501312" lon="7.767318555866789"><ele>561.0</ele><time>2026-04-26T13:40:40Z</time></trkpt><trkpt lat="45.45152738939374" lon="7.767419247523665"><ele>561.0</ele><time>2026-04-26T13:40:40.999Z</time></trkpt><trkpt lat="45.451501052675425" lon="7.767539523798456"><ele>561.0</ele><time>2026-04-26T13:40:41.999Z</time></trkpt><trkpt lat="45.45151015178011" lon="7.76766927645944"><ele>561.0</ele><time>2026-04-26T13:40:42.999Z</time></trkpt><trkpt lat="45.45154301151297" lon="7.7678026496108865"><ele>561.0</ele><time>2026-04-26T13:40:43.999Z</time></trkpt><trkpt lat="45.45158856148028" lon="7.767939282922641"><ele>561.0</ele><time>2026-04-26T13:40:44.999Z</time></trkpt><trkpt lat="45.45162633601471" lon="7.768070238415717"><ele>561.0</ele><time>2026-04-26T13:40:45.999Z</time></trkpt><trkpt lat="45.45165652549188" lon="7.768200322081991"><ele>561.4</ele><time>2026-04-26T13:40:46.999Z</time></trkpt><trkpt lat="45.45166841766187" lon="7.768331719535105"><ele>561.8</ele><time>2026-04-26T13:40:47.999Z</time></trkpt><trkpt lat="45.45166274530819" lon="7.768460244738922"><ele>562.1999999999999</ele><time>2026-04-26T13:40:48.999Z</time></trkpt><trkpt lat="45.451624998806885" lon="7.768578643217072"><ele>562.6</ele><time>2026-04-26T13:40:49.999Z</time></trkpt><trkpt lat="45.45155665338676" lon="7.768664579001756"><ele>563.0</ele><time>2026-04-26T13:40:50.999Z</time></trkpt><trkpt lat="45.45147146809962" lon="7.768720139563869"><ele>562.8</ele><time>2026-04-26T13:40:51.999Z</time></trkpt><trkpt lat="45.451372411894575" lon="7.76873140821388"><ele>562.5999999999999</ele><time>2026-04-26T13:40:52.999Z</time></trkpt><trkpt lat="45.45127277661924" lon="7.768691551490902"><ele>562.4000000000001</ele><time>2026-04-26T13:40:53.999Z</time></trkpt><trkpt lat="45.45117966999794" lon="7.768594990058026"><ele>562.2</ele><time>2026-04-26T13:40:54.999Z</time></trkpt><trkpt lat="45.4511166087667" lon="7.768442543084403"><ele>562.0</ele><time>2026-04-26T13:40:55.999Z</time></trkpt><trkpt lat="45.45103849467568" lon="7.768301875133761"><ele>562.0</ele><time>2026-04-26T13:40:56.999Z</time></trkpt><trkpt lat="45.45094505948425" lon="7.768143468737659"><ele>562.0</ele><time>2026-04-26T13:40:57.999Z</time></trkpt><trkpt lat="45.450836334757895" lon="7.767939857509872"><ele>562.0</ele><time>2026-04-26T13:40:58.999Z</time></trkpt><trkpt lat="45.45070110934894" lon="7.767734897763709"><ele>560.3333333333334</ele><time>2026-04-26T13:40:59.999Z</time></trkpt><trkpt lat="45.45056963650998" lon="7.767503431196672"><ele>558.6666666666666</ele><time>2026-04-26T13:41:00.999Z</time></trkpt><trkpt lat="45.45043198121425" lon="7.767273270139564"><ele>557.0</ele><time>2026-04-26T13:41:01.999Z</time></trkpt><trkpt lat="45.45028666456201" lon="7.767015117389589"><ele>554.0</ele><time>2026-04-26T13:41:02.999Z</time></trkpt><trkpt lat="45.45012548906703" lon="7.766748849157695"><ele>551.0</ele><time>2026-04-26T13:41:03.999Z</time></trkpt><trkpt lat="45.4499835122824" lon="7.766481127743892"><ele>551.0</ele><time>2026-04-26T13:41:04.999Z</time></trkpt><trkpt lat="45.44984128471174" lon="7.766210902883403"><ele>551.0</ele><time>2026-04-26T13:41:05.999Z</time></trkpt><trkpt lat="45.44969746395655" lon="7.765933635106789"><ele>550.0</ele><time>2026-04-26T13:41:06.999Z</time></trkpt><trkpt lat="45.44955932381909" lon="7.765668343924116"><ele>549.0</ele><time>2026-04-26T13:41:07.999Z</time></trkpt><trkpt lat="45.44944539830978" lon="7.765396705231316"><ele>546.6666666666666</ele><time>2026-04-26T13:41:08.999Z</time></trkpt><trkpt lat="45.44931552175735" lon="7.76515374237333"><ele>544.3333333333333</ele><time>2026-04-26T13:41:09.999Z</time></trkpt><trkpt lat="45.449207223598314" lon="7.764902976575218"><ele>542.0</ele><time>2026-04-26T13:41:10.999Z</time></trkpt><trkpt lat="45.449100979406865" lon="7.764663137915517"><ele>542.0</ele><time>2026-04-26T13:41:11.999Z</time></trkpt><trkpt lat="45.44899147640076" lon="7.764431687352472"><ele>542.0</ele><time>2026-04-26T13:41:12.999Z</time></trkpt><trkpt lat="45.44888029094002" lon="7.76421045873256"><ele>542.0</ele><time>2026-04-26T13:41:13.999Z</time></trkpt><trkpt lat="45.44878800575486" lon="7.763980654977941"><ele>539.0</ele><time>2026-04-26T13:41:14.999Z</time></trkpt><trkpt lat="45.44867745709132" lon="7.763792714648409"><ele>536.0</ele><time>2026-04-26T13:41:15.999Z</time></trkpt><trkpt lat="45.44858922688082" lon="7.763601495036155"><ele>533.0</ele><time>2026-04-26T13:41:16.999Z</time></trkpt><trkpt lat="45.44850187327916" lon="7.763431016259859"><ele>531.75</ele><time>2026-04-26T13:41:17.999Z</time></trkpt><trkpt lat="45.44842288741105" lon="7.763260696232614"><ele>530.5</ele><time>2026-04-26T13:41:18.999Z</time></trkpt><trkpt lat="45.448346976167805" lon="7.76311115971952"><ele>529.25</ele><time>2026-04-26T13:41:19.999Z</time></trkpt><trkpt lat="45.44829542825952" lon="7.76300419590709"><ele>528.0</ele><time>2026-04-26T13:41:20.999Z</time></trkpt><trkpt lat="45.448238762688156" lon="7.762905332361584"><ele>528.0</ele><time>2026-04-26T13:41:21.999Z</time></trkpt><trkpt lat="45.44816836888489" lon="7.762844948362052"><ele>528.0</ele><time>2026-04-26T13:41:22.999Z</time></trkpt><trkpt lat="45.44808654394197" lon="7.7628231048665475"><ele>528.0</ele><time>2026-04-26T13:41:23.999Z</time></trkpt><trkpt lat="45.448015258758076" lon="7.762879762885129"><ele>528.0</ele><time>2026-04-26T13:41:24.999Z</time></trkpt><trkpt lat="45.44797027284056" lon="7.762980746437368"><ele>528.0</ele><time>2026-04-26T13:41:25.999Z</time></trkpt><trkpt lat="45.44795942434244" lon="7.76311363046322"><ele>528.0</ele><time>2026-04-26T13:41:26.999Z</time></trkpt><trkpt lat="45.447979000617245" lon="7.763266013306305"><ele>528.0</ele><time>2026-04-26T13:41:27.999Z</time></trkpt><trkpt lat="45.44798667547475" lon="7.763438068924486"><ele>528.0</ele><time>2026-04-26T13:41:28.999Z</time></trkpt><trkpt lat="45.44798026783371" lon="7.763632584203931"><ele>528.0</ele><time>2026-04-26T13:41:29.999Z</time></trkpt><trkpt lat="45.447959393567515" lon="7.763844762119805"><ele>528.0</ele><time>2026-04-26T13:41:30.998Z</time></trkpt><trkpt lat="45.447936681829056" lon="7.764047196305135"><ele>526.0</ele><time>2026-04-26T13:41:31.998Z</time></trkpt><trkpt lat="45.447890918615066" lon="7.764239323160031"><ele>524.0</ele><time>2026-04-26T13:41:32.998Z</time></trkpt><trkpt lat="45.44784359574387" lon="7.764431518760244"><ele>522.0</ele><time>2026-04-26T13:41:33.998Z</time></trkpt><trkpt lat="45.447774268294644" lon="7.7645804200829405"><ele>520.0</ele><time>2026-04-26T13:41:34.998Z</time></trkpt><trkpt lat="45.447728503789676" lon="7.764696137624995"><ele>520.0</ele><time>2026-04-26T13:41:35.998Z</time></trkpt><trkpt lat="45.44762006820259" lon="7.764913383465781"><ele>520.0</ele><time>2026-04-26T13:41:36.998Z</time></trkpt><trkpt lat="45.44751993678804" lon="7.765045431033152"><ele>520.0</ele><time>2026-04-26T13:41:37.998Z</time></trkpt><trkpt lat="45.447409699254585" lon="7.765158911660859"><ele>519.25</ele><time>2026-04-26T13:41:38.998Z</time></trkpt><trkpt lat="45.44729471037198" lon="7.765257470781436"><ele>518.5</ele><time>2026-04-26T13:41:39.998Z</time></trkpt><trkpt lat="45.447170282449484" lon="7.765372221024552"><ele>517.75</ele><time>2026-04-26T13:41:40.998Z</time></trkpt><trkpt lat="45.44702083406226" lon="7.765453565801065"><ele>517.0</ele><time>2026-04-26T13:41:41.998Z</time></trkpt><trkpt lat="45.446870950239656" lon="7.765555081544811"><ele>517.0</ele><time>2026-04-26T13:41:42.998Z</time></trkpt><trkpt lat="45.446731434305086" lon="7.765656827798709"><ele>517.0</ele><time>2026-04-26T13:41:43.998Z</time></trkpt><trkpt lat="45.44659195326045" lon="7.765762002464893"><ele>517.0</ele><time>2026-04-26T13:41:44.998Z</time></trkpt><trkpt lat="45.44645514126062" lon="7.765876975291574"><ele>517.0</ele><time>2026-04-26T13:41:45.998Z</time></trkpt><trkpt lat="45.44632658640228" lon="7.766008607789576"><ele>517.0</ele><time>2026-04-26T13:41:46.998Z</time></trkpt><trkpt lat="45.4462023828676" lon="7.766142868718768"><ele>517.0</ele><time>2026-04-26T13:41:47.998Z</time></trkpt><trkpt lat="45.4460786474405" lon="7.766274678106587"><ele>516.0</ele><time>2026-04-26T13:41:48.998Z</time></trkpt><trkpt lat="45.44595705721993" lon="7.76639922789848"><ele>515.0</ele><time>2026-04-26T13:41:49.998Z</time></trkpt><trkpt lat="45.4458199359004" lon="7.766481040401896"><ele>514.0</ele><time>2026-04-26T13:41:50.998Z</time></trkpt><trkpt lat="45.44569180437814" lon="7.766588736519887"><ele>513.0</ele><time>2026-04-26T13:41:51.998Z</time></trkpt><trkpt lat="45.44555509941373" lon="7.766666445965932"><ele>512.5</ele><time>2026-04-26T13:41:52.998Z</time></trkpt><trkpt lat="45.44542054621574" lon="7.766730264926886"><ele>512.0</ele><time>2026-04-26T13:41:53.998Z</time></trkpt><trkpt lat="45.44528444013967" lon="7.766791748886579"><ele>511.5</ele><time>2026-04-26T13:41:54.998Z</time></trkpt><trkpt lat="45.44514883570808" lon="7.766848096512986"><ele>511.0</ele><time>2026-04-26T13:41:55.998Z</time></trkpt><trkpt lat="45.44501156225553" lon="7.766882615026186"><ele>511.0</ele><time>2026-04-26T13:41:56.998Z</time></trkpt><trkpt lat="45.444874180126604" lon="7.7669126668963715"><ele>511.0</ele><time>2026-04-26T13:41:57.998Z</time></trkpt><trkpt lat="45.44473148004368" lon="7.766926190864571"><ele>511.0</ele><time>2026-04-26T13:41:58.998Z</time></trkpt><trkpt lat="45.44460547108107" lon="7.7669525487707"><ele>511.0</ele><time>2026-04-26T13:41:59.998Z</time></trkpt><trkpt lat="45.44448385856071" lon="7.767007973832827"><ele>506.75</ele><time>2026-04-26T13:42:00.998Z</time></trkpt><trkpt lat="45.44437117375721" lon="7.767079894603864"><ele>502.5</ele><time>2026-04-26T13:42:01.998Z</time></trkpt><trkpt lat="45.444265552856244" lon="7.767170116953454"><ele>498.25</ele><time>2026-04-26T13:42:02.998Z</time></trkpt><trkpt lat="45.44416660084968" lon="7.767278047941951"><ele>494.0</ele><time>2026-04-26T13:42:03.998Z</time></trkpt><trkpt lat="45.44407166695256" lon="7.76738432860178"><ele>494.0</ele><time>2026-04-26T13:42:04.998Z</time></trkpt><trkpt lat="45.44398078760681" lon="7.767499384933637"><ele>494.0</ele><time>2026-04-26T13:42:05.998Z</time></trkpt><trkpt lat="45.443892494265505" lon="7.767614140745001"><ele>494.0</ele><time>2026-04-26T13:42:06.998Z</time></trkpt><trkpt lat="45.443804002528616" lon="7.767735453918991"><ele>494.0</ele><time>2026-04-26T13:42:07.998Z</time></trkpt><trkpt lat="45.44371036671099" lon="7.767850698501486"><ele>492.5</ele><time>2026-04-26T13:42:08.998Z</time></trkpt><trkpt lat="45.443603836997916" lon="7.767938796152922"><ele>491.0</ele><time>2026-04-26T13:42:09.998Z</time></trkpt><trkpt lat="45.44349145038799" lon="7.768006162247736"><ele>489.5</ele><time>2026-04-26T13:42:10.998Z</time></trkpt><trkpt lat="45.44338354558413" lon="7.768077491741827"><ele>488.0</ele><time>2026-04-26T13:42:11.998Z</time></trkpt><trkpt lat="45.443284290466174" lon="7.768154610774698"><ele>488.0</ele><time>2026-04-26T13:42:12.998Z</time></trkpt><trkpt lat="45.44319569545052" lon="7.768228766163528"><ele>487.99999999999994</ele><time>2026-04-26T13:42:13.998Z</time></trkpt><trkpt lat="45.44311169622628" lon="7.768307119920352"><ele>487.99999999999994</ele><time>2026-04-26T13:42:14.998Z</time></trkpt><trkpt lat="45.44303351821889" lon="7.768373934918453"><ele>488.0</ele><time>2026-04-26T13:42:15.998Z</time></trkpt><trkpt lat="45.44295328424606" lon="7.768399035208378"><ele>488.0</ele><time>2026-04-26T13:42:16.998Z</time></trkpt><trkpt lat="45.44286887652611" lon="7.768373634566917"><ele>486.5</ele><time>2026-04-26T13:42:17.998Z</time></trkpt><trkpt lat="45.442795401802584" lon="7.768268520588374"><ele>485.0</ele><time>2026-04-26T13:42:18.998Z</time></trkpt><trkpt lat="45.442705559428944" lon="7.768185984586918"><ele>483.5</ele><time>2026-04-26T13:42:19.998Z</time></trkpt><trkpt lat="45.44261941281735" lon="7.768077245627191"><ele>482.0</ele><time>2026-04-26T13:42:20.998Z</time></trkpt><trkpt lat="45.44251433334499" lon="7.767974094750942"><ele>482.0</ele><time>2026-04-26T13:42:21.998Z</time></trkpt><trkpt lat="45.44240455235972" lon="7.76786384917673"><ele>482.0</ele><time>2026-04-26T13:42:23Z</time></trkpt><trkpt lat="45.44230236580883" lon="7.767759812039357"><ele>482.0</ele><time>2026-04-26T13:42:24Z</time></trkpt><trkpt lat="45.442204773832145" lon="7.767658358988073"><ele>482.0</ele><time>2026-04-26T13:42:25Z</time></trkpt><trkpt lat="45.442112660973464" lon="7.767563021455551"><ele>481.0</ele><time>2026-04-26T13:42:26Z</time></trkpt><trkpt lat="45.44202008415913" lon="7.76746485079643"><ele>480.0</ele><time>2026-04-26T13:42:27Z</time></trkpt><trkpt lat="45.44193136148037" lon="7.7673557568485"><ele>479.0</ele><time>2026-04-26T13:42:28Z</time></trkpt><trkpt lat="45.44185040816336" lon="7.767239562091984"><ele>478.0</ele><time>2026-04-26T13:42:29Z</time></trkpt><trkpt lat="45.44177327449835" lon="7.767112197331171"><ele>478.0</ele><time>2026-04-26T13:42:30Z</time></trkpt><trkpt lat="45.44170333532141" lon="7.7669798143817985"><ele>478.0</ele><time>2026-04-26T13:42:31Z</time></trkpt><trkpt lat="45.441640638667934" lon="7.7668377312141565"><ele>478.0</ele><time>2026-04-26T13:42:32Z</time></trkpt><trkpt lat="45.441583666554486" lon="7.766691004024214"><ele>478.0</ele><time>2026-04-26T13:42:33Z</time></trkpt><trkpt lat="45.441531330740446" lon="7.766547075908601"><ele>476.79999999999995</ele><time>2026-04-26T13:42:34Z</time></trkpt><trkpt lat="45.44147796223562" lon="7.766411412686894"><ele>475.59999999999997</ele><time>2026-04-26T13:42:35Z</time></trkpt><trkpt lat="45.44142200760097" lon="7.7662762187143235"><ele>474.40000000000003</ele><time>2026-04-26T13:42:36Z</time></trkpt><trkpt lat="45.44138141858864" lon="7.76614077351092"><ele>473.20000000000005</ele><time>2026-04-26T13:42:37Z</time></trkpt><trkpt lat="45.4413614050852" lon="7.765997329886866"><ele>472.0</ele><time>2026-04-26T13:42:38Z</time></trkpt><trkpt lat="45.44130032034097" lon="7.765911997221136"><ele>470.75</ele><time>2026-04-26T13:42:39Z</time></trkpt><trkpt lat="45.44139594931339" lon="7.765698202125597"><ele>469.5</ele><time>2026-04-26T13:42:40Z</time></trkpt><trkpt lat="45.44145188799522" lon="7.765540029454043"><ele>468.25</ele><time>2026-04-26T13:42:41Z</time></trkpt><trkpt lat="45.441515175791004" lon="7.765366691649876"><ele>467.0</ele><time>2026-04-26T13:42:41.999Z</time></trkpt><trkpt lat="45.44157876142271" lon="7.765164411726067"><ele>466.25</ele><time>2026-04-26T13:42:42.999Z</time></trkpt><trkpt lat="45.441636664633656" lon="7.764960152434392"><ele>465.5</ele><time>2026-04-26T13:42:43.999Z</time></trkpt><trkpt lat="45.441689102168425" lon="7.764765260488419"><ele>464.75</ele><time>2026-04-26T13:42:44.999Z</time></trkpt><trkpt lat="45.441747058386625" lon="7.764574267544227"><ele>464.0</ele><time>2026-04-26T13:42:45.999Z</time></trkpt><trkpt lat="45.441811313009886" lon="7.764381307330398"><ele>463.66666666666663</ele><time>2026-04-26T13:42:46.999Z</time></trkpt><trkpt lat="45.44187474363271" lon="7.764187557076672"><ele>463.33333333333337</ele><time>2026-04-26T13:42:47.999Z</time></trkpt><trkpt lat="45.441933610165975" lon="7.763988093181471"><ele>463.0</ele><time>2026-04-26T13:42:48.999Z</time></trkpt><trkpt lat="45.44199163617986" lon="7.763787412446114"><ele>463.0</ele><time>2026-04-26T13:42:49.999Z</time></trkpt><trkpt lat="45.44205292652346" lon="7.763596036705812"><ele>463.0</ele><time>2026-04-26T13:42:50.999Z</time></trkpt><trkpt lat="45.442108644860795" lon="7.763410739036752"><ele>463.0</ele><time>2026-04-26T13:42:51.999Z</time></trkpt><trkpt lat="45.44216136669404" lon="7.763248109427806"><ele>463.0</ele><time>2026-04-26T13:42:52.999Z</time></trkpt><trkpt lat="45.4422097980612" lon="7.763099332162105"><ele>463.4</ele><time>2026-04-26T13:42:53.999Z</time></trkpt><trkpt lat="45.44224671326284" lon="7.762966891559464"><ele>463.79999999999995</ele><time>2026-04-26T13:42:54.999Z</time></trkpt><trkpt lat="45.44227528782067" lon="7.7628233144295615"><ele>464.2</ele><time>2026-04-26T13:42:55.999Z</time></trkpt><trkpt lat="45.4422648888409" lon="7.762683658466863"><ele>464.6</ele><time>2026-04-26T13:42:56.999Z</time></trkpt><trkpt lat="45.442232367444454" lon="7.762550354582778"><ele>465.0</ele><time>2026-04-26T13:42:57.999Z</time></trkpt><trkpt lat="45.44217433273452" lon="7.762428217302794"><ele>464.8</ele><time>2026-04-26T13:42:58.999Z</time></trkpt><trkpt lat="45.44211400693011" lon="7.762309116993179"><ele>464.6</ele><time>2026-04-26T13:42:59.999Z</time></trkpt><trkpt lat="45.442064694554695" lon="7.762182972563432"><ele>464.4</ele><time>2026-04-26T13:43:00.999Z</time></trkpt><trkpt lat="45.442022762553805" lon="7.762073260078465"><ele>464.2</ele><time>2026-04-26T13:43:01.999Z</time></trkpt><trkpt lat="45.4419784350441" lon="7.761974032616184"><ele>464.0</ele><time>2026-04-26T13:43:02.999Z</time></trkpt><trkpt lat="45.44193430716456" lon="7.761875573915566"><ele>463.8333333333333</ele><time>2026-04-26T13:43:03.999Z</time></trkpt><trkpt lat="45.44189563822728" lon="7.761784264119865"><ele>463.66666666666663</ele><time>2026-04-26T13:43:04.999Z</time></trkpt><trkpt lat="45.44186073748454" lon="7.761699481027546"><ele>463.5</ele><time>2026-04-26T13:43:05.999Z</time></trkpt><trkpt lat="45.44182329429006" lon="7.7616175049299505"><ele>463.33333333333337</ele><time>2026-04-26T13:43:06.999Z</time></trkpt><trkpt lat="45.44179112694331" lon="7.761533700400837"><ele>463.1666666666667</ele><time>2026-04-26T13:43:07.999Z</time></trkpt><trkpt lat="45.44175614871782" lon="7.761457083096918"><ele>463.0</ele><time>2026-04-26T13:43:08.999Z</time></trkpt><trkpt lat="45.44168995363316" lon="7.761315257507702"><ele>463.0</ele><time>2026-04-26T13:43:10.999Z</time></trkpt><trkpt lat="45.44163307257954" lon="7.761178204294915"><ele>462.99999999999994</ele><time>2026-04-26T13:43:12.999Z</time></trkpt><trkpt lat="45.44158577033649" lon="7.76104572416172"><ele>462.99999999999994</ele><time>2026-04-26T13:43:14.999Z</time></trkpt><trkpt lat="45.441530543636006" lon="7.76092873113862"><ele>463.0</ele><time>2026-04-26T13:43:16.999Z</time></trkpt><trkpt lat="45.441484930629834" lon="7.760837794307904"><ele>463.0</ele><time>2026-04-26T13:43:18.999Z</time></trkpt><trkpt lat="45.44143921122556" lon="7.760721998073628"><ele>463.50000000000006</ele><time>2026-04-26T13:43:21.999Z</time></trkpt><trkpt lat="45.44139902676038" lon="7.7606463794479525"><ele>464.0</ele><time>2026-04-26T13:43:23.999Z</time></trkpt><trkpt lat="45.441328267366934" lon="7.760499395683245"><ele>464.5</ele><time>2026-04-26T13:43:25.999Z</time></trkpt><trkpt lat="45.44128907995833" lon="7.760402892230087"><ele>465.0</ele><time>2026-04-26T13:43:26.999Z</time></trkpt><trkpt lat="45.441253525689405" lon="7.760322312072866"><ele>465.50000000000006</ele><time>2026-04-26T13:43:27.999Z</time></trkpt><trkpt lat="45.441214868028375" lon="7.7602335882594256"><ele>466.0</ele><time>2026-04-26T13:43:28.999Z</time></trkpt><trkpt lat="45.44117677546033" lon="7.760138117282174"><ele>466.0</ele><time>2026-04-26T13:43:29.999Z</time></trkpt><trkpt lat="45.44113842079408" lon="7.760051529464927"><ele>466.0</ele><time>2026-04-26T13:43:30.999Z</time></trkpt><trkpt lat="45.44107666710022" lon="7.759907979159663"><ele>466.0</ele><time>2026-04-26T13:43:32.999Z</time></trkpt><trkpt lat="45.44099468714589" lon="7.759832821064782"><ele>466.0</ele><time>2026-04-26T13:43:34.998Z</time></trkpt><trkpt lat="45.440855774678326" lon="7.759891199136657"><ele>466.0</ele><time>2026-04-26T13:43:36.998Z</time></trkpt><trkpt lat="45.44078624843004" lon="7.759959972790159"><ele>466.0</ele><time>2026-04-26T13:43:37.998Z</time></trkpt><trkpt lat="45.44069794595168" lon="7.7600617126735045"><ele>466.0</ele><time>2026-04-26T13:43:38.998Z</time></trkpt><trkpt lat="45.440612973913964" lon="7.760152591917847"><ele>466.0</ele><time>2026-04-26T13:43:39.998Z</time></trkpt><trkpt lat="45.44052385270835" lon="7.760245268172177"><ele>466.0</ele><time>2026-04-26T13:43:40.998Z</time></trkpt><trkpt lat="45.44042718269449" lon="7.760347440931041"><ele>464.75</ele><time>2026-04-26T13:43:41.998Z</time></trkpt><trkpt lat="45.44032103885017" lon="7.760451488442178"><ele>463.5</ele><time>2026-04-26T13:43:42.998Z</time></trkpt><trkpt lat="45.44021253788512" lon="7.7605386346127"><ele>462.25</ele><time>2026-04-26T13:43:43.998Z</time></trkpt><trkpt lat="45.4401045698208" lon="7.760604389134694"><ele>461.0</ele><time>2026-04-26T13:43:44.998Z</time></trkpt><trkpt lat="45.43998876179836" lon="7.760670778430503"><ele>461.0</ele><time>2026-04-26T13:43:45.998Z</time></trkpt><trkpt lat="45.43986595321047" lon="7.760737854301504"><ele>461.0</ele><time>2026-04-26T13:43:46.998Z</time></trkpt><trkpt lat="45.43973593380952" lon="7.760838792922773"><ele>461.0</ele><time>2026-04-26T13:43:47.998Z</time></trkpt><trkpt lat="45.43968739740997" lon="7.760926622117206"><ele>461.0</ele><time>2026-04-26T13:43:48.998Z</time></trkpt><trkpt lat="45.43962507789173" lon="7.761065902899747"><ele>462.6</ele><time>2026-04-26T13:43:49.998Z</time></trkpt><trkpt lat="45.43955662314767" lon="7.761212778984973"><ele>464.20000000000005</ele><time>2026-04-26T13:43:50.998Z</time></trkpt><trkpt lat="45.43947178746561" lon="7.761309661800536"><ele>465.79999999999995</ele><time>2026-04-26T13:43:51.998Z</time></trkpt><trkpt lat="45.43938053954695" lon="7.761369948874745"><ele>467.4</ele><time>2026-04-26T13:43:52.998Z</time></trkpt><trkpt lat="45.43928693750647" lon="7.761460379433255"><ele>469.0</ele><time>2026-04-26T13:43:53.998Z</time></trkpt><trkpt lat="45.43917191652414" lon="7.761544750775881"><ele>469.0</ele><time>2026-04-26T13:43:54.998Z</time></trkpt><trkpt lat="45.43906855931083" lon="7.761668067677747"><ele>469.0</ele><time>2026-04-26T13:43:55.998Z</time></trkpt><trkpt lat="45.438934764188005" lon="7.761756364610623"><ele>469.0</ele><time>2026-04-26T13:43:56.998Z</time></trkpt><trkpt lat="45.438821535427955" lon="7.7618538669453345"><ele>469.0</ele><time>2026-04-26T13:43:57.998Z</time></trkpt><trkpt lat="45.438718857379044" lon="7.761945666187405"><ele>465.79999999999995</ele><time>2026-04-26T13:43:58.998Z</time></trkpt><trkpt lat="45.43863230356877" lon="7.762017926522272"><ele>462.59999999999997</ele><time>2026-04-26T13:43:59.998Z</time></trkpt><trkpt lat="45.43853965935281" lon="7.7620545961091105"><ele>459.4</ele><time>2026-04-26T13:44:00.998Z</time></trkpt><trkpt lat="45.4384335726179" lon="7.762065870088254"><ele>456.2</ele><time>2026-04-26T13:44:01.998Z</time></trkpt><trkpt lat="45.43830703436445" lon="7.762067549176724"><ele>453.0</ele><time>2026-04-26T13:44:02.998Z</time></trkpt><trkpt lat="45.43817884047431" lon="7.762100931673439"><ele>453.0</ele><time>2026-04-26T13:44:03.998Z</time></trkpt><trkpt lat="45.438045694907935" lon="7.762091478814334"><ele>453.0</ele><time>2026-04-26T13:44:04.998Z</time></trkpt><trkpt lat="45.437928546169" lon="7.762139368681544"><ele>453.0</ele><time>2026-04-26T13:44:05.998Z</time></trkpt><trkpt lat="45.437820253765885" lon="7.762193069155478"><ele>453.0</ele><time>2026-04-26T13:44:06.998Z</time></trkpt><trkpt lat="45.43772060861412" lon="7.762272531072772"><ele>454.25</ele><time>2026-04-26T13:44:07.998Z</time></trkpt><trkpt lat="45.4376148572859" lon="7.7623290685520825"><ele>455.5</ele><time>2026-04-26T13:44:08.998Z</time></trkpt><trkpt lat="45.437489372217314" lon="7.762319456522281"><ele>456.75</ele><time>2026-04-26T13:44:09.998Z</time></trkpt><trkpt lat="45.43735186521643" lon="7.762328440805249"><ele>458.0</ele><time>2026-04-26T13:44:10.998Z</time></trkpt><trkpt lat="45.43721121624518" lon="7.762302537629388"><ele>457.0</ele><time>2026-04-26T13:44:11.998Z</time></trkpt><trkpt lat="45.43705454189791" lon="7.762277169639567"><ele>456.0</ele><time>2026-04-26T13:44:12.998Z</time></trkpt><trkpt lat="45.43688970715475" lon="7.762242433343298"><ele>455.0</ele><time>2026-04-26T13:44:13.998Z</time></trkpt><trkpt lat="45.43673787678185" lon="7.7622079317413455"><ele>455.0</ele><time>2026-04-26T13:44:14.998Z</time></trkpt><trkpt lat="45.4365980265149" lon="7.762175836103676"><ele>455.0</ele><time>2026-04-26T13:44:15.998Z</time></trkpt><trkpt lat="45.436439393251334" lon="7.762114807933533"><ele>455.0</ele><time>2026-04-26T13:44:16.998Z</time></trkpt><trkpt lat="45.43630356338525" lon="7.762081579109667"><ele>455.0</ele><time>2026-04-26T13:44:17.998Z</time></trkpt><trkpt lat="45.436170694982074" lon="7.762073221602199"><ele>454.0</ele><time>2026-04-26T13:44:18.998Z</time></trkpt><trkpt lat="45.43604903679623" lon="7.7620411043217645"><ele>453.0</ele><time>2026-04-26T13:44:19.998Z</time></trkpt><trkpt lat="45.4359235051075" lon="7.762011390055624"><ele>452.0</ele><time>2026-04-26T13:44:20.998Z</time></trkpt><trkpt lat="45.43579084177913" lon="7.761962066742065"><ele>451.0</ele><time>2026-04-26T13:44:21.998Z</time></trkpt><trkpt lat="45.4356672526839" lon="7.7618693247313315"><ele>452.6666666666667</ele><time>2026-04-26T13:44:22.998Z</time></trkpt><trkpt lat="45.43553915724356" lon="7.761758840377225"><ele>454.33333333333337</ele><time>2026-04-26T13:44:23.998Z</time></trkpt><trkpt lat="45.435400718794014" lon="7.761624381142543"><ele>456.0</ele><time>2026-04-26T13:44:24.998Z</time></trkpt><trkpt lat="45.43524688714206" lon="7.76148986300796"><ele>456.0</ele><time>2026-04-26T13:44:25.997Z</time></trkpt><trkpt lat="45.435094763410156" lon="7.761318581041628"><ele>456.0</ele><time>2026-04-26T13:44:26.997Z</time></trkpt><trkpt lat="45.43494617765977" lon="7.761163204802428"><ele>456.0</ele><time>2026-04-26T13:44:28Z</time></trkpt><trkpt lat="45.43480177052703" lon="7.761017052711826"><ele>456.33333333333337</ele><time>2026-04-26T13:44:29Z</time></trkpt><trkpt lat="45.43467071752136" lon="7.7608705408996475"><ele>456.6666666666667</ele><time>2026-04-26T13:44:30Z</time></trkpt><trkpt lat="45.43454007539514" lon="7.76073031527186"><ele>457.0</ele><time>2026-04-26T13:44:31Z</time></trkpt><trkpt lat="45.434420089285204" lon="7.76057108084678"><ele>457.0</ele><time>2026-04-26T13:44:32Z</time></trkpt><trkpt lat="45.434290639121166" lon="7.760429399960328"><ele>457.0</ele><time>2026-04-26T13:44:33Z</time></trkpt><trkpt lat="45.43415217845684" lon="7.7603049176103225"><ele>457.0</ele><time>2026-04-26T13:44:34Z</time></trkpt><trkpt lat="45.434008861078894" lon="7.760180583505246"><ele>461.0</ele><time>2026-04-26T13:44:35Z</time></trkpt><trkpt lat="45.433848624105224" lon="7.760087679903828"><ele>465.0</ele><time>2026-04-26T13:44:36Z</time></trkpt><trkpt lat="45.43367381924017" lon="7.760043645706756"><ele>469.0</ele><time>2026-04-26T13:44:37Z</time></trkpt><trkpt lat="45.433491028959736" lon="7.760028663754928"><ele>469.0</ele><time>2026-04-26T13:44:38Z</time></trkpt><trkpt lat="45.43329317873619" lon="7.760022903130038"><ele>469.0</ele><time>2026-04-26T13:44:39Z</time></trkpt><trkpt lat="45.43311316357044" lon="7.759972079404414"><ele>469.0</ele><time>2026-04-26T13:44:40Z</time></trkpt><trkpt lat="45.43293269450332" lon="7.759929602262942"><ele>469.0</ele><time>2026-04-26T13:44:41Z</time></trkpt><trkpt lat="45.432765986206974" lon="7.759891103716575"><ele>469.0</ele><time>2026-04-26T13:44:42Z</time></trkpt><trkpt lat="45.43261034392156" lon="7.759857310786387"><ele>469.0</ele><time>2026-04-26T13:44:43Z</time></trkpt><trkpt lat="45.43247339606781" lon="7.7598280801793775"><ele>469.0</ele><time>2026-04-26T13:44:44Z</time></trkpt><trkpt lat="45.432338646508825" lon="7.759796896887387"><ele>469.0</ele><time>2026-04-26T13:44:45Z</time></trkpt><trkpt lat="45.43221494219236" lon="7.759764271864381"><ele>469.0</ele><time>2026-04-26T13:44:45.999Z</time></trkpt><trkpt lat="45.432100474912914" lon="7.759737083305615"><ele>469.0</ele><time>2026-04-26T13:44:46.999Z</time></trkpt><trkpt lat="45.43198701609927" lon="7.759715272733022"><ele>468.25</ele><time>2026-04-26T13:44:47.999Z</time></trkpt><trkpt lat="45.431873514974725" lon="7.759689439800801"><ele>467.5</ele><time>2026-04-26T13:44:48.999Z</time></trkpt><trkpt lat="45.43175835561132" lon="7.759645656924817"><ele>466.75</ele><time>2026-04-26T13:44:49.999Z</time></trkpt><trkpt lat="45.431636496242184" lon="7.759583602692916"><ele>466.0</ele><time>2026-04-26T13:44:50.999Z</time></trkpt><trkpt lat="45.431513767099744" lon="7.759498039651469"><ele>466.0</ele><time>2026-04-26T13:44:51.999Z</time></trkpt><trkpt lat="45.43138996469911" lon="7.759392053791946"><ele>466.0</ele><time>2026-04-26T13:44:52.999Z</time></trkpt><trkpt lat="45.43125952208201" lon="7.759289226676809"><ele>466.0</ele><time>2026-04-26T13:44:53.999Z</time></trkpt><trkpt lat="45.431008856129814" lon="7.759108576345278"><ele>467.0</ele><time>2026-04-26T13:44:55.999Z</time></trkpt><trkpt lat="45.43089568813529" lon="7.75902336068329"><ele>468.0</ele><time>2026-04-26T13:44:56.999Z</time></trkpt><trkpt lat="45.43079176291553" lon="7.7589426480727735"><ele>469.0</ele><time>2026-04-26T13:44:57.999Z</time></trkpt><trkpt lat="45.4306967699611" lon="7.758861637295719"><ele>470.0</ele><time>2026-04-26T13:44:58.999Z</time></trkpt><trkpt lat="45.430631330152174" lon="7.758746835616432"><ele>470.0</ele><time>2026-04-26T13:44:59.999Z</time></trkpt><trkpt lat="45.43056493953333" lon="7.758635363003038"><ele>470.0</ele><time>2026-04-26T13:45:00.999Z</time></trkpt><trkpt lat="45.43049271017251" lon="7.7585149498812225"><ele>470.0</ele><time>2026-04-26T13:45:01.999Z</time></trkpt><trkpt lat="45.43042982362354" lon="7.758370371561583"><ele>470.0</ele><time>2026-04-26T13:45:02.999Z</time></trkpt><trkpt lat="45.43036188246636" lon="7.758230743149383"><ele>470.2</ele><time>2026-04-26T13:45:03.999Z</time></trkpt><trkpt lat="45.43029901572899" lon="7.758103698907706"><ele>470.4</ele><time>2026-04-26T13:45:04.999Z</time></trkpt><trkpt lat="45.43023863798091" lon="7.757980855697273"><ele>470.6</ele><time>2026-04-26T13:45:05.999Z</time></trkpt><trkpt lat="45.43018199385582" lon="7.757862175367504"><ele>470.8</ele><time>2026-04-26T13:45:06.999Z</time></trkpt><trkpt lat="45.43012065057705" lon="7.757741107243469"><ele>471.0</ele><time>2026-04-26T13:45:07.999Z</time></trkpt><trkpt lat="45.430052656538315" lon="7.757608497303662"><ele>471.0</ele><time>2026-04-26T13:45:08.999Z</time></trkpt><trkpt lat="45.4299822674339" lon="7.757459717360438"><ele>471.0</ele><time>2026-04-26T13:45:09.999Z</time></trkpt><trkpt lat="45.42991198610062" lon="7.757293242548777"><ele>471.0</ele><time>2026-04-26T13:45:10.999Z</time></trkpt><trkpt lat="45.429839558062234" lon="7.75711975385174"><ele>471.0</ele><time>2026-04-26T13:45:11.999Z</time></trkpt><trkpt lat="45.42979526549524" lon="7.756923820067404"><ele>472.25</ele><time>2026-04-26T13:45:12.999Z</time></trkpt><trkpt lat="45.42975276570783" lon="7.756744253933068"><ele>473.5</ele><time>2026-04-26T13:45:13.999Z</time></trkpt><trkpt lat="45.429701704183366" lon="7.7565762163232606"><ele>474.75</ele><time>2026-04-26T13:45:14.999Z</time></trkpt><trkpt lat="45.429670720823324" lon="7.75640206082203"><ele>476.0</ele><time>2026-04-26T13:45:15.999Z</time></trkpt><trkpt lat="45.42964142051013" lon="7.7562349546641185"><ele>473.5</ele><time>2026-04-26T13:45:16.999Z</time></trkpt><trkpt lat="45.4296145472974" lon="7.756070789200928"><ele>471.0</ele><time>2026-04-26T13:45:17.999Z</time></trkpt><trkpt lat="45.429583248189395" lon="7.755909427932421"><ele>468.5</ele><time>2026-04-26T13:45:18.999Z</time></trkpt><trkpt lat="45.42954319254865" lon="7.75574751662601"><ele>466.0</ele><time>2026-04-26T13:45:19.999Z</time></trkpt><trkpt lat="45.42949230142287" lon="7.755587426821863"><ele>466.0</ele><time>2026-04-26T13:45:20.999Z</time></trkpt><trkpt lat="45.42942586176494" lon="7.7554252107469495"><ele>466.0</ele><time>2026-04-26T13:45:21.999Z</time></trkpt><trkpt lat="45.4293507626368" lon="7.755270801931411"><ele>466.0</ele><time>2026-04-26T13:45:22.999Z</time></trkpt><trkpt lat="45.4292747549366" lon="7.75513032516805"><ele>466.0</ele><time>2026-04-26T13:45:23.999Z</time></trkpt><trkpt lat="45.42920363848605" lon="7.754985162089772"><ele>467.5</ele><time>2026-04-26T13:45:24.999Z</time></trkpt><trkpt lat="45.429132215015805" lon="7.754853984493585"><ele>469.0</ele><time>2026-04-26T13:45:25.999Z</time></trkpt><trkpt lat="45.42905220894275" lon="7.7547314951387945"><ele>470.5</ele><time>2026-04-26T13:45:26.999Z</time></trkpt><trkpt lat="45.4289515401112" lon="7.754621092114541"><ele>472.0</ele><time>2026-04-26T13:45:27.999Z</time></trkpt><trkpt lat="45.428829527289814" lon="7.75452774788681"><ele>470.33333333333337</ele><time>2026-04-26T13:45:28.999Z</time></trkpt><trkpt lat="45.428691885007346" lon="7.754434362528656"><ele>468.66666666666663</ele><time>2026-04-26T13:45:29.999Z</time></trkpt><trkpt lat="45.428563269286066" lon="7.754309890557296"><ele>467.0</ele><time>2026-04-26T13:45:30.999Z</time></trkpt><trkpt lat="45.428435061940284" lon="7.754182624833744"><ele>467.0</ele><time>2026-04-26T13:45:31.999Z</time></trkpt><trkpt lat="45.42831023806678" lon="7.754065782609401"><ele>467.0</ele><time>2026-04-26T13:45:32.999Z</time></trkpt><trkpt lat="45.42820878483996" lon="7.753917076019854"><ele>467.0</ele><time>2026-04-26T13:45:33.999Z</time></trkpt><trkpt lat="45.42810778478229" lon="7.753786612412738"><ele>467.0</ele><time>2026-04-26T13:45:34.999Z</time></trkpt><trkpt lat="45.428004598233294" lon="7.753659693595536"><ele>466.0</ele><time>2026-04-26T13:45:35.999Z</time></trkpt><trkpt lat="45.42789691282057" lon="7.753547861963862"><ele>465.0</ele><time>2026-04-26T13:45:36.999Z</time></trkpt><trkpt lat="45.42777656841495" lon="7.75346767781773"><ele>464.0</ele><time>2026-04-26T13:45:37.998Z</time></trkpt><trkpt lat="45.42764877000634" lon="7.75341065507058"><ele>463.0</ele><time>2026-04-26T13:45:38.998Z</time></trkpt><trkpt lat="45.42752302569033" lon="7.753346320913372"><ele>463.0</ele><time>2026-04-26T13:45:39.998Z</time></trkpt><trkpt lat="45.427403959903216" lon="7.753268617996844"><ele>463.0</ele><time>2026-04-26T13:45:40.998Z</time></trkpt><trkpt lat="45.42728825747731" lon="7.753195091028942"><ele>463.0</ele><time>2026-04-26T13:45:41.998Z</time></trkpt><trkpt lat="45.427170768630205" lon="7.753142334521855"><ele>463.0</ele><time>2026-04-26T13:45:42.998Z</time></trkpt><trkpt lat="45.42705257273115" lon="7.753091400722107"><ele>461.25</ele><time>2026-04-26T13:45:43.998Z</time></trkpt><trkpt lat="45.42693349555667" lon="7.753047758946768"><ele>459.5</ele><time>2026-04-26T13:45:44.998Z</time></trkpt><trkpt lat="45.42681592110129" lon="7.7530086801610585"><ele>457.75</ele><time>2026-04-26T13:45:45.998Z</time></trkpt><trkpt lat="45.426705922464066" lon="7.75297357542057"><ele>456.0</ele><time>2026-04-26T13:45:46.998Z</time></trkpt><trkpt lat="45.4265956378173" lon="7.752978461930498"><ele>456.0</ele><time>2026-04-26T13:45:47.998Z</time></trkpt><trkpt lat="45.42648242381198" lon="7.753035373046776"><ele>456.0</ele><time>2026-04-26T13:45:48.998Z</time></trkpt><trkpt lat="45.4263667369575" lon="7.753127433107762"><ele>456.0</ele><time>2026-04-26T13:45:49.998Z</time></trkpt><trkpt lat="45.42624542156152" lon="7.753236112327672"><ele>456.0</ele><time>2026-04-26T13:45:50.998Z</time></trkpt><trkpt lat="45.426109095308085" lon="7.7533451618495715"><ele>455.25</ele><time>2026-04-26T13:45:51.998Z</time></trkpt><trkpt lat="45.42597363994972" lon="7.753456897890784"><ele>454.5</ele><time>2026-04-26T13:45:52.998Z</time></trkpt><trkpt lat="45.425846260037865" lon="7.753554131905771"><ele>453.75</ele><time>2026-04-26T13:45:53.998Z</time></trkpt><trkpt lat="45.425742880777726" lon="7.75364661347906"><ele>453.0</ele><time>2026-04-26T13:45:54.998Z</time></trkpt><trkpt lat="45.425660686714444" lon="7.753772848798731"><ele>453.0</ele><time>2026-04-26T13:45:55.998Z</time></trkpt><trkpt lat="45.42559881574122" lon="7.753923485113562"><ele>453.0</ele><time>2026-04-26T13:45:56.998Z</time></trkpt><trkpt lat="45.42554666366754" lon="7.7540760099230575"><ele>453.0</ele><time>2026-04-26T13:45:57.998Z</time></trkpt><trkpt lat="45.42549752605144" lon="7.754221401192583"><ele>453.0</ele><time>2026-04-26T13:45:58.998Z</time></trkpt><trkpt lat="45.42542908641678" lon="7.754348614201036"><ele>451.25</ele><time>2026-04-26T13:45:59.998Z</time></trkpt><trkpt lat="45.42532892874912" lon="7.754456828514494"><ele>449.5</ele><time>2026-04-26T13:46:00.998Z</time></trkpt><trkpt lat="45.425209444502414" lon="7.754550345557107"><ele>447.75</ele><time>2026-04-26T13:46:01.998Z</time></trkpt><trkpt lat="45.42509518853109" lon="7.754630605562834"><ele>446.0</ele><time>2026-04-26T13:46:02.998Z</time></trkpt><trkpt lat="45.42498530839494" lon="7.754692174058078"><ele>446.0</ele><time>2026-04-26T13:46:03.998Z</time></trkpt><trkpt lat="45.424871426305266" lon="7.754696239238771"><ele>446.0</ele><time>2026-04-26T13:46:04.998Z</time></trkpt><trkpt lat="45.424754693901434" lon="7.754696422150555"><ele>446.0</ele><time>2026-04-26T13:46:05.998Z</time></trkpt><trkpt lat="45.4246356113185" lon="7.754645480165362"><ele>446.0</ele><time>2026-04-26T13:46:06.998Z</time></trkpt><trkpt lat="45.42450794238205" lon="7.754589939261046"><ele>443.25</ele><time>2026-04-26T13:46:07.998Z</time></trkpt><trkpt lat="45.42437159821631" lon="7.7545328062512775"><ele>440.5</ele><time>2026-04-26T13:46:08.998Z</time></trkpt><trkpt lat="45.42423712956063" lon="7.754479909423297"><ele>437.75</ele><time>2026-04-26T13:46:09.998Z</time></trkpt><trkpt lat="45.42410890306014" lon="7.754429932378905"><ele>435.0</ele><time>2026-04-26T13:46:10.998Z</time></trkpt><trkpt lat="45.4239889337387" lon="7.7543782554745055"><ele>431.6</ele><time>2026-04-26T13:46:11.998Z</time></trkpt><trkpt lat="45.42387291978471" lon="7.75432671106664"><ele>428.2</ele><time>2026-04-26T13:46:12.998Z</time></trkpt><trkpt lat="45.42377180706808" lon="7.754278065309107"><ele>424.79999999999995</ele><time>2026-04-26T13:46:13.998Z</time></trkpt><trkpt lat="45.42368895864445" lon="7.754212605529153"><ele>421.4</ele><time>2026-04-26T13:46:14.998Z</time></trkpt><trkpt lat="45.42362379503661" lon="7.754111603636734"><ele>418.0</ele><time>2026-04-26T13:46:15.998Z</time></trkpt><trkpt lat="45.42358240509632" lon="7.753975255952672"><ele>418.0</ele><time>2026-04-26T13:46:16.998Z</time></trkpt><trkpt lat="45.423568951783125" lon="7.753810054001408"><ele>418.0</ele><time>2026-04-26T13:46:17.998Z</time></trkpt><trkpt lat="45.423565396344216" lon="7.75362974608856"><ele>418.0</ele><time>2026-04-26T13:46:18.998Z</time></trkpt><trkpt lat="45.42355002180548" lon="7.7534464230350935"><ele>418.0</ele><time>2026-04-26T13:46:19.998Z</time></trkpt><trkpt lat="45.42352288618318" lon="7.753277949006792"><ele>425.59999999999997</ele><time>2026-04-26T13:46:20.998Z</time></trkpt><trkpt lat="45.423480387457914" lon="7.753128353757454"><ele>433.2</ele><time>2026-04-26T13:46:21.998Z</time></trkpt><trkpt lat="45.42342028840858" lon="7.753002915376946"><ele>440.8</ele><time>2026-04-26T13:46:22.998Z</time></trkpt><trkpt lat="45.423333059475794" lon="7.7529097030575835"><ele>448.4</ele><time>2026-04-26T13:46:23.998Z</time></trkpt><trkpt lat="45.42323054195265" lon="7.752849556062428"><ele>456.0</ele><time>2026-04-26T13:46:24.998Z</time></trkpt><trkpt lat="45.42311775384246" lon="7.752875265947836"><ele>456.0</ele><time>2026-04-26T13:46:25.998Z</time></trkpt><trkpt lat="45.42299435239438" lon="7.752889089924398"><ele>456.0</ele><time>2026-04-26T13:46:26.998Z</time></trkpt><trkpt lat="45.422864795072115" lon="7.752878043020331"><ele>456.0</ele><time>2026-04-26T13:46:27.998Z</time></trkpt><trkpt lat="45.42272448632092" lon="7.752899710627058"><ele>456.0</ele><time>2026-04-26T13:46:28.997Z</time></trkpt><trkpt lat="45.42256867942572" lon="7.752880253446231"><ele>446.33333333333337</ele><time>2026-04-26T13:46:29.997Z</time></trkpt><trkpt lat="45.42238356179975" lon="7.752826609694215"><ele>436.6666666666667</ele><time>2026-04-26T13:46:30.997Z</time></trkpt><trkpt lat="45.42220090607445" lon="7.752792955710582"><ele>427.0</ele><time>2026-04-26T13:46:31.997Z</time></trkpt><trkpt lat="45.42202969593124" lon="7.75276553544177"><ele>422.6666666666667</ele><time>2026-04-26T13:46:32.997Z</time></trkpt><trkpt lat="45.42186514532161" lon="7.752722699090901"><ele>418.33333333333337</ele><time>2026-04-26T13:46:34Z</time></trkpt><trkpt lat="45.42170652117107" lon="7.752671391313966"><ele>414.0</ele><time>2026-04-26T13:46:35Z</time></trkpt><trkpt lat="45.42155854497327" lon="7.752629861466152"><ele>417.4</ele><time>2026-04-26T13:46:36Z</time></trkpt><trkpt lat="45.42142664817452" lon="7.752594760482595"><ele>420.79999999999995</ele><time>2026-04-26T13:46:37Z</time></trkpt><trkpt lat="45.421320222495616" lon="7.752552513216036"><ele>424.20000000000005</ele><time>2026-04-26T13:46:38Z</time></trkpt><trkpt lat="45.421224919444505" lon="7.752507214968269"><ele>427.6</ele><time>2026-04-26T13:46:39Z</time></trkpt><trkpt lat="45.4211370480649" lon="7.752435535846679"><ele>431.0</ele><time>2026-04-26T13:46:40Z</time></trkpt><trkpt lat="45.42106028219679" lon="7.75231541567428"><ele>431.0</ele><time>2026-04-26T13:46:41Z</time></trkpt><trkpt lat="45.420995735497655" lon="7.752148613970228"><ele>431.0</ele><time>2026-04-26T13:46:42Z</time></trkpt><trkpt lat="45.42092665789575" lon="7.751968949574571"><ele>431.0</ele><time>2026-04-26T13:46:43Z</time></trkpt><trkpt lat="45.420839596721294" lon="7.751812604664034"><ele>431.0</ele><time>2026-04-26T13:46:44Z</time></trkpt><trkpt lat="45.42073321691551" lon="7.751697488271212"><ele>430.0</ele><time>2026-04-26T13:46:45Z</time></trkpt><trkpt lat="45.42061523977214" lon="7.751606443933605"><ele>429.0</ele><time>2026-04-26T13:46:46Z</time></trkpt><trkpt lat="45.420497169545946" lon="7.751541379944648"><ele>428.0</ele><time>2026-04-26T13:46:47Z</time></trkpt><trkpt lat="45.420385346116866" lon="7.7514811985516525"><ele>427.0</ele><time>2026-04-26T13:46:48Z</time></trkpt><trkpt lat="45.42029407991745" lon="7.7513715357933215"><ele>427.0</ele><time>2026-04-26T13:46:49Z</time></trkpt><trkpt lat="45.42020839304255" lon="7.751222917733773"><ele>427.0</ele><time>2026-04-26T13:46:50Z</time></trkpt><trkpt lat="45.42010581902833" lon="7.751049743566259"><ele>427.0</ele><time>2026-04-26T13:46:50.999Z</time></trkpt><trkpt lat="45.42000706281939" lon="7.750893554059035"><ele>427.0</ele><time>2026-04-26T13:46:51.999Z</time></trkpt><trkpt lat="45.419910984567814" lon="7.7507462550203154"><ele>426.75</ele><time>2026-04-26T13:46:52.999Z</time></trkpt><trkpt lat="45.41981495488534" lon="7.750582532540953"><ele>426.5</ele><time>2026-04-26T13:46:53.999Z</time></trkpt><trkpt lat="45.41971789374819" lon="7.7504326145785365"><ele>426.25</ele><time>2026-04-26T13:46:54.999Z</time></trkpt><trkpt lat="45.41963024878463" lon="7.750278259518243"><ele>426.0</ele><time>2026-04-26T13:46:55.999Z</time></trkpt><trkpt lat="45.41953668817978" lon="7.750128406225673"><ele>426.0</ele><time>2026-04-26T13:46:56.999Z</time></trkpt><trkpt lat="45.419438121499034" lon="7.749989033240326"><ele>426.0</ele><time>2026-04-26T13:46:57.999Z</time></trkpt><trkpt lat="45.41932917540396" lon="7.74985695611249"><ele>426.0</ele><time>2026-04-26T13:46:58.999Z</time></trkpt><trkpt lat="45.41920735160538" lon="7.749738401854084"><ele>426.0</ele><time>2026-04-26T13:46:59.999Z</time></trkpt><trkpt lat="45.41908172120993" lon="7.7496205198218435"><ele>426.0</ele><time>2026-04-26T13:47:00.999Z</time></trkpt><trkpt lat="45.418957705617835" lon="7.749488825278398"><ele>426.0</ele><time>2026-04-26T13:47:01.999Z</time></trkpt><trkpt lat="45.418839401801264" lon="7.749364395280108"><ele>426.0</ele><time>2026-04-26T13:47:02.999Z</time></trkpt><trkpt lat="45.4187242653214" lon="7.749245884494346"><ele>426.0</ele><time>2026-04-26T13:47:03.999Z</time></trkpt><trkpt lat="45.418609941444984" lon="7.749129072333462"><ele>425.0</ele><time>2026-04-26T13:47:04.999Z</time></trkpt><trkpt lat="45.41849487572253" lon="7.749006106179924"><ele>424.0</ele><time>2026-04-26T13:47:05.999Z</time></trkpt><trkpt lat="45.41837541307136" lon="7.748883924882037"><ele>423.0</ele><time>2026-04-26T13:47:06.999Z</time></trkpt><trkpt lat="45.418242108162595" lon="7.748776913662606"><ele>422.0</ele><time>2026-04-26T13:47:07.999Z</time></trkpt><trkpt lat="45.41809928767353" lon="7.748678175326224"><ele>421.0</ele><time>2026-04-26T13:47:08.999Z</time></trkpt><trkpt lat="45.417953577156865" lon="7.748579499080975"><ele>420.0</ele><time>2026-04-26T13:47:09.999Z</time></trkpt><trkpt lat="45.41781667783226" lon="7.748479685633248"><ele>419.0</ele><time>2026-04-26T13:47:10.999Z</time></trkpt><trkpt lat="45.41768425306926" lon="7.748378568679736"><ele>419.0</ele><time>2026-04-26T13:47:11.999Z</time></trkpt><trkpt lat="45.41755492229024" lon="7.748284784503659"><ele>419.0</ele><time>2026-04-26T13:47:12.999Z</time></trkpt><trkpt lat="45.41743077705676" lon="7.748194835463447"><ele>419.0</ele><time>2026-04-26T13:47:13.999Z</time></trkpt><trkpt lat="45.41730525170967" lon="7.748103751440815"><ele>419.0</ele><time>2026-04-26T13:47:14.999Z</time></trkpt><trkpt lat="45.417177638262075" lon="7.7480206468251085"><ele>418.0</ele><time>2026-04-26T13:47:15.999Z</time></trkpt><trkpt lat="45.41705185285535" lon="7.747929387889956"><ele>417.0</ele><time>2026-04-26T13:47:16.999Z</time></trkpt><trkpt lat="45.41692215583941" lon="7.74783494717955"><ele>416.0</ele><time>2026-04-26T13:47:17.999Z</time></trkpt><trkpt lat="45.41679120104277" lon="7.747733038957113"><ele>415.0</ele><time>2026-04-26T13:47:18.999Z</time></trkpt><trkpt lat="45.416657036804835" lon="7.74763848131133"><ele>415.0</ele><time>2026-04-26T13:47:19.999Z</time></trkpt><trkpt lat="45.41652632551269" lon="7.7475521947700905"><ele>415.0</ele><time>2026-04-26T13:47:20.999Z</time></trkpt><trkpt lat="45.41639590492552" lon="7.747462876305458"><ele>415.0</ele><time>2026-04-26T13:47:21.999Z</time></trkpt><trkpt lat="45.41626936113875" lon="7.747370141191226"><ele>415.0</ele><time>2026-04-26T13:47:22.999Z</time></trkpt><trkpt lat="45.41614584692869" lon="7.747269017425789"><ele>414.75</ele><time>2026-04-26T13:47:23.999Z</time></trkpt><trkpt lat="45.41602804147619" lon="7.747153391994553"><ele>414.5</ele><time>2026-04-26T13:47:24.999Z</time></trkpt><trkpt lat="45.41592306318874" lon="7.747019884166744"><ele>414.25</ele><time>2026-04-26T13:47:25.999Z</time></trkpt><trkpt lat="45.415845790493705" lon="7.746872381112337"><ele>414.0</ele><time>2026-04-26T13:47:26.999Z</time></trkpt><trkpt lat="45.41579009040998" lon="7.746709590332987"><ele>414.0</ele><time>2026-04-26T13:47:27.999Z</time></trkpt><trkpt lat="45.41575771878293" lon="7.746534150205862"><ele>414.0</ele><time>2026-04-26T13:47:28.999Z</time></trkpt><trkpt lat="45.41573984481467" lon="7.7463521372058235"><ele>414.0</ele><time>2026-04-26T13:47:29.999Z</time></trkpt><trkpt lat="45.41572869769869" lon="7.74617291015463"><ele>414.0</ele><time>2026-04-26T13:47:30.999Z</time></trkpt><trkpt lat="45.415695225685496" lon="7.746011635871408"><ele>415.25</ele><time>2026-04-26T13:47:31.999Z</time></trkpt><trkpt lat="45.415633133075794" lon="7.74585762387961"><ele>416.5</ele><time>2026-04-26T13:47:32.999Z</time></trkpt><trkpt lat="45.415542064915215" lon="7.745716292428354"><ele>417.75</ele><time>2026-04-26T13:47:33.999Z</time></trkpt><trkpt lat="45.4154259595601" lon="7.74558723706761"><ele>419.0</ele><time>2026-04-26T13:47:34.999Z</time></trkpt><trkpt lat="45.415291923103574" lon="7.745474116817212"><ele>420.3333333333333</ele><time>2026-04-26T13:47:35.999Z</time></trkpt><trkpt lat="45.41514512203725" lon="7.7453837182498475"><ele>421.66666666666663</ele><time>2026-04-26T13:47:36.999Z</time></trkpt><trkpt lat="45.4149804407635" lon="7.745303449705211"><ele>423.0</ele><time>2026-04-26T13:47:37.999Z</time></trkpt><trkpt lat="45.41481058929716" lon="7.745225022743192"><ele>421.0</ele><time>2026-04-26T13:47:38.999Z</time></trkpt><trkpt lat="45.414649056574234" lon="7.745131602537503"><ele>419.0</ele><time>2026-04-26T13:47:39.999Z</time></trkpt><trkpt lat="45.41449807491721" lon="7.745036212421453"><ele>417.0</ele><time>2026-04-26T13:47:40.999Z</time></trkpt><trkpt lat="45.41436472990007" lon="7.744913291624151"><ele>417.0</ele><time>2026-04-26T13:47:41.999Z</time></trkpt><trkpt lat="45.414232658870546" lon="7.744797594728256"><ele>417.0</ele><time>2026-04-26T13:47:42.998Z</time></trkpt><trkpt lat="45.41410463116647" lon="7.744698873932651"><ele>417.0</ele><time>2026-04-26T13:47:43.998Z</time></trkpt><trkpt lat="45.41397979737062" lon="7.7445762641615"><ele>417.0</ele><time>2026-04-26T13:47:44.998Z</time></trkpt><trkpt lat="45.41387321837032" lon="7.7444384490724465"><ele>417.0</ele><time>2026-04-26T13:47:45.998Z</time></trkpt><trkpt lat="45.413751931338055" lon="7.744320062199001"><ele>417.0</ele><time>2026-04-26T13:47:46.998Z</time></trkpt><trkpt lat="45.413646667713536" lon="7.7441746834660705"><ele>417.0</ele><time>2026-04-26T13:47:47.998Z</time></trkpt><trkpt lat="45.413534848366396" lon="7.744053834525275"><ele>414.25</ele><time>2026-04-26T13:47:48.998Z</time></trkpt><trkpt lat="45.41340883035308" lon="7.7439785123371525"><ele>411.5</ele><time>2026-04-26T13:47:49.998Z</time></trkpt><trkpt lat="45.41327375299015" lon="7.743917993426456"><ele>408.75</ele><time>2026-04-26T13:47:50.998Z</time></trkpt><trkpt lat="45.413130588808265" lon="7.743855829315262"><ele>406.0</ele><time>2026-04-26T13:47:51.998Z</time></trkpt><trkpt lat="45.412989517503554" lon="7.743761622492"><ele>405.25</ele><time>2026-04-26T13:47:52.998Z</time></trkpt><trkpt lat="45.41285499823419" lon="7.743693546282786"><ele>404.5</ele><time>2026-04-26T13:47:53.998Z</time></trkpt><trkpt lat="45.412728779446496" lon="7.743625169946667"><ele>403.75</ele><time>2026-04-26T13:47:54.998Z</time></trkpt><trkpt lat="45.41261066736431" lon="7.743541335294041"><ele>403.0</ele><time>2026-04-26T13:47:55.998Z</time></trkpt><trkpt lat="45.412496764029804" lon="7.743433216251419"><ele>404.0</ele><time>2026-04-26T13:47:56.998Z</time></trkpt><trkpt lat="45.41239253114657" lon="7.743301607745919"><ele>405.0</ele><time>2026-04-26T13:47:57.998Z</time></trkpt><trkpt lat="45.412298321227915" lon="7.743177130209902"><ele>406.0</ele><time>2026-04-26T13:47:58.998Z</time></trkpt><trkpt lat="45.412204200763455" lon="7.743076454261764"><ele>407.0</ele><time>2026-04-26T13:47:59.998Z</time></trkpt><trkpt lat="45.412128219889354" lon="7.742966523879598"><ele>407.0</ele><time>2026-04-26T13:48:00.998Z</time></trkpt><trkpt lat="45.41204393217724" lon="7.7428844263969125"><ele>407.0</ele><time>2026-04-26T13:48:01.998Z</time></trkpt><trkpt lat="45.41193870911281" lon="7.742849026411358"><ele>407.0</ele><time>2026-04-26T13:48:02.998Z</time></trkpt><trkpt lat="45.41181457230538" lon="7.742847411111575"><ele>407.0</ele><time>2026-04-26T13:48:03.998Z</time></trkpt><trkpt lat="45.4116720568914" lon="7.742879668278844"><ele>407.0</ele><time>2026-04-26T13:48:04.998Z</time></trkpt><trkpt lat="45.411538133509524" lon="7.742924338834589"><ele>407.0</ele><time>2026-04-26T13:48:05.998Z</time></trkpt><trkpt lat="45.41141643129118" lon="7.742945568222066"><ele>407.0</ele><time>2026-04-26T13:48:06.998Z</time></trkpt><trkpt lat="45.411295904778356" lon="7.74297213190375"><ele>407.0</ele><time>2026-04-26T13:48:07.998Z</time></trkpt><trkpt lat="45.41118008603008" lon="7.743027987254261"><ele>404.75</ele><time>2026-04-26T13:48:08.998Z</time></trkpt><trkpt lat="45.41107466085262" lon="7.743114203853997"><ele>402.5</ele><time>2026-04-26T13:48:09.998Z</time></trkpt><trkpt lat="45.41097567448301" lon="7.743216203565299"><ele>400.25</ele><time>2026-04-26T13:48:10.998Z</time></trkpt><trkpt lat="45.41085605053051" lon="7.743271214424342"><ele>398.0</ele><time>2026-04-26T13:48:11.998Z</time></trkpt><trkpt lat="45.41071946081558" lon="7.743317226435646"><ele>398.0</ele><time>2026-04-26T13:48:12.998Z</time></trkpt><trkpt lat="45.41059241175981" lon="7.7433755249403795"><ele>398.0</ele><time>2026-04-26T13:48:13.998Z</time></trkpt><trkpt lat="45.41046869517456" lon="7.743413884188452"><ele>398.0</ele><time>2026-04-26T13:48:14.998Z</time></trkpt><trkpt lat="45.410353102418135" lon="7.7434526581751015"><ele>398.0</ele><time>2026-04-26T13:48:15.998Z</time></trkpt><trkpt lat="45.41024411611389" lon="7.743484794655469"><ele>397.4</ele><time>2026-04-26T13:48:16.998Z</time></trkpt><trkpt lat="45.410146306875156" lon="7.743537938388027"><ele>396.79999999999995</ele><time>2026-04-26T13:48:17.998Z</time></trkpt><trkpt lat="45.41005948450828" lon="7.743627759397046"><ele>396.2</ele><time>2026-04-26T13:48:18.998Z</time></trkpt><trkpt lat="45.40998517659404" lon="7.743742189762732"><ele>395.6</ele><time>2026-04-26T13:48:19.998Z</time></trkpt><trkpt lat="45.409913658772716" lon="7.743848564282924"><ele>395.0</ele><time>2026-04-26T13:48:20.998Z</time></trkpt><trkpt lat="45.40983028143339" lon="7.743929916881249"><ele>394.0</ele><time>2026-04-26T13:48:21.998Z</time></trkpt><trkpt lat="45.40973415690413" lon="7.743972593445092"><ele>393.0</ele><time>2026-04-26T13:48:22.998Z</time></trkpt><trkpt lat="45.40961395401564" lon="7.74395992688907"><ele>392.0</ele><time>2026-04-26T13:48:23.998Z</time></trkpt><trkpt lat="45.4094893326672" lon="7.7439140085466684"><ele>391.0</ele><time>2026-04-26T13:48:24.998Z</time></trkpt><trkpt lat="45.40935592841441" lon="7.743857470192677"><ele>388.6666666666667</ele><time>2026-04-26T13:48:25.998Z</time></trkpt><trkpt lat="45.409203886535146" lon="7.743817922848884"><ele>386.33333333333337</ele><time>2026-04-26T13:48:26.998Z</time></trkpt><trkpt lat="45.40904090584627" lon="7.743791171380649"><ele>384.0</ele><time>2026-04-26T13:48:27.998Z</time></trkpt><trkpt lat="45.408888166779896" lon="7.743752861220279"><ele>383.0</ele><time>2026-04-26T13:48:28.998Z</time></trkpt><trkpt lat="45.40873649735819" lon="7.743712418256842"><ele>382.0</ele><time>2026-04-26T13:48:29.998Z</time></trkpt><trkpt lat="45.40858084852771" lon="7.743665749538199"><ele>381.0</ele><time>2026-04-26T13:48:30.998Z</time></trkpt><trkpt lat="45.40842053272411" lon="7.743621069383038"><ele>381.0</ele><time>2026-04-26T13:48:31.998Z</time></trkpt><trkpt lat="45.408258876908995" lon="7.743586467838235"><ele>381.0</ele><time>2026-04-26T13:48:32.998Z</time></trkpt><trkpt lat="45.408105088708126" lon="7.7435460406146"><ele>381.0</ele><time>2026-04-26T13:48:33.997Z</time></trkpt><trkpt lat="45.40796117072553" lon="7.74350529354459"><ele>381.0</ele><time>2026-04-26T13:48:34.997Z</time></trkpt><trkpt lat="45.407816105956435" lon="7.743470398067847"><ele>381.0</ele><time>2026-04-26T13:48:35.997Z</time></trkpt><trkpt lat="45.40767967339496" lon="7.743432478519847"><ele>381.0</ele><time>2026-04-26T13:48:36.997Z</time></trkpt><trkpt lat="45.40755569503294" lon="7.743352226383837"><ele>381.0</ele><time>2026-04-26T13:48:37.997Z</time></trkpt><trkpt lat="45.40742388928724" lon="7.743287854580308"><ele>381.0</ele><time>2026-04-26T13:48:39Z</time></trkpt><trkpt lat="45.40729931353864" lon="7.743181701465416"><ele>381.0</ele><time>2026-04-26T13:48:40Z</time></trkpt><trkpt lat="45.40716977095265" lon="7.7430720958600165"><ele>381.0</ele><time>2026-04-26T13:48:41Z</time></trkpt><trkpt lat="45.40703649832192" lon="7.7429597829203525"><ele>381.0</ele><time>2026-04-26T13:48:42Z</time></trkpt><trkpt lat="45.40689922605719" lon="7.742838073621259"><ele>381.0</ele><time>2026-04-26T13:48:43Z</time></trkpt><trkpt lat="45.406750258694196" lon="7.74270085025173"><ele>381.0</ele><time>2026-04-26T13:48:44Z</time></trkpt><trkpt lat="45.406599603609926" lon="7.742559156774878"><ele>381.0</ele><time>2026-04-26T13:48:45Z</time></trkpt><trkpt lat="45.406450427545835" lon="7.742418445372185"><ele>381.0</ele><time>2026-04-26T13:48:46Z</time></trkpt><trkpt lat="45.406306216111766" lon="7.742287280475619"><ele>381.0</ele><time>2026-04-26T13:48:47Z</time></trkpt><trkpt lat="45.40616870702777" lon="7.742165193262484"><ele>380.3333333333333</ele><time>2026-04-26T13:48:48Z</time></trkpt><trkpt lat="45.40603437246219" lon="7.74205154085454"><ele>379.66666666666663</ele><time>2026-04-26T13:48:49Z</time></trkpt><trkpt lat="45.40589990578363" lon="7.7419414661841826"><ele>379.0</ele><time>2026-04-26T13:48:50Z</time></trkpt><trkpt lat="45.40576453460986" lon="7.741865341332775"><ele>379.0</ele><time>2026-04-26T13:48:51Z</time></trkpt><trkpt lat="45.405637046755174" lon="7.741791638914838"><ele>379.0</ele><time>2026-04-26T13:48:52Z</time></trkpt><trkpt lat="45.40551690886769" lon="7.741689067810865"><ele>379.0</ele><time>2026-04-26T13:48:53Z</time></trkpt><trkpt lat="45.40538748442596" lon="7.741624892799837"><ele>379.0</ele><time>2026-04-26T13:48:54Z</time></trkpt><trkpt lat="45.40526852711496" lon="7.7415355178469625"><ele>378.5</ele><time>2026-04-26T13:48:55Z</time></trkpt><trkpt lat="45.40514689551476" lon="7.741453694262002"><ele>378.0</ele><time>2026-04-26T13:48:55.999Z</time></trkpt><trkpt lat="45.40502487188459" lon="7.741375432767181"><ele>377.5</ele><time>2026-04-26T13:48:56.999Z</time></trkpt><trkpt lat="45.40490757241178" lon="7.741274516555367"><ele>377.0</ele><time>2026-04-26T13:48:57.999Z</time></trkpt><trkpt lat="45.40477854445612" lon="7.7411975677542335"><ele>376.5</ele><time>2026-04-26T13:48:58.999Z</time></trkpt><trkpt lat="45.404636841597785" lon="7.741141790720585"><ele>376.0</ele><time>2026-04-26T13:48:59.999Z</time></trkpt><trkpt lat="45.40450002206917" lon="7.741082085350685"><ele>375.5</ele><time>2026-04-26T13:49:00.999Z</time></trkpt><trkpt lat="45.40436721058341" lon="7.7410440576655795"><ele>375.0</ele><time>2026-04-26T13:49:01.999Z</time></trkpt><trkpt lat="45.40423967168167" lon="7.741037131671981"><ele>375.0</ele><time>2026-04-26T13:49:02.999Z</time></trkpt><trkpt lat="45.404120988497674" lon="7.741055736132933"><ele>375.0</ele><time>2026-04-26T13:49:03.999Z</time></trkpt><trkpt lat="45.40401069768788" lon="7.741097843324965"><ele>375.0</ele><time>2026-04-26T13:49:04.999Z</time></trkpt><trkpt lat="45.403899526058815" lon="7.741139051420464"><ele>375.0</ele><time>2026-04-26T13:49:05.999Z</time></trkpt><trkpt lat="45.40377915349772" lon="7.74118009908491"><ele>375.4</ele><time>2026-04-26T13:49:06.999Z</time></trkpt><trkpt lat="45.403663758227495" lon="7.741217443293205"><ele>375.8</ele><time>2026-04-26T13:49:07.999Z</time></trkpt><trkpt lat="45.40355721289327" lon="7.741253837798645"><ele>376.20000000000005</ele><time>2026-04-26T13:49:08.999Z</time></trkpt><trkpt lat="45.40346101759334" lon="7.74128284803419"><ele>376.6</ele><time>2026-04-26T13:49:09.999Z</time></trkpt><trkpt lat="45.40338231566482" lon="7.741303597167214"><ele>377.0</ele><time>2026-04-26T13:49:10.999Z</time></trkpt><trkpt lat="45.40328599444578" lon="7.74131043962726"><ele>377.0</ele><time>2026-04-26T13:49:12.999Z</time></trkpt><trkpt lat="45.40321839008923" lon="7.741238716172931"><ele>377.0</ele><time>2026-04-26T13:49:17.999Z</time></trkpt><trkpt lat="45.40317151084743" lon="7.7411589849189815"><ele>377.0</ele><time>2026-04-26T13:49:18.999Z</time></trkpt><trkpt lat="45.40312737007517" lon="7.741086491303702"><ele>377.0</ele><time>2026-04-26T13:49:19.999Z</time></trkpt><trkpt lat="45.40306304465355" lon="7.741000281356009"><ele>377.0</ele><time>2026-04-26T13:49:20.999Z</time></trkpt><trkpt lat="45.40298898474842" lon="7.740912793902309"><ele>377.0</ele><time>2026-04-26T13:49:21.999Z</time></trkpt><trkpt lat="45.4029102916594" lon="7.7408211321784055"><ele>377.5</ele><time>2026-04-26T13:49:22.999Z</time></trkpt><trkpt lat="45.402824169636446" lon="7.740727693438346"><ele>378.0</ele><time>2026-04-26T13:49:23.999Z</time></trkpt><trkpt lat="45.40272838420692" lon="7.740638609055464"><ele>378.5</ele><time>2026-04-26T13:49:24.999Z</time></trkpt><trkpt lat="45.402622504163695" lon="7.740546949394375"><ele>379.0</ele><time>2026-04-26T13:49:25.999Z</time></trkpt><trkpt lat="45.402517585831845" lon="7.740450095770014"><ele>379.0</ele><time>2026-04-26T13:49:26.999Z</time></trkpt><trkpt lat="45.40240030456452" lon="7.740351318336994"><ele>379.0</ele><time>2026-04-26T13:49:27.999Z</time></trkpt><trkpt lat="45.40230853192122" lon="7.740261653478144"><ele>379.0</ele><time>2026-04-26T13:49:28.999Z</time></trkpt><trkpt lat="45.40223497413583" lon="7.740173688509607"><ele>379.0</ele><time>2026-04-26T13:49:29.999Z</time></trkpt><trkpt lat="45.402170581636724" lon="7.740054329627276"><ele>379.0</ele><time>2026-04-26T13:49:31.999Z</time></trkpt><trkpt lat="45.40187620596752" lon="7.739879860938139"><ele>376.75</ele><time>2026-04-26T13:49:32.999Z</time></trkpt><trkpt lat="45.40176421946877" lon="7.739784413935163"><ele>374.5</ele><time>2026-04-26T13:49:33.999Z</time></trkpt><trkpt lat="45.40164864612092" lon="7.739675900727827"><ele>372.25</ele><time>2026-04-26T13:49:34.999Z</time></trkpt><trkpt lat="45.401531268382726" lon="7.739578083274503"><ele>370.0</ele><time>2026-04-26T13:49:35.999Z</time></trkpt><trkpt lat="45.40141117058408" lon="7.739468027199325"><ele>369.5</ele><time>2026-04-26T13:49:36.999Z</time></trkpt><trkpt lat="45.401286827007745" lon="7.739358602252116"><ele>369.0</ele><time>2026-04-26T13:49:37.999Z</time></trkpt><trkpt lat="45.401159930034595" lon="7.739247409391977"><ele>368.5</ele><time>2026-04-26T13:49:38.999Z</time></trkpt><trkpt lat="45.40103611297891" lon="7.739137664344449"><ele>368.0</ele><time>2026-04-26T13:49:39.999Z</time></trkpt><trkpt lat="45.40090965615626" lon="7.739024229218814"><ele>368.0</ele><time>2026-04-26T13:49:40.999Z</time></trkpt><trkpt lat="45.40077747751865" lon="7.738904878559385"><ele>368.0</ele><time>2026-04-26T13:49:41.999Z</time></trkpt><trkpt lat="45.40064407480662" lon="7.7387829280778835"><ele>368.0</ele><time>2026-04-26T13:49:42.999Z</time></trkpt><trkpt lat="45.40050534081976" lon="7.738661973663197"><ele>366.6666666666667</ele><time>2026-04-26T13:49:43.999Z</time></trkpt><trkpt lat="45.40036919113968" lon="7.738545777293152"><ele>365.3333333333333</ele><time>2026-04-26T13:49:44.999Z</time></trkpt><trkpt lat="45.400232537986554" lon="7.738413932724787"><ele>364.0</ele><time>2026-04-26T13:49:45.999Z</time></trkpt><trkpt lat="45.400091193645785" lon="7.738283676278835"><ele>364.0</ele><time>2026-04-26T13:49:46.998Z</time></trkpt><trkpt lat="45.399949087649496" lon="7.738155524083138"><ele>364.0</ele><time>2026-04-26T13:49:47.998Z</time></trkpt><trkpt lat="45.399811807999725" lon="7.738030185218694"><ele>364.0</ele><time>2026-04-26T13:49:48.998Z</time></trkpt><trkpt lat="45.399676204304676" lon="7.737908235349322"><ele>363.3333333333333</ele><time>2026-04-26T13:49:49.998Z</time></trkpt><trkpt lat="45.39953457457161" lon="7.7377833725852625"><ele>362.6666666666667</ele><time>2026-04-26T13:49:50.998Z</time></trkpt><trkpt lat="45.3993949650619" lon="7.737659683146934"><ele>362.0</ele><time>2026-04-26T13:49:51.998Z</time></trkpt><trkpt lat="45.399251807121175" lon="7.737534702548268"><ele>362.0</ele><time>2026-04-26T13:49:52.998Z</time></trkpt><trkpt lat="45.39911239486165" lon="7.737409301354142"><ele>362.0</ele><time>2026-04-26T13:49:53.998Z</time></trkpt><trkpt lat="45.39897077784578" lon="7.737283227097197"><ele>362.0</ele><time>2026-04-26T13:49:54.998Z</time></trkpt><trkpt lat="45.398827586355175" lon="7.737156422392593"><ele>361.0</ele><time>2026-04-26T13:49:55.998Z</time></trkpt><trkpt lat="45.39868618964368" lon="7.737033913590604"><ele>360.0</ele><time>2026-04-26T13:49:56.998Z</time></trkpt><trkpt lat="45.39854234671892" lon="7.736907319768009"><ele>359.0</ele><time>2026-04-26T13:49:57.998Z</time></trkpt><trkpt lat="45.39840262740962" lon="7.736779271516399"><ele>359.0</ele><time>2026-04-26T13:49:58.998Z</time></trkpt><trkpt lat="45.39826076229997" lon="7.7366517962579096"><ele>359.0</ele><time>2026-04-26T13:49:59.998Z</time></trkpt><trkpt lat="45.398115902641884" lon="7.736525881630793"><ele>359.0</ele><time>2026-04-26T13:50:00.998Z</time></trkpt><trkpt lat="45.39797369952667" lon="7.736397243000783"><ele>358.0</ele><time>2026-04-26T13:50:01.998Z</time></trkpt><trkpt lat="45.39783472893815" lon="7.736270679852024"><ele>357.0</ele><time>2026-04-26T13:50:02.998Z</time></trkpt><trkpt lat="45.39769211860869" lon="7.736142847480737"><ele>356.0</ele><time>2026-04-26T13:50:03.998Z</time></trkpt><trkpt lat="45.39754826616302" lon="7.736015586531962"><ele>356.0</ele><time>2026-04-26T13:50:04.998Z</time></trkpt><trkpt lat="45.3973990608179" lon="7.735884191379522"><ele>356.0</ele><time>2026-04-26T13:50:05.998Z</time></trkpt><trkpt lat="45.39724863165132" lon="7.735749957591311"><ele>356.0</ele><time>2026-04-26T13:50:06.998Z</time></trkpt><trkpt lat="45.397097345530824" lon="7.7356160649798085"><ele>355.0</ele><time>2026-04-26T13:50:07.998Z</time></trkpt><trkpt lat="45.39694654944168" lon="7.735483166904373"><ele>354.0</ele><time>2026-04-26T13:50:08.998Z</time></trkpt><trkpt lat="45.39679654178114" lon="7.735345243108756"><ele>353.0</ele><time>2026-04-26T13:50:09.998Z</time></trkpt><trkpt lat="45.39664717745206" lon="7.735205292815954"><ele>353.0</ele><time>2026-04-26T13:50:10.998Z</time></trkpt><trkpt lat="45.396495976785246" lon="7.735072233617846"><ele>353.0</ele><time>2026-04-26T13:50:11.998Z</time></trkpt><trkpt lat="45.39634109854271" lon="7.73494554870439"><ele>353.0</ele><time>2026-04-26T13:50:12.998Z</time></trkpt><trkpt lat="45.39618738120772" lon="7.734811800467508"><ele>352.33333333333337</ele><time>2026-04-26T13:50:13.998Z</time></trkpt><trkpt lat="45.39603627486095" lon="7.734672923148049"><ele>351.6666666666667</ele><time>2026-04-26T13:50:14.998Z</time></trkpt><trkpt lat="45.395884221268574" lon="7.734531718891905"><ele>351.0</ele><time>2026-04-26T13:50:15.998Z</time></trkpt><trkpt lat="45.39573272069146" lon="7.734393175086222"><ele>351.0</ele><time>2026-04-26T13:50:16.998Z</time></trkpt><trkpt lat="45.39558132655073" lon="7.734254505362252"><ele>351.0</ele><time>2026-04-26T13:50:17.998Z</time></trkpt><trkpt lat="45.39542679175506" lon="7.734116552622973"><ele>351.0</ele><time>2026-04-26T13:50:18.998Z</time></trkpt><trkpt lat="45.39526803306962" lon="7.733976184479551"><ele>351.3333333333333</ele><time>2026-04-26T13:50:19.998Z</time></trkpt><trkpt lat="45.395114298446295" lon="7.733842132593211"><ele>351.66666666666663</ele><time>2026-04-26T13:50:20.998Z</time></trkpt><trkpt lat="45.39496684655177" lon="7.733708900556497"><ele>352.0</ele><time>2026-04-26T13:50:21.998Z</time></trkpt><trkpt lat="45.394821533624196" lon="7.733576819230814"><ele>351.3333333333333</ele><time>2026-04-26T13:50:22.998Z</time></trkpt><trkpt lat="45.3946812999627" lon="7.733452684374239"><ele>350.6666666666667</ele><time>2026-04-26T13:50:23.998Z</time></trkpt><trkpt lat="45.394540037708175" lon="7.733329330707727"><ele>350.0</ele><time>2026-04-26T13:50:24.998Z</time></trkpt><trkpt lat="45.39439534775481" lon="7.733198307761668"><ele>349.0</ele><time>2026-04-26T13:50:25.998Z</time></trkpt><trkpt lat="45.39424875878373" lon="7.73306458094304"><ele>348.0</ele><time>2026-04-26T13:50:26.998Z</time></trkpt><trkpt lat="45.394098094979945" lon="7.7329325292979005"><ele>347.0</ele><time>2026-04-26T13:50:27.998Z</time></trkpt><trkpt lat="45.39395453835942" lon="7.732806599615621"><ele>346.6666666666667</ele><time>2026-04-26T13:50:28.998Z</time></trkpt><trkpt lat="45.393822163650164" lon="7.732683480881582"><ele>346.3333333333333</ele><time>2026-04-26T13:50:29.998Z</time></trkpt><trkpt lat="45.39368803950159" lon="7.732562248246454"><ele>346.0</ele><time>2026-04-26T13:50:30.998Z</time></trkpt><trkpt lat="45.39354914551572" lon="7.732445696532849"><ele>346.0</ele><time>2026-04-26T13:50:31.998Z</time></trkpt><trkpt lat="45.39341603628134" lon="7.732331543926113"><ele>346.0</ele><time>2026-04-26T13:50:32.998Z</time></trkpt><trkpt lat="45.393282276410844" lon="7.732213933159854"><ele>346.0</ele><time>2026-04-26T13:50:33.998Z</time></trkpt><trkpt lat="45.393161181783185" lon="7.732101296739184"><ele>346.0</ele><time>2026-04-26T13:50:34.998Z</time></trkpt><trkpt lat="45.39302887037207" lon="7.7319876244247485"><ele>346.0</ele><time>2026-04-26T13:50:35.998Z</time></trkpt><trkpt lat="45.39290400065411" lon="7.731872958524843"><ele>346.0</ele><time>2026-04-26T13:50:36.998Z</time></trkpt><trkpt lat="45.39278752927905" lon="7.731764300608989"><ele>346.0</ele><time>2026-04-26T13:50:37.997Z</time></trkpt><trkpt lat="45.39267498138688" lon="7.731664114364514"><ele>345.5</ele><time>2026-04-26T13:50:38.997Z</time></trkpt><trkpt lat="45.392563726938185" lon="7.731569377087488"><ele>345.0</ele><time>2026-04-26T13:50:39.997Z</time></trkpt><trkpt lat="45.39245495644626" lon="7.7314810716155415"><ele>344.5</ele><time>2026-04-26T13:50:40.997Z</time></trkpt><trkpt lat="45.392344853412034" lon="7.731387529780479"><ele>344.0</ele><time>2026-04-26T13:50:41.997Z</time></trkpt><trkpt lat="45.39224162132517" lon="7.731293235182371"><ele>343.79999999999995</ele><time>2026-04-26T13:50:42.997Z</time></trkpt><trkpt lat="45.39214151941351" lon="7.731203878895766"><ele>343.59999999999997</ele><time>2026-04-26T13:50:43.997Z</time></trkpt><trkpt lat="45.392045487485895" lon="7.731118174609919"><ele>343.4</ele><time>2026-04-26T13:50:45Z</time></trkpt><trkpt lat="45.3919583733044" lon="7.731025299506301"><ele>343.2</ele><time>2026-04-26T13:50:46Z</time></trkpt><trkpt lat="45.391877596816904" lon="7.730923614545773"><ele>343.0</ele><time>2026-04-26T13:50:47Z</time></trkpt><trkpt lat="45.391806676052234" lon="7.730819250071589"><ele>342.59999999999997</ele><time>2026-04-26T13:50:48Z</time></trkpt><trkpt lat="45.39175390486773" lon="7.73069459284619"><ele>342.2</ele><time>2026-04-26T13:50:49Z</time></trkpt><trkpt lat="45.39168289738344" lon="7.7305975174429005"><ele>341.8</ele><time>2026-04-26T13:50:50Z</time></trkpt><trkpt lat="45.39162900581946" lon="7.730484864541416"><ele>341.4</ele><time>2026-04-26T13:50:51Z</time></trkpt><trkpt lat="45.391569089512075" lon="7.73037460223718"><ele>341.0</ele><time>2026-04-26T13:50:52Z</time></trkpt><trkpt lat="45.3915096282473" lon="7.730262427543212"><ele>341.0</ele><time>2026-04-26T13:50:53Z</time></trkpt><trkpt lat="45.391446667636004" lon="7.730145693701553"><ele>341.0</ele><time>2026-04-26T13:50:54Z</time></trkpt><trkpt lat="45.39137420520849" lon="7.730023264917229"><ele>341.0</ele><time>2026-04-26T13:50:55Z</time></trkpt><trkpt lat="45.391304047342" lon="7.729893096088327"><ele>341.0</ele><time>2026-04-26T13:50:56Z</time></trkpt><trkpt lat="45.39123256574963" lon="7.729752206438715"><ele>341.25</ele><time>2026-04-26T13:50:57Z</time></trkpt><trkpt lat="45.39115974497407" lon="7.729613701151334"><ele>341.5</ele><time>2026-04-26T13:50:58Z</time></trkpt><trkpt lat="45.39108446175429" lon="7.729476610899388"><ele>341.75</ele><time>2026-04-26T13:50:59Z</time></trkpt><trkpt lat="45.391008014293575" lon="7.729330727848484"><ele>342.0</ele><time>2026-04-26T13:50:59.999Z</time></trkpt><trkpt lat="45.390930647024874" lon="7.729182817267732"><ele>342.0</ele><time>2026-04-26T13:51:00.999Z</time></trkpt><trkpt lat="45.39084968267105" lon="7.729031777478056"><ele>342.0</ele><time>2026-04-26T13:51:01.999Z</time></trkpt><trkpt lat="45.39076752037386" lon="7.728878515842043"><ele>342.0</ele><time>2026-04-26T13:51:02.999Z</time></trkpt><trkpt lat="45.39068950094605" lon="7.728730750992874"><ele>342.0</ele><time>2026-04-26T13:51:03.999Z</time></trkpt><trkpt lat="45.39061441735734" lon="7.728589743511728"><ele>341.75</ele><time>2026-04-26T13:51:04.999Z</time></trkpt><trkpt lat="45.39053814506065" lon="7.728450227317829"><ele>341.5</ele><time>2026-04-26T13:51:05.999Z</time></trkpt><trkpt lat="45.39046189018246" lon="7.7283119090564725"><ele>341.25</ele><time>2026-04-26T13:51:06.999Z</time></trkpt><trkpt lat="45.39038807175609" lon="7.728168734586519"><ele>341.0</ele><time>2026-04-26T13:51:07.999Z</time></trkpt><trkpt lat="45.39031612807051" lon="7.7280276200706535"><ele>340.75</ele><time>2026-04-26T13:51:08.999Z</time></trkpt><trkpt lat="45.39023623419781" lon="7.727882002185826"><ele>340.5</ele><time>2026-04-26T13:51:09.999Z</time></trkpt><trkpt lat="45.390155534083824" lon="7.727734436316439"><ele>340.25</ele><time>2026-04-26T13:51:10.999Z</time></trkpt><trkpt lat="45.39007450135209" lon="7.727582961188181"><ele>340.0</ele><time>2026-04-26T13:51:11.999Z</time></trkpt><trkpt lat="45.389992516476845" lon="7.727424717015462"><ele>340.0</ele><time>2026-04-26T13:51:12.999Z</time></trkpt><trkpt lat="45.389907648151954" lon="7.727263189683564"><ele>340.0</ele><time>2026-04-26T13:51:13.999Z</time></trkpt><trkpt lat="45.38982461369629" lon="7.727111379921782"><ele>340.0</ele><time>2026-04-26T13:51:14.999Z</time></trkpt><trkpt lat="45.38974487148688" lon="7.726959686458857"><ele>340.0</ele><time>2026-04-26T13:51:15.999Z</time></trkpt><trkpt lat="45.38966710953301" lon="7.726809803589752"><ele>339.75</ele><time>2026-04-26T13:51:16.999Z</time></trkpt><trkpt lat="45.3895854424712" lon="7.72665987956113"><ele>339.5</ele><time>2026-04-26T13:51:17.999Z</time></trkpt><trkpt lat="45.38950919024364" lon="7.726515701852767"><ele>339.25</ele><time>2026-04-26T13:51:18.999Z</time></trkpt><trkpt lat="45.389430782858646" lon="7.72635845460832"><ele>339.0</ele><time>2026-04-26T13:51:19.999Z</time></trkpt><trkpt lat="45.38935147118312" lon="7.726204966707555"><ele>339.25</ele><time>2026-04-26T13:51:20.999Z</time></trkpt><trkpt lat="45.38926946115618" lon="7.7260550721053995"><ele>339.5</ele><time>2026-04-26T13:51:21.999Z</time></trkpt><trkpt lat="45.38918662626661" lon="7.7259039826024125"><ele>339.75</ele><time>2026-04-26T13:51:22.999Z</time></trkpt><trkpt lat="45.3891072010873" lon="7.725755989699919"><ele>340.0</ele><time>2026-04-26T13:51:23.999Z</time></trkpt><trkpt lat="45.389025836622636" lon="7.725604367928335"><ele>340.0</ele><time>2026-04-26T13:51:24.999Z</time></trkpt><trkpt lat="45.388944608320074" lon="7.725445978852256"><ele>340.0</ele><time>2026-04-26T13:51:25.999Z</time></trkpt><trkpt lat="45.38886408753254" lon="7.725292941916211"><ele>340.0</ele><time>2026-04-26T13:51:26.999Z</time></trkpt><trkpt lat="45.38878532172761" lon="7.725143129866916"><ele>340.0</ele><time>2026-04-26T13:51:27.999Z</time></trkpt><trkpt lat="45.38871019836659" lon="7.725000126820011"><ele>340.0</ele><time>2026-04-26T13:51:28.999Z</time></trkpt><trkpt lat="45.388636188196244" lon="7.724858441163048"><ele>340.0</ele><time>2026-04-26T13:51:29.999Z</time></trkpt><trkpt lat="45.38856267822384" lon="7.724712116918655"><ele>340.0</ele><time>2026-04-26T13:51:30.999Z</time></trkpt><trkpt lat="45.38849166804003" lon="7.724575255230272"><ele>340.0</ele><time>2026-04-26T13:51:31.999Z</time></trkpt><trkpt lat="45.38841625233651" lon="7.724441381814308"><ele>339.75</ele><time>2026-04-26T13:51:32.999Z</time></trkpt><trkpt lat="45.38833666007" lon="7.72430353240754"><ele>339.5</ele><time>2026-04-26T13:51:33.999Z</time></trkpt><trkpt lat="45.388261184245344" lon="7.724155229622299"><ele>339.25</ele><time>2026-04-26T13:51:34.999Z</time></trkpt><trkpt lat="45.38818576657563" lon="7.72401438042883"><ele>339.0</ele><time>2026-04-26T13:51:35.999Z</time></trkpt><trkpt lat="45.388114895982085" lon="7.723878082518446"><ele>339.0</ele><time>2026-04-26T13:51:36.999Z</time></trkpt><trkpt lat="45.38804555191011" lon="7.723746918761255"><ele>339.0</ele><time>2026-04-26T13:51:37.999Z</time></trkpt><trkpt lat="45.38798377074282" lon="7.723622557649527"><ele>339.0</ele><time>2026-04-26T13:51:38.999Z</time></trkpt><trkpt lat="45.38792436921864" lon="7.723500952091921"><ele>339.0</ele><time>2026-04-26T13:51:39.999Z</time></trkpt><trkpt lat="45.38786072220487" lon="7.72339241676219"><ele>339.0</ele><time>2026-04-26T13:51:40.999Z</time></trkpt><trkpt lat="45.387787382256704" lon="7.723301475879233"><ele>340.2</ele><time>2026-04-26T13:51:41.999Z</time></trkpt><trkpt lat="45.387709371165045" lon="7.723230255909258"><ele>341.4</ele><time>2026-04-26T13:51:42.999Z</time></trkpt><trkpt lat="45.38762650209082" lon="7.723165680289466"><ele>342.6</ele><time>2026-04-26T13:51:43.999Z</time></trkpt><trkpt lat="45.38754382851951" lon="7.723105389687542"><ele>343.8</ele><time>2026-04-26T13:51:44.999Z</time></trkpt><trkpt lat="45.387459605545" lon="7.723047015697661"><ele>345.0</ele><time>2026-04-26T13:51:45.999Z</time></trkpt><trkpt lat="45.387369471903995" lon="7.722986813191269"><ele>345.0</ele><time>2026-04-26T13:51:46.999Z</time></trkpt><trkpt lat="45.387277136756346" lon="7.722923060677606"><ele>345.0</ele><time>2026-04-26T13:51:47.999Z</time></trkpt><trkpt lat="45.38717803167117" lon="7.72285296665122"><ele>345.0</ele><time>2026-04-26T13:51:48.999Z</time></trkpt><trkpt lat="45.38707476284234" lon="7.722772229566738"><ele>345.0</ele><time>2026-04-26T13:51:49.999Z</time></trkpt><trkpt lat="45.38697372658941" lon="7.7226738967902895"><ele>343.5</ele><time>2026-04-26T13:51:50.999Z</time></trkpt><trkpt lat="45.386876917299325" lon="7.722552665596414"><ele>342.0</ele><time>2026-04-26T13:51:51.999Z</time></trkpt><trkpt lat="45.38678598117556" lon="7.722424304375912"><ele>340.5</ele><time>2026-04-26T13:51:52.998Z</time></trkpt><trkpt lat="45.38669085405965" lon="7.722307552106617"><ele>339.0</ele><time>2026-04-26T13:51:53.998Z</time></trkpt><trkpt lat="45.386599820312355" lon="7.722196903533952"><ele>339.0</ele><time>2026-04-26T13:51:54.998Z</time></trkpt><trkpt lat="45.38651351878952" lon="7.72208508934622"><ele>339.0</ele><time>2026-04-26T13:51:55.998Z</time></trkpt><trkpt lat="45.386429072782065" lon="7.721976417418869"><ele>339.0</ele><time>2026-04-26T13:51:56.998Z</time></trkpt><trkpt lat="45.38634884018422" lon="7.721866222115214"><ele>339.0</ele><time>2026-04-26T13:51:57.998Z</time></trkpt><trkpt lat="45.3862734534515" lon="7.721751977781458"><ele>338.6</ele><time>2026-04-26T13:51:58.998Z</time></trkpt><trkpt lat="45.38619873574945" lon="7.721637834860371"><ele>338.2</ele><time>2026-04-26T13:51:59.998Z</time></trkpt><trkpt lat="45.386131376929164" lon="7.721513130678609"><ele>337.8</ele><time>2026-04-26T13:52:00.998Z</time></trkpt><trkpt lat="45.386076058193716" lon="7.721378419330484"><ele>337.40000000000003</ele><time>2026-04-26T13:52:01.998Z</time></trkpt><trkpt lat="45.38602910077577" lon="7.721230706887978"><ele>337.0</ele><time>2026-04-26T13:52:02.998Z</time></trkpt><trkpt lat="45.385995919159356" lon="7.721079499586547"><ele>337.75</ele><time>2026-04-26T13:52:03.998Z</time></trkpt><trkpt lat="45.38597384551251" lon="7.720919113110701"><ele>338.5</ele><time>2026-04-26T13:52:04.998Z</time></trkpt><trkpt lat="45.385949399593464" lon="7.720754179731953"><ele>339.25</ele><time>2026-04-26T13:52:05.998Z</time></trkpt><trkpt lat="45.38592332341821" lon="7.720596653494301"><ele>340.0</ele><time>2026-04-26T13:52:06.998Z</time></trkpt><trkpt lat="45.38590348543714" lon="7.720441145860978"><ele>340.0</ele><time>2026-04-26T13:52:07.998Z</time></trkpt><trkpt lat="45.38588971388296" lon="7.720291718238219"><ele>340.0</ele><time>2026-04-26T13:52:08.998Z</time></trkpt><trkpt lat="45.38587338002739" lon="7.7201523081695616"><ele>340.0</ele><time>2026-04-26T13:52:09.998Z</time></trkpt><trkpt lat="45.38585754148918" lon="7.720014626964322"><ele>340.0</ele><time>2026-04-26T13:52:10.998Z</time></trkpt><trkpt lat="45.38584582602455" lon="7.7198864248813335"><ele>340.0</ele><time>2026-04-26T13:52:11.998Z</time></trkpt><trkpt lat="45.38583540928392" lon="7.719758299522588"><ele>340.0</ele><time>2026-04-26T13:52:12.998Z</time></trkpt><trkpt lat="45.385820276484694" lon="7.719632710315352"><ele>340.0</ele><time>2026-04-26T13:52:13.998Z</time></trkpt><trkpt lat="45.38580957250584" lon="7.719500410950856"><ele>340.0</ele><time>2026-04-26T13:52:14.998Z</time></trkpt><trkpt lat="45.38579952088747" lon="7.719361205874709"><ele>340.0</ele><time>2026-04-26T13:52:15.998Z</time></trkpt><trkpt lat="45.38578429583534" lon="7.719220295530735"><ele>340.0</ele><time>2026-04-26T13:52:16.998Z</time></trkpt><trkpt lat="45.38576896269449" lon="7.719085674640713"><ele>340.0</ele><time>2026-04-26T13:52:17.998Z</time></trkpt><trkpt lat="45.38575687393902" lon="7.7189564316788015"><ele>340.0</ele><time>2026-04-26T13:52:18.998Z</time></trkpt><trkpt lat="45.3857448189683" lon="7.718829453045801"><ele>340.0</ele><time>2026-04-26T13:52:19.998Z</time></trkpt><trkpt lat="45.38573470431923" lon="7.718703321843048"><ele>340.0</ele><time>2026-04-26T13:52:20.998Z</time></trkpt><trkpt lat="45.38572678519533" lon="7.718570711521497"><ele>340.0</ele><time>2026-04-26T13:52:21.998Z</time></trkpt><trkpt lat="45.38571603837337" lon="7.718435832496751"><ele>340.5</ele><time>2026-04-26T13:52:22.998Z</time></trkpt><trkpt lat="45.38570397525575" lon="7.71830350728031"><ele>341.0</ele><time>2026-04-26T13:52:23.998Z</time></trkpt><trkpt lat="45.38569638820315" lon="7.718179901032447"><ele>341.5</ele><time>2026-04-26T13:52:24.998Z</time></trkpt><trkpt lat="45.38568606252112" lon="7.718060017319476"><ele>342.0</ele><time>2026-04-26T13:52:25.998Z</time></trkpt><trkpt lat="45.38566158934968" lon="7.7179395421293915"><ele>342.5</ele><time>2026-04-26T13:52:26.998Z</time></trkpt><trkpt lat="45.38564759074333" lon="7.717812406498338"><ele>343.0</ele><time>2026-04-26T13:52:27.998Z</time></trkpt><trkpt lat="45.385637170482646" lon="7.717685903927684"><ele>343.0</ele><time>2026-04-26T13:52:28.998Z</time></trkpt><trkpt lat="45.38562622226748" lon="7.717563136698769"><ele>343.0</ele><time>2026-04-26T13:52:29.998Z</time></trkpt><trkpt lat="45.38561436789638" lon="7.717446825404668"><ele>343.0</ele><time>2026-04-26T13:52:30.998Z</time></trkpt><trkpt lat="45.38560644502491" lon="7.717336594436975"><ele>343.0</ele><time>2026-04-26T13:52:31.998Z</time></trkpt><trkpt lat="45.38559769732613" lon="7.7172373019372795"><ele>343.0</ele><time>2026-04-26T13:52:32.998Z</time></trkpt><trkpt lat="45.385590154476624" lon="7.717091713254349"><ele>343.0</ele><time>2026-04-26T13:52:34.998Z</time></trkpt><trkpt lat="45.385404923836305" lon="7.71709470127528"><ele>343.0</ele><time>2026-04-26T13:52:36.998Z</time></trkpt><trkpt lat="45.385338540401726" lon="7.717118078821302"><ele>343.0</ele><time>2026-04-26T13:52:37.998Z</time></trkpt><trkpt lat="45.38527243764518" lon="7.7171454069246685"><ele>343.0</ele><time>2026-04-26T13:52:38.998Z</time></trkpt><trkpt lat="45.385202010875545" lon="7.717174317486498"><ele>343.0</ele><time>2026-04-26T13:52:39.998Z</time></trkpt><trkpt lat="45.3851305802803" lon="7.7172007001060985"><ele>343.0</ele><time>2026-04-26T13:52:40.998Z</time></trkpt><trkpt lat="45.38506057480816" lon="7.7172294236912595"><ele>343.0</ele><time>2026-04-26T13:52:41.998Z</time></trkpt><trkpt lat="45.3849907494667" lon="7.717267043647466"><ele>343.0</ele><time>2026-04-26T13:52:42.998Z</time></trkpt><trkpt lat="45.38491710444097" lon="7.717292581682883"><ele>343.0</ele><time>2026-04-26T13:52:43.998Z</time></trkpt><trkpt lat="45.38483960754738" lon="7.717309708146193"><ele>343.0</ele><time>2026-04-26T13:52:44.997Z</time></trkpt><trkpt lat="45.384762646520144" lon="7.717332708924029"><ele>343.0</ele><time>2026-04-26T13:52:45.997Z</time></trkpt><trkpt lat="45.384688557430685" lon="7.717356655689631"><ele>343.0</ele><time>2026-04-26T13:52:46.997Z</time></trkpt><trkpt lat="45.3846247179819" lon="7.717369540014531"><ele>343.0</ele><time>2026-04-26T13:52:47.997Z</time></trkpt><trkpt lat="45.38453591940913" lon="7.717375986159538"><ele>343.0</ele><time>2026-04-26T13:52:48.997Z</time></trkpt><trkpt lat="45.3844608954781" lon="7.717384170878589"><ele>342.5</ele><time>2026-04-26T13:52:49.997Z</time></trkpt><trkpt lat="45.384382609859564" lon="7.717387840148626"><ele>342.0</ele><time>2026-04-26T13:52:50.999Z</time></trkpt><trkpt lat="45.38430060990187" lon="7.717393839737524"><ele>341.5</ele><time>2026-04-26T13:52:51.999Z</time></trkpt><trkpt lat="45.38421817776028" lon="7.717406002213259"><ele>341.0</ele><time>2026-04-26T13:52:52.999Z</time></trkpt><trkpt lat="45.384138568928286" lon="7.7174106184692315"><ele>340.5</ele><time>2026-04-26T13:52:53.999Z</time></trkpt><trkpt lat="45.384064988747774" lon="7.7173997031496135"><ele>340.0</ele><time>2026-04-26T13:52:54.999Z</time></trkpt><trkpt lat="45.383995668266536" lon="7.717401780527189"><ele>340.0</ele><time>2026-04-26T13:52:55.999Z</time></trkpt><trkpt lat="45.38392445586294" lon="7.717409652816038"><ele>340.0</ele><time>2026-04-26T13:52:56.999Z</time></trkpt><trkpt lat="45.383848053442165" lon="7.717407852300709"><ele>340.0</ele><time>2026-04-26T13:52:57.999Z</time></trkpt><trkpt lat="45.38376616017057" lon="7.717408045512099"><ele>340.0</ele><time>2026-04-26T13:52:58.999Z</time></trkpt><trkpt lat="45.38368681087701" lon="7.717415537175112"><ele>340.0</ele><time>2026-04-26T13:52:59.999Z</time></trkpt><trkpt lat="45.38361409111346" lon="7.717412975391393"><ele>340.0</ele><time>2026-04-26T13:53:00.999Z</time></trkpt><trkpt lat="45.38354883965447" lon="7.717410083729966"><ele>340.0</ele><time>2026-04-26T13:53:01.999Z</time></trkpt><trkpt lat="45.38342703967951" lon="7.717417142098812"><ele>339.8333333333333</ele><time>2026-04-26T13:53:03.999Z</time></trkpt><trkpt lat="45.383334331878295" lon="7.717414332068608"><ele>339.66666666666663</ele><time>2026-04-26T13:53:05.999Z</time></trkpt><trkpt lat="45.3832615180322" lon="7.717417841978521"><ele>339.5</ele><time>2026-04-26T13:53:07.999Z</time></trkpt><trkpt lat="45.38319532247434" lon="7.717415204018515"><ele>339.3333333333333</ele><time>2026-04-26T13:53:10.999Z</time></trkpt><trkpt lat="45.38310648519173" lon="7.717415199042629"><ele>339.1666666666667</ele><time>2026-04-26T13:53:35.999Z</time></trkpt><trkpt lat="45.383019236860264" lon="7.7174274330478765"><ele>339.0</ele><time>2026-04-26T13:53:37.999Z</time></trkpt><trkpt lat="45.38293021329587" lon="7.717433613916783"><ele>339.0</ele><time>2026-04-26T13:53:39.999Z</time></trkpt><trkpt lat="45.38286668411484" lon="7.717345650896131"><ele>339.0</ele><time>2026-04-26T13:53:41.999Z</time></trkpt><trkpt lat="45.38287362595715" lon="7.717211430204553"><ele>339.0</ele><time>2026-04-26T13:53:43.999Z</time></trkpt><trkpt lat="45.38287645928649" lon="7.717078699692788"><ele>339.0</ele><time>2026-04-26T13:53:45.999Z</time></trkpt><trkpt lat="45.38287844610908" lon="7.7169377800723025"><ele>339.0</ele><time>2026-04-26T13:53:47.999Z</time></trkpt><trkpt lat="45.382881588507914" lon="7.7167895068246235"><ele>339.6</ele><time>2026-04-26T13:53:49.999Z</time></trkpt><trkpt lat="45.38288222751102" lon="7.716623246282129"><ele>340.2</ele><time>2026-04-26T13:53:51.999Z</time></trkpt><trkpt lat="45.382886213595945" lon="7.7165282927401"><ele>340.8</ele><time>2026-04-26T13:53:52.999Z</time></trkpt><trkpt lat="45.38288577518351" lon="7.716427988762583"><ele>341.40000000000003</ele><time>2026-04-26T13:53:53.999Z</time></trkpt><trkpt lat="45.38289807202282" lon="7.716255966303938"><ele>342.0</ele><time>2026-04-26T13:53:55.999Z</time></trkpt><trkpt lat="45.382899083384245" lon="7.716104118689378"><ele>342.0</ele><time>2026-04-26T13:53:57.998Z</time></trkpt><trkpt lat="45.38290752444354" lon="7.715973520180835"><ele>342.0</ele><time>2026-04-26T13:53:59.998Z</time></trkpt><trkpt lat="45.38290439987574" lon="7.715826477949738"><ele>342.0</ele><time>2026-04-26T13:54:01.998Z</time></trkpt><trkpt lat="45.38291753822951" lon="7.715706183567364"><ele>342.0</ele><time>2026-04-26T13:54:03.998Z</time></trkpt><trkpt lat="45.382921376751824" lon="7.71561054035831"><ele>342.0</ele><time>2026-04-26T13:54:05.998Z</time></trkpt><trkpt lat="45.3829142765902" lon="7.715489154889426"><ele>342.0</ele><time>2026-04-26T13:54:08.998Z</time></trkpt><trkpt lat="45.3828050544124" lon="7.715483524436773"><ele>342.0</ele><time>2026-04-26T13:54:09.998Z</time></trkpt><trkpt lat="45.38271881562022" lon="7.715507001482181"><ele>342.0</ele><time>2026-04-26T13:54:11.998Z</time></trkpt><trkpt lat="45.38260329751441" lon="7.715525287309317"><ele>342.0</ele><time>2026-04-26T13:54:13.998Z</time></trkpt><trkpt lat="45.38249556363788" lon="7.715530084811737"><ele>342.0</ele><time>2026-04-26T13:54:15.998Z</time></trkpt><trkpt lat="45.38240842570977" lon="7.715524030562108"><ele>342.0</ele><time>2026-04-26T13:54:17.998Z</time></trkpt><trkpt lat="45.38231546920735" lon="7.715527925444968"><ele>342.0</ele><time>2026-04-26T13:54:19.998Z</time></trkpt><trkpt lat="45.38222985687182" lon="7.715534394660908"><ele>342.0</ele><time>2026-04-26T13:54:21.998Z</time></trkpt><trkpt lat="45.38213687078052" lon="7.715532825949758"><ele>342.0</ele><time>2026-04-26T13:54:23.998Z</time></trkpt><trkpt lat="45.382050969921444" lon="7.715532593467815"><ele>342.0</ele><time>2026-04-26T13:54:25.998Z</time></trkpt><trkpt lat="45.38197422856512" lon="7.7155327404422245"><ele>342.0</ele><time>2026-04-26T13:54:27.998Z</time></trkpt><trkpt lat="45.381896595304376" lon="7.715536946632615"><ele>342.0</ele><time>2026-04-26T13:54:29.998Z</time></trkpt><trkpt lat="45.38181886780196" lon="7.7155479256918165"><ele>341.8333333333333</ele><time>2026-04-26T13:54:31.998Z</time></trkpt><trkpt lat="45.38175523216388" lon="7.715543058985297"><ele>341.6666666666667</ele><time>2026-04-26T13:54:33.998Z</time></trkpt><trkpt lat="45.381688826554495" lon="7.715554486510856"><ele>341.5</ele><time>2026-04-26T13:54:35.998Z</time></trkpt><trkpt lat="45.38160689262779" lon="7.715560645630527"><ele>341.33333333333337</ele><time>2026-04-26T13:54:37.998Z</time></trkpt><trkpt lat="45.38151473893684" lon="7.715571279895943"><ele>341.1666666666667</ele><time>2026-04-26T13:54:39.998Z</time></trkpt><trkpt lat="45.381441956310674" lon="7.715593324344153"><ele>341.0</ele><time>2026-04-26T13:54:40.998Z</time></trkpt><trkpt lat="45.38136879462794" lon="7.7156179675047065"><ele>340.7142857142857</ele><time>2026-04-26T13:54:41.998Z</time></trkpt><trkpt lat="45.381285618817955" lon="7.715617021505397"><ele>340.42857142857144</ele><time>2026-04-26T13:54:42.998Z</time></trkpt><trkpt lat="45.381199720803004" lon="7.715633677398421"><ele>340.1428571428571</ele><time>2026-04-26T13:54:43.998Z</time></trkpt><trkpt lat="45.381126960213216" lon="7.71563493679319"><ele>339.8571428571429</ele><time>2026-04-26T13:54:44.998Z</time></trkpt><trkpt lat="45.38105930537269" lon="7.715621147687303"><ele>339.5714285714286</ele><time>2026-04-26T13:54:45.998Z</time></trkpt><trkpt lat="45.380992496427204" lon="7.7156092408532"><ele>339.2857142857143</ele><time>2026-04-26T13:54:46.998Z</time></trkpt><trkpt lat="45.38092833587444" lon="7.715614937178434"><ele>339.0</ele><time>2026-04-26T13:54:47.998Z</time></trkpt><trkpt lat="45.38082441269067" lon="7.715610966883989"><ele>339.0</ele><time>2026-04-26T13:54:49.997Z</time></trkpt><trkpt lat="45.38074099481284" lon="7.715627216789923"><ele>339.0</ele><time>2026-04-26T13:54:51.997Z</time></trkpt><trkpt lat="45.38066103053725" lon="7.715650697425186"><ele>339.0</ele><time>2026-04-26T13:54:53.997Z</time></trkpt><trkpt lat="45.38057173643865" lon="7.715692351032609"><ele>339.0</ele><time>2026-04-26T13:54:55.999Z</time></trkpt><trkpt lat="45.38045656661343" lon="7.715702472251802"><ele>339.0</ele><time>2026-04-26T13:54:57.999Z</time></trkpt><trkpt lat="45.380386197971895" lon="7.71570458066087"><ele>339.0</ele><time>2026-04-26T13:54:58.999Z</time></trkpt><trkpt lat="45.38030183518692" lon="7.715696602966054"><ele>338.7142857142857</ele><time>2026-04-26T13:54:59.999Z</time></trkpt><trkpt lat="45.3802228576849" lon="7.715689806103466"><ele>338.42857142857144</ele><time>2026-04-26T13:55:00.999Z</time></trkpt><trkpt lat="45.38014825443238" lon="7.715687687139174"><ele>338.14285714285717</ele><time>2026-04-26T13:55:01.999Z</time></trkpt><trkpt lat="45.380080572723664" lon="7.715676747984077"><ele>337.8571428571429</ele><time>2026-04-26T13:55:02.999Z</time></trkpt><trkpt lat="45.38000876760771" lon="7.715660761384631"><ele>337.57142857142856</ele><time>2026-04-26T13:55:03.999Z</time></trkpt><trkpt lat="45.379937293010954" lon="7.715652916774031"><ele>337.28571428571433</ele><time>2026-04-26T13:55:04.999Z</time></trkpt><trkpt lat="45.37986208513304" lon="7.715631929738259"><ele>337.0</ele><time>2026-04-26T13:55:05.999Z</time></trkpt><trkpt lat="45.37978688589813" lon="7.715606030592138"><ele>337.0</ele><time>2026-04-26T13:55:06.999Z</time></trkpt><trkpt lat="45.37970253174265" lon="7.715581022876639"><ele>337.0</ele><time>2026-04-26T13:55:07.999Z</time></trkpt><trkpt lat="45.37961743462222" lon="7.715558074601791"><ele>337.0</ele><time>2026-04-26T13:55:08.999Z</time></trkpt><trkpt lat="45.37952879107508" lon="7.715540954699668"><ele>337.0</ele><time>2026-04-26T13:55:09.999Z</time></trkpt><trkpt lat="45.37944427187534" lon="7.715532483864256"><ele>337.0</ele><time>2026-04-26T13:55:10.999Z</time></trkpt><trkpt lat="45.37937014121656" lon="7.7155210014105835"><ele>337.0</ele><time>2026-04-26T13:55:11.999Z</time></trkpt><trkpt lat="45.3792978127617" lon="7.715502587141407"><ele>337.5</ele><time>2026-04-26T13:55:12.999Z</time></trkpt><trkpt lat="45.37923462554961" lon="7.715491394333928"><ele>338.0</ele><time>2026-04-26T13:55:13.999Z</time></trkpt><trkpt lat="45.37917087218411" lon="7.715487068813314"><ele>338.5</ele><time>2026-04-26T13:55:14.999Z</time></trkpt><trkpt lat="45.37905666223257" lon="7.715471174759618"><ele>339.0</ele><time>2026-04-26T13:55:16.999Z</time></trkpt><trkpt lat="45.378977375854205" lon="7.715461935942569"><ele>339.5</ele><time>2026-04-26T13:55:18.999Z</time></trkpt><trkpt lat="45.3789362721698" lon="7.715391540263874"><ele>340.0</ele><time>2026-04-26T13:55:20.999Z</time></trkpt><trkpt lat="45.3789666313906" lon="7.715309866074089"><ele>339.5</ele><time>2026-04-26T13:55:22.999Z</time></trkpt><trkpt lat="45.3790406680264" lon="7.715184701032588"><ele>339.0</ele><time>2026-04-26T13:55:24.999Z</time></trkpt><trkpt lat="45.37908807037887" lon="7.715108922817205"><ele>338.5</ele><time>2026-04-26T13:55:25.999Z</time></trkpt><trkpt lat="45.379133345552546" lon="7.715040074751473"><ele>338.0</ele><time>2026-04-26T13:55:26.999Z</time></trkpt><trkpt lat="45.37917909589243" lon="7.714951532050484"><ele>337.5</ele><time>2026-04-26T13:55:27.999Z</time></trkpt><trkpt lat="45.37923669481733" lon="7.714848707769166"><ele>337.0</ele><time>2026-04-26T13:55:28.999Z</time></trkpt><trkpt lat="45.37929004217312" lon="7.714770025829637"><ele>337.0</ele><time>2026-04-26T13:55:29.999Z</time></trkpt><trkpt lat="45.379341380548006" lon="7.7146899909028015"><ele>337.0</ele><time>2026-04-26T13:55:30.999Z</time></trkpt><trkpt lat="45.37939038408193" lon="7.7145970311619685"><ele>337.0</ele><time>2026-04-26T13:55:31.999Z</time></trkpt><trkpt lat="45.37944346911245" lon="7.714508401603797"><ele>337.0</ele><time>2026-04-26T13:55:32.999Z</time></trkpt><trkpt lat="45.379509006348755" lon="7.714428697451373"><ele>337.0</ele><time>2026-04-26T13:55:33.999Z</time></trkpt><trkpt lat="45.379576552307896" lon="7.714366087726732"><ele>337.0</ele><time>2026-04-26T13:55:34.999Z</time></trkpt><trkpt lat="45.37964524143777" lon="7.714311255029778"><ele>337.28571428571433</ele><time>2026-04-26T13:55:35.999Z</time></trkpt><trkpt lat="45.37971090592541" lon="7.714255489009835"><ele>337.57142857142856</ele><time>2026-04-26T13:55:36.999Z</time></trkpt><trkpt lat="45.379777190029905" lon="7.714199748767914"><ele>337.8571428571429</ele><time>2026-04-26T13:55:37.999Z</time></trkpt><trkpt lat="45.37984120981069" lon="7.714137843669799"><ele>338.14285714285717</ele><time>2026-04-26T13:55:38.999Z</time></trkpt><trkpt lat="45.37989534528185" lon="7.714073903910524"><ele>338.42857142857144</ele><time>2026-04-26T13:55:39.999Z</time></trkpt><trkpt lat="45.37994243831754" lon="7.714000097687429"><ele>338.7142857142857</ele><time>2026-04-26T13:55:40.999Z</time></trkpt><trkpt lat="45.37998670120566" lon="7.713914114177627"><ele>339.0</ele><time>2026-04-26T13:55:41.999Z</time></trkpt><trkpt lat="45.380022901778524" lon="7.713822809318373"><ele>339.0</ele><time>2026-04-26T13:55:42.999Z</time></trkpt><trkpt lat="45.380049760826566" lon="7.713733495951754"><ele>339.0</ele><time>2026-04-26T13:55:43.999Z</time></trkpt><trkpt lat="45.380096360739714" lon="7.713587689477688"><ele>339.0</ele><time>2026-04-26T13:55:45.999Z</time></trkpt><trkpt lat="45.38012839396721" lon="7.713466396159169"><ele>339.0</ele><time>2026-04-26T13:55:47.999Z</time></trkpt><trkpt lat="45.380156576912405" lon="7.713359681521942"><ele>339.0</ele><time>2026-04-26T13:55:49.999Z</time></trkpt><trkpt lat="45.38016974654989" lon="7.713268889850129"><ele>339.0</ele><time>2026-04-26T13:55:52.999Z</time></trkpt><trkpt lat="45.3801962949118" lon="7.713180112537404"><ele>339.2</ele><time>2026-04-26T13:55:55.999Z</time></trkpt><trkpt lat="45.380065719163525" lon="7.713083921197162"><ele>339.4</ele><time>2026-04-26T13:55:59.999Z</time></trkpt><trkpt lat="45.379990842351695" lon="7.713090988160272"><ele>339.6</ele><time>2026-04-26T13:56:00.998Z</time></trkpt><trkpt lat="45.37992501072975" lon="7.713096136590127"><ele>339.8</ele><time>2026-04-26T13:56:01.998Z</time></trkpt><trkpt lat="45.37981763040596" lon="7.713080692464508"><ele>340.0</ele><time>2026-04-26T13:56:02.998Z</time></trkpt><trkpt lat="45.379651310006146" lon="7.713082863678541"><ele>340.3333333333333</ele><time>2026-04-26T13:56:03.998Z</time></trkpt><trkpt lat="45.37946593044497" lon="7.7130864738508516"><ele>340.6666666666667</ele><time>2026-04-26T13:56:04.998Z</time></trkpt><trkpt lat="45.379248436387975" lon="7.713114373296811"><ele>341.0</ele><time>2026-04-26T13:56:05.998Z</time></trkpt><trkpt lat="45.3790334237354" lon="7.713123376742843"><ele>340.33333333333337</ele><time>2026-04-26T13:56:06.998Z</time></trkpt><trkpt lat="45.37882962805198" lon="7.713132797823875"><ele>339.6666666666667</ele><time>2026-04-26T13:56:07.998Z</time></trkpt><trkpt lat="45.37864605539216" lon="7.713142730198814"><ele>339.0</ele><time>2026-04-26T13:56:08.998Z</time></trkpt><trkpt lat="45.378476190486" lon="7.713159673411748"><ele>339.0</ele><time>2026-04-26T13:56:09.998Z</time></trkpt><trkpt lat="45.3783183620676" lon="7.713179849006856"><ele>339.0</ele><time>2026-04-26T13:56:10.998Z</time></trkpt><trkpt lat="45.378165561828325" lon="7.7132001027692425"><ele>339.0</ele><time>2026-04-26T13:56:11.998Z</time></trkpt><trkpt lat="45.378023253082944" lon="7.7132147205545705"><ele>339.0</ele><time>2026-04-26T13:56:12.998Z</time></trkpt><trkpt lat="45.37788771071348" lon="7.713232412751347"><ele>339.0</ele><time>2026-04-26T13:56:13.998Z</time></trkpt><trkpt lat="45.377760724150995" lon="7.713246780133477"><ele>339.0</ele><time>2026-04-26T13:56:14.998Z</time></trkpt><trkpt lat="45.37763852771205" lon="7.7132634416109775"><ele>339.0</ele><time>2026-04-26T13:56:15.998Z</time></trkpt><trkpt lat="45.37752261025375" lon="7.713282763404438"><ele>339.0</ele><time>2026-04-26T13:56:16.998Z</time></trkpt><trkpt lat="45.377413443575115" lon="7.713292170304771"><ele>339.0</ele><time>2026-04-26T13:56:17.998Z</time></trkpt><trkpt lat="45.377309614514445" lon="7.713301178011141"><ele>339.0</ele><time>2026-04-26T13:56:18.998Z</time></trkpt><trkpt lat="45.3772102704288" lon="7.713314064618718"><ele>339.0</ele><time>2026-04-26T13:56:19.998Z</time></trkpt><trkpt lat="45.37710466090642" lon="7.713330956019489"><ele>339.0</ele><time>2026-04-26T13:56:20.998Z</time></trkpt><trkpt lat="45.377000053668525" lon="7.7133404167088475"><ele>339.0</ele><time>2026-04-26T13:56:21.998Z</time></trkpt><trkpt lat="45.376901163052196" lon="7.713346188634701"><ele>339.0</ele><time>2026-04-26T13:56:22.998Z</time></trkpt><trkpt lat="45.376803430154425" lon="7.7133610004094075"><ele>339.0</ele><time>2026-04-26T13:56:23.998Z</time></trkpt><trkpt lat="45.376710510062" lon="7.713379729362677"><ele>339.0</ele><time>2026-04-26T13:56:24.998Z</time></trkpt><trkpt lat="45.37661243337762" lon="7.713391035757338"><ele>339.0</ele><time>2026-04-26T13:56:25.998Z</time></trkpt><trkpt lat="45.376511638191694" lon="7.713396020307139"><ele>339.0</ele><time>2026-04-26T13:56:26.998Z</time></trkpt><trkpt lat="45.37640730888161" lon="7.713400430380763"><ele>339.0</ele><time>2026-04-26T13:56:27.998Z</time></trkpt><trkpt lat="45.37631584480623" lon="7.713416636925379"><ele>339.0</ele><time>2026-04-26T13:56:28.998Z</time></trkpt><trkpt lat="45.37622290313098" lon="7.7134361924355375"><ele>339.0</ele><time>2026-04-26T13:56:29.998Z</time></trkpt><trkpt lat="45.37613498418086" lon="7.713447422693958"><ele>339.0</ele><time>2026-04-26T13:56:30.998Z</time></trkpt><trkpt lat="45.376051712486074" lon="7.7134521523730095"><ele>339.1428571428571</ele><time>2026-04-26T13:56:31.998Z</time></trkpt><trkpt lat="45.375974592621105" lon="7.71347053249654"><ele>339.28571428571433</ele><time>2026-04-26T13:56:32.998Z</time></trkpt><trkpt lat="45.37589958140122" lon="7.713487526004206"><ele>339.42857142857144</ele><time>2026-04-26T13:56:33.998Z</time></trkpt><trkpt lat="45.37583068954434" lon="7.713489606065964"><ele>339.57142857142856</ele><time>2026-04-26T13:56:34.998Z</time></trkpt><trkpt lat="45.37576587825819" lon="7.713467572502692"><ele>339.71428571428567</ele><time>2026-04-26T13:56:35.998Z</time></trkpt><trkpt lat="45.37569472197455" lon="7.713405697292526"><ele>339.8571428571429</ele><time>2026-04-26T13:56:37.998Z</time></trkpt><trkpt lat="45.37565964591708" lon="7.713327620578825"><ele>340.0</ele><time>2026-04-26T13:56:39.998Z</time></trkpt><trkpt lat="45.37563101763612" lon="7.713244227216424"><ele>340.0</ele><time>2026-04-26T13:56:40.998Z</time></trkpt><trkpt lat="45.37560562867982" lon="7.713146856927973"><ele>340.0</ele><time>2026-04-26T13:56:41.998Z</time></trkpt><trkpt lat="45.37559299830176" lon="7.713044285560804"><ele>340.0</ele><time>2026-04-26T13:56:42.998Z</time></trkpt><trkpt lat="45.375613340685305" lon="7.712918510874249"><ele>340.0</ele><time>2026-04-26T13:56:43.998Z</time></trkpt><trkpt lat="45.3756076980218" lon="7.712765818419413"><ele>340.0</ele><time>2026-04-26T13:56:44.998Z</time></trkpt><trkpt lat="45.37563271082863" lon="7.71261888716593"><ele>340.2</ele><time>2026-04-26T13:56:45.998Z</time></trkpt><trkpt lat="45.37566747746012" lon="7.7124805974188755"><ele>340.4</ele><time>2026-04-26T13:56:46.998Z</time></trkpt><trkpt lat="45.37571726713009" lon="7.712329210290609"><ele>340.6</ele><time>2026-04-26T13:56:47.998Z</time></trkpt><trkpt lat="45.375761476742404" lon="7.712205718470446"><ele>340.8</ele><time>2026-04-26T13:56:48.998Z</time></trkpt><trkpt lat="45.375849402299956" lon="7.712088252611756"><ele>341.0</ele><time>2026-04-26T13:56:49.998Z</time></trkpt><trkpt lat="45.37593839703175" lon="7.711961620452656"><ele>341.0</ele><time>2026-04-26T13:56:50.998Z</time></trkpt><trkpt lat="45.37601582140615" lon="7.711834329778832"><ele>341.0</ele><time>2026-04-26T13:56:51.998Z</time></trkpt><trkpt lat="45.376107662759715" lon="7.711738000651056"><ele>341.0</ele><time>2026-04-26T13:56:52.998Z</time></trkpt><trkpt lat="45.37620232096393" lon="7.711648131978778"><ele>341.0</ele><time>2026-04-26T13:56:53.997Z</time></trkpt><trkpt lat="45.37630407147518" lon="7.711538270955502"><ele>341.25</ele><time>2026-04-26T13:56:54.997Z</time></trkpt><trkpt lat="45.376401133713756" lon="7.711429929715291"><ele>341.5</ele><time>2026-04-26T13:56:55.997Z</time></trkpt><trkpt lat="45.376505703772274" lon="7.711320184803905"><ele>341.75</ele><time>2026-04-26T13:56:56.997Z</time></trkpt><trkpt lat="45.376615079988746" lon="7.711211356181321"><ele>342.0</ele><time>2026-04-26T13:56:57.997Z</time></trkpt><trkpt lat="45.3767247926407" lon="7.711097185818933"><ele>342.0</ele><time>2026-04-26T13:56:58.997Z</time></trkpt><trkpt lat="45.376834474448714" lon="7.7109747644316045"><ele>342.0</ele><time>2026-04-26T13:56:59.997Z</time></trkpt><trkpt lat="45.37694671638177" lon="7.710861039495341"><ele>342.0</ele><time>2026-04-26T13:57:00.999Z</time></trkpt><trkpt lat="45.377064513299615" lon="7.710751159180081"><ele>342.0</ele><time>2026-04-26T13:57:01.999Z</time></trkpt><trkpt lat="45.377181339168885" lon="7.710632920315922"><ele>342.0</ele><time>2026-04-26T13:57:02.999Z</time></trkpt><trkpt lat="45.37729952372058" lon="7.710508905921077"><ele>342.0</ele><time>2026-04-26T13:57:03.999Z</time></trkpt><trkpt lat="45.37740978731988" lon="7.710391172774005"><ele>342.0</ele><time>2026-04-26T13:57:04.999Z</time></trkpt><trkpt lat="45.377519072116435" lon="7.710277977790156"><ele>342.0</ele><time>2026-04-26T13:57:05.999Z</time></trkpt><trkpt lat="45.377634150126966" lon="7.71016540202657"><ele>342.0</ele><time>2026-04-26T13:57:06.999Z</time></trkpt><trkpt lat="45.37775152866654" lon="7.710048098240017"><ele>342.0</ele><time>2026-04-26T13:57:07.999Z</time></trkpt><trkpt lat="45.37787080765079" lon="7.709925390198754"><ele>342.0</ele><time>2026-04-26T13:57:08.999Z</time></trkpt><trkpt lat="45.377995099902854" lon="7.709811973357896"><ele>342.0</ele><time>2026-04-26T13:57:09.999Z</time></trkpt><trkpt lat="45.37811766465816" lon="7.709709373291633"><ele>342.0</ele><time>2026-04-26T13:57:10.999Z</time></trkpt><trkpt lat="45.37823257748634" lon="7.709621724799087"><ele>342.0</ele><time>2026-04-26T13:57:11.999Z</time></trkpt><trkpt lat="45.378345910166075" lon="7.709528151954368"><ele>342.0</ele><time>2026-04-26T13:57:12.999Z</time></trkpt><trkpt lat="45.37845667519173" lon="7.709432462034504"><ele>342.0</ele><time>2026-04-26T13:57:13.999Z</time></trkpt><trkpt lat="45.378570574097054" lon="7.7093363470581515"><ele>342.0</ele><time>2026-04-26T13:57:14.999Z</time></trkpt><trkpt lat="45.3786998930987" lon="7.70926521609516"><ele>342.0</ele><time>2026-04-26T13:57:15.999Z</time></trkpt><trkpt lat="45.37883000804343" lon="7.70917647391434"><ele>342.0</ele><time>2026-04-26T13:57:16.999Z</time></trkpt><trkpt lat="45.37895877943589" lon="7.709074134358675"><ele>342.0</ele><time>2026-04-26T13:57:17.999Z</time></trkpt><trkpt lat="45.37909395375769" lon="7.70899204452065"><ele>342.0</ele><time>2026-04-26T13:57:18.999Z</time></trkpt><trkpt lat="45.37921671707515" lon="7.708907346275394"><ele>342.0</ele><time>2026-04-26T13:57:19.999Z</time></trkpt><trkpt lat="45.37933555000173" lon="7.708826015654203"><ele>342.0</ele><time>2026-04-26T13:57:20.999Z</time></trkpt><trkpt lat="45.37945296855779" lon="7.70874515736726"><ele>342.0</ele><time>2026-04-26T13:57:21.999Z</time></trkpt><trkpt lat="45.37957033972262" lon="7.708665864291375"><ele>342.0</ele><time>2026-04-26T13:57:22.999Z</time></trkpt><trkpt lat="45.37968536638352" lon="7.708589821061149"><ele>342.0</ele><time>2026-04-26T13:57:23.999Z</time></trkpt><trkpt lat="45.37979448372945" lon="7.708516308800365"><ele>342.0</ele><time>2026-04-26T13:57:24.999Z</time></trkpt><trkpt lat="45.37989908683812" lon="7.7084438960601025"><ele>342.0</ele><time>2026-04-26T13:57:25.999Z</time></trkpt><trkpt lat="45.37999838902486" lon="7.708374290133028"><ele>342.75</ele><time>2026-04-26T13:57:26.999Z</time></trkpt><trkpt lat="45.38010107853489" lon="7.70829974265645"><ele>343.5</ele><time>2026-04-26T13:57:27.999Z</time></trkpt><trkpt lat="45.38021095253801" lon="7.708225892688715"><ele>344.25</ele><time>2026-04-26T13:57:28.999Z</time></trkpt><trkpt lat="45.380320958101876" lon="7.708154692416988"><ele>345.0</ele><time>2026-04-26T13:57:29.999Z</time></trkpt><trkpt lat="45.38042543509146" lon="7.7080819459061765"><ele>344.8</ele><time>2026-04-26T13:57:30.999Z</time></trkpt><trkpt lat="45.38052481683193" lon="7.708014904287151"><ele>344.6</ele><time>2026-04-26T13:57:31.999Z</time></trkpt><trkpt lat="45.380618184028954" lon="7.7079507254548565"><ele>344.4</ele><time>2026-04-26T13:57:32.999Z</time></trkpt><trkpt lat="45.38070475127291" lon="7.707889237691083"><ele>344.2</ele><time>2026-04-26T13:57:33.999Z</time></trkpt><trkpt lat="45.38078538027866" lon="7.7078334233864725"><ele>344.0</ele><time>2026-04-26T13:57:34.999Z</time></trkpt><trkpt lat="45.38086281902762" lon="7.707783437577568"><ele>343.83333333333337</ele><time>2026-04-26T13:57:35.999Z</time></trkpt><trkpt lat="45.38093589325198" lon="7.707739873394138"><ele>343.6666666666667</ele><time>2026-04-26T13:57:36.999Z</time></trkpt><trkpt lat="45.38100381397183" lon="7.707692301217858"><ele>343.5</ele><time>2026-04-26T13:57:37.999Z</time></trkpt><trkpt lat="45.38110191960184" lon="7.70761846278676"><ele>343.3333333333333</ele><time>2026-04-26T13:57:39.999Z</time></trkpt><trkpt lat="45.38117147166942" lon="7.7075721125022785"><ele>343.16666666666663</ele><time>2026-04-26T13:57:41.999Z</time></trkpt><trkpt lat="45.38125915346676" lon="7.707517521969586"><ele>343.0</ele><time>2026-04-26T13:57:52.999Z</time></trkpt><trkpt lat="45.3813665151827" lon="7.707476154374268"><ele>343.0</ele><time>2026-04-26T13:57:54.999Z</time></trkpt><trkpt lat="45.38147593523895" lon="7.7074683061270255"><ele>343.0</ele><time>2026-04-26T13:57:56.999Z</time></trkpt><trkpt lat="45.38154223017663" lon="7.70747687026418"><ele>343.0</ele><time>2026-04-26T13:57:57.999Z</time></trkpt><trkpt lat="45.3816184140065" lon="7.707460821462724"><ele>343.0</ele><time>2026-04-26T13:57:58.999Z</time></trkpt><trkpt lat="45.38170951925642" lon="7.707462184441473"><ele>343.0</ele><time>2026-04-26T13:57:59.999Z</time></trkpt><trkpt lat="45.38178750057533" lon="7.70738884908778"><ele>343.0</ele><time>2026-04-26T13:58:00.999Z</time></trkpt><trkpt lat="45.38182935381859" lon="7.707308837744455"><ele>343.0</ele><time>2026-04-26T13:58:01.998Z</time></trkpt><trkpt lat="45.38182597267829" lon="7.70720954923581"><ele>343.0</ele><time>2026-04-26T13:58:03.998Z</time></trkpt><trkpt lat="45.38182764775845" lon="7.707099825015682"><ele>343.0</ele><time>2026-04-26T13:58:11.998Z</time></trkpt><trkpt lat="45.38193280553337" lon="7.707065485975874"><ele>343.0</ele><time>2026-04-26T13:58:12.998Z</time></trkpt><trkpt lat="45.38206985304701" lon="7.706981772238316"><ele>343.0</ele><time>2026-04-26T13:58:14.998Z</time></trkpt><trkpt lat="45.382158079821124" lon="7.706920027043928"><ele>343.3333333333333</ele><time>2026-04-26T13:58:15.998Z</time></trkpt><trkpt lat="45.38223406015449" lon="7.706863352821876"><ele>343.66666666666663</ele><time>2026-04-26T13:58:16.998Z</time></trkpt><trkpt lat="45.38231308710272" lon="7.706811104345517"><ele>344.0</ele><time>2026-04-26T13:58:17.998Z</time></trkpt><trkpt lat="45.38239790801086" lon="7.70675640896419"><ele>344.3333333333333</ele><time>2026-04-26T13:58:18.998Z</time></trkpt><trkpt lat="45.38248174403915" lon="7.706696559186573"><ele>344.6666666666667</ele><time>2026-04-26T13:58:19.998Z</time></trkpt><trkpt lat="45.38255693622107" lon="7.706643980274447"><ele>345.0</ele><time>2026-04-26T13:58:20.998Z</time></trkpt><trkpt lat="45.38262950789247" lon="7.706597531845945"><ele>345.0</ele><time>2026-04-26T13:58:21.998Z</time></trkpt><trkpt lat="45.38269418001281" lon="7.706565992167701"><ele>345.0</ele><time>2026-04-26T13:58:22.998Z</time></trkpt><trkpt lat="45.382762289324724" lon="7.706567261983512"><ele>345.0</ele><time>2026-04-26T13:58:23.998Z</time></trkpt><trkpt lat="45.38282079922816" lon="7.706610460608582"><ele>345.0</ele><time>2026-04-26T13:58:24.998Z</time></trkpt><trkpt lat="45.38288647571708" lon="7.706652433702408"><ele>345.0</ele><time>2026-04-26T13:58:25.998Z</time></trkpt><trkpt lat="45.382960579349074" lon="7.70668229489522"><ele>345.0</ele><time>2026-04-26T13:58:26.998Z</time></trkpt><trkpt lat="45.383041244888496" lon="7.706718444454606"><ele>345.0</ele><time>2026-04-26T13:58:27.998Z</time></trkpt><trkpt lat="45.383129870526396" lon="7.706770610107573"><ele>345.4</ele><time>2026-04-26T13:58:28.998Z</time></trkpt><trkpt lat="45.38322353224845" lon="7.7068318033888845"><ele>345.8</ele><time>2026-04-26T13:58:29.998Z</time></trkpt><trkpt lat="45.38330741653043" lon="7.706893096232752"><ele>346.20000000000005</ele><time>2026-04-26T13:58:30.998Z</time></trkpt><trkpt lat="45.38338790455822" lon="7.70696418411645"><ele>346.6</ele><time>2026-04-26T13:58:31.998Z</time></trkpt><trkpt lat="45.3834742545004" lon="7.70704730682281"><ele>347.0</ele><time>2026-04-26T13:58:32.998Z</time></trkpt><trkpt lat="45.38356417179058" lon="7.707113747031527"><ele>347.0</ele><time>2026-04-26T13:58:33.998Z</time></trkpt><trkpt lat="45.383654577360446" lon="7.7071824009445535"><ele>347.0</ele><time>2026-04-26T13:58:34.998Z</time></trkpt><trkpt lat="45.38373005814372" lon="7.707246926908106"><ele>347.0</ele><time>2026-04-26T13:58:35.998Z</time></trkpt><trkpt lat="45.383801308818335" lon="7.707312201144097"><ele>347.0</ele><time>2026-04-26T13:58:36.998Z</time></trkpt><trkpt lat="45.383869350295704" lon="7.707369977880125"><ele>347.0</ele><time>2026-04-26T13:58:37.998Z</time></trkpt><trkpt lat="45.38394775993995" lon="7.70743142574216"><ele>347.0</ele><time>2026-04-26T13:58:38.998Z</time></trkpt><trkpt lat="45.384022955191234" lon="7.70750263728873"><ele>346.8</ele><time>2026-04-26T13:58:39.998Z</time></trkpt><trkpt lat="45.38411243266654" lon="7.70759009104334"><ele>346.6</ele><time>2026-04-26T13:58:40.998Z</time></trkpt><trkpt lat="45.38420964731161" lon="7.707673527817461"><ele>346.40000000000003</ele><time>2026-04-26T13:58:41.998Z</time></trkpt><trkpt lat="45.38428560887841" lon="7.707741423174088"><ele>346.20000000000005</ele><time>2026-04-26T13:58:42.998Z</time></trkpt><trkpt lat="45.38436093197005" lon="7.7078124693692605"><ele>346.0</ele><time>2026-04-26T13:58:43.998Z</time></trkpt><trkpt lat="45.3844304439661" lon="7.707878211307451"><ele>346.0</ele><time>2026-04-26T13:58:44.998Z</time></trkpt><trkpt lat="45.38449042977839" lon="7.707951085856037"><ele>346.0</ele><time>2026-04-26T13:58:45.998Z</time></trkpt><trkpt lat="45.384551328859864" lon="7.7080116599710555"><ele>346.0</ele><time>2026-04-26T13:58:46.998Z</time></trkpt><trkpt lat="45.38460051230315" lon="7.70807990338768"><ele>346.0</ele><time>2026-04-26T13:58:47.998Z</time></trkpt><trkpt lat="45.384690315144766" lon="7.7081974008000085"><ele>346.0</ele><time>2026-04-26T13:58:49.998Z</time></trkpt><trkpt lat="45.38474012398424" lon="7.708331796747429"><ele>346.6</ele><time>2026-04-26T13:58:51.998Z</time></trkpt><trkpt lat="45.38475289469068" lon="7.708484010609084"><ele>347.20000000000005</ele><time>2026-04-26T13:58:53.998Z</time></trkpt><trkpt lat="45.384769546246886" lon="7.708609043258721"><ele>347.79999999999995</ele><time>2026-04-26T13:58:55.997Z</time></trkpt><trkpt lat="45.38475340079772" lon="7.70871137676968"><ele>348.4</ele><time>2026-04-26T13:59:00.997Z</time></trkpt><trkpt lat="45.384624956637914" lon="7.708791393348833"><ele>349.0</ele><time>2026-04-26T13:59:03.997Z</time></trkpt><trkpt lat="45.38454150622323" lon="7.708845890425933"><ele>349.2</ele><time>2026-04-26T13:59:05.999Z</time></trkpt><trkpt lat="45.384451295482926" lon="7.708910037776148"><ele>349.4</ele><time>2026-04-26T13:59:07.999Z</time></trkpt><trkpt lat="45.3843606592462" lon="7.708982131082731"><ele>349.6</ele><time>2026-04-26T13:59:09.999Z</time></trkpt><trkpt lat="45.38428532949399" lon="7.7090779611033335"><ele>349.8</ele><time>2026-04-26T13:59:11.999Z</time></trkpt><trkpt lat="45.384234802377094" lon="7.709152864897546"><ele>350.0</ele><time>2026-04-26T13:59:13.999Z</time></trkpt><trkpt lat="45.38425629931812" lon="7.7093299992892055"><ele>350.0</ele><time>2026-04-26T13:59:49Z</time></trkpt><trkpt lat="45.38432619055221" lon="7.709420990205164"><ele>353.0</ele><time>2026-04-26T14:00:01Z</time></trkpt><trkpt lat="45.38439938192533" lon="7.709462116896678"><ele>353.0</ele><time>2026-04-26T14:00:03Z</time></trkpt><trkpt lat="45.384480594365684" lon="7.709448489230634"><ele>353.0</ele><time>2026-04-26T14:01:09.998Z</time></trkpt></trkseg></trk></gpx>